<?xml version="1.0" encoding="UTF-8" standalone="no" ?>
<gpx xmlns="http://www.topografix.com/GPX/1/1" xmlns:xsi="http://www.w3.org/2001/XMLSchema-instance" xsi:schemaLocation="http://www.topografix.com/GPX/1/1 http://www.topografix.com/GPX/1/1/gpx.xsd" version="1.1" creator="VisuGPX - https://www.visugpx.com">
  <metadata>
    <name>La croisée des Monts du lyonnais</name>
  </metadata>
  <trk>
    <name><![CDATA[La croisée des Monts du lyonnais]]></name>
    <extensions>
      <line xmlns="http://www.topografix.com/GPX/gpx_style/0/2">
        <color>0000FF</color>
        <width>4</width>
      </line>
    </extensions>
    <trkseg>
      <trkpt lat="45.6577" lon="4.55629">
        <ele>689</ele>
        <time>2014-05-01T05:53:06Z</time>
      </trkpt>
      <trkpt lat="45.6577" lon="4.55626">
        <ele>689</ele>
        <time>2014-05-01T05:53:08Z</time>
      </trkpt>
      <trkpt lat="45.65769" lon="4.55623">
        <ele>689</ele>
        <time>2014-05-01T05:53:10Z</time>
      </trkpt>
      <trkpt lat="45.65769" lon="4.55619">
        <ele>689</ele>
        <time>2014-05-01T05:53:21Z</time>
      </trkpt>
      <trkpt lat="45.65768" lon="4.55616">
        <ele>689</ele>
        <time>2014-05-01T05:53:23Z</time>
      </trkpt>
      <trkpt lat="45.65768" lon="4.55615">
        <ele>689</ele>
        <time>2014-05-01T05:53:25Z</time>
      </trkpt>
      <trkpt lat="45.65767" lon="4.55612">
        <ele>689</ele>
        <time>2014-05-01T05:57:58Z</time>
      </trkpt>
      <trkpt lat="45.65768" lon="4.55609">
        <ele>689</ele>
        <time>2014-05-01T05:58:00Z</time>
      </trkpt>
      <trkpt lat="45.65769" lon="4.55606">
        <ele>689</ele>
        <time>2014-05-01T05:58:02Z</time>
      </trkpt>
      <trkpt lat="45.6577" lon="4.55602">
        <ele>689</ele>
        <time>2014-05-01T05:58:04Z</time>
      </trkpt>
      <trkpt lat="45.65772" lon="4.55597">
        <ele>689</ele>
        <time>2014-05-01T05:58:06Z</time>
      </trkpt>
      <trkpt lat="45.65774" lon="4.55593">
        <ele>687.5</ele>
        <time>2014-05-01T05:58:08Z</time>
      </trkpt>
      <trkpt lat="45.65775" lon="4.55589">
        <ele>686.8</ele>
        <time>2014-05-01T05:58:10Z</time>
      </trkpt>
      <trkpt lat="45.65776" lon="4.55584">
        <ele>686.2</ele>
        <time>2014-05-01T05:58:12Z</time>
      </trkpt>
      <trkpt lat="45.65775" lon="4.55576">
        <ele>685</ele>
        <time>2014-05-01T05:58:14Z</time>
      </trkpt>
      <trkpt lat="45.65776" lon="4.55566">
        <ele>683.4</ele>
        <time>2014-05-01T05:58:16Z</time>
      </trkpt>
      <trkpt lat="45.65775" lon="4.55556">
        <ele>682.7</ele>
        <time>2014-05-01T05:58:18Z</time>
      </trkpt>
      <trkpt lat="45.65777" lon="4.55547">
        <ele>682.1</ele>
        <time>2014-05-01T05:58:20Z</time>
      </trkpt>
      <trkpt lat="45.65782" lon="4.55547">
        <ele>682.1</ele>
        <time>2014-05-01T05:58:22Z</time>
      </trkpt>
      <trkpt lat="45.65783" lon="4.55554">
        <ele>682.6</ele>
        <time>2014-05-01T05:58:24Z</time>
      </trkpt>
      <trkpt lat="45.65784" lon="4.55562">
        <ele>683.1</ele>
        <time>2014-05-01T05:58:26Z</time>
      </trkpt>
      <trkpt lat="45.65783" lon="4.5557">
        <ele>683.7</ele>
        <time>2014-05-01T05:58:28Z</time>
      </trkpt>
      <trkpt lat="45.65783" lon="4.55579">
        <ele>684.9</ele>
        <time>2014-05-01T05:58:30Z</time>
      </trkpt>
      <trkpt lat="45.65783" lon="4.55587">
        <ele>686.4</ele>
        <time>2014-05-01T05:58:32Z</time>
      </trkpt>
      <trkpt lat="45.65781" lon="4.55596">
        <ele>687.9</ele>
        <time>2014-05-01T05:58:34Z</time>
      </trkpt>
      <trkpt lat="45.6578" lon="4.55605">
        <ele>689</ele>
        <time>2014-05-01T05:58:36Z</time>
      </trkpt>
      <trkpt lat="45.65779" lon="4.55614">
        <ele>689</ele>
        <time>2014-05-01T05:58:38Z</time>
      </trkpt>
      <trkpt lat="45.6578" lon="4.55624">
        <ele>689</ele>
        <time>2014-05-01T05:58:40Z</time>
      </trkpt>
      <trkpt lat="45.65781" lon="4.55633">
        <ele>689</ele>
        <time>2014-05-01T05:58:42Z</time>
      </trkpt>
      <trkpt lat="45.65782" lon="4.55642">
        <ele>689</ele>
        <time>2014-05-01T05:58:44Z</time>
      </trkpt>
      <trkpt lat="45.65783" lon="4.55651">
        <ele>689</ele>
        <time>2014-05-01T05:58:46Z</time>
      </trkpt>
      <trkpt lat="45.65783" lon="4.55661">
        <ele>689</ele>
        <time>2014-05-01T05:58:48Z</time>
      </trkpt>
      <trkpt lat="45.65782" lon="4.5567">
        <ele>689.4</ele>
        <time>2014-05-01T05:58:50Z</time>
      </trkpt>
      <trkpt lat="45.65782" lon="4.55679">
        <ele>689.9</ele>
        <time>2014-05-01T05:58:52Z</time>
      </trkpt>
      <trkpt lat="45.65782" lon="4.55688">
        <ele>690.2</ele>
        <time>2014-05-01T05:58:54Z</time>
      </trkpt>
      <trkpt lat="45.65781" lon="4.55697">
        <ele>690.5</ele>
        <time>2014-05-01T05:58:56Z</time>
      </trkpt>
      <trkpt lat="45.65781" lon="4.55707">
        <ele>690.8</ele>
        <time>2014-05-01T05:58:58Z</time>
      </trkpt>
      <trkpt lat="45.6578" lon="4.55716">
        <ele>691.2</ele>
        <time>2014-05-01T05:59:00Z</time>
      </trkpt>
      <trkpt lat="45.6578" lon="4.55725">
        <ele>691.5</ele>
        <time>2014-05-01T05:59:02Z</time>
      </trkpt>
      <trkpt lat="45.6578" lon="4.55735">
        <ele>691.7</ele>
        <time>2014-05-01T05:59:04Z</time>
      </trkpt>
      <trkpt lat="45.65779" lon="4.55744">
        <ele>692</ele>
        <time>2014-05-01T05:59:06Z</time>
      </trkpt>
      <trkpt lat="45.65779" lon="4.55753">
        <ele>692.2</ele>
        <time>2014-05-01T05:59:08Z</time>
      </trkpt>
      <trkpt lat="45.65779" lon="4.55763">
        <ele>692.3</ele>
        <time>2014-05-01T05:59:10Z</time>
      </trkpt>
      <trkpt lat="45.65779" lon="4.55773">
        <ele>692.5</ele>
        <time>2014-05-01T05:59:12Z</time>
      </trkpt>
      <trkpt lat="45.65779" lon="4.55782">
        <ele>692.7</ele>
        <time>2014-05-01T05:59:14Z</time>
      </trkpt>
      <trkpt lat="45.6578" lon="4.55792">
        <ele>692.9</ele>
        <time>2014-05-01T05:59:16Z</time>
      </trkpt>
      <trkpt lat="45.6578" lon="4.55801">
        <ele>693.1</ele>
        <time>2014-05-01T05:59:18Z</time>
      </trkpt>
      <trkpt lat="45.6578" lon="4.5581">
        <ele>693.6</ele>
        <time>2014-05-01T05:59:20Z</time>
      </trkpt>
      <trkpt lat="45.6578" lon="4.5582">
        <ele>694.2</ele>
        <time>2014-05-01T05:59:22Z</time>
      </trkpt>
      <trkpt lat="45.6578" lon="4.55829">
        <ele>694.8</ele>
        <time>2014-05-01T05:59:24Z</time>
      </trkpt>
      <trkpt lat="45.6578" lon="4.55839">
        <ele>695.2</ele>
        <time>2014-05-01T05:59:26Z</time>
      </trkpt>
      <trkpt lat="45.65781" lon="4.55848">
        <ele>695.4</ele>
        <time>2014-05-01T05:59:28Z</time>
      </trkpt>
      <trkpt lat="45.65781" lon="4.55857">
        <ele>695.6</ele>
        <time>2014-05-01T05:59:30Z</time>
      </trkpt>
      <trkpt lat="45.65784" lon="4.55862">
        <ele>695.8</ele>
        <time>2014-05-01T05:59:32Z</time>
      </trkpt>
      <trkpt lat="45.65786" lon="4.55867">
        <ele>695.9</ele>
        <time>2014-05-01T05:59:34Z</time>
      </trkpt>
      <trkpt lat="45.65788" lon="4.55869">
        <ele>696</ele>
        <time>2014-05-01T05:59:36Z</time>
      </trkpt>
      <trkpt lat="45.65789" lon="4.55871">
        <ele>696</ele>
        <time>2014-05-01T05:59:38Z</time>
      </trkpt>
      <trkpt lat="45.6579" lon="4.55869">
        <ele>696</ele>
        <time>2014-05-01T05:59:40Z</time>
      </trkpt>
      <trkpt lat="45.65791" lon="4.55867">
        <ele>696</ele>
        <time>2014-05-01T05:59:42Z</time>
      </trkpt>
      <trkpt lat="45.65794" lon="4.55862">
        <ele>696</ele>
        <time>2014-05-01T05:59:44Z</time>
      </trkpt>
      <trkpt lat="45.65796" lon="4.55853">
        <ele>695.6</ele>
        <time>2014-05-01T05:59:46Z</time>
      </trkpt>
      <trkpt lat="45.65796" lon="4.55845">
        <ele>695.4</ele>
        <time>2014-05-01T05:59:48Z</time>
      </trkpt>
      <trkpt lat="45.65795" lon="4.55839">
        <ele>695.2</ele>
        <time>2014-05-01T05:59:50Z</time>
      </trkpt>
      <trkpt lat="45.65795" lon="4.55832">
        <ele>695.1</ele>
        <time>2014-05-01T05:59:52Z</time>
      </trkpt>
      <trkpt lat="45.65796" lon="4.55824">
        <ele>694.8</ele>
        <time>2014-05-01T05:59:54Z</time>
      </trkpt>
      <trkpt lat="45.65796" lon="4.55817">
        <ele>694.4</ele>
        <time>2014-05-01T05:59:56Z</time>
      </trkpt>
      <trkpt lat="45.65794" lon="4.55814">
        <ele>694.2</ele>
        <time>2014-05-01T05:59:58Z</time>
      </trkpt>
      <trkpt lat="45.65794" lon="4.55812">
        <ele>694</ele>
        <time>2014-05-01T06:00:00Z</time>
      </trkpt>
      <trkpt lat="45.658" lon="4.55807">
        <ele>693.4</ele>
        <time>2014-05-01T06:04:21Z</time>
      </trkpt>
      <trkpt lat="45.65801" lon="4.55805">
        <ele>693.3</ele>
        <time>2014-05-01T06:04:23Z</time>
      </trkpt>
      <trkpt lat="45.65801" lon="4.55801">
        <ele>693.1</ele>
        <time>2014-05-01T06:04:25Z</time>
      </trkpt>
      <trkpt lat="45.65802" lon="4.55794">
        <ele>693</ele>
        <time>2014-05-01T06:04:27Z</time>
      </trkpt>
      <trkpt lat="45.65801" lon="4.55787">
        <ele>692.8</ele>
        <time>2014-05-01T06:04:29Z</time>
      </trkpt>
      <trkpt lat="45.65802" lon="4.55779">
        <ele>692.7</ele>
        <time>2014-05-01T06:04:31Z</time>
      </trkpt>
      <trkpt lat="45.65802" lon="4.55772">
        <ele>694.1</ele>
        <time>2014-05-01T06:04:33Z</time>
      </trkpt>
      <trkpt lat="45.65804" lon="4.55765">
        <ele>694.2</ele>
        <time>2014-05-01T06:04:35Z</time>
      </trkpt>
      <trkpt lat="45.65807" lon="4.55761">
        <ele>694.3</ele>
        <time>2014-05-01T06:04:37Z</time>
      </trkpt>
      <trkpt lat="45.65809" lon="4.55757">
        <ele>694.4</ele>
        <time>2014-05-01T06:04:39Z</time>
      </trkpt>
      <trkpt lat="45.65809" lon="4.55753">
        <ele>694.5</ele>
        <time>2014-05-01T06:04:41Z</time>
      </trkpt>
      <trkpt lat="45.65809" lon="4.5575">
        <ele>694.6</ele>
        <time>2014-05-01T06:04:43Z</time>
      </trkpt>
      <trkpt lat="45.65805" lon="4.55748">
        <ele>694.3</ele>
        <time>2014-05-01T06:04:45Z</time>
      </trkpt>
      <trkpt lat="45.65798" lon="4.55748">
        <ele>693.8</ele>
        <time>2014-05-01T06:04:47Z</time>
      </trkpt>
      <trkpt lat="45.6579" lon="4.55747">
        <ele>693</ele>
        <time>2014-05-01T06:04:49Z</time>
      </trkpt>
      <trkpt lat="45.65785" lon="4.55743">
        <ele>692.4</ele>
        <time>2014-05-01T06:04:51Z</time>
      </trkpt>
      <trkpt lat="45.65785" lon="4.55732">
        <ele>691.6</ele>
        <time>2014-05-01T06:04:53Z</time>
      </trkpt>
      <trkpt lat="45.65786" lon="4.55721">
        <ele>691.3</ele>
        <time>2014-05-01T06:04:55Z</time>
      </trkpt>
      <trkpt lat="45.65786" lon="4.55707">
        <ele>690.8</ele>
        <time>2014-05-01T06:04:57Z</time>
      </trkpt>
      <trkpt lat="45.65786" lon="4.55693">
        <ele>690.3</ele>
        <time>2014-05-01T06:04:59Z</time>
      </trkpt>
      <trkpt lat="45.65787" lon="4.55677">
        <ele>689.7</ele>
        <time>2014-05-01T06:05:01Z</time>
      </trkpt>
      <trkpt lat="45.65788" lon="4.5566">
        <ele>689</ele>
        <time>2014-05-01T06:05:03Z</time>
      </trkpt>
      <trkpt lat="45.65789" lon="4.55643">
        <ele>689</ele>
        <time>2014-05-01T06:05:05Z</time>
      </trkpt>
      <trkpt lat="45.65792" lon="4.55626">
        <ele>689</ele>
        <time>2014-05-01T06:05:07Z</time>
      </trkpt>
      <trkpt lat="45.65791" lon="4.55609">
        <ele>689</ele>
        <time>2014-05-01T06:05:09Z</time>
      </trkpt>
      <trkpt lat="45.65789" lon="4.5559">
        <ele>689</ele>
        <time>2014-05-01T06:05:11Z</time>
      </trkpt>
      <trkpt lat="45.65788" lon="4.5557">
        <ele>684</ele>
        <time>2014-05-01T06:05:13Z</time>
      </trkpt>
      <trkpt lat="45.65786" lon="4.55554">
        <ele>684</ele>
        <time>2014-05-01T06:05:15Z</time>
      </trkpt>
      <trkpt lat="45.65781" lon="4.55545">
        <ele>684</ele>
        <time>2014-05-01T06:05:17Z</time>
      </trkpt>
      <trkpt lat="45.65775" lon="4.55549">
        <ele>684</ele>
        <time>2014-05-01T06:05:19Z</time>
      </trkpt>
      <trkpt lat="45.65775" lon="4.55558">
        <ele>684</ele>
        <time>2014-05-01T06:05:21Z</time>
      </trkpt>
      <trkpt lat="45.65775" lon="4.55566">
        <ele>684</ele>
        <time>2014-05-01T06:05:23Z</time>
      </trkpt>
      <trkpt lat="45.65776" lon="4.55572">
        <ele>684.4</ele>
        <time>2014-05-01T06:05:25Z</time>
      </trkpt>
      <trkpt lat="45.65776" lon="4.55576">
        <ele>684.7</ele>
        <time>2014-05-01T06:05:27Z</time>
      </trkpt>
      <trkpt lat="45.65775" lon="4.55579">
        <ele>685</ele>
        <time>2014-05-01T06:05:29Z</time>
      </trkpt>
      <trkpt lat="45.65772" lon="4.55579">
        <ele>685.4</ele>
        <time>2014-05-01T06:05:31Z</time>
      </trkpt>
      <trkpt lat="45.65767" lon="4.55578">
        <ele>686.1</ele>
        <time>2014-05-01T06:05:33Z</time>
      </trkpt>
      <trkpt lat="45.6576" lon="4.55578">
        <ele>685.5</ele>
        <time>2014-05-01T06:05:35Z</time>
      </trkpt>
      <trkpt lat="45.65754" lon="4.55577">
        <ele>685</ele>
        <time>2014-05-01T06:05:37Z</time>
      </trkpt>
      <trkpt lat="45.65747" lon="4.55577">
        <ele>684.6</ele>
        <time>2014-05-01T06:05:39Z</time>
      </trkpt>
      <trkpt lat="45.65741" lon="4.55576">
        <ele>684.4</ele>
        <time>2014-05-01T06:05:41Z</time>
      </trkpt>
      <trkpt lat="45.65735" lon="4.55575">
        <ele>684.3</ele>
        <time>2014-05-01T06:05:43Z</time>
      </trkpt>
      <trkpt lat="45.65729" lon="4.55576">
        <ele>684.3</ele>
        <time>2014-05-01T06:05:45Z</time>
      </trkpt>
      <trkpt lat="45.65724" lon="4.55575">
        <ele>684.2</ele>
        <time>2014-05-01T06:05:47Z</time>
      </trkpt>
      <trkpt lat="45.65719" lon="4.55574">
        <ele>684</ele>
        <time>2014-05-01T06:05:49Z</time>
      </trkpt>
      <trkpt lat="45.65714" lon="4.55574">
        <ele>683.9</ele>
        <time>2014-05-01T06:05:51Z</time>
      </trkpt>
      <trkpt lat="45.65711" lon="4.55577">
        <ele>683.7</ele>
        <time>2014-05-01T06:05:53Z</time>
      </trkpt>
      <trkpt lat="45.65706" lon="4.55577">
        <ele>683.9</ele>
        <time>2014-05-01T06:05:55Z</time>
      </trkpt>
      <trkpt lat="45.657" lon="4.55574">
        <ele>684.6</ele>
        <time>2014-05-01T06:05:57Z</time>
      </trkpt>
      <trkpt lat="45.65698" lon="4.55568">
        <ele>684.8</ele>
        <time>2014-05-01T06:05:59Z</time>
      </trkpt>
      <trkpt lat="45.657" lon="4.55561">
        <ele>684.9</ele>
        <time>2014-05-01T06:06:01Z</time>
      </trkpt>
      <trkpt lat="45.65704" lon="4.55555">
        <ele>684.1</ele>
        <time>2014-05-01T06:06:03Z</time>
      </trkpt>
      <trkpt lat="45.65708" lon="4.55549">
        <ele>683.7</ele>
        <time>2014-05-01T06:06:05Z</time>
      </trkpt>
      <trkpt lat="45.65713" lon="4.55542">
        <ele>682.8</ele>
        <time>2014-05-01T06:06:07Z</time>
      </trkpt>
      <trkpt lat="45.65717" lon="4.55533">
        <ele>681.8</ele>
        <time>2014-05-01T06:06:09Z</time>
      </trkpt>
      <trkpt lat="45.65718" lon="4.55523">
        <ele>681</ele>
        <time>2014-05-01T06:06:11Z</time>
      </trkpt>
      <trkpt lat="45.65718" lon="4.55512">
        <ele>681.3</ele>
        <time>2014-05-01T06:06:13Z</time>
      </trkpt>
      <trkpt lat="45.65714" lon="4.55503">
        <ele>681.5</ele>
        <time>2014-05-01T06:06:15Z</time>
      </trkpt>
      <trkpt lat="45.65707" lon="4.55494">
        <ele>681.6</ele>
        <time>2014-05-01T06:06:17Z</time>
      </trkpt>
      <trkpt lat="45.65701" lon="4.55483">
        <ele>681.5</ele>
        <time>2014-05-01T06:06:19Z</time>
      </trkpt>
      <trkpt lat="45.65694" lon="4.5547">
        <ele>681.5</ele>
        <time>2014-05-01T06:06:21Z</time>
      </trkpt>
      <trkpt lat="45.65688" lon="4.55458">
        <ele>681.5</ele>
        <time>2014-05-01T06:06:23Z</time>
      </trkpt>
      <trkpt lat="45.65682" lon="4.55445">
        <ele>681.5</ele>
        <time>2014-05-01T06:06:25Z</time>
      </trkpt>
      <trkpt lat="45.65675" lon="4.55431">
        <ele>681.4</ele>
        <time>2014-05-01T06:06:27Z</time>
      </trkpt>
      <trkpt lat="45.6567" lon="4.55418">
        <ele>681.4</ele>
        <time>2014-05-01T06:06:29Z</time>
      </trkpt>
      <trkpt lat="45.65666" lon="4.55405">
        <ele>681.3</ele>
        <time>2014-05-01T06:06:31Z</time>
      </trkpt>
      <trkpt lat="45.65661" lon="4.55391">
        <ele>681.1</ele>
        <time>2014-05-01T06:06:33Z</time>
      </trkpt>
      <trkpt lat="45.65654" lon="4.55378">
        <ele>680.9</ele>
        <time>2014-05-01T06:06:35Z</time>
      </trkpt>
      <trkpt lat="45.65648" lon="4.55367">
        <ele>680.6</ele>
        <time>2014-05-01T06:06:37Z</time>
      </trkpt>
      <trkpt lat="45.65641" lon="4.55357">
        <ele>680</ele>
        <time>2014-05-01T06:06:39Z</time>
      </trkpt>
      <trkpt lat="45.65635" lon="4.55347">
        <ele>679.5</ele>
        <time>2014-05-01T06:06:41Z</time>
      </trkpt>
      <trkpt lat="45.65628" lon="4.55336">
        <ele>679.3</ele>
        <time>2014-05-01T06:06:43Z</time>
      </trkpt>
      <trkpt lat="45.65621" lon="4.55327">
        <ele>679.1</ele>
        <time>2014-05-01T06:06:45Z</time>
      </trkpt>
      <trkpt lat="45.65614" lon="4.55317">
        <ele>679.2</ele>
        <time>2014-05-01T06:06:47Z</time>
      </trkpt>
      <trkpt lat="45.65608" lon="4.55308">
        <ele>679.6</ele>
        <time>2014-05-01T06:06:49Z</time>
      </trkpt>
      <trkpt lat="45.65601" lon="4.55298">
        <ele>680</ele>
        <time>2014-05-01T06:06:51Z</time>
      </trkpt>
      <trkpt lat="45.65595" lon="4.55288">
        <ele>680.4</ele>
        <time>2014-05-01T06:06:53Z</time>
      </trkpt>
      <trkpt lat="45.65587" lon="4.55278">
        <ele>680.8</ele>
        <time>2014-05-01T06:06:55Z</time>
      </trkpt>
      <trkpt lat="45.6558" lon="4.55268">
        <ele>681.4</ele>
        <time>2014-05-01T06:06:57Z</time>
      </trkpt>
      <trkpt lat="45.65572" lon="4.5526">
        <ele>682</ele>
        <time>2014-05-01T06:06:59Z</time>
      </trkpt>
      <trkpt lat="45.65563" lon="4.55254">
        <ele>682.6</ele>
        <time>2014-05-01T06:07:01Z</time>
      </trkpt>
      <trkpt lat="45.65554" lon="4.5525">
        <ele>683</ele>
        <time>2014-05-01T06:07:03Z</time>
      </trkpt>
      <trkpt lat="45.65546" lon="4.55246">
        <ele>683.2</ele>
        <time>2014-05-01T06:07:05Z</time>
      </trkpt>
      <trkpt lat="45.65537" lon="4.55242">
        <ele>683.3</ele>
        <time>2014-05-01T06:07:07Z</time>
      </trkpt>
      <trkpt lat="45.65528" lon="4.55237">
        <ele>683.5</ele>
        <time>2014-05-01T06:07:09Z</time>
      </trkpt>
      <trkpt lat="45.65518" lon="4.55233">
        <ele>683.7</ele>
        <time>2014-05-01T06:07:11Z</time>
      </trkpt>
      <trkpt lat="45.65508" lon="4.55229">
        <ele>683.9</ele>
        <time>2014-05-01T06:07:13Z</time>
      </trkpt>
      <trkpt lat="45.65496" lon="4.55225">
        <ele>684</ele>
        <time>2014-05-01T06:07:15Z</time>
      </trkpt>
      <trkpt lat="45.65485" lon="4.55222">
        <ele>684.1</ele>
        <time>2014-05-01T06:07:17Z</time>
      </trkpt>
      <trkpt lat="45.65473" lon="4.5522">
        <ele>684.1</ele>
        <time>2014-05-01T06:07:19Z</time>
      </trkpt>
      <trkpt lat="45.65461" lon="4.55218">
        <ele>684.2</ele>
        <time>2014-05-01T06:07:21Z</time>
      </trkpt>
      <trkpt lat="45.65449" lon="4.55216">
        <ele>684.3</ele>
        <time>2014-05-01T06:07:23Z</time>
      </trkpt>
      <trkpt lat="45.65437" lon="4.55213">
        <ele>684.4</ele>
        <time>2014-05-01T06:07:25Z</time>
      </trkpt>
      <trkpt lat="45.65427" lon="4.55209">
        <ele>684.5</ele>
        <time>2014-05-01T06:07:27Z</time>
      </trkpt>
      <trkpt lat="45.65416" lon="4.55202">
        <ele>684.6</ele>
        <time>2014-05-01T06:07:29Z</time>
      </trkpt>
      <trkpt lat="45.65408" lon="4.55193">
        <ele>684.8</ele>
        <time>2014-05-01T06:07:31Z</time>
      </trkpt>
      <trkpt lat="45.65401" lon="4.55183">
        <ele>685.1</ele>
        <time>2014-05-01T06:07:33Z</time>
      </trkpt>
      <trkpt lat="45.65396" lon="4.55174">
        <ele>685.5</ele>
        <time>2014-05-01T06:07:35Z</time>
      </trkpt>
      <trkpt lat="45.65392" lon="4.55167">
        <ele>686</ele>
        <time>2014-05-01T06:07:37Z</time>
      </trkpt>
      <trkpt lat="45.65388" lon="4.5516">
        <ele>686.3</ele>
        <time>2014-05-01T06:07:39Z</time>
      </trkpt>
      <trkpt lat="45.65385" lon="4.55154">
        <ele>686.9</ele>
        <time>2014-05-01T06:07:41Z</time>
      </trkpt>
      <trkpt lat="45.65382" lon="4.55148">
        <ele>687.6</ele>
        <time>2014-05-01T06:07:43Z</time>
      </trkpt>
      <trkpt lat="45.65379" lon="4.55142">
        <ele>689.3</ele>
        <time>2014-05-01T06:07:45Z</time>
      </trkpt>
      <trkpt lat="45.65376" lon="4.55136">
        <ele>690.4</ele>
        <time>2014-05-01T06:07:47Z</time>
      </trkpt>
      <trkpt lat="45.65373" lon="4.55131">
        <ele>691.3</ele>
        <time>2014-05-01T06:07:49Z</time>
      </trkpt>
      <trkpt lat="45.6537" lon="4.55126">
        <ele>693.1</ele>
        <time>2014-05-01T06:07:51Z</time>
      </trkpt>
      <trkpt lat="45.65368" lon="4.55122">
        <ele>695.1</ele>
        <time>2014-05-01T06:07:53Z</time>
      </trkpt>
      <trkpt lat="45.65366" lon="4.55118">
        <ele>696.3</ele>
        <time>2014-05-01T06:07:55Z</time>
      </trkpt>
      <trkpt lat="45.65363" lon="4.55114">
        <ele>698.8</ele>
        <time>2014-05-01T06:07:57Z</time>
      </trkpt>
      <trkpt lat="45.65361" lon="4.55111">
        <ele>700.3</ele>
        <time>2014-05-01T06:07:59Z</time>
      </trkpt>
      <trkpt lat="45.6536" lon="4.55108">
        <ele>700.7</ele>
        <time>2014-05-01T06:08:01Z</time>
      </trkpt>
      <trkpt lat="45.65359" lon="4.55105">
        <ele>701</ele>
        <time>2014-05-01T06:08:03Z</time>
      </trkpt>
      <trkpt lat="45.65357" lon="4.55103">
        <ele>701.2</ele>
        <time>2014-05-01T06:08:05Z</time>
      </trkpt>
      <trkpt lat="45.65356" lon="4.551">
        <ele>701.5</ele>
        <time>2014-05-01T06:08:07Z</time>
      </trkpt>
      <trkpt lat="45.65354" lon="4.55099">
        <ele>701.8</ele>
        <time>2014-05-01T06:08:09Z</time>
      </trkpt>
      <trkpt lat="45.65352" lon="4.55097">
        <ele>702.1</ele>
        <time>2014-05-01T06:08:11Z</time>
      </trkpt>
      <trkpt lat="45.6535" lon="4.55095">
        <ele>702.4</ele>
        <time>2014-05-01T06:08:13Z</time>
      </trkpt>
      <trkpt lat="45.65348" lon="4.55093">
        <ele>702.6</ele>
        <time>2014-05-01T06:08:15Z</time>
      </trkpt>
      <trkpt lat="45.65346" lon="4.55091">
        <ele>702.7</ele>
        <time>2014-05-01T06:08:17Z</time>
      </trkpt>
      <trkpt lat="45.65344" lon="4.55088">
        <ele>702.8</ele>
        <time>2014-05-01T06:08:19Z</time>
      </trkpt>
      <trkpt lat="45.65342" lon="4.55085">
        <ele>703</ele>
        <time>2014-05-01T06:08:21Z</time>
      </trkpt>
      <trkpt lat="45.65341" lon="4.55082">
        <ele>703.1</ele>
        <time>2014-05-01T06:08:23Z</time>
      </trkpt>
      <trkpt lat="45.6534" lon="4.5508">
        <ele>703.2</ele>
        <time>2014-05-01T06:08:25Z</time>
      </trkpt>
      <trkpt lat="45.65339" lon="4.55078">
        <ele>703.3</ele>
        <time>2014-05-01T06:08:27Z</time>
      </trkpt>
      <trkpt lat="45.65337" lon="4.55074">
        <ele>703.6</ele>
        <time>2014-05-01T06:08:29Z</time>
      </trkpt>
      <trkpt lat="45.65336" lon="4.55071">
        <ele>703.9</ele>
        <time>2014-05-01T06:08:31Z</time>
      </trkpt>
      <trkpt lat="45.65334" lon="4.55069">
        <ele>704.2</ele>
        <time>2014-05-01T06:08:33Z</time>
      </trkpt>
      <trkpt lat="45.65332" lon="4.55065">
        <ele>704.4</ele>
        <time>2014-05-01T06:08:35Z</time>
      </trkpt>
      <trkpt lat="45.65331" lon="4.55062">
        <ele>704.6</ele>
        <time>2014-05-01T06:08:37Z</time>
      </trkpt>
      <trkpt lat="45.65329" lon="4.55059">
        <ele>704.8</ele>
        <time>2014-05-01T06:08:39Z</time>
      </trkpt>
      <trkpt lat="45.65328" lon="4.55056">
        <ele>705</ele>
        <time>2014-05-01T06:08:41Z</time>
      </trkpt>
      <trkpt lat="45.65326" lon="4.55053">
        <ele>705.4</ele>
        <time>2014-05-01T06:08:43Z</time>
      </trkpt>
      <trkpt lat="45.65324" lon="4.5505">
        <ele>705.8</ele>
        <time>2014-05-01T06:08:45Z</time>
      </trkpt>
      <trkpt lat="45.65323" lon="4.55046">
        <ele>706.1</ele>
        <time>2014-05-01T06:08:47Z</time>
      </trkpt>
      <trkpt lat="45.65321" lon="4.55042">
        <ele>706.4</ele>
        <time>2014-05-01T06:08:49Z</time>
      </trkpt>
      <trkpt lat="45.65319" lon="4.55038">
        <ele>706.7</ele>
        <time>2014-05-01T06:08:51Z</time>
      </trkpt>
      <trkpt lat="45.65316" lon="4.55034">
        <ele>707.2</ele>
        <time>2014-05-01T06:08:53Z</time>
      </trkpt>
      <trkpt lat="45.65313" lon="4.5503">
        <ele>707.6</ele>
        <time>2014-05-01T06:08:55Z</time>
      </trkpt>
      <trkpt lat="45.6531" lon="4.55026">
        <ele>707.8</ele>
        <time>2014-05-01T06:08:57Z</time>
      </trkpt>
      <trkpt lat="45.65307" lon="4.55022">
        <ele>708</ele>
        <time>2014-05-01T06:08:59Z</time>
      </trkpt>
      <trkpt lat="45.65304" lon="4.55019">
        <ele>708.1</ele>
        <time>2014-05-01T06:09:01Z</time>
      </trkpt>
      <trkpt lat="45.65302" lon="4.55015">
        <ele>708.2</ele>
        <time>2014-05-01T06:09:03Z</time>
      </trkpt>
      <trkpt lat="45.65299" lon="4.55012">
        <ele>708.3</ele>
        <time>2014-05-01T06:09:05Z</time>
      </trkpt>
      <trkpt lat="45.65297" lon="4.55008">
        <ele>708.5</ele>
        <time>2014-05-01T06:09:07Z</time>
      </trkpt>
      <trkpt lat="45.65294" lon="4.55004">
        <ele>708.7</ele>
        <time>2014-05-01T06:09:09Z</time>
      </trkpt>
      <trkpt lat="45.65291" lon="4.55">
        <ele>709.1</ele>
        <time>2014-05-01T06:09:11Z</time>
      </trkpt>
      <trkpt lat="45.65289" lon="4.54996">
        <ele>709.3</ele>
        <time>2014-05-01T06:09:13Z</time>
      </trkpt>
      <trkpt lat="45.65286" lon="4.54992">
        <ele>709.5</ele>
        <time>2014-05-01T06:09:15Z</time>
      </trkpt>
      <trkpt lat="45.65284" lon="4.54988">
        <ele>709.6</ele>
        <time>2014-05-01T06:09:17Z</time>
      </trkpt>
      <trkpt lat="45.65281" lon="4.54984">
        <ele>709.8</ele>
        <time>2014-05-01T06:09:19Z</time>
      </trkpt>
      <trkpt lat="45.65279" lon="4.5498">
        <ele>709.9</ele>
        <time>2014-05-01T06:09:21Z</time>
      </trkpt>
      <trkpt lat="45.65277" lon="4.54976">
        <ele>710</ele>
        <time>2014-05-01T06:09:23Z</time>
      </trkpt>
      <trkpt lat="45.65274" lon="4.54973">
        <ele>710.2</ele>
        <time>2014-05-01T06:09:25Z</time>
      </trkpt>
      <trkpt lat="45.65273" lon="4.54969">
        <ele>710.4</ele>
        <time>2014-05-01T06:09:27Z</time>
      </trkpt>
      <trkpt lat="45.65271" lon="4.54964">
        <ele>710.8</ele>
        <time>2014-05-01T06:09:29Z</time>
      </trkpt>
      <trkpt lat="45.65269" lon="4.5496">
        <ele>711.1</ele>
        <time>2014-05-01T06:09:31Z</time>
      </trkpt>
      <trkpt lat="45.65267" lon="4.54956">
        <ele>711.3</ele>
        <time>2014-05-01T06:09:33Z</time>
      </trkpt>
      <trkpt lat="45.65264" lon="4.54952">
        <ele>711.7</ele>
        <time>2014-05-01T06:09:35Z</time>
      </trkpt>
      <trkpt lat="45.65261" lon="4.54948">
        <ele>712.1</ele>
        <time>2014-05-01T06:09:37Z</time>
      </trkpt>
      <trkpt lat="45.65258" lon="4.54944">
        <ele>712.7</ele>
        <time>2014-05-01T06:09:39Z</time>
      </trkpt>
      <trkpt lat="45.65254" lon="4.54943">
        <ele>713.1</ele>
        <time>2014-05-01T06:09:41Z</time>
      </trkpt>
      <trkpt lat="45.65251" lon="4.54945">
        <ele>713.3</ele>
        <time>2014-05-01T06:09:43Z</time>
      </trkpt>
      <trkpt lat="45.65248" lon="4.54947">
        <ele>714.4</ele>
        <time>2014-05-01T06:09:45Z</time>
      </trkpt>
      <trkpt lat="45.65245" lon="4.5495">
        <ele>714.8</ele>
        <time>2014-05-01T06:09:47Z</time>
      </trkpt>
      <trkpt lat="45.65242" lon="4.54952">
        <ele>715.2</ele>
        <time>2014-05-01T06:09:49Z</time>
      </trkpt>
      <trkpt lat="45.65239" lon="4.54954">
        <ele>715.7</ele>
        <time>2014-05-01T06:09:51Z</time>
      </trkpt>
      <trkpt lat="45.65236" lon="4.54957">
        <ele>716</ele>
        <time>2014-05-01T06:09:53Z</time>
      </trkpt>
      <trkpt lat="45.65234" lon="4.5496">
        <ele>716.2</ele>
        <time>2014-05-01T06:09:55Z</time>
      </trkpt>
      <trkpt lat="45.65231" lon="4.54963">
        <ele>716.5</ele>
        <time>2014-05-01T06:09:57Z</time>
      </trkpt>
      <trkpt lat="45.65228" lon="4.54965">
        <ele>716.7</ele>
        <time>2014-05-01T06:09:59Z</time>
      </trkpt>
      <trkpt lat="45.65226" lon="4.54968">
        <ele>717.2</ele>
        <time>2014-05-01T06:10:01Z</time>
      </trkpt>
      <trkpt lat="45.65223" lon="4.5497">
        <ele>717.6</ele>
        <time>2014-05-01T06:10:03Z</time>
      </trkpt>
      <trkpt lat="45.6522" lon="4.54973">
        <ele>718</ele>
        <time>2014-05-01T06:10:05Z</time>
      </trkpt>
      <trkpt lat="45.65218" lon="4.54976">
        <ele>718.2</ele>
        <time>2014-05-01T06:10:07Z</time>
      </trkpt>
      <trkpt lat="45.65215" lon="4.54979">
        <ele>718.6</ele>
        <time>2014-05-01T06:10:09Z</time>
      </trkpt>
      <trkpt lat="45.65212" lon="4.54982">
        <ele>719</ele>
        <time>2014-05-01T06:10:11Z</time>
      </trkpt>
      <trkpt lat="45.65208" lon="4.54986">
        <ele>719.5</ele>
        <time>2014-05-01T06:10:13Z</time>
      </trkpt>
      <trkpt lat="45.65205" lon="4.54991">
        <ele>719.9</ele>
        <time>2014-05-01T06:10:15Z</time>
      </trkpt>
      <trkpt lat="45.65202" lon="4.54995">
        <ele>720.1</ele>
        <time>2014-05-01T06:10:17Z</time>
      </trkpt>
      <trkpt lat="45.65199" lon="4.54999">
        <ele>720.2</ele>
        <time>2014-05-01T06:10:19Z</time>
      </trkpt>
      <trkpt lat="45.65195" lon="4.55003">
        <ele>720.4</ele>
        <time>2014-05-01T06:10:21Z</time>
      </trkpt>
      <trkpt lat="45.65191" lon="4.55007">
        <ele>720.6</ele>
        <time>2014-05-01T06:10:23Z</time>
      </trkpt>
      <trkpt lat="45.65188" lon="4.55011">
        <ele>720.8</ele>
        <time>2014-05-01T06:10:25Z</time>
      </trkpt>
      <trkpt lat="45.65184" lon="4.55016">
        <ele>721</ele>
        <time>2014-05-01T06:10:27Z</time>
      </trkpt>
      <trkpt lat="45.6518" lon="4.5502">
        <ele>721.4</ele>
        <time>2014-05-01T06:10:29Z</time>
      </trkpt>
      <trkpt lat="45.65176" lon="4.55024">
        <ele>721.7</ele>
        <time>2014-05-01T06:10:31Z</time>
      </trkpt>
      <trkpt lat="45.65172" lon="4.55027">
        <ele>721.9</ele>
        <time>2014-05-01T06:10:33Z</time>
      </trkpt>
      <trkpt lat="45.65168" lon="4.55031">
        <ele>722</ele>
        <time>2014-05-01T06:10:35Z</time>
      </trkpt>
      <trkpt lat="45.65164" lon="4.55034">
        <ele>722.1</ele>
        <time>2014-05-01T06:10:37Z</time>
      </trkpt>
      <trkpt lat="45.6516" lon="4.55038">
        <ele>722.3</ele>
        <time>2014-05-01T06:10:39Z</time>
      </trkpt>
      <trkpt lat="45.65155" lon="4.55042">
        <ele>722.4</ele>
        <time>2014-05-01T06:10:41Z</time>
      </trkpt>
      <trkpt lat="45.65149" lon="4.55046">
        <ele>722.6</ele>
        <time>2014-05-01T06:10:43Z</time>
      </trkpt>
      <trkpt lat="45.65144" lon="4.5505">
        <ele>722.7</ele>
        <time>2014-05-01T06:10:45Z</time>
      </trkpt>
      <trkpt lat="45.65139" lon="4.55054">
        <ele>723</ele>
        <time>2014-05-01T06:10:47Z</time>
      </trkpt>
      <trkpt lat="45.65134" lon="4.55057">
        <ele>723.5</ele>
        <time>2014-05-01T06:10:49Z</time>
      </trkpt>
      <trkpt lat="45.65129" lon="4.5506">
        <ele>723.8</ele>
        <time>2014-05-01T06:10:51Z</time>
      </trkpt>
      <trkpt lat="45.65124" lon="4.55063">
        <ele>723.9</ele>
        <time>2014-05-01T06:10:53Z</time>
      </trkpt>
      <trkpt lat="45.6512" lon="4.55066">
        <ele>724</ele>
        <time>2014-05-01T06:10:55Z</time>
      </trkpt>
      <trkpt lat="45.65115" lon="4.55069">
        <ele>724.2</ele>
        <time>2014-05-01T06:10:57Z</time>
      </trkpt>
      <trkpt lat="45.65111" lon="4.55072">
        <ele>724.4</ele>
        <time>2014-05-01T06:10:59Z</time>
      </trkpt>
      <trkpt lat="45.65106" lon="4.55075">
        <ele>724.6</ele>
        <time>2014-05-01T06:11:01Z</time>
      </trkpt>
      <trkpt lat="45.65101" lon="4.55078">
        <ele>725</ele>
        <time>2014-05-01T06:11:03Z</time>
      </trkpt>
      <trkpt lat="45.65097" lon="4.55081">
        <ele>725.4</ele>
        <time>2014-05-01T06:11:05Z</time>
      </trkpt>
      <trkpt lat="45.65093" lon="4.55084">
        <ele>725.7</ele>
        <time>2014-05-01T06:11:07Z</time>
      </trkpt>
      <trkpt lat="45.65088" lon="4.55087">
        <ele>726</ele>
        <time>2014-05-01T06:11:09Z</time>
      </trkpt>
      <trkpt lat="45.65084" lon="4.5509">
        <ele>726.1</ele>
        <time>2014-05-01T06:11:11Z</time>
      </trkpt>
      <trkpt lat="45.65079" lon="4.55093">
        <ele>726.2</ele>
        <time>2014-05-01T06:11:13Z</time>
      </trkpt>
      <trkpt lat="45.65075" lon="4.55095">
        <ele>726.3</ele>
        <time>2014-05-01T06:11:15Z</time>
      </trkpt>
      <trkpt lat="45.6507" lon="4.55098">
        <ele>726.4</ele>
        <time>2014-05-01T06:11:17Z</time>
      </trkpt>
      <trkpt lat="45.65066" lon="4.55101">
        <ele>726.6</ele>
        <time>2014-05-01T06:11:19Z</time>
      </trkpt>
      <trkpt lat="45.65062" lon="4.55104">
        <ele>726.8</ele>
        <time>2014-05-01T06:11:21Z</time>
      </trkpt>
      <trkpt lat="45.65057" lon="4.55107">
        <ele>727.1</ele>
        <time>2014-05-01T06:11:23Z</time>
      </trkpt>
      <trkpt lat="45.65054" lon="4.5511">
        <ele>727.5</ele>
        <time>2014-05-01T06:11:25Z</time>
      </trkpt>
      <trkpt lat="45.6505" lon="4.55113">
        <ele>727.8</ele>
        <time>2014-05-01T06:11:27Z</time>
      </trkpt>
      <trkpt lat="45.65046" lon="4.55116">
        <ele>728.1</ele>
        <time>2014-05-01T06:11:29Z</time>
      </trkpt>
      <trkpt lat="45.65043" lon="4.55119">
        <ele>728.2</ele>
        <time>2014-05-01T06:11:31Z</time>
      </trkpt>
      <trkpt lat="45.65039" lon="4.55122">
        <ele>728.4</ele>
        <time>2014-05-01T06:11:33Z</time>
      </trkpt>
      <trkpt lat="45.65036" lon="4.55125">
        <ele>728.5</ele>
        <time>2014-05-01T06:11:35Z</time>
      </trkpt>
      <trkpt lat="45.65033" lon="4.55128">
        <ele>728.8</ele>
        <time>2014-05-01T06:11:37Z</time>
      </trkpt>
      <trkpt lat="45.65029" lon="4.55131">
        <ele>729.2</ele>
        <time>2014-05-01T06:11:39Z</time>
      </trkpt>
      <trkpt lat="45.65026" lon="4.55134">
        <ele>729.6</ele>
        <time>2014-05-01T06:11:41Z</time>
      </trkpt>
      <trkpt lat="45.65023" lon="4.55137">
        <ele>729.9</ele>
        <time>2014-05-01T06:11:43Z</time>
      </trkpt>
      <trkpt lat="45.65019" lon="4.5514">
        <ele>730.1</ele>
        <time>2014-05-01T06:11:45Z</time>
      </trkpt>
      <trkpt lat="45.65016" lon="4.55144">
        <ele>730.3</ele>
        <time>2014-05-01T06:11:47Z</time>
      </trkpt>
      <trkpt lat="45.65014" lon="4.55147">
        <ele>730.4</ele>
        <time>2014-05-01T06:11:49Z</time>
      </trkpt>
      <trkpt lat="45.65011" lon="4.55151">
        <ele>730.5</ele>
        <time>2014-05-01T06:11:51Z</time>
      </trkpt>
      <trkpt lat="45.65007" lon="4.55154">
        <ele>730.7</ele>
        <time>2014-05-01T06:11:53Z</time>
      </trkpt>
      <trkpt lat="45.65004" lon="4.55157">
        <ele>730.9</ele>
        <time>2014-05-01T06:11:55Z</time>
      </trkpt>
      <trkpt lat="45.65001" lon="4.5516">
        <ele>731.4</ele>
        <time>2014-05-01T06:11:57Z</time>
      </trkpt>
      <trkpt lat="45.64998" lon="4.55162">
        <ele>731.8</ele>
        <time>2014-05-01T06:11:59Z</time>
      </trkpt>
      <trkpt lat="45.64994" lon="4.55166">
        <ele>732.1</ele>
        <time>2014-05-01T06:12:01Z</time>
      </trkpt>
      <trkpt lat="45.64991" lon="4.55168">
        <ele>732.4</ele>
        <time>2014-05-01T06:12:03Z</time>
      </trkpt>
      <trkpt lat="45.64988" lon="4.5517">
        <ele>732.7</ele>
        <time>2014-05-01T06:12:05Z</time>
      </trkpt>
      <trkpt lat="45.64985" lon="4.55172">
        <ele>733.2</ele>
        <time>2014-05-01T06:12:07Z</time>
      </trkpt>
      <trkpt lat="45.64982" lon="4.55176">
        <ele>734</ele>
        <time>2014-05-01T06:12:09Z</time>
      </trkpt>
      <trkpt lat="45.64982" lon="4.5518">
        <ele>734</ele>
        <time>2014-05-01T06:12:11Z</time>
      </trkpt>
      <trkpt lat="45.64983" lon="4.55185">
        <ele>734</ele>
        <time>2014-05-01T06:12:13Z</time>
      </trkpt>
      <trkpt lat="45.64985" lon="4.5519">
        <ele>734</ele>
        <time>2014-05-01T06:12:15Z</time>
      </trkpt>
      <trkpt lat="45.64986" lon="4.55196">
        <ele>734</ele>
        <time>2014-05-01T06:12:17Z</time>
      </trkpt>
      <trkpt lat="45.64988" lon="4.55201">
        <ele>734</ele>
        <time>2014-05-01T06:12:19Z</time>
      </trkpt>
      <trkpt lat="45.64989" lon="4.55207">
        <ele>734</ele>
        <time>2014-05-01T06:12:21Z</time>
      </trkpt>
      <trkpt lat="45.64991" lon="4.55212">
        <ele>734</ele>
        <time>2014-05-01T06:12:23Z</time>
      </trkpt>
      <trkpt lat="45.64993" lon="4.55218">
        <ele>734</ele>
        <time>2014-05-01T06:12:25Z</time>
      </trkpt>
      <trkpt lat="45.64994" lon="4.55223">
        <ele>733.9</ele>
        <time>2014-05-01T06:12:27Z</time>
      </trkpt>
      <trkpt lat="45.64997" lon="4.55228">
        <ele>733.7</ele>
        <time>2014-05-01T06:12:29Z</time>
      </trkpt>
      <trkpt lat="45.65" lon="4.55233">
        <ele>733.5</ele>
        <time>2014-05-01T06:12:31Z</time>
      </trkpt>
      <trkpt lat="45.65006" lon="4.55238">
        <ele>733.3</ele>
        <time>2014-05-01T06:12:33Z</time>
      </trkpt>
      <trkpt lat="45.65011" lon="4.55243">
        <ele>733</ele>
        <time>2014-05-01T06:12:35Z</time>
      </trkpt>
      <trkpt lat="45.65018" lon="4.55249">
        <ele>732.6</ele>
        <time>2014-05-01T06:12:37Z</time>
      </trkpt>
      <trkpt lat="45.65025" lon="4.55255">
        <ele>732.3</ele>
        <time>2014-05-01T06:12:39Z</time>
      </trkpt>
      <trkpt lat="45.65032" lon="4.55263">
        <ele>731.9</ele>
        <time>2014-05-01T06:12:41Z</time>
      </trkpt>
      <trkpt lat="45.6504" lon="4.55274">
        <ele>731.6</ele>
        <time>2014-05-01T06:12:43Z</time>
      </trkpt>
      <trkpt lat="45.65048" lon="4.55287">
        <ele>731.2</ele>
        <time>2014-05-01T06:12:45Z</time>
      </trkpt>
      <trkpt lat="45.65053" lon="4.553">
        <ele>730.9</ele>
        <time>2014-05-01T06:12:47Z</time>
      </trkpt>
      <trkpt lat="45.65058" lon="4.55312">
        <ele>730.7</ele>
        <time>2014-05-01T06:12:49Z</time>
      </trkpt>
      <trkpt lat="45.65063" lon="4.55324">
        <ele>730.5</ele>
        <time>2014-05-01T06:12:51Z</time>
      </trkpt>
      <trkpt lat="45.65067" lon="4.55335">
        <ele>730.4</ele>
        <time>2014-05-01T06:12:53Z</time>
      </trkpt>
      <trkpt lat="45.6507" lon="4.55345">
        <ele>730.3</ele>
        <time>2014-05-01T06:12:55Z</time>
      </trkpt>
      <trkpt lat="45.65074" lon="4.55355">
        <ele>730.2</ele>
        <time>2014-05-01T06:12:57Z</time>
      </trkpt>
      <trkpt lat="45.65078" lon="4.55364">
        <ele>730.1</ele>
        <time>2014-05-01T06:12:59Z</time>
      </trkpt>
      <trkpt lat="45.65081" lon="4.55373">
        <ele>730</ele>
        <time>2014-05-01T06:13:01Z</time>
      </trkpt>
      <trkpt lat="45.65085" lon="4.55381">
        <ele>729.9</ele>
        <time>2014-05-01T06:13:03Z</time>
      </trkpt>
      <trkpt lat="45.65089" lon="4.55388">
        <ele>729.8</ele>
        <time>2014-05-01T06:13:05Z</time>
      </trkpt>
      <trkpt lat="45.65093" lon="4.55395">
        <ele>729.7</ele>
        <time>2014-05-01T06:13:07Z</time>
      </trkpt>
      <trkpt lat="45.65099" lon="4.55401">
        <ele>729.6</ele>
        <time>2014-05-01T06:13:09Z</time>
      </trkpt>
      <trkpt lat="45.65105" lon="4.55409">
        <ele>729.4</ele>
        <time>2014-05-01T06:13:11Z</time>
      </trkpt>
      <trkpt lat="45.65112" lon="4.55416">
        <ele>729.1</ele>
        <time>2014-05-01T06:13:13Z</time>
      </trkpt>
      <trkpt lat="45.65119" lon="4.55423">
        <ele>728.8</ele>
        <time>2014-05-01T06:13:15Z</time>
      </trkpt>
      <trkpt lat="45.65127" lon="4.55429">
        <ele>728.6</ele>
        <time>2014-05-01T06:13:17Z</time>
      </trkpt>
      <trkpt lat="45.65135" lon="4.55434">
        <ele>728.3</ele>
        <time>2014-05-01T06:13:19Z</time>
      </trkpt>
      <trkpt lat="45.65143" lon="4.55439">
        <ele>728.1</ele>
        <time>2014-05-01T06:13:21Z</time>
      </trkpt>
      <trkpt lat="45.65151" lon="4.55445">
        <ele>727.9</ele>
        <time>2014-05-01T06:13:23Z</time>
      </trkpt>
      <trkpt lat="45.65159" lon="4.5545">
        <ele>727.6</ele>
        <time>2014-05-01T06:13:25Z</time>
      </trkpt>
      <trkpt lat="45.65167" lon="4.55455">
        <ele>727.4</ele>
        <time>2014-05-01T06:13:27Z</time>
      </trkpt>
      <trkpt lat="45.65175" lon="4.5546">
        <ele>727.2</ele>
        <time>2014-05-01T06:13:29Z</time>
      </trkpt>
      <trkpt lat="45.65183" lon="4.55465">
        <ele>726.9</ele>
        <time>2014-05-01T06:13:31Z</time>
      </trkpt>
      <trkpt lat="45.65191" lon="4.55469">
        <ele>726.7</ele>
        <time>2014-05-01T06:13:33Z</time>
      </trkpt>
      <trkpt lat="45.652" lon="4.55474">
        <ele>726.5</ele>
        <time>2014-05-01T06:13:35Z</time>
      </trkpt>
      <trkpt lat="45.6521" lon="4.55478">
        <ele>726.4</ele>
        <time>2014-05-01T06:13:37Z</time>
      </trkpt>
      <trkpt lat="45.6522" lon="4.55482">
        <ele>726.2</ele>
        <time>2014-05-01T06:13:39Z</time>
      </trkpt>
      <trkpt lat="45.65229" lon="4.55488">
        <ele>726.3</ele>
        <time>2014-05-01T06:13:41Z</time>
      </trkpt>
      <trkpt lat="45.65237" lon="4.55494">
        <ele>726.3</ele>
        <time>2014-05-01T06:13:43Z</time>
      </trkpt>
      <trkpt lat="45.65244" lon="4.55502">
        <ele>726.4</ele>
        <time>2014-05-01T06:13:45Z</time>
      </trkpt>
      <trkpt lat="45.6525" lon="4.55509">
        <ele>726.6</ele>
        <time>2014-05-01T06:13:47Z</time>
      </trkpt>
      <trkpt lat="45.65256" lon="4.55516">
        <ele>726.8</ele>
        <time>2014-05-01T06:13:49Z</time>
      </trkpt>
      <trkpt lat="45.6526" lon="4.55525">
        <ele>727</ele>
        <time>2014-05-01T06:13:51Z</time>
      </trkpt>
      <trkpt lat="45.65266" lon="4.55533">
        <ele>727.2</ele>
        <time>2014-05-01T06:13:53Z</time>
      </trkpt>
      <trkpt lat="45.65271" lon="4.55539">
        <ele>727.4</ele>
        <time>2014-05-01T06:13:55Z</time>
      </trkpt>
      <trkpt lat="45.65276" lon="4.55546">
        <ele>727.6</ele>
        <time>2014-05-01T06:13:57Z</time>
      </trkpt>
      <trkpt lat="45.65282" lon="4.55552">
        <ele>727.8</ele>
        <time>2014-05-01T06:13:59Z</time>
      </trkpt>
      <trkpt lat="45.65287" lon="4.55559">
        <ele>728</ele>
        <time>2014-05-01T06:14:01Z</time>
      </trkpt>
      <trkpt lat="45.65293" lon="4.55565">
        <ele>728.2</ele>
        <time>2014-05-01T06:14:03Z</time>
      </trkpt>
      <trkpt lat="45.65297" lon="4.55573">
        <ele>728.5</ele>
        <time>2014-05-01T06:14:05Z</time>
      </trkpt>
      <trkpt lat="45.65303" lon="4.55581">
        <ele>728.8</ele>
        <time>2014-05-01T06:14:07Z</time>
      </trkpt>
      <trkpt lat="45.65308" lon="4.55589">
        <ele>729</ele>
        <time>2014-05-01T06:14:09Z</time>
      </trkpt>
      <trkpt lat="45.65313" lon="4.55598">
        <ele>729.2</ele>
        <time>2014-05-01T06:14:11Z</time>
      </trkpt>
      <trkpt lat="45.65316" lon="4.55606">
        <ele>729.4</ele>
        <time>2014-05-01T06:14:13Z</time>
      </trkpt>
      <trkpt lat="45.6532" lon="4.55615">
        <ele>729.7</ele>
        <time>2014-05-01T06:14:15Z</time>
      </trkpt>
      <trkpt lat="45.65324" lon="4.55624">
        <ele>729.9</ele>
        <time>2014-05-01T06:14:17Z</time>
      </trkpt>
      <trkpt lat="45.65328" lon="4.55632">
        <ele>730.1</ele>
        <time>2014-05-01T06:14:19Z</time>
      </trkpt>
      <trkpt lat="45.65332" lon="4.55641">
        <ele>730.3</ele>
        <time>2014-05-01T06:14:21Z</time>
      </trkpt>
      <trkpt lat="45.65336" lon="4.55649">
        <ele>730.5</ele>
        <time>2014-05-01T06:14:23Z</time>
      </trkpt>
      <trkpt lat="45.6534" lon="4.55657">
        <ele>730.7</ele>
        <time>2014-05-01T06:14:25Z</time>
      </trkpt>
      <trkpt lat="45.65345" lon="4.55664">
        <ele>731.1</ele>
        <time>2014-05-01T06:14:27Z</time>
      </trkpt>
      <trkpt lat="45.6535" lon="4.55671">
        <ele>731.5</ele>
        <time>2014-05-01T06:14:29Z</time>
      </trkpt>
      <trkpt lat="45.65355" lon="4.55677">
        <ele>732</ele>
        <time>2014-05-01T06:14:31Z</time>
      </trkpt>
      <trkpt lat="45.6536" lon="4.55684">
        <ele>732.4</ele>
        <time>2014-05-01T06:14:33Z</time>
      </trkpt>
      <trkpt lat="45.65365" lon="4.5569">
        <ele>732.8</ele>
        <time>2014-05-01T06:14:35Z</time>
      </trkpt>
      <trkpt lat="45.65369" lon="4.55696">
        <ele>733.2</ele>
        <time>2014-05-01T06:14:37Z</time>
      </trkpt>
      <trkpt lat="45.65374" lon="4.55702">
        <ele>733.6</ele>
        <time>2014-05-01T06:14:39Z</time>
      </trkpt>
      <trkpt lat="45.65379" lon="4.55709">
        <ele>734</ele>
        <time>2014-05-01T06:14:41Z</time>
      </trkpt>
      <trkpt lat="45.65383" lon="4.55716">
        <ele>734.3</ele>
        <time>2014-05-01T06:14:43Z</time>
      </trkpt>
      <trkpt lat="45.65387" lon="4.55723">
        <ele>734.7</ele>
        <time>2014-05-01T06:14:45Z</time>
      </trkpt>
      <trkpt lat="45.65386" lon="4.55729">
        <ele>735</ele>
        <time>2014-05-01T06:14:47Z</time>
      </trkpt>
      <trkpt lat="45.65383" lon="4.55731">
        <ele>738.2</ele>
        <time>2014-05-01T06:14:49Z</time>
      </trkpt>
      <trkpt lat="45.65381" lon="4.55731">
        <ele>738.4</ele>
        <time>2014-05-01T06:14:51Z</time>
      </trkpt>
      <trkpt lat="45.65377" lon="4.55731">
        <ele>738.6</ele>
        <time>2014-05-01T06:14:53Z</time>
      </trkpt>
      <trkpt lat="45.65374" lon="4.55731">
        <ele>738.8</ele>
        <time>2014-05-01T06:14:55Z</time>
      </trkpt>
      <trkpt lat="45.6537" lon="4.55732">
        <ele>739.5</ele>
        <time>2014-05-01T06:14:57Z</time>
      </trkpt>
      <trkpt lat="45.65366" lon="4.55732">
        <ele>740.2</ele>
        <time>2014-05-01T06:14:59Z</time>
      </trkpt>
      <trkpt lat="45.65362" lon="4.55733">
        <ele>740.7</ele>
        <time>2014-05-01T06:15:01Z</time>
      </trkpt>
      <trkpt lat="45.6536" lon="4.55734">
        <ele>741.1</ele>
        <time>2014-05-01T06:15:03Z</time>
      </trkpt>
      <trkpt lat="45.65356" lon="4.55735">
        <ele>741.5</ele>
        <time>2014-05-01T06:15:05Z</time>
      </trkpt>
      <trkpt lat="45.65353" lon="4.55737">
        <ele>742</ele>
        <time>2014-05-01T06:15:07Z</time>
      </trkpt>
      <trkpt lat="45.6535" lon="4.55738">
        <ele>742.5</ele>
        <time>2014-05-01T06:15:09Z</time>
      </trkpt>
      <trkpt lat="45.65347" lon="4.55739">
        <ele>743.2</ele>
        <time>2014-05-01T06:15:11Z</time>
      </trkpt>
      <trkpt lat="45.65343" lon="4.5574">
        <ele>743.5</ele>
        <time>2014-05-01T06:15:13Z</time>
      </trkpt>
      <trkpt lat="45.6534" lon="4.55742">
        <ele>743.9</ele>
        <time>2014-05-01T06:15:15Z</time>
      </trkpt>
      <trkpt lat="45.65336" lon="4.55743">
        <ele>744.6</ele>
        <time>2014-05-01T06:15:17Z</time>
      </trkpt>
      <trkpt lat="45.65333" lon="4.55743">
        <ele>745.3</ele>
        <time>2014-05-01T06:15:19Z</time>
      </trkpt>
      <trkpt lat="45.65329" lon="4.55743">
        <ele>745.9</ele>
        <time>2014-05-01T06:15:21Z</time>
      </trkpt>
      <trkpt lat="45.65326" lon="4.55743">
        <ele>746.2</ele>
        <time>2014-05-01T06:15:23Z</time>
      </trkpt>
      <trkpt lat="45.65323" lon="4.55742">
        <ele>746.7</ele>
        <time>2014-05-01T06:15:25Z</time>
      </trkpt>
      <trkpt lat="45.65319" lon="4.55742">
        <ele>747.3</ele>
        <time>2014-05-01T06:15:27Z</time>
      </trkpt>
      <trkpt lat="45.65316" lon="4.55741">
        <ele>747.8</ele>
        <time>2014-05-01T06:15:29Z</time>
      </trkpt>
      <trkpt lat="45.65312" lon="4.55741">
        <ele>748.4</ele>
        <time>2014-05-01T06:15:31Z</time>
      </trkpt>
      <trkpt lat="45.65309" lon="4.55741">
        <ele>748.8</ele>
        <time>2014-05-01T06:15:33Z</time>
      </trkpt>
      <trkpt lat="45.65305" lon="4.5574">
        <ele>749.1</ele>
        <time>2014-05-01T06:15:35Z</time>
      </trkpt>
      <trkpt lat="45.65302" lon="4.5574">
        <ele>749.5</ele>
        <time>2014-05-01T06:15:37Z</time>
      </trkpt>
      <trkpt lat="45.65299" lon="4.5574">
        <ele>750.1</ele>
        <time>2014-05-01T06:15:39Z</time>
      </trkpt>
      <trkpt lat="45.65295" lon="4.55739">
        <ele>750.7</ele>
        <time>2014-05-01T06:15:41Z</time>
      </trkpt>
      <trkpt lat="45.65292" lon="4.55739">
        <ele>751</ele>
        <time>2014-05-01T06:15:43Z</time>
      </trkpt>
      <trkpt lat="45.65289" lon="4.55738">
        <ele>751.2</ele>
        <time>2014-05-01T06:15:45Z</time>
      </trkpt>
      <trkpt lat="45.65286" lon="4.55737">
        <ele>751.5</ele>
        <time>2014-05-01T06:15:47Z</time>
      </trkpt>
      <trkpt lat="45.65282" lon="4.55736">
        <ele>751.8</ele>
        <time>2014-05-01T06:15:49Z</time>
      </trkpt>
      <trkpt lat="45.65279" lon="4.55735">
        <ele>752.3</ele>
        <time>2014-05-01T06:15:51Z</time>
      </trkpt>
      <trkpt lat="45.65275" lon="4.55734">
        <ele>752.9</ele>
        <time>2014-05-01T06:15:53Z</time>
      </trkpt>
      <trkpt lat="45.65271" lon="4.55733">
        <ele>753.2</ele>
        <time>2014-05-01T06:15:55Z</time>
      </trkpt>
      <trkpt lat="45.65268" lon="4.55732">
        <ele>753.4</ele>
        <time>2014-05-01T06:15:57Z</time>
      </trkpt>
      <trkpt lat="45.65264" lon="4.55731">
        <ele>753.6</ele>
        <time>2014-05-01T06:15:59Z</time>
      </trkpt>
      <trkpt lat="45.6526" lon="4.5573">
        <ele>753.9</ele>
        <time>2014-05-01T06:16:01Z</time>
      </trkpt>
      <trkpt lat="45.65257" lon="4.55729">
        <ele>754.2</ele>
        <time>2014-05-01T06:16:03Z</time>
      </trkpt>
      <trkpt lat="45.65253" lon="4.55729">
        <ele>754.5</ele>
        <time>2014-05-01T06:16:05Z</time>
      </trkpt>
      <trkpt lat="45.65249" lon="4.55728">
        <ele>755.1</ele>
        <time>2014-05-01T06:16:07Z</time>
      </trkpt>
      <trkpt lat="45.65246" lon="4.55728">
        <ele>755.7</ele>
        <time>2014-05-01T06:16:09Z</time>
      </trkpt>
      <trkpt lat="45.65242" lon="4.55727">
        <ele>756</ele>
        <time>2014-05-01T06:16:11Z</time>
      </trkpt>
      <trkpt lat="45.65239" lon="4.55727">
        <ele>756.2</ele>
        <time>2014-05-01T06:16:13Z</time>
      </trkpt>
      <trkpt lat="45.65235" lon="4.55725">
        <ele>756.4</ele>
        <time>2014-05-01T06:16:15Z</time>
      </trkpt>
      <trkpt lat="45.65231" lon="4.55724">
        <ele>756.7</ele>
        <time>2014-05-01T06:16:17Z</time>
      </trkpt>
      <trkpt lat="45.65228" lon="4.55722">
        <ele>757.2</ele>
        <time>2014-05-01T06:16:19Z</time>
      </trkpt>
      <trkpt lat="45.65224" lon="4.5572">
        <ele>757.7</ele>
        <time>2014-05-01T06:16:21Z</time>
      </trkpt>
      <trkpt lat="45.6522" lon="4.55718">
        <ele>758.1</ele>
        <time>2014-05-01T06:16:23Z</time>
      </trkpt>
      <trkpt lat="45.65216" lon="4.55716">
        <ele>758.4</ele>
        <time>2014-05-01T06:16:25Z</time>
      </trkpt>
      <trkpt lat="45.65211" lon="4.55715">
        <ele>758.6</ele>
        <time>2014-05-01T06:16:27Z</time>
      </trkpt>
      <trkpt lat="45.65206" lon="4.55715">
        <ele>758.8</ele>
        <time>2014-05-01T06:16:29Z</time>
      </trkpt>
      <trkpt lat="45.65201" lon="4.55714">
        <ele>759.1</ele>
        <time>2014-05-01T06:16:31Z</time>
      </trkpt>
      <trkpt lat="45.65197" lon="4.55714">
        <ele>759.3</ele>
        <time>2014-05-01T06:16:33Z</time>
      </trkpt>
      <trkpt lat="45.65192" lon="4.55714">
        <ele>759.7</ele>
        <time>2014-05-01T06:16:35Z</time>
      </trkpt>
      <trkpt lat="45.65187" lon="4.55715">
        <ele>760.2</ele>
        <time>2014-05-01T06:16:37Z</time>
      </trkpt>
      <trkpt lat="45.65182" lon="4.55715">
        <ele>760.6</ele>
        <time>2014-05-01T06:16:39Z</time>
      </trkpt>
      <trkpt lat="45.65177" lon="4.55716">
        <ele>760.9</ele>
        <time>2014-05-01T06:16:41Z</time>
      </trkpt>
      <trkpt lat="45.65172" lon="4.55716">
        <ele>761.2</ele>
        <time>2014-05-01T06:16:43Z</time>
      </trkpt>
      <trkpt lat="45.65167" lon="4.55716">
        <ele>761.4</ele>
        <time>2014-05-01T06:16:45Z</time>
      </trkpt>
      <trkpt lat="45.65162" lon="4.55716">
        <ele>761.7</ele>
        <time>2014-05-01T06:16:47Z</time>
      </trkpt>
      <trkpt lat="45.65158" lon="4.55717">
        <ele>762.1</ele>
        <time>2014-05-01T06:16:49Z</time>
      </trkpt>
      <trkpt lat="45.65153" lon="4.55717">
        <ele>762.6</ele>
        <time>2014-05-01T06:16:51Z</time>
      </trkpt>
      <trkpt lat="45.65148" lon="4.55717">
        <ele>763</ele>
        <time>2014-05-01T06:16:53Z</time>
      </trkpt>
      <trkpt lat="45.65142" lon="4.55717">
        <ele>763.2</ele>
        <time>2014-05-01T06:16:55Z</time>
      </trkpt>
      <trkpt lat="45.65136" lon="4.55717">
        <ele>763.4</ele>
        <time>2014-05-01T06:16:57Z</time>
      </trkpt>
      <trkpt lat="45.6513" lon="4.55716">
        <ele>763.6</ele>
        <time>2014-05-01T06:16:59Z</time>
      </trkpt>
      <trkpt lat="45.65123" lon="4.55713">
        <ele>763.7</ele>
        <time>2014-05-01T06:17:01Z</time>
      </trkpt>
      <trkpt lat="45.65117" lon="4.5571">
        <ele>764</ele>
        <time>2014-05-01T06:17:03Z</time>
      </trkpt>
      <trkpt lat="45.65109" lon="4.55708">
        <ele>764</ele>
        <time>2014-05-01T06:17:05Z</time>
      </trkpt>
      <trkpt lat="45.65101" lon="4.55705">
        <ele>763.9</ele>
        <time>2014-05-01T06:17:07Z</time>
      </trkpt>
      <trkpt lat="45.65094" lon="4.55703">
        <ele>763.9</ele>
        <time>2014-05-01T06:17:09Z</time>
      </trkpt>
      <trkpt lat="45.65086" lon="4.557">
        <ele>763.9</ele>
        <time>2014-05-01T06:17:11Z</time>
      </trkpt>
      <trkpt lat="45.65078" lon="4.55698">
        <ele>763.8</ele>
        <time>2014-05-01T06:17:13Z</time>
      </trkpt>
      <trkpt lat="45.65069" lon="4.55696">
        <ele>763.8</ele>
        <time>2014-05-01T06:17:15Z</time>
      </trkpt>
      <trkpt lat="45.65061" lon="4.55695">
        <ele>763.8</ele>
        <time>2014-05-01T06:17:17Z</time>
      </trkpt>
      <trkpt lat="45.65052" lon="4.55694">
        <ele>763.7</ele>
        <time>2014-05-01T06:17:19Z</time>
      </trkpt>
      <trkpt lat="45.65044" lon="4.55692">
        <ele>763.7</ele>
        <time>2014-05-01T06:17:21Z</time>
      </trkpt>
      <trkpt lat="45.65035" lon="4.5569">
        <ele>763.6</ele>
        <time>2014-05-01T06:17:23Z</time>
      </trkpt>
      <trkpt lat="45.65027" lon="4.55689">
        <ele>763.6</ele>
        <time>2014-05-01T06:17:25Z</time>
      </trkpt>
      <trkpt lat="45.65019" lon="4.55687">
        <ele>763.6</ele>
        <time>2014-05-01T06:17:27Z</time>
      </trkpt>
      <trkpt lat="45.65011" lon="4.55686">
        <ele>763.5</ele>
        <time>2014-05-01T06:17:29Z</time>
      </trkpt>
      <trkpt lat="45.65002" lon="4.55684">
        <ele>763.5</ele>
        <time>2014-05-01T06:17:31Z</time>
      </trkpt>
      <trkpt lat="45.64993" lon="4.55683">
        <ele>763.4</ele>
        <time>2014-05-01T06:17:33Z</time>
      </trkpt>
      <trkpt lat="45.64983" lon="4.55681">
        <ele>763.3</ele>
        <time>2014-05-01T06:17:35Z</time>
      </trkpt>
      <trkpt lat="45.64975" lon="4.5568">
        <ele>763.3</ele>
        <time>2014-05-01T06:17:37Z</time>
      </trkpt>
      <trkpt lat="45.64966" lon="4.55678">
        <ele>763.3</ele>
        <time>2014-05-01T06:17:39Z</time>
      </trkpt>
      <trkpt lat="45.64957" lon="4.55676">
        <ele>763.3</ele>
        <time>2014-05-01T06:17:41Z</time>
      </trkpt>
      <trkpt lat="45.64949" lon="4.55674">
        <ele>763.4</ele>
        <time>2014-05-01T06:17:43Z</time>
      </trkpt>
      <trkpt lat="45.6494" lon="4.55671">
        <ele>763.4</ele>
        <time>2014-05-01T06:17:45Z</time>
      </trkpt>
      <trkpt lat="45.64933" lon="4.55668">
        <ele>763.5</ele>
        <time>2014-05-01T06:17:47Z</time>
      </trkpt>
      <trkpt lat="45.64925" lon="4.55665">
        <ele>763.6</ele>
        <time>2014-05-01T06:17:49Z</time>
      </trkpt>
      <trkpt lat="45.64917" lon="4.55662">
        <ele>763.8</ele>
        <time>2014-05-01T06:17:51Z</time>
      </trkpt>
      <trkpt lat="45.64908" lon="4.55659">
        <ele>764</ele>
        <time>2014-05-01T06:17:53Z</time>
      </trkpt>
      <trkpt lat="45.649" lon="4.55656">
        <ele>763.9</ele>
        <time>2014-05-01T06:17:55Z</time>
      </trkpt>
      <trkpt lat="45.64891" lon="4.55652">
        <ele>763.8</ele>
        <time>2014-05-01T06:17:57Z</time>
      </trkpt>
      <trkpt lat="45.64882" lon="4.55648">
        <ele>763.7</ele>
        <time>2014-05-01T06:17:59Z</time>
      </trkpt>
      <trkpt lat="45.64872" lon="4.55643">
        <ele>763.6</ele>
        <time>2014-05-01T06:18:01Z</time>
      </trkpt>
      <trkpt lat="45.64862" lon="4.55636">
        <ele>763.5</ele>
        <time>2014-05-01T06:18:03Z</time>
      </trkpt>
      <trkpt lat="45.64853" lon="4.5563">
        <ele>763.4</ele>
        <time>2014-05-01T06:18:05Z</time>
      </trkpt>
      <trkpt lat="45.64844" lon="4.55622">
        <ele>763.3</ele>
        <time>2014-05-01T06:18:07Z</time>
      </trkpt>
      <trkpt lat="45.64835" lon="4.55615">
        <ele>763.1</ele>
        <time>2014-05-01T06:18:09Z</time>
      </trkpt>
      <trkpt lat="45.64827" lon="4.55607">
        <ele>763</ele>
        <time>2014-05-01T06:18:11Z</time>
      </trkpt>
      <trkpt lat="45.64818" lon="4.55599">
        <ele>762.9</ele>
        <time>2014-05-01T06:18:13Z</time>
      </trkpt>
      <trkpt lat="45.64809" lon="4.55591">
        <ele>762.8</ele>
        <time>2014-05-01T06:18:15Z</time>
      </trkpt>
      <trkpt lat="45.64801" lon="4.55586">
        <ele>762.7</ele>
        <time>2014-05-01T06:18:17Z</time>
      </trkpt>
      <trkpt lat="45.6479" lon="4.55582">
        <ele>762.3</ele>
        <time>2014-05-01T06:18:19Z</time>
      </trkpt>
      <trkpt lat="45.64779" lon="4.55579">
        <ele>761.9</ele>
        <time>2014-05-01T06:18:21Z</time>
      </trkpt>
      <trkpt lat="45.64769" lon="4.55577">
        <ele>761.1</ele>
        <time>2014-05-01T06:18:23Z</time>
      </trkpt>
      <trkpt lat="45.64758" lon="4.55577">
        <ele>760.4</ele>
        <time>2014-05-01T06:18:25Z</time>
      </trkpt>
      <trkpt lat="45.64746" lon="4.5558">
        <ele>759.8</ele>
        <time>2014-05-01T06:18:27Z</time>
      </trkpt>
      <trkpt lat="45.64734" lon="4.55581">
        <ele>759</ele>
        <time>2014-05-01T06:18:29Z</time>
      </trkpt>
      <trkpt lat="45.64722" lon="4.55583">
        <ele>758.1</ele>
        <time>2014-05-01T06:18:31Z</time>
      </trkpt>
      <trkpt lat="45.6471" lon="4.55586">
        <ele>757.3</ele>
        <time>2014-05-01T06:18:33Z</time>
      </trkpt>
      <trkpt lat="45.64698" lon="4.55589">
        <ele>756.4</ele>
        <time>2014-05-01T06:18:35Z</time>
      </trkpt>
      <trkpt lat="45.64685" lon="4.55592">
        <ele>755.5</ele>
        <time>2014-05-01T06:18:37Z</time>
      </trkpt>
      <trkpt lat="45.64673" lon="4.55595">
        <ele>754.8</ele>
        <time>2014-05-01T06:18:39Z</time>
      </trkpt>
      <trkpt lat="45.64661" lon="4.55597">
        <ele>754</ele>
        <time>2014-05-01T06:18:41Z</time>
      </trkpt>
      <trkpt lat="45.64648" lon="4.55599">
        <ele>753</ele>
        <time>2014-05-01T06:18:43Z</time>
      </trkpt>
      <trkpt lat="45.64634" lon="4.55599">
        <ele>752.1</ele>
        <time>2014-05-01T06:18:45Z</time>
      </trkpt>
      <trkpt lat="45.64621" lon="4.55599">
        <ele>751.7</ele>
        <time>2014-05-01T06:18:47Z</time>
      </trkpt>
      <trkpt lat="45.64608" lon="4.55599">
        <ele>752.4</ele>
        <time>2014-05-01T06:18:49Z</time>
      </trkpt>
      <trkpt lat="45.64595" lon="4.55599">
        <ele>753</ele>
        <time>2014-05-01T06:18:51Z</time>
      </trkpt>
      <trkpt lat="45.64582" lon="4.55599">
        <ele>751.3</ele>
        <time>2014-05-01T06:18:53Z</time>
      </trkpt>
      <trkpt lat="45.64574" lon="4.55591">
        <ele>748.7</ele>
        <time>2014-05-01T06:18:55Z</time>
      </trkpt>
      <trkpt lat="45.64573" lon="4.55577">
        <ele>748.1</ele>
        <time>2014-05-01T06:18:57Z</time>
      </trkpt>
      <trkpt lat="45.64575" lon="4.55561">
        <ele>747.5</ele>
        <time>2014-05-01T06:18:59Z</time>
      </trkpt>
      <trkpt lat="45.64576" lon="4.55546">
        <ele>747.1</ele>
        <time>2014-05-01T06:19:01Z</time>
      </trkpt>
      <trkpt lat="45.64578" lon="4.55529">
        <ele>746.9</ele>
        <time>2014-05-01T06:19:03Z</time>
      </trkpt>
      <trkpt lat="45.6458" lon="4.55513">
        <ele>746.5</ele>
        <time>2014-05-01T06:19:05Z</time>
      </trkpt>
      <trkpt lat="45.64582" lon="4.55496">
        <ele>746</ele>
        <time>2014-05-01T06:19:07Z</time>
      </trkpt>
      <trkpt lat="45.64584" lon="4.55479">
        <ele>745.6</ele>
        <time>2014-05-01T06:19:09Z</time>
      </trkpt>
      <trkpt lat="45.64586" lon="4.55463">
        <ele>745.3</ele>
        <time>2014-05-01T06:19:11Z</time>
      </trkpt>
      <trkpt lat="45.64589" lon="4.55446">
        <ele>744.9</ele>
        <time>2014-05-01T06:19:13Z</time>
      </trkpt>
      <trkpt lat="45.64591" lon="4.55429">
        <ele>744.1</ele>
        <time>2014-05-01T06:19:15Z</time>
      </trkpt>
      <trkpt lat="45.64593" lon="4.55412">
        <ele>743.3</ele>
        <time>2014-05-01T06:19:17Z</time>
      </trkpt>
      <trkpt lat="45.64594" lon="4.55396">
        <ele>742.7</ele>
        <time>2014-05-01T06:19:19Z</time>
      </trkpt>
      <trkpt lat="45.64594" lon="4.55378">
        <ele>742</ele>
        <time>2014-05-01T06:19:21Z</time>
      </trkpt>
      <trkpt lat="45.64594" lon="4.5536">
        <ele>741.4</ele>
        <time>2014-05-01T06:19:23Z</time>
      </trkpt>
      <trkpt lat="45.64592" lon="4.55342">
        <ele>740.8</ele>
        <time>2014-05-01T06:19:25Z</time>
      </trkpt>
      <trkpt lat="45.64591" lon="4.55324">
        <ele>740.3</ele>
        <time>2014-05-01T06:19:27Z</time>
      </trkpt>
      <trkpt lat="45.64589" lon="4.55306">
        <ele>739.7</ele>
        <time>2014-05-01T06:19:29Z</time>
      </trkpt>
      <trkpt lat="45.64587" lon="4.55288">
        <ele>738.7</ele>
        <time>2014-05-01T06:19:31Z</time>
      </trkpt>
      <trkpt lat="45.64586" lon="4.55272">
        <ele>737.7</ele>
        <time>2014-05-01T06:19:33Z</time>
      </trkpt>
      <trkpt lat="45.64584" lon="4.55257">
        <ele>739.1</ele>
        <time>2014-05-01T06:19:35Z</time>
      </trkpt>
      <trkpt lat="45.64582" lon="4.55243">
        <ele>740.1</ele>
        <time>2014-05-01T06:19:37Z</time>
      </trkpt>
      <trkpt lat="45.64581" lon="4.55229">
        <ele>740.6</ele>
        <time>2014-05-01T06:19:39Z</time>
      </trkpt>
      <trkpt lat="45.64579" lon="4.55217">
        <ele>741.4</ele>
        <time>2014-05-01T06:19:41Z</time>
      </trkpt>
      <trkpt lat="45.64576" lon="4.55206">
        <ele>742</ele>
        <time>2014-05-01T06:19:43Z</time>
      </trkpt>
      <trkpt lat="45.64572" lon="4.55196">
        <ele>742.1</ele>
        <time>2014-05-01T06:19:45Z</time>
      </trkpt>
      <trkpt lat="45.64568" lon="4.55186">
        <ele>742.1</ele>
        <time>2014-05-01T06:19:47Z</time>
      </trkpt>
      <trkpt lat="45.64565" lon="4.55175">
        <ele>742.1</ele>
        <time>2014-05-01T06:19:49Z</time>
      </trkpt>
      <trkpt lat="45.64562" lon="4.55164">
        <ele>741.9</ele>
        <time>2014-05-01T06:19:51Z</time>
      </trkpt>
      <trkpt lat="45.64557" lon="4.55151">
        <ele>741.6</ele>
        <time>2014-05-01T06:19:53Z</time>
      </trkpt>
      <trkpt lat="45.64553" lon="4.55135">
        <ele>741.4</ele>
        <time>2014-05-01T06:19:55Z</time>
      </trkpt>
      <trkpt lat="45.64554" lon="4.55121">
        <ele>741</ele>
        <time>2014-05-01T06:19:57Z</time>
      </trkpt>
      <trkpt lat="45.64555" lon="4.55109">
        <ele>741</ele>
        <time>2014-05-01T06:19:59Z</time>
      </trkpt>
      <trkpt lat="45.64557" lon="4.55099">
        <ele>740.7</ele>
        <time>2014-05-01T06:20:01Z</time>
      </trkpt>
      <trkpt lat="45.6456" lon="4.55088">
        <ele>740.3</ele>
        <time>2014-05-01T06:20:03Z</time>
      </trkpt>
      <trkpt lat="45.64558" lon="4.55076">
        <ele>739.8</ele>
        <time>2014-05-01T06:20:05Z</time>
      </trkpt>
      <trkpt lat="45.64555" lon="4.55056">
        <ele>739</ele>
        <time>2014-05-01T06:20:07Z</time>
      </trkpt>
      <trkpt lat="45.6455" lon="4.55036">
        <ele>739</ele>
        <time>2014-05-01T06:20:09Z</time>
      </trkpt>
      <trkpt lat="45.64541" lon="4.55025">
        <ele>739</ele>
        <time>2014-05-01T06:20:11Z</time>
      </trkpt>
      <trkpt lat="45.64529" lon="4.5502">
        <ele>739</ele>
        <time>2014-05-01T06:20:13Z</time>
      </trkpt>
      <trkpt lat="45.6452" lon="4.55012">
        <ele>739</ele>
        <time>2014-05-01T06:20:15Z</time>
      </trkpt>
      <trkpt lat="45.64518" lon="4.54997">
        <ele>738.9</ele>
        <time>2014-05-01T06:20:17Z</time>
      </trkpt>
      <trkpt lat="45.64519" lon="4.5498">
        <ele>738.8</ele>
        <time>2014-05-01T06:20:19Z</time>
      </trkpt>
      <trkpt lat="45.6452" lon="4.54962">
        <ele>738.6</ele>
        <time>2014-05-01T06:20:21Z</time>
      </trkpt>
      <trkpt lat="45.64521" lon="4.54944">
        <ele>738.1</ele>
        <time>2014-05-01T06:20:23Z</time>
      </trkpt>
      <trkpt lat="45.64523" lon="4.54925">
        <ele>737</ele>
        <time>2014-05-01T06:20:25Z</time>
      </trkpt>
      <trkpt lat="45.64523" lon="4.54907">
        <ele>736.7</ele>
        <time>2014-05-01T06:20:27Z</time>
      </trkpt>
      <trkpt lat="45.64522" lon="4.54888">
        <ele>736.5</ele>
        <time>2014-05-01T06:20:29Z</time>
      </trkpt>
      <trkpt lat="45.6452" lon="4.5487">
        <ele>736.3</ele>
        <time>2014-05-01T06:20:31Z</time>
      </trkpt>
      <trkpt lat="45.64518" lon="4.54852">
        <ele>736.2</ele>
        <time>2014-05-01T06:20:33Z</time>
      </trkpt>
      <trkpt lat="45.64518" lon="4.54834">
        <ele>736.1</ele>
        <time>2014-05-01T06:20:35Z</time>
      </trkpt>
      <trkpt lat="45.6452" lon="4.54817">
        <ele>735.9</ele>
        <time>2014-05-01T06:20:37Z</time>
      </trkpt>
      <trkpt lat="45.64519" lon="4.54801">
        <ele>735.3</ele>
        <time>2014-05-01T06:20:39Z</time>
      </trkpt>
      <trkpt lat="45.64516" lon="4.54783">
        <ele>733.8</ele>
        <time>2014-05-01T06:20:41Z</time>
      </trkpt>
      <trkpt lat="45.64511" lon="4.54763">
        <ele>732.1</ele>
        <time>2014-05-01T06:20:43Z</time>
      </trkpt>
      <trkpt lat="45.64506" lon="4.54739">
        <ele>731.7</ele>
        <time>2014-05-01T06:20:45Z</time>
      </trkpt>
      <trkpt lat="45.64505" lon="4.54715">
        <ele>731.4</ele>
        <time>2014-05-01T06:20:47Z</time>
      </trkpt>
      <trkpt lat="45.64504" lon="4.54691">
        <ele>730.8</ele>
        <time>2014-05-01T06:20:49Z</time>
      </trkpt>
      <trkpt lat="45.64504" lon="4.54668">
        <ele>729.5</ele>
        <time>2014-05-01T06:20:51Z</time>
      </trkpt>
      <trkpt lat="45.64503" lon="4.54644">
        <ele>729</ele>
        <time>2014-05-01T06:20:53Z</time>
      </trkpt>
      <trkpt lat="45.64503" lon="4.54619">
        <ele>726.7</ele>
        <time>2014-05-01T06:20:55Z</time>
      </trkpt>
      <trkpt lat="45.64502" lon="4.54592">
        <ele>724.8</ele>
        <time>2014-05-01T06:20:57Z</time>
      </trkpt>
      <trkpt lat="45.645" lon="4.54566">
        <ele>723.1</ele>
        <time>2014-05-01T06:20:59Z</time>
      </trkpt>
      <trkpt lat="45.64503" lon="4.54543">
        <ele>721.7</ele>
        <time>2014-05-01T06:21:01Z</time>
      </trkpt>
      <trkpt lat="45.64512" lon="4.5452">
        <ele>719.6</ele>
        <time>2014-05-01T06:21:03Z</time>
      </trkpt>
      <trkpt lat="45.64523" lon="4.54501">
        <ele>717.2</ele>
        <time>2014-05-01T06:21:05Z</time>
      </trkpt>
      <trkpt lat="45.64532" lon="4.54484">
        <ele>716.4</ele>
        <time>2014-05-01T06:21:07Z</time>
      </trkpt>
      <trkpt lat="45.64535" lon="4.5447">
        <ele>715.4</ele>
        <time>2014-05-01T06:21:09Z</time>
      </trkpt>
      <trkpt lat="45.64538" lon="4.54463">
        <ele>714.3</ele>
        <time>2014-05-01T06:21:11Z</time>
      </trkpt>
      <trkpt lat="45.6454" lon="4.54457">
        <ele>713.7</ele>
        <time>2014-05-01T06:21:13Z</time>
      </trkpt>
      <trkpt lat="45.64541" lon="4.5445">
        <ele>712.5</ele>
        <time>2014-05-01T06:21:15Z</time>
      </trkpt>
      <trkpt lat="45.64541" lon="4.54441">
        <ele>711.8</ele>
        <time>2014-05-01T06:21:17Z</time>
      </trkpt>
      <trkpt lat="45.64542" lon="4.54429">
        <ele>711.3</ele>
        <time>2014-05-01T06:21:19Z</time>
      </trkpt>
      <trkpt lat="45.64544" lon="4.54417">
        <ele>711.5</ele>
        <time>2014-05-01T06:21:21Z</time>
      </trkpt>
      <trkpt lat="45.64542" lon="4.54405">
        <ele>710.7</ele>
        <time>2014-05-01T06:21:23Z</time>
      </trkpt>
      <trkpt lat="45.64539" lon="4.54391">
        <ele>709.5</ele>
        <time>2014-05-01T06:21:25Z</time>
      </trkpt>
      <trkpt lat="45.64537" lon="4.54376">
        <ele>708.7</ele>
        <time>2014-05-01T06:21:27Z</time>
      </trkpt>
      <trkpt lat="45.64536" lon="4.54361">
        <ele>706.6</ele>
        <time>2014-05-01T06:21:29Z</time>
      </trkpt>
      <trkpt lat="45.64536" lon="4.54347">
        <ele>704.9</ele>
        <time>2014-05-01T06:21:31Z</time>
      </trkpt>
      <trkpt lat="45.64536" lon="4.54337">
        <ele>703.6</ele>
        <time>2014-05-01T06:21:33Z</time>
      </trkpt>
      <trkpt lat="45.64533" lon="4.54327">
        <ele>701.3</ele>
        <time>2014-05-01T06:21:35Z</time>
      </trkpt>
      <trkpt lat="45.64529" lon="4.54316">
        <ele>699.5</ele>
        <time>2014-05-01T06:21:37Z</time>
      </trkpt>
      <trkpt lat="45.64526" lon="4.54303">
        <ele>697.8</ele>
        <time>2014-05-01T06:21:39Z</time>
      </trkpt>
      <trkpt lat="45.64521" lon="4.54289">
        <ele>696.3</ele>
        <time>2014-05-01T06:21:41Z</time>
      </trkpt>
      <trkpt lat="45.6452" lon="4.54275">
        <ele>696.5</ele>
        <time>2014-05-01T06:21:43Z</time>
      </trkpt>
      <trkpt lat="45.64522" lon="4.5426">
        <ele>697</ele>
        <time>2014-05-01T06:21:45Z</time>
      </trkpt>
      <trkpt lat="45.64527" lon="4.54245">
        <ele>697.1</ele>
        <time>2014-05-01T06:21:47Z</time>
      </trkpt>
      <trkpt lat="45.64531" lon="4.54232">
        <ele>697.2</ele>
        <time>2014-05-01T06:21:49Z</time>
      </trkpt>
      <trkpt lat="45.6453" lon="4.54218">
        <ele>695.4</ele>
        <time>2014-05-01T06:21:51Z</time>
      </trkpt>
      <trkpt lat="45.64527" lon="4.54203">
        <ele>693.4</ele>
        <time>2014-05-01T06:21:53Z</time>
      </trkpt>
      <trkpt lat="45.64522" lon="4.5419">
        <ele>690.4</ele>
        <time>2014-05-01T06:21:55Z</time>
      </trkpt>
      <trkpt lat="45.64517" lon="4.54179">
        <ele>687.6</ele>
        <time>2014-05-01T06:21:57Z</time>
      </trkpt>
      <trkpt lat="45.64509" lon="4.5417">
        <ele>684.2</ele>
        <time>2014-05-01T06:21:59Z</time>
      </trkpt>
      <trkpt lat="45.64503" lon="4.54161">
        <ele>681.8</ele>
        <time>2014-05-01T06:22:01Z</time>
      </trkpt>
      <trkpt lat="45.64501" lon="4.54144">
        <ele>679.1</ele>
        <time>2014-05-01T06:22:03Z</time>
      </trkpt>
      <trkpt lat="45.64503" lon="4.54126">
        <ele>677.6</ele>
        <time>2014-05-01T06:22:05Z</time>
      </trkpt>
      <trkpt lat="45.64505" lon="4.54106">
        <ele>676.9</ele>
        <time>2014-05-01T06:22:07Z</time>
      </trkpt>
      <trkpt lat="45.64506" lon="4.54088">
        <ele>676.5</ele>
        <time>2014-05-01T06:22:09Z</time>
      </trkpt>
      <trkpt lat="45.64512" lon="4.54071">
        <ele>677.7</ele>
        <time>2014-05-01T06:22:11Z</time>
      </trkpt>
      <trkpt lat="45.64515" lon="4.54055">
        <ele>678.9</ele>
        <time>2014-05-01T06:22:13Z</time>
      </trkpt>
      <trkpt lat="45.64515" lon="4.54042">
        <ele>679.3</ele>
        <time>2014-05-01T06:22:15Z</time>
      </trkpt>
      <trkpt lat="45.64513" lon="4.5403">
        <ele>678.9</ele>
        <time>2014-05-01T06:22:17Z</time>
      </trkpt>
      <trkpt lat="45.6451" lon="4.54017">
        <ele>678.1</ele>
        <time>2014-05-01T06:22:19Z</time>
      </trkpt>
      <trkpt lat="45.64506" lon="4.54003">
        <ele>677</ele>
        <time>2014-05-01T06:22:21Z</time>
      </trkpt>
      <trkpt lat="45.645" lon="4.53991">
        <ele>675.7</ele>
        <time>2014-05-01T06:22:23Z</time>
      </trkpt>
      <trkpt lat="45.64494" lon="4.53978">
        <ele>674.6</ele>
        <time>2014-05-01T06:22:25Z</time>
      </trkpt>
      <trkpt lat="45.64487" lon="4.53962">
        <ele>674.2</ele>
        <time>2014-05-01T06:22:27Z</time>
      </trkpt>
      <trkpt lat="45.64483" lon="4.53948">
        <ele>673.5</ele>
        <time>2014-05-01T06:22:29Z</time>
      </trkpt>
      <trkpt lat="45.64479" lon="4.53934">
        <ele>672.6</ele>
        <time>2014-05-01T06:22:31Z</time>
      </trkpt>
      <trkpt lat="45.64476" lon="4.53922">
        <ele>671.8</ele>
        <time>2014-05-01T06:22:33Z</time>
      </trkpt>
      <trkpt lat="45.64474" lon="4.53908">
        <ele>671.5</ele>
        <time>2014-05-01T06:22:35Z</time>
      </trkpt>
      <trkpt lat="45.64473" lon="4.53896">
        <ele>671</ele>
        <time>2014-05-01T06:22:37Z</time>
      </trkpt>
      <trkpt lat="45.64471" lon="4.53884">
        <ele>670</ele>
        <time>2014-05-01T06:22:39Z</time>
      </trkpt>
      <trkpt lat="45.64469" lon="4.53872">
        <ele>667.7</ele>
        <time>2014-05-01T06:22:41Z</time>
      </trkpt>
      <trkpt lat="45.64467" lon="4.53861">
        <ele>666.1</ele>
        <time>2014-05-01T06:22:43Z</time>
      </trkpt>
      <trkpt lat="45.6446" lon="4.5385">
        <ele>663.9</ele>
        <time>2014-05-01T06:22:45Z</time>
      </trkpt>
      <trkpt lat="45.64453" lon="4.53839">
        <ele>662.3</ele>
        <time>2014-05-01T06:22:47Z</time>
      </trkpt>
      <trkpt lat="45.64445" lon="4.53832">
        <ele>660.5</ele>
        <time>2014-05-01T06:22:49Z</time>
      </trkpt>
      <trkpt lat="45.64438" lon="4.53826">
        <ele>659.4</ele>
        <time>2014-05-01T06:22:51Z</time>
      </trkpt>
      <trkpt lat="45.64433" lon="4.5382">
        <ele>657.8</ele>
        <time>2014-05-01T06:22:53Z</time>
      </trkpt>
      <trkpt lat="45.64428" lon="4.53813">
        <ele>656.8</ele>
        <time>2014-05-01T06:22:55Z</time>
      </trkpt>
      <trkpt lat="45.64425" lon="4.53805">
        <ele>655.2</ele>
        <time>2014-05-01T06:22:57Z</time>
      </trkpt>
      <trkpt lat="45.64423" lon="4.53795">
        <ele>652.7</ele>
        <time>2014-05-01T06:22:59Z</time>
      </trkpt>
      <trkpt lat="45.64421" lon="4.53785">
        <ele>650.1</ele>
        <time>2014-05-01T06:23:01Z</time>
      </trkpt>
      <trkpt lat="45.64419" lon="4.53776">
        <ele>647.7</ele>
        <time>2014-05-01T06:23:03Z</time>
      </trkpt>
      <trkpt lat="45.64418" lon="4.53768">
        <ele>645.6</ele>
        <time>2014-05-01T06:23:05Z</time>
      </trkpt>
      <trkpt lat="45.64415" lon="4.53763">
        <ele>644.1</ele>
        <time>2014-05-01T06:23:07Z</time>
      </trkpt>
      <trkpt lat="45.64412" lon="4.53756">
        <ele>641.9</ele>
        <time>2014-05-01T06:23:13Z</time>
      </trkpt>
      <trkpt lat="45.64408" lon="4.53753">
        <ele>640.7</ele>
        <time>2014-05-01T06:23:15Z</time>
      </trkpt>
      <trkpt lat="45.64405" lon="4.53748">
        <ele>639.5</ele>
        <time>2014-05-01T06:23:17Z</time>
      </trkpt>
      <trkpt lat="45.64402" lon="4.53742">
        <ele>638.3</ele>
        <time>2014-05-01T06:23:19Z</time>
      </trkpt>
      <trkpt lat="45.64399" lon="4.53736">
        <ele>637</ele>
        <time>2014-05-01T06:23:21Z</time>
      </trkpt>
      <trkpt lat="45.64397" lon="4.53727">
        <ele>634.8</ele>
        <time>2014-05-01T06:23:23Z</time>
      </trkpt>
      <trkpt lat="45.64396" lon="4.53719">
        <ele>633.2</ele>
        <time>2014-05-01T06:23:25Z</time>
      </trkpt>
      <trkpt lat="45.64395" lon="4.5371">
        <ele>631.4</ele>
        <time>2014-05-01T06:23:27Z</time>
      </trkpt>
      <trkpt lat="45.64392" lon="4.53701">
        <ele>629.6</ele>
        <time>2014-05-01T06:23:29Z</time>
      </trkpt>
      <trkpt lat="45.64393" lon="4.53693">
        <ele>628.7</ele>
        <time>2014-05-01T06:23:31Z</time>
      </trkpt>
      <trkpt lat="45.64394" lon="4.53684">
        <ele>627.6</ele>
        <time>2014-05-01T06:23:33Z</time>
      </trkpt>
      <trkpt lat="45.64397" lon="4.53677">
        <ele>626.1</ele>
        <time>2014-05-01T06:23:35Z</time>
      </trkpt>
      <trkpt lat="45.64401" lon="4.53668">
        <ele>624.2</ele>
        <time>2014-05-01T06:23:37Z</time>
      </trkpt>
      <trkpt lat="45.64404" lon="4.53663">
        <ele>624.2</ele>
        <time>2014-05-01T06:23:39Z</time>
      </trkpt>
      <trkpt lat="45.64408" lon="4.53662">
        <ele>624.2</ele>
        <time>2014-05-01T06:23:41Z</time>
      </trkpt>
      <trkpt lat="45.64413" lon="4.5366">
        <ele>624.1</ele>
        <time>2014-05-01T06:23:43Z</time>
      </trkpt>
      <trkpt lat="45.64417" lon="4.53655">
        <ele>624.1</ele>
        <time>2014-05-01T06:23:45Z</time>
      </trkpt>
      <trkpt lat="45.64416" lon="4.53647">
        <ele>623.5</ele>
        <time>2014-05-01T06:23:47Z</time>
      </trkpt>
      <trkpt lat="45.64411" lon="4.5364">
        <ele>623.3</ele>
        <time>2014-05-01T06:23:49Z</time>
      </trkpt>
      <trkpt lat="45.64406" lon="4.53633">
        <ele>623</ele>
        <time>2014-05-01T06:23:51Z</time>
      </trkpt>
      <trkpt lat="45.644" lon="4.53619">
        <ele>622.6</ele>
        <time>2014-05-01T06:23:53Z</time>
      </trkpt>
      <trkpt lat="45.64391" lon="4.53604">
        <ele>622.1</ele>
        <time>2014-05-01T06:23:55Z</time>
      </trkpt>
      <trkpt lat="45.64383" lon="4.53585">
        <ele>621.5</ele>
        <time>2014-05-01T06:23:57Z</time>
      </trkpt>
      <trkpt lat="45.64374" lon="4.53566">
        <ele>620.9</ele>
        <time>2014-05-01T06:23:59Z</time>
      </trkpt>
      <trkpt lat="45.64364" lon="4.53548">
        <ele>620.2</ele>
        <time>2014-05-01T06:24:01Z</time>
      </trkpt>
      <trkpt lat="45.64351" lon="4.53537">
        <ele>619.3</ele>
        <time>2014-05-01T06:24:03Z</time>
      </trkpt>
      <trkpt lat="45.64333" lon="4.53536">
        <ele>617.5</ele>
        <time>2014-05-01T06:24:05Z</time>
      </trkpt>
      <trkpt lat="45.64313" lon="4.5353">
        <ele>615</ele>
        <time>2014-05-01T06:24:07Z</time>
      </trkpt>
      <trkpt lat="45.64292" lon="4.5352">
        <ele>612</ele>
        <time>2014-05-01T06:24:09Z</time>
      </trkpt>
      <trkpt lat="45.64272" lon="4.53516">
        <ele>604.1</ele>
        <time>2014-05-01T06:24:11Z</time>
      </trkpt>
      <trkpt lat="45.64253" lon="4.53521">
        <ele>606.9</ele>
        <time>2014-05-01T06:24:13Z</time>
      </trkpt>
      <trkpt lat="45.64236" lon="4.53527">
        <ele>609.3</ele>
        <time>2014-05-01T06:24:15Z</time>
      </trkpt>
      <trkpt lat="45.6422" lon="4.53531">
        <ele>611</ele>
        <time>2014-05-01T06:24:17Z</time>
      </trkpt>
      <trkpt lat="45.64205" lon="4.53531">
        <ele>611</ele>
        <time>2014-05-01T06:24:19Z</time>
      </trkpt>
      <trkpt lat="45.64192" lon="4.53528">
        <ele>611</ele>
        <time>2014-05-01T06:24:21Z</time>
      </trkpt>
      <trkpt lat="45.64181" lon="4.53526">
        <ele>611</ele>
        <time>2014-05-01T06:24:23Z</time>
      </trkpt>
      <trkpt lat="45.64173" lon="4.5353">
        <ele>612</ele>
        <time>2014-05-01T06:24:25Z</time>
      </trkpt>
      <trkpt lat="45.64169" lon="4.53535">
        <ele>612.7</ele>
        <time>2014-05-01T06:24:27Z</time>
      </trkpt>
      <trkpt lat="45.64166" lon="4.53538">
        <ele>613.1</ele>
        <time>2014-05-01T06:24:29Z</time>
      </trkpt>
      <trkpt lat="45.64164" lon="4.53541">
        <ele>613.5</ele>
        <time>2014-05-01T06:24:31Z</time>
      </trkpt>
      <trkpt lat="45.64163" lon="4.53544">
        <ele>613.8</ele>
        <time>2014-05-01T06:24:33Z</time>
      </trkpt>
      <trkpt lat="45.64161" lon="4.53544">
        <ele>614.2</ele>
        <time>2014-05-01T06:24:35Z</time>
      </trkpt>
      <trkpt lat="45.6416" lon="4.53547">
        <ele>614.6</ele>
        <time>2014-05-01T06:24:37Z</time>
      </trkpt>
      <trkpt lat="45.64159" lon="4.5355">
        <ele>615.1</ele>
        <time>2014-05-01T06:24:39Z</time>
      </trkpt>
      <trkpt lat="45.64158" lon="4.53553">
        <ele>615.6</ele>
        <time>2014-05-01T06:24:41Z</time>
      </trkpt>
      <trkpt lat="45.64156" lon="4.53556">
        <ele>616</ele>
        <time>2014-05-01T06:24:43Z</time>
      </trkpt>
      <trkpt lat="45.64155" lon="4.53559">
        <ele>616.4</ele>
        <time>2014-05-01T06:24:45Z</time>
      </trkpt>
      <trkpt lat="45.64154" lon="4.53562">
        <ele>616.8</ele>
        <time>2014-05-01T06:24:47Z</time>
      </trkpt>
      <trkpt lat="45.64154" lon="4.53566">
        <ele>617.2</ele>
        <time>2014-05-01T06:24:49Z</time>
      </trkpt>
      <trkpt lat="45.64153" lon="4.5357">
        <ele>617.6</ele>
        <time>2014-05-01T06:24:51Z</time>
      </trkpt>
      <trkpt lat="45.64152" lon="4.53573">
        <ele>618</ele>
        <time>2014-05-01T06:24:53Z</time>
      </trkpt>
      <trkpt lat="45.64152" lon="4.53577">
        <ele>618.4</ele>
        <time>2014-05-01T06:24:55Z</time>
      </trkpt>
      <trkpt lat="45.64151" lon="4.5358">
        <ele>618.8</ele>
        <time>2014-05-01T06:24:57Z</time>
      </trkpt>
      <trkpt lat="45.6415" lon="4.53584">
        <ele>619.2</ele>
        <time>2014-05-01T06:24:59Z</time>
      </trkpt>
      <trkpt lat="45.6415" lon="4.53587">
        <ele>619.6</ele>
        <time>2014-05-01T06:25:01Z</time>
      </trkpt>
      <trkpt lat="45.64149" lon="4.5359">
        <ele>620</ele>
        <time>2014-05-01T06:25:03Z</time>
      </trkpt>
      <trkpt lat="45.64149" lon="4.53593">
        <ele>620.4</ele>
        <time>2014-05-01T06:25:05Z</time>
      </trkpt>
      <trkpt lat="45.64148" lon="4.53596">
        <ele>620.7</ele>
        <time>2014-05-01T06:25:09Z</time>
      </trkpt>
      <trkpt lat="45.64148" lon="4.53599">
        <ele>621.1</ele>
        <time>2014-05-01T06:25:11Z</time>
      </trkpt>
      <trkpt lat="45.64147" lon="4.53601">
        <ele>621.3</ele>
        <time>2014-05-01T06:25:13Z</time>
      </trkpt>
      <trkpt lat="45.64146" lon="4.53603">
        <ele>621.6</ele>
        <time>2014-05-01T06:25:15Z</time>
      </trkpt>
      <trkpt lat="45.64146" lon="4.53605">
        <ele>621.9</ele>
        <time>2014-05-01T06:25:17Z</time>
      </trkpt>
      <trkpt lat="45.64145" lon="4.53607">
        <ele>622.2</ele>
        <time>2014-05-01T06:25:19Z</time>
      </trkpt>
      <trkpt lat="45.64144" lon="4.53609">
        <ele>622.4</ele>
        <time>2014-05-01T06:25:21Z</time>
      </trkpt>
      <trkpt lat="45.64142" lon="4.53614">
        <ele>623.5</ele>
        <time>2014-05-01T06:25:27Z</time>
      </trkpt>
      <trkpt lat="45.64139" lon="4.53622">
        <ele>625.2</ele>
        <time>2014-05-01T06:25:37Z</time>
      </trkpt>
      <trkpt lat="45.64138" lon="4.53624">
        <ele>625.7</ele>
        <time>2014-05-01T06:25:39Z</time>
      </trkpt>
      <trkpt lat="45.64138" lon="4.53626">
        <ele>626.2</ele>
        <time>2014-05-01T06:25:41Z</time>
      </trkpt>
      <trkpt lat="45.64137" lon="4.53628">
        <ele>626.8</ele>
        <time>2014-05-01T06:25:43Z</time>
      </trkpt>
      <trkpt lat="45.64136" lon="4.5363">
        <ele>627.2</ele>
        <time>2014-05-01T06:25:45Z</time>
      </trkpt>
      <trkpt lat="45.64136" lon="4.53631">
        <ele>627.6</ele>
        <time>2014-05-01T06:25:47Z</time>
      </trkpt>
      <trkpt lat="45.64136" lon="4.53633">
        <ele>627.9</ele>
        <time>2014-05-01T06:25:49Z</time>
      </trkpt>
      <trkpt lat="45.64135" lon="4.53637">
        <ele>629.1</ele>
        <time>2014-05-01T06:25:55Z</time>
      </trkpt>
      <trkpt lat="45.64134" lon="4.53643">
        <ele>630.5</ele>
        <time>2014-05-01T06:26:01Z</time>
      </trkpt>
      <trkpt lat="45.64134" lon="4.53645">
        <ele>631</ele>
        <time>2014-05-01T06:26:03Z</time>
      </trkpt>
      <trkpt lat="45.64133" lon="4.53649">
        <ele>631.9</ele>
        <time>2014-05-01T06:26:07Z</time>
      </trkpt>
      <trkpt lat="45.64132" lon="4.53651">
        <ele>632.2</ele>
        <time>2014-05-01T06:26:09Z</time>
      </trkpt>
      <trkpt lat="45.64131" lon="4.53653">
        <ele>632.6</ele>
        <time>2014-05-01T06:26:11Z</time>
      </trkpt>
      <trkpt lat="45.6413" lon="4.53655">
        <ele>632.9</ele>
        <time>2014-05-01T06:26:13Z</time>
      </trkpt>
      <trkpt lat="45.64127" lon="4.53657">
        <ele>633.5</ele>
        <time>2014-05-01T06:26:17Z</time>
      </trkpt>
      <trkpt lat="45.64126" lon="4.53658">
        <ele>633.9</ele>
        <time>2014-05-01T06:26:19Z</time>
      </trkpt>
      <trkpt lat="45.64124" lon="4.53659">
        <ele>634.2</ele>
        <time>2014-05-01T06:26:21Z</time>
      </trkpt>
      <trkpt lat="45.64123" lon="4.5366">
        <ele>634.5</ele>
        <time>2014-05-01T06:26:23Z</time>
      </trkpt>
      <trkpt lat="45.64121" lon="4.53661">
        <ele>634.9</ele>
        <time>2014-05-01T06:26:25Z</time>
      </trkpt>
      <trkpt lat="45.64119" lon="4.53661">
        <ele>635.3</ele>
        <time>2014-05-01T06:26:27Z</time>
      </trkpt>
      <trkpt lat="45.64116" lon="4.53666">
        <ele>636.2</ele>
        <time>2014-05-01T06:26:33Z</time>
      </trkpt>
      <trkpt lat="45.64114" lon="4.53668">
        <ele>636.6</ele>
        <time>2014-05-01T06:26:35Z</time>
      </trkpt>
      <trkpt lat="45.64113" lon="4.53669">
        <ele>636.9</ele>
        <time>2014-05-01T06:26:37Z</time>
      </trkpt>
      <trkpt lat="45.64111" lon="4.5367">
        <ele>637.3</ele>
        <time>2014-05-01T06:26:39Z</time>
      </trkpt>
      <trkpt lat="45.6411" lon="4.53671">
        <ele>637.6</ele>
        <time>2014-05-01T06:26:41Z</time>
      </trkpt>
      <trkpt lat="45.64104" lon="4.53673">
        <ele>638.7</ele>
        <time>2014-05-01T06:26:53Z</time>
      </trkpt>
      <trkpt lat="45.64102" lon="4.53673">
        <ele>639</ele>
        <time>2014-05-01T06:26:55Z</time>
      </trkpt>
      <trkpt lat="45.641" lon="4.53674">
        <ele>639.5</ele>
        <time>2014-05-01T06:26:57Z</time>
      </trkpt>
      <trkpt lat="45.64097" lon="4.53674">
        <ele>640</ele>
        <time>2014-05-01T06:26:59Z</time>
      </trkpt>
      <trkpt lat="45.64094" lon="4.53673">
        <ele>640.5</ele>
        <time>2014-05-01T06:27:01Z</time>
      </trkpt>
      <trkpt lat="45.64092" lon="4.53673">
        <ele>641</ele>
        <time>2014-05-01T06:27:03Z</time>
      </trkpt>
      <trkpt lat="45.64089" lon="4.53672">
        <ele>641.5</ele>
        <time>2014-05-01T06:27:05Z</time>
      </trkpt>
      <trkpt lat="45.64086" lon="4.53671">
        <ele>641.8</ele>
        <time>2014-05-01T06:27:07Z</time>
      </trkpt>
      <trkpt lat="45.64084" lon="4.53671">
        <ele>642.2</ele>
        <time>2014-05-01T06:27:09Z</time>
      </trkpt>
      <trkpt lat="45.64082" lon="4.53671">
        <ele>642.5</ele>
        <time>2014-05-01T06:27:11Z</time>
      </trkpt>
      <trkpt lat="45.64079" lon="4.53672">
        <ele>642.8</ele>
        <time>2014-05-01T06:27:13Z</time>
      </trkpt>
      <trkpt lat="45.64077" lon="4.53671">
        <ele>643.1</ele>
        <time>2014-05-01T06:27:15Z</time>
      </trkpt>
      <trkpt lat="45.64075" lon="4.53671">
        <ele>643.4</ele>
        <time>2014-05-01T06:27:17Z</time>
      </trkpt>
      <trkpt lat="45.64072" lon="4.53672">
        <ele>643.7</ele>
        <time>2014-05-01T06:27:19Z</time>
      </trkpt>
      <trkpt lat="45.6407" lon="4.53672">
        <ele>644</ele>
        <time>2014-05-01T06:27:21Z</time>
      </trkpt>
      <trkpt lat="45.64068" lon="4.53673">
        <ele>644.4</ele>
        <time>2014-05-01T06:27:23Z</time>
      </trkpt>
      <trkpt lat="45.64065" lon="4.53673">
        <ele>644.7</ele>
        <time>2014-05-01T06:27:25Z</time>
      </trkpt>
      <trkpt lat="45.64063" lon="4.53674">
        <ele>644.9</ele>
        <time>2014-05-01T06:27:27Z</time>
      </trkpt>
      <trkpt lat="45.64061" lon="4.53674">
        <ele>645.2</ele>
        <time>2014-05-01T06:27:29Z</time>
      </trkpt>
      <trkpt lat="45.64058" lon="4.53674">
        <ele>645.6</ele>
        <time>2014-05-01T06:27:31Z</time>
      </trkpt>
      <trkpt lat="45.64056" lon="4.53674">
        <ele>645.9</ele>
        <time>2014-05-01T06:27:33Z</time>
      </trkpt>
      <trkpt lat="45.64053" lon="4.53674">
        <ele>646.3</ele>
        <time>2014-05-01T06:27:35Z</time>
      </trkpt>
      <trkpt lat="45.64051" lon="4.53675">
        <ele>646.6</ele>
        <time>2014-05-01T06:27:37Z</time>
      </trkpt>
      <trkpt lat="45.64048" lon="4.53676">
        <ele>647</ele>
        <time>2014-05-01T06:27:39Z</time>
      </trkpt>
      <trkpt lat="45.64045" lon="4.53677">
        <ele>647.5</ele>
        <time>2014-05-01T06:27:41Z</time>
      </trkpt>
      <trkpt lat="45.64042" lon="4.53678">
        <ele>648</ele>
        <time>2014-05-01T06:27:43Z</time>
      </trkpt>
      <trkpt lat="45.64039" lon="4.53679">
        <ele>648.4</ele>
        <time>2014-05-01T06:27:45Z</time>
      </trkpt>
      <trkpt lat="45.64036" lon="4.53679">
        <ele>648.8</ele>
        <time>2014-05-01T06:27:47Z</time>
      </trkpt>
      <trkpt lat="45.64033" lon="4.5368">
        <ele>649.3</ele>
        <time>2014-05-01T06:27:49Z</time>
      </trkpt>
      <trkpt lat="45.6403" lon="4.53681">
        <ele>649.7</ele>
        <time>2014-05-01T06:27:51Z</time>
      </trkpt>
      <trkpt lat="45.64028" lon="4.53682">
        <ele>650</ele>
        <time>2014-05-01T06:27:53Z</time>
      </trkpt>
      <trkpt lat="45.64026" lon="4.53683">
        <ele>650.4</ele>
        <time>2014-05-01T06:27:55Z</time>
      </trkpt>
      <trkpt lat="45.64023" lon="4.53684">
        <ele>650.8</ele>
        <time>2014-05-01T06:27:57Z</time>
      </trkpt>
      <trkpt lat="45.6402" lon="4.53686">
        <ele>651.2</ele>
        <time>2014-05-01T06:27:59Z</time>
      </trkpt>
      <trkpt lat="45.64018" lon="4.53687">
        <ele>652</ele>
        <time>2014-05-01T06:28:01Z</time>
      </trkpt>
      <trkpt lat="45.64014" lon="4.53688">
        <ele>653.1</ele>
        <time>2014-05-01T06:28:03Z</time>
      </trkpt>
      <trkpt lat="45.64011" lon="4.53689">
        <ele>655.2</ele>
        <time>2014-05-01T06:28:05Z</time>
      </trkpt>
      <trkpt lat="45.64008" lon="4.53688">
        <ele>655.3</ele>
        <time>2014-05-01T06:28:07Z</time>
      </trkpt>
      <trkpt lat="45.64005" lon="4.53688">
        <ele>655.4</ele>
        <time>2014-05-01T06:28:09Z</time>
      </trkpt>
      <trkpt lat="45.64002" lon="4.53687">
        <ele>655.5</ele>
        <time>2014-05-01T06:28:11Z</time>
      </trkpt>
      <trkpt lat="45.63997" lon="4.53686">
        <ele>655.7</ele>
        <time>2014-05-01T06:28:13Z</time>
      </trkpt>
      <trkpt lat="45.63993" lon="4.53686">
        <ele>655.8</ele>
        <time>2014-05-01T06:28:15Z</time>
      </trkpt>
      <trkpt lat="45.63989" lon="4.53685">
        <ele>655.9</ele>
        <time>2014-05-01T06:28:17Z</time>
      </trkpt>
      <trkpt lat="45.63985" lon="4.53684">
        <ele>656.1</ele>
        <time>2014-05-01T06:28:19Z</time>
      </trkpt>
      <trkpt lat="45.63981" lon="4.53684">
        <ele>656.2</ele>
        <time>2014-05-01T06:28:21Z</time>
      </trkpt>
      <trkpt lat="45.63977" lon="4.53682">
        <ele>656.3</ele>
        <time>2014-05-01T06:28:23Z</time>
      </trkpt>
      <trkpt lat="45.63972" lon="4.53681">
        <ele>656.4</ele>
        <time>2014-05-01T06:28:25Z</time>
      </trkpt>
      <trkpt lat="45.63968" lon="4.5368">
        <ele>656.4</ele>
        <time>2014-05-01T06:28:27Z</time>
      </trkpt>
      <trkpt lat="45.63963" lon="4.53679">
        <ele>656.5</ele>
        <time>2014-05-01T06:28:29Z</time>
      </trkpt>
      <trkpt lat="45.63958" lon="4.53678">
        <ele>656.5</ele>
        <time>2014-05-01T06:28:31Z</time>
      </trkpt>
      <trkpt lat="45.63954" lon="4.53676">
        <ele>656.6</ele>
        <time>2014-05-01T06:28:33Z</time>
      </trkpt>
      <trkpt lat="45.63949" lon="4.53675">
        <ele>656.5</ele>
        <time>2014-05-01T06:28:35Z</time>
      </trkpt>
      <trkpt lat="45.63944" lon="4.53673">
        <ele>656.4</ele>
        <time>2014-05-01T06:28:37Z</time>
      </trkpt>
      <trkpt lat="45.63939" lon="4.53669">
        <ele>656.4</ele>
        <time>2014-05-01T06:28:39Z</time>
      </trkpt>
      <trkpt lat="45.63932" lon="4.53664">
        <ele>656.1</ele>
        <time>2014-05-01T06:28:41Z</time>
      </trkpt>
      <trkpt lat="45.63925" lon="4.5366">
        <ele>655.7</ele>
        <time>2014-05-01T06:28:43Z</time>
      </trkpt>
      <trkpt lat="45.63917" lon="4.53656">
        <ele>655.2</ele>
        <time>2014-05-01T06:28:45Z</time>
      </trkpt>
      <trkpt lat="45.63908" lon="4.53652">
        <ele>654.6</ele>
        <time>2014-05-01T06:28:47Z</time>
      </trkpt>
      <trkpt lat="45.63898" lon="4.53648">
        <ele>653.9</ele>
        <time>2014-05-01T06:28:49Z</time>
      </trkpt>
      <trkpt lat="45.63889" lon="4.53646">
        <ele>653.1</ele>
        <time>2014-05-01T06:28:51Z</time>
      </trkpt>
      <trkpt lat="45.6388" lon="4.53643">
        <ele>652.1</ele>
        <time>2014-05-01T06:28:53Z</time>
      </trkpt>
      <trkpt lat="45.63868" lon="4.53641">
        <ele>650.9</ele>
        <time>2014-05-01T06:28:55Z</time>
      </trkpt>
      <trkpt lat="45.63855" lon="4.53637">
        <ele>649.8</ele>
        <time>2014-05-01T06:28:57Z</time>
      </trkpt>
      <trkpt lat="45.63841" lon="4.53634">
        <ele>649.1</ele>
        <time>2014-05-01T06:28:59Z</time>
      </trkpt>
      <trkpt lat="45.63829" lon="4.5363">
        <ele>648.8</ele>
        <time>2014-05-01T06:29:01Z</time>
      </trkpt>
      <trkpt lat="45.63817" lon="4.53627">
        <ele>648.4</ele>
        <time>2014-05-01T06:29:03Z</time>
      </trkpt>
      <trkpt lat="45.63807" lon="4.53624">
        <ele>648.2</ele>
        <time>2014-05-01T06:29:05Z</time>
      </trkpt>
      <trkpt lat="45.63797" lon="4.53621">
        <ele>648</ele>
        <time>2014-05-01T06:29:07Z</time>
      </trkpt>
      <trkpt lat="45.63787" lon="4.53618">
        <ele>647.8</ele>
        <time>2014-05-01T06:29:09Z</time>
      </trkpt>
      <trkpt lat="45.63777" lon="4.53617">
        <ele>647.5</ele>
        <time>2014-05-01T06:29:11Z</time>
      </trkpt>
      <trkpt lat="45.63767" lon="4.53617">
        <ele>647.3</ele>
        <time>2014-05-01T06:29:13Z</time>
      </trkpt>
      <trkpt lat="45.63757" lon="4.53618">
        <ele>647.1</ele>
        <time>2014-05-01T06:29:15Z</time>
      </trkpt>
      <trkpt lat="45.63746" lon="4.53619">
        <ele>646.5</ele>
        <time>2014-05-01T06:29:17Z</time>
      </trkpt>
      <trkpt lat="45.63736" lon="4.53617">
        <ele>645.9</ele>
        <time>2014-05-01T06:29:19Z</time>
      </trkpt>
      <trkpt lat="45.63727" lon="4.53616">
        <ele>645.5</ele>
        <time>2014-05-01T06:29:21Z</time>
      </trkpt>
      <trkpt lat="45.6372" lon="4.53621">
        <ele>645.2</ele>
        <time>2014-05-01T06:29:23Z</time>
      </trkpt>
      <trkpt lat="45.63714" lon="4.53625">
        <ele>645</ele>
        <time>2014-05-01T06:29:25Z</time>
      </trkpt>
      <trkpt lat="45.63709" lon="4.53628">
        <ele>645.2</ele>
        <time>2014-05-01T06:29:27Z</time>
      </trkpt>
      <trkpt lat="45.63703" lon="4.53631">
        <ele>645.3</ele>
        <time>2014-05-01T06:29:29Z</time>
      </trkpt>
      <trkpt lat="45.63697" lon="4.53634">
        <ele>645.4</ele>
        <time>2014-05-01T06:29:31Z</time>
      </trkpt>
      <trkpt lat="45.63692" lon="4.53637">
        <ele>645.6</ele>
        <time>2014-05-01T06:29:33Z</time>
      </trkpt>
      <trkpt lat="45.63687" lon="4.53641">
        <ele>645.7</ele>
        <time>2014-05-01T06:29:35Z</time>
      </trkpt>
      <trkpt lat="45.63681" lon="4.53645">
        <ele>645.8</ele>
        <time>2014-05-01T06:29:37Z</time>
      </trkpt>
      <trkpt lat="45.63677" lon="4.53648">
        <ele>646</ele>
        <time>2014-05-01T06:29:39Z</time>
      </trkpt>
      <trkpt lat="45.63671" lon="4.53652">
        <ele>646.3</ele>
        <time>2014-05-01T06:29:41Z</time>
      </trkpt>
      <trkpt lat="45.63666" lon="4.53656">
        <ele>646.5</ele>
        <time>2014-05-01T06:29:43Z</time>
      </trkpt>
      <trkpt lat="45.63661" lon="4.53659">
        <ele>646.7</ele>
        <time>2014-05-01T06:29:45Z</time>
      </trkpt>
      <trkpt lat="45.63656" lon="4.53663">
        <ele>646.9</ele>
        <time>2014-05-01T06:29:47Z</time>
      </trkpt>
      <trkpt lat="45.6365" lon="4.53668">
        <ele>647.1</ele>
        <time>2014-05-01T06:29:49Z</time>
      </trkpt>
      <trkpt lat="45.63644" lon="4.53672">
        <ele>647.3</ele>
        <time>2014-05-01T06:29:51Z</time>
      </trkpt>
      <trkpt lat="45.63638" lon="4.53677">
        <ele>647.5</ele>
        <time>2014-05-01T06:29:53Z</time>
      </trkpt>
      <trkpt lat="45.63632" lon="4.53683">
        <ele>647.7</ele>
        <time>2014-05-01T06:29:55Z</time>
      </trkpt>
      <trkpt lat="45.63626" lon="4.53689">
        <ele>647.8</ele>
        <time>2014-05-01T06:29:57Z</time>
      </trkpt>
      <trkpt lat="45.6362" lon="4.53695">
        <ele>647.9</ele>
        <time>2014-05-01T06:29:59Z</time>
      </trkpt>
      <trkpt lat="45.63614" lon="4.53702">
        <ele>648</ele>
        <time>2014-05-01T06:30:01Z</time>
      </trkpt>
      <trkpt lat="45.63608" lon="4.53709">
        <ele>648</ele>
        <time>2014-05-01T06:30:03Z</time>
      </trkpt>
      <trkpt lat="45.63601" lon="4.53716">
        <ele>648.1</ele>
        <time>2014-05-01T06:30:05Z</time>
      </trkpt>
      <trkpt lat="45.63595" lon="4.53724">
        <ele>648.1</ele>
        <time>2014-05-01T06:30:07Z</time>
      </trkpt>
      <trkpt lat="45.63588" lon="4.53731">
        <ele>648.1</ele>
        <time>2014-05-01T06:30:09Z</time>
      </trkpt>
      <trkpt lat="45.6358" lon="4.53737">
        <ele>648.1</ele>
        <time>2014-05-01T06:30:11Z</time>
      </trkpt>
      <trkpt lat="45.63571" lon="4.53742">
        <ele>648</ele>
        <time>2014-05-01T06:30:13Z</time>
      </trkpt>
      <trkpt lat="45.63561" lon="4.53748">
        <ele>647.4</ele>
        <time>2014-05-01T06:30:15Z</time>
      </trkpt>
      <trkpt lat="45.63548" lon="4.53753">
        <ele>645.7</ele>
        <time>2014-05-01T06:30:17Z</time>
      </trkpt>
      <trkpt lat="45.63532" lon="4.5376">
        <ele>644.8</ele>
        <time>2014-05-01T06:30:19Z</time>
      </trkpt>
      <trkpt lat="45.63516" lon="4.53763">
        <ele>643.9</ele>
        <time>2014-05-01T06:30:21Z</time>
      </trkpt>
      <trkpt lat="45.635" lon="4.53762">
        <ele>643.7</ele>
        <time>2014-05-01T06:30:23Z</time>
      </trkpt>
      <trkpt lat="45.63486" lon="4.53759">
        <ele>643.9</ele>
        <time>2014-05-01T06:30:25Z</time>
      </trkpt>
      <trkpt lat="45.63474" lon="4.53756">
        <ele>644.6</ele>
        <time>2014-05-01T06:30:27Z</time>
      </trkpt>
      <trkpt lat="45.63465" lon="4.53754">
        <ele>645.2</ele>
        <time>2014-05-01T06:30:29Z</time>
      </trkpt>
      <trkpt lat="45.63456" lon="4.53752">
        <ele>645.9</ele>
        <time>2014-05-01T06:30:31Z</time>
      </trkpt>
      <trkpt lat="45.63449" lon="4.53749">
        <ele>646.7</ele>
        <time>2014-05-01T06:30:33Z</time>
      </trkpt>
      <trkpt lat="45.63442" lon="4.53747">
        <ele>647.5</ele>
        <time>2014-05-01T06:30:35Z</time>
      </trkpt>
      <trkpt lat="45.63435" lon="4.53744">
        <ele>648</ele>
        <time>2014-05-01T06:30:37Z</time>
      </trkpt>
      <trkpt lat="45.63427" lon="4.53742">
        <ele>648.6</ele>
        <time>2014-05-01T06:30:39Z</time>
      </trkpt>
      <trkpt lat="45.6342" lon="4.5374">
        <ele>649.2</ele>
        <time>2014-05-01T06:30:41Z</time>
      </trkpt>
      <trkpt lat="45.63413" lon="4.53739">
        <ele>649.7</ele>
        <time>2014-05-01T06:30:43Z</time>
      </trkpt>
      <trkpt lat="45.63405" lon="4.53737">
        <ele>650.3</ele>
        <time>2014-05-01T06:30:45Z</time>
      </trkpt>
      <trkpt lat="45.63397" lon="4.53736">
        <ele>651.1</ele>
        <time>2014-05-01T06:30:47Z</time>
      </trkpt>
      <trkpt lat="45.6339" lon="4.53734">
        <ele>651.8</ele>
        <time>2014-05-01T06:30:49Z</time>
      </trkpt>
      <trkpt lat="45.63383" lon="4.53732">
        <ele>652.2</ele>
        <time>2014-05-01T06:30:51Z</time>
      </trkpt>
      <trkpt lat="45.63376" lon="4.5373">
        <ele>652.5</ele>
        <time>2014-05-01T06:30:53Z</time>
      </trkpt>
      <trkpt lat="45.63368" lon="4.53727">
        <ele>652.9</ele>
        <time>2014-05-01T06:30:55Z</time>
      </trkpt>
      <trkpt lat="45.63361" lon="4.53724">
        <ele>653.3</ele>
        <time>2014-05-01T06:30:57Z</time>
      </trkpt>
      <trkpt lat="45.63352" lon="4.53724">
        <ele>653.6</ele>
        <time>2014-05-01T06:30:59Z</time>
      </trkpt>
      <trkpt lat="45.63347" lon="4.53727">
        <ele>653.9</ele>
        <time>2014-05-01T06:31:01Z</time>
      </trkpt>
      <trkpt lat="45.63343" lon="4.5373">
        <ele>654</ele>
        <time>2014-05-01T06:31:03Z</time>
      </trkpt>
      <trkpt lat="45.6334" lon="4.53732">
        <ele>654.1</ele>
        <time>2014-05-01T06:31:05Z</time>
      </trkpt>
      <trkpt lat="45.63337" lon="4.53735">
        <ele>654.1</ele>
        <time>2014-05-01T06:31:07Z</time>
      </trkpt>
      <trkpt lat="45.63335" lon="4.53739">
        <ele>654</ele>
        <time>2014-05-01T06:31:09Z</time>
      </trkpt>
      <trkpt lat="45.63334" lon="4.53742">
        <ele>654</ele>
        <time>2014-05-01T06:31:11Z</time>
      </trkpt>
      <trkpt lat="45.63332" lon="4.53745">
        <ele>654.6</ele>
        <time>2014-05-01T06:31:13Z</time>
      </trkpt>
      <trkpt lat="45.63332" lon="4.53748">
        <ele>655.3</ele>
        <time>2014-05-01T06:31:15Z</time>
      </trkpt>
      <trkpt lat="45.63331" lon="4.53752">
        <ele>655.5</ele>
        <time>2014-05-01T06:31:17Z</time>
      </trkpt>
      <trkpt lat="45.63331" lon="4.53755">
        <ele>656</ele>
        <time>2014-05-01T06:31:19Z</time>
      </trkpt>
      <trkpt lat="45.63331" lon="4.53759">
        <ele>656.7</ele>
        <time>2014-05-01T06:31:21Z</time>
      </trkpt>
      <trkpt lat="45.6333" lon="4.53762">
        <ele>657.5</ele>
        <time>2014-05-01T06:31:23Z</time>
      </trkpt>
      <trkpt lat="45.6333" lon="4.53766">
        <ele>658.3</ele>
        <time>2014-05-01T06:31:25Z</time>
      </trkpt>
      <trkpt lat="45.6333" lon="4.5377">
        <ele>658.4</ele>
        <time>2014-05-01T06:31:27Z</time>
      </trkpt>
      <trkpt lat="45.63331" lon="4.53773">
        <ele>659.2</ele>
        <time>2014-05-01T06:31:29Z</time>
      </trkpt>
      <trkpt lat="45.63332" lon="4.53776">
        <ele>660.1</ele>
        <time>2014-05-01T06:31:31Z</time>
      </trkpt>
      <trkpt lat="45.63332" lon="4.5378">
        <ele>660.8</ele>
        <time>2014-05-01T06:31:33Z</time>
      </trkpt>
      <trkpt lat="45.63332" lon="4.53783">
        <ele>661</ele>
        <time>2014-05-01T06:31:35Z</time>
      </trkpt>
      <trkpt lat="45.63333" lon="4.53786">
        <ele>661.7</ele>
        <time>2014-05-01T06:31:37Z</time>
      </trkpt>
      <trkpt lat="45.63334" lon="4.53789">
        <ele>662.8</ele>
        <time>2014-05-01T06:31:39Z</time>
      </trkpt>
      <trkpt lat="45.63335" lon="4.53792">
        <ele>663.6</ele>
        <time>2014-05-01T06:31:41Z</time>
      </trkpt>
      <trkpt lat="45.63337" lon="4.53795">
        <ele>663.7</ele>
        <time>2014-05-01T06:31:43Z</time>
      </trkpt>
      <trkpt lat="45.63338" lon="4.53798">
        <ele>664.8</ele>
        <time>2014-05-01T06:31:45Z</time>
      </trkpt>
      <trkpt lat="45.6334" lon="4.53801">
        <ele>665.6</ele>
        <time>2014-05-01T06:31:47Z</time>
      </trkpt>
      <trkpt lat="45.6334" lon="4.53803">
        <ele>666</ele>
        <time>2014-05-01T06:31:49Z</time>
      </trkpt>
      <trkpt lat="45.63341" lon="4.53806">
        <ele>666.7</ele>
        <time>2014-05-01T06:31:51Z</time>
      </trkpt>
      <trkpt lat="45.63342" lon="4.53809">
        <ele>667.4</ele>
        <time>2014-05-01T06:31:53Z</time>
      </trkpt>
      <trkpt lat="45.63343" lon="4.53811">
        <ele>667.8</ele>
        <time>2014-05-01T06:31:55Z</time>
      </trkpt>
      <trkpt lat="45.63344" lon="4.53814">
        <ele>668.5</ele>
        <time>2014-05-01T06:31:57Z</time>
      </trkpt>
      <trkpt lat="45.63345" lon="4.53817">
        <ele>668.6</ele>
        <time>2014-05-01T06:31:59Z</time>
      </trkpt>
      <trkpt lat="45.63346" lon="4.5382">
        <ele>669.6</ele>
        <time>2014-05-01T06:32:01Z</time>
      </trkpt>
      <trkpt lat="45.63347" lon="4.53823">
        <ele>670.3</ele>
        <time>2014-05-01T06:32:03Z</time>
      </trkpt>
      <trkpt lat="45.63348" lon="4.53825">
        <ele>670.4</ele>
        <time>2014-05-01T06:32:05Z</time>
      </trkpt>
      <trkpt lat="45.63349" lon="4.53827">
        <ele>671.2</ele>
        <time>2014-05-01T06:32:07Z</time>
      </trkpt>
      <trkpt lat="45.63351" lon="4.5383">
        <ele>671.6</ele>
        <time>2014-05-01T06:32:09Z</time>
      </trkpt>
      <trkpt lat="45.63352" lon="4.53832">
        <ele>671.9</ele>
        <time>2014-05-01T06:32:11Z</time>
      </trkpt>
      <trkpt lat="45.63354" lon="4.53835">
        <ele>672.3</ele>
        <time>2014-05-01T06:32:13Z</time>
      </trkpt>
      <trkpt lat="45.63356" lon="4.53836">
        <ele>672.5</ele>
        <time>2014-05-01T06:32:15Z</time>
      </trkpt>
      <trkpt lat="45.63357" lon="4.53838">
        <ele>672.7</ele>
        <time>2014-05-01T06:32:17Z</time>
      </trkpt>
      <trkpt lat="45.63359" lon="4.5384">
        <ele>673.1</ele>
        <time>2014-05-01T06:32:19Z</time>
      </trkpt>
      <trkpt lat="45.63361" lon="4.53842">
        <ele>673.3</ele>
        <time>2014-05-01T06:32:21Z</time>
      </trkpt>
      <trkpt lat="45.63363" lon="4.53844">
        <ele>673.6</ele>
        <time>2014-05-01T06:32:23Z</time>
      </trkpt>
      <trkpt lat="45.63366" lon="4.53846">
        <ele>673.8</ele>
        <time>2014-05-01T06:32:25Z</time>
      </trkpt>
      <trkpt lat="45.63368" lon="4.53847">
        <ele>674.3</ele>
        <time>2014-05-01T06:32:27Z</time>
      </trkpt>
      <trkpt lat="45.6337" lon="4.53849">
        <ele>674.5</ele>
        <time>2014-05-01T06:32:29Z</time>
      </trkpt>
      <trkpt lat="45.63372" lon="4.53852">
        <ele>674.8</ele>
        <time>2014-05-01T06:32:31Z</time>
      </trkpt>
      <trkpt lat="45.63375" lon="4.53854">
        <ele>675.1</ele>
        <time>2014-05-01T06:32:33Z</time>
      </trkpt>
      <trkpt lat="45.63377" lon="4.53856">
        <ele>675.5</ele>
        <time>2014-05-01T06:32:35Z</time>
      </trkpt>
      <trkpt lat="45.6338" lon="4.53858">
        <ele>675.7</ele>
        <time>2014-05-01T06:32:37Z</time>
      </trkpt>
      <trkpt lat="45.63383" lon="4.53862">
        <ele>676.1</ele>
        <time>2014-05-01T06:32:39Z</time>
      </trkpt>
      <trkpt lat="45.63385" lon="4.53864">
        <ele>676.6</ele>
        <time>2014-05-01T06:32:41Z</time>
      </trkpt>
      <trkpt lat="45.63388" lon="4.53867">
        <ele>676.8</ele>
        <time>2014-05-01T06:32:43Z</time>
      </trkpt>
      <trkpt lat="45.63391" lon="4.5387">
        <ele>677.3</ele>
        <time>2014-05-01T06:32:45Z</time>
      </trkpt>
      <trkpt lat="45.63394" lon="4.53873">
        <ele>677.9</ele>
        <time>2014-05-01T06:32:47Z</time>
      </trkpt>
      <trkpt lat="45.63397" lon="4.53876">
        <ele>678.1</ele>
        <time>2014-05-01T06:32:49Z</time>
      </trkpt>
      <trkpt lat="45.634" lon="4.53878">
        <ele>678.6</ele>
        <time>2014-05-01T06:32:51Z</time>
      </trkpt>
      <trkpt lat="45.63402" lon="4.53881">
        <ele>678.9</ele>
        <time>2014-05-01T06:32:53Z</time>
      </trkpt>
      <trkpt lat="45.63404" lon="4.53883">
        <ele>679.5</ele>
        <time>2014-05-01T06:32:55Z</time>
      </trkpt>
      <trkpt lat="45.63407" lon="4.53886">
        <ele>679.7</ele>
        <time>2014-05-01T06:32:57Z</time>
      </trkpt>
      <trkpt lat="45.63409" lon="4.53888">
        <ele>680.3</ele>
        <time>2014-05-01T06:32:59Z</time>
      </trkpt>
      <trkpt lat="45.63413" lon="4.5389">
        <ele>680.8</ele>
        <time>2014-05-01T06:33:01Z</time>
      </trkpt>
      <trkpt lat="45.63415" lon="4.53892">
        <ele>681.1</ele>
        <time>2014-05-01T06:33:03Z</time>
      </trkpt>
      <trkpt lat="45.63417" lon="4.53895">
        <ele>681.5</ele>
        <time>2014-05-01T06:33:05Z</time>
      </trkpt>
      <trkpt lat="45.63419" lon="4.53898">
        <ele>681.8</ele>
        <time>2014-05-01T06:33:07Z</time>
      </trkpt>
      <trkpt lat="45.63423" lon="4.53901">
        <ele>682.3</ele>
        <time>2014-05-01T06:33:09Z</time>
      </trkpt>
      <trkpt lat="45.63426" lon="4.53905">
        <ele>682.8</ele>
        <time>2014-05-01T06:33:11Z</time>
      </trkpt>
      <trkpt lat="45.6343" lon="4.53909">
        <ele>683.2</ele>
        <time>2014-05-01T06:33:13Z</time>
      </trkpt>
      <trkpt lat="45.63435" lon="4.53914">
        <ele>683.6</ele>
        <time>2014-05-01T06:33:15Z</time>
      </trkpt>
      <trkpt lat="45.6344" lon="4.53919">
        <ele>683.9</ele>
        <time>2014-05-01T06:33:17Z</time>
      </trkpt>
      <trkpt lat="45.63445" lon="4.53925">
        <ele>684.6</ele>
        <time>2014-05-01T06:33:19Z</time>
      </trkpt>
      <trkpt lat="45.6345" lon="4.5393">
        <ele>685.1</ele>
        <time>2014-05-01T06:33:21Z</time>
      </trkpt>
      <trkpt lat="45.63456" lon="4.53938">
        <ele>685.6</ele>
        <time>2014-05-01T06:33:23Z</time>
      </trkpt>
      <trkpt lat="45.63462" lon="4.53947">
        <ele>685.7</ele>
        <time>2014-05-01T06:33:25Z</time>
      </trkpt>
      <trkpt lat="45.6347" lon="4.53956">
        <ele>685.3</ele>
        <time>2014-05-01T06:33:27Z</time>
      </trkpt>
      <trkpt lat="45.63475" lon="4.53969">
        <ele>685.2</ele>
        <time>2014-05-01T06:33:29Z</time>
      </trkpt>
      <trkpt lat="45.6348" lon="4.5398">
        <ele>685.6</ele>
        <time>2014-05-01T06:33:31Z</time>
      </trkpt>
      <trkpt lat="45.63486" lon="4.53991">
        <ele>686.1</ele>
        <time>2014-05-01T06:33:33Z</time>
      </trkpt>
      <trkpt lat="45.63493" lon="4.54002">
        <ele>686.9</ele>
        <time>2014-05-01T06:33:35Z</time>
      </trkpt>
      <trkpt lat="45.635" lon="4.54011">
        <ele>687.3</ele>
        <time>2014-05-01T06:33:37Z</time>
      </trkpt>
      <trkpt lat="45.63507" lon="4.54019">
        <ele>687.3</ele>
        <time>2014-05-01T06:33:39Z</time>
      </trkpt>
      <trkpt lat="45.63513" lon="4.54028">
        <ele>687</ele>
        <time>2014-05-01T06:33:41Z</time>
      </trkpt>
      <trkpt lat="45.6352" lon="4.54037">
        <ele>686.2</ele>
        <time>2014-05-01T06:33:43Z</time>
      </trkpt>
      <trkpt lat="45.63525" lon="4.54046">
        <ele>686.7</ele>
        <time>2014-05-01T06:33:45Z</time>
      </trkpt>
      <trkpt lat="45.63531" lon="4.54055">
        <ele>686.6</ele>
        <time>2014-05-01T06:33:47Z</time>
      </trkpt>
      <trkpt lat="45.63536" lon="4.54066">
        <ele>686.7</ele>
        <time>2014-05-01T06:33:49Z</time>
      </trkpt>
      <trkpt lat="45.63541" lon="4.54076">
        <ele>686.9</ele>
        <time>2014-05-01T06:33:51Z</time>
      </trkpt>
      <trkpt lat="45.63545" lon="4.54086">
        <ele>686.4</ele>
        <time>2014-05-01T06:33:53Z</time>
      </trkpt>
      <trkpt lat="45.63549" lon="4.54096">
        <ele>686.3</ele>
        <time>2014-05-01T06:33:55Z</time>
      </trkpt>
      <trkpt lat="45.63552" lon="4.54104">
        <ele>686.5</ele>
        <time>2014-05-01T06:33:57Z</time>
      </trkpt>
      <trkpt lat="45.63554" lon="4.54113">
        <ele>687</ele>
        <time>2014-05-01T06:33:59Z</time>
      </trkpt>
      <trkpt lat="45.63556" lon="4.54122">
        <ele>687.8</ele>
        <time>2014-05-01T06:34:01Z</time>
      </trkpt>
      <trkpt lat="45.63558" lon="4.5413">
        <ele>689.4</ele>
        <time>2014-05-01T06:34:03Z</time>
      </trkpt>
      <trkpt lat="45.6356" lon="4.54139">
        <ele>690.3</ele>
        <time>2014-05-01T06:34:05Z</time>
      </trkpt>
      <trkpt lat="45.63562" lon="4.54148">
        <ele>691.4</ele>
        <time>2014-05-01T06:34:07Z</time>
      </trkpt>
      <trkpt lat="45.63563" lon="4.54156">
        <ele>691.3</ele>
        <time>2014-05-01T06:34:09Z</time>
      </trkpt>
      <trkpt lat="45.63564" lon="4.54165">
        <ele>691.4</ele>
        <time>2014-05-01T06:34:11Z</time>
      </trkpt>
      <trkpt lat="45.63565" lon="4.54174">
        <ele>691</ele>
        <time>2014-05-01T06:34:13Z</time>
      </trkpt>
      <trkpt lat="45.63567" lon="4.54183">
        <ele>691.2</ele>
        <time>2014-05-01T06:34:15Z</time>
      </trkpt>
      <trkpt lat="45.63568" lon="4.54191">
        <ele>691.1</ele>
        <time>2014-05-01T06:34:17Z</time>
      </trkpt>
      <trkpt lat="45.63569" lon="4.542">
        <ele>691.5</ele>
        <time>2014-05-01T06:34:19Z</time>
      </trkpt>
      <trkpt lat="45.6357" lon="4.54209">
        <ele>692.1</ele>
        <time>2014-05-01T06:34:21Z</time>
      </trkpt>
      <trkpt lat="45.63572" lon="4.54217">
        <ele>692.6</ele>
        <time>2014-05-01T06:34:23Z</time>
      </trkpt>
      <trkpt lat="45.63573" lon="4.54225">
        <ele>693</ele>
        <time>2014-05-01T06:34:25Z</time>
      </trkpt>
      <trkpt lat="45.63574" lon="4.54232">
        <ele>693</ele>
        <time>2014-05-01T06:34:27Z</time>
      </trkpt>
      <trkpt lat="45.63575" lon="4.54239">
        <ele>693</ele>
        <time>2014-05-01T06:34:29Z</time>
      </trkpt>
      <trkpt lat="45.63577" lon="4.54245">
        <ele>693.1</ele>
        <time>2014-05-01T06:34:31Z</time>
      </trkpt>
      <trkpt lat="45.63578" lon="4.54253">
        <ele>693.1</ele>
        <time>2014-05-01T06:34:33Z</time>
      </trkpt>
      <trkpt lat="45.63579" lon="4.5426">
        <ele>693.2</ele>
        <time>2014-05-01T06:34:35Z</time>
      </trkpt>
      <trkpt lat="45.6358" lon="4.54267">
        <ele>693.3</ele>
        <time>2014-05-01T06:34:37Z</time>
      </trkpt>
      <trkpt lat="45.63581" lon="4.54275">
        <ele>693.4</ele>
        <time>2014-05-01T06:34:39Z</time>
      </trkpt>
      <trkpt lat="45.63583" lon="4.54282">
        <ele>693.6</ele>
        <time>2014-05-01T06:34:41Z</time>
      </trkpt>
      <trkpt lat="45.63585" lon="4.54289">
        <ele>693.6</ele>
        <time>2014-05-01T06:34:43Z</time>
      </trkpt>
      <trkpt lat="45.63587" lon="4.54296">
        <ele>693.7</ele>
        <time>2014-05-01T06:34:45Z</time>
      </trkpt>
      <trkpt lat="45.63589" lon="4.54303">
        <ele>693.8</ele>
        <time>2014-05-01T06:34:47Z</time>
      </trkpt>
      <trkpt lat="45.63591" lon="4.5431">
        <ele>693.9</ele>
        <time>2014-05-01T06:34:49Z</time>
      </trkpt>
      <trkpt lat="45.63594" lon="4.54316">
        <ele>694.1</ele>
        <time>2014-05-01T06:34:51Z</time>
      </trkpt>
      <trkpt lat="45.63597" lon="4.54322">
        <ele>694.3</ele>
        <time>2014-05-01T06:34:53Z</time>
      </trkpt>
      <trkpt lat="45.63601" lon="4.54328">
        <ele>694.5</ele>
        <time>2014-05-01T06:34:55Z</time>
      </trkpt>
      <trkpt lat="45.63604" lon="4.54333">
        <ele>694.8</ele>
        <time>2014-05-01T06:34:57Z</time>
      </trkpt>
      <trkpt lat="45.63608" lon="4.54339">
        <ele>694.9</ele>
        <time>2014-05-01T06:34:59Z</time>
      </trkpt>
      <trkpt lat="45.63612" lon="4.54344">
        <ele>695.1</ele>
        <time>2014-05-01T06:35:01Z</time>
      </trkpt>
      <trkpt lat="45.63616" lon="4.54348">
        <ele>695.4</ele>
        <time>2014-05-01T06:35:03Z</time>
      </trkpt>
      <trkpt lat="45.6362" lon="4.54352">
        <ele>695.6</ele>
        <time>2014-05-01T06:35:05Z</time>
      </trkpt>
      <trkpt lat="45.63625" lon="4.54356">
        <ele>695.7</ele>
        <time>2014-05-01T06:35:07Z</time>
      </trkpt>
      <trkpt lat="45.63629" lon="4.5436">
        <ele>695.8</ele>
        <time>2014-05-01T06:35:09Z</time>
      </trkpt>
      <trkpt lat="45.63633" lon="4.54363">
        <ele>695.9</ele>
        <time>2014-05-01T06:35:11Z</time>
      </trkpt>
      <trkpt lat="45.63638" lon="4.54366">
        <ele>696</ele>
        <time>2014-05-01T06:35:13Z</time>
      </trkpt>
      <trkpt lat="45.63642" lon="4.54369">
        <ele>696.2</ele>
        <time>2014-05-01T06:35:15Z</time>
      </trkpt>
      <trkpt lat="45.63646" lon="4.54372">
        <ele>696.3</ele>
        <time>2014-05-01T06:35:17Z</time>
      </trkpt>
      <trkpt lat="45.63651" lon="4.54375">
        <ele>696.5</ele>
        <time>2014-05-01T06:35:19Z</time>
      </trkpt>
      <trkpt lat="45.63656" lon="4.54378">
        <ele>696.5</ele>
        <time>2014-05-01T06:35:21Z</time>
      </trkpt>
      <trkpt lat="45.6366" lon="4.54382">
        <ele>696.6</ele>
        <time>2014-05-01T06:35:23Z</time>
      </trkpt>
      <trkpt lat="45.63664" lon="4.54385">
        <ele>696.7</ele>
        <time>2014-05-01T06:35:25Z</time>
      </trkpt>
      <trkpt lat="45.63669" lon="4.54388">
        <ele>696.8</ele>
        <time>2014-05-01T06:35:27Z</time>
      </trkpt>
      <trkpt lat="45.63673" lon="4.54391">
        <ele>696.9</ele>
        <time>2014-05-01T06:35:29Z</time>
      </trkpt>
      <trkpt lat="45.63678" lon="4.54395">
        <ele>697</ele>
        <time>2014-05-01T06:35:31Z</time>
      </trkpt>
      <trkpt lat="45.63683" lon="4.54398">
        <ele>697</ele>
        <time>2014-05-01T06:35:33Z</time>
      </trkpt>
      <trkpt lat="45.63687" lon="4.54402">
        <ele>697</ele>
        <time>2014-05-01T06:35:35Z</time>
      </trkpt>
      <trkpt lat="45.63691" lon="4.54406">
        <ele>697</ele>
        <time>2014-05-01T06:35:37Z</time>
      </trkpt>
      <trkpt lat="45.63693" lon="4.54412">
        <ele>697.1</ele>
        <time>2014-05-01T06:35:39Z</time>
      </trkpt>
      <trkpt lat="45.63692" lon="4.54419">
        <ele>697.3</ele>
        <time>2014-05-01T06:35:41Z</time>
      </trkpt>
      <trkpt lat="45.6369" lon="4.54424">
        <ele>697.5</ele>
        <time>2014-05-01T06:35:43Z</time>
      </trkpt>
      <trkpt lat="45.63687" lon="4.54429">
        <ele>697.8</ele>
        <time>2014-05-01T06:35:45Z</time>
      </trkpt>
      <trkpt lat="45.63684" lon="4.54435">
        <ele>698.2</ele>
        <time>2014-05-01T06:35:47Z</time>
      </trkpt>
      <trkpt lat="45.63681" lon="4.54441">
        <ele>698.6</ele>
        <time>2014-05-01T06:35:49Z</time>
      </trkpt>
      <trkpt lat="45.63678" lon="4.54447">
        <ele>698.9</ele>
        <time>2014-05-01T06:35:51Z</time>
      </trkpt>
      <trkpt lat="45.63675" lon="4.54454">
        <ele>699</ele>
        <time>2014-05-01T06:35:53Z</time>
      </trkpt>
      <trkpt lat="45.63672" lon="4.5446">
        <ele>699.1</ele>
        <time>2014-05-01T06:35:55Z</time>
      </trkpt>
      <trkpt lat="45.63669" lon="4.54466">
        <ele>699.3</ele>
        <time>2014-05-01T06:35:57Z</time>
      </trkpt>
      <trkpt lat="45.63666" lon="4.54472">
        <ele>699.4</ele>
        <time>2014-05-01T06:35:59Z</time>
      </trkpt>
      <trkpt lat="45.63663" lon="4.54479">
        <ele>699.6</ele>
        <time>2014-05-01T06:36:01Z</time>
      </trkpt>
      <trkpt lat="45.6366" lon="4.54485">
        <ele>699.9</ele>
        <time>2014-05-01T06:36:03Z</time>
      </trkpt>
      <trkpt lat="45.63656" lon="4.54491">
        <ele>700.3</ele>
        <time>2014-05-01T06:36:05Z</time>
      </trkpt>
      <trkpt lat="45.63653" lon="4.54497">
        <ele>700.8</ele>
        <time>2014-05-01T06:36:07Z</time>
      </trkpt>
      <trkpt lat="45.6365" lon="4.54504">
        <ele>701.3</ele>
        <time>2014-05-01T06:36:09Z</time>
      </trkpt>
      <trkpt lat="45.63647" lon="4.5451">
        <ele>701.5</ele>
        <time>2014-05-01T06:36:11Z</time>
      </trkpt>
      <trkpt lat="45.63644" lon="4.54516">
        <ele>701.7</ele>
        <time>2014-05-01T06:36:13Z</time>
      </trkpt>
      <trkpt lat="45.6364" lon="4.54523">
        <ele>701.9</ele>
        <time>2014-05-01T06:36:15Z</time>
      </trkpt>
      <trkpt lat="45.63637" lon="4.54529">
        <ele>702.1</ele>
        <time>2014-05-01T06:36:17Z</time>
      </trkpt>
      <trkpt lat="45.63634" lon="4.54535">
        <ele>702.6</ele>
        <time>2014-05-01T06:36:19Z</time>
      </trkpt>
      <trkpt lat="45.63631" lon="4.54541">
        <ele>703</ele>
        <time>2014-05-01T06:36:21Z</time>
      </trkpt>
      <trkpt lat="45.63628" lon="4.54548">
        <ele>703.3</ele>
        <time>2014-05-01T06:36:23Z</time>
      </trkpt>
      <trkpt lat="45.63625" lon="4.54554">
        <ele>703.5</ele>
        <time>2014-05-01T06:36:25Z</time>
      </trkpt>
      <trkpt lat="45.63622" lon="4.54561">
        <ele>703.7</ele>
        <time>2014-05-01T06:36:27Z</time>
      </trkpt>
      <trkpt lat="45.63618" lon="4.54568">
        <ele>704</ele>
        <time>2014-05-01T06:36:29Z</time>
      </trkpt>
      <trkpt lat="45.63615" lon="4.54575">
        <ele>704.3</ele>
        <time>2014-05-01T06:36:31Z</time>
      </trkpt>
      <trkpt lat="45.63611" lon="4.54583">
        <ele>704.7</ele>
        <time>2014-05-01T06:36:33Z</time>
      </trkpt>
      <trkpt lat="45.63608" lon="4.54591">
        <ele>705.2</ele>
        <time>2014-05-01T06:36:35Z</time>
      </trkpt>
      <trkpt lat="45.63605" lon="4.54598">
        <ele>705.5</ele>
        <time>2014-05-01T06:36:37Z</time>
      </trkpt>
      <trkpt lat="45.63602" lon="4.54606">
        <ele>705.6</ele>
        <time>2014-05-01T06:36:39Z</time>
      </trkpt>
      <trkpt lat="45.63599" lon="4.54613">
        <ele>705.7</ele>
        <time>2014-05-01T06:36:41Z</time>
      </trkpt>
      <trkpt lat="45.63595" lon="4.5462">
        <ele>705.9</ele>
        <time>2014-05-01T06:36:43Z</time>
      </trkpt>
      <trkpt lat="45.63591" lon="4.54627">
        <ele>706</ele>
        <time>2014-05-01T06:36:45Z</time>
      </trkpt>
      <trkpt lat="45.63587" lon="4.54634">
        <ele>706.1</ele>
        <time>2014-05-01T06:36:47Z</time>
      </trkpt>
      <trkpt lat="45.63583" lon="4.54641">
        <ele>706.4</ele>
        <time>2014-05-01T06:36:49Z</time>
      </trkpt>
      <trkpt lat="45.63578" lon="4.54647">
        <ele>706.8</ele>
        <time>2014-05-01T06:36:51Z</time>
      </trkpt>
      <trkpt lat="45.63574" lon="4.54655">
        <ele>707.3</ele>
        <time>2014-05-01T06:36:53Z</time>
      </trkpt>
      <trkpt lat="45.6357" lon="4.54662">
        <ele>707.6</ele>
        <time>2014-05-01T06:36:55Z</time>
      </trkpt>
      <trkpt lat="45.63565" lon="4.5467">
        <ele>707.7</ele>
        <time>2014-05-01T06:36:57Z</time>
      </trkpt>
      <trkpt lat="45.63561" lon="4.54678">
        <ele>707.7</ele>
        <time>2014-05-01T06:36:59Z</time>
      </trkpt>
      <trkpt lat="45.63557" lon="4.54687">
        <ele>707.8</ele>
        <time>2014-05-01T06:37:01Z</time>
      </trkpt>
      <trkpt lat="45.63553" lon="4.54695">
        <ele>707.9</ele>
        <time>2014-05-01T06:37:03Z</time>
      </trkpt>
      <trkpt lat="45.63549" lon="4.54704">
        <ele>708</ele>
        <time>2014-05-01T06:37:05Z</time>
      </trkpt>
      <trkpt lat="45.63546" lon="4.54714">
        <ele>708.2</ele>
        <time>2014-05-01T06:37:07Z</time>
      </trkpt>
      <trkpt lat="45.63542" lon="4.54724">
        <ele>708.9</ele>
        <time>2014-05-01T06:37:09Z</time>
      </trkpt>
      <trkpt lat="45.6354" lon="4.54734">
        <ele>709.1</ele>
        <time>2014-05-01T06:37:11Z</time>
      </trkpt>
      <trkpt lat="45.63537" lon="4.54744">
        <ele>709.3</ele>
        <time>2014-05-01T06:37:13Z</time>
      </trkpt>
      <trkpt lat="45.63536" lon="4.54755">
        <ele>709.6</ele>
        <time>2014-05-01T06:37:15Z</time>
      </trkpt>
      <trkpt lat="45.63535" lon="4.54765">
        <ele>709.8</ele>
        <time>2014-05-01T06:37:17Z</time>
      </trkpt>
      <trkpt lat="45.63534" lon="4.54775">
        <ele>710</ele>
        <time>2014-05-01T06:37:19Z</time>
      </trkpt>
      <trkpt lat="45.63534" lon="4.54785">
        <ele>710.3</ele>
        <time>2014-05-01T06:37:21Z</time>
      </trkpt>
      <trkpt lat="45.63534" lon="4.54794">
        <ele>710.5</ele>
        <time>2014-05-01T06:37:23Z</time>
      </trkpt>
      <trkpt lat="45.63534" lon="4.54803">
        <ele>710.9</ele>
        <time>2014-05-01T06:37:25Z</time>
      </trkpt>
      <trkpt lat="45.63535" lon="4.54812">
        <ele>711.5</ele>
        <time>2014-05-01T06:37:27Z</time>
      </trkpt>
      <trkpt lat="45.63535" lon="4.54822">
        <ele>712.2</ele>
        <time>2014-05-01T06:37:29Z</time>
      </trkpt>
      <trkpt lat="45.63536" lon="4.54831">
        <ele>712.5</ele>
        <time>2014-05-01T06:37:31Z</time>
      </trkpt>
      <trkpt lat="45.63537" lon="4.5484">
        <ele>712.7</ele>
        <time>2014-05-01T06:37:33Z</time>
      </trkpt>
      <trkpt lat="45.63538" lon="4.5485">
        <ele>712.9</ele>
        <time>2014-05-01T06:37:35Z</time>
      </trkpt>
      <trkpt lat="45.6354" lon="4.54859">
        <ele>713.1</ele>
        <time>2014-05-01T06:37:37Z</time>
      </trkpt>
      <trkpt lat="45.63541" lon="4.54869">
        <ele>713.4</ele>
        <time>2014-05-01T06:37:39Z</time>
      </trkpt>
      <trkpt lat="45.63543" lon="4.54878">
        <ele>713.8</ele>
        <time>2014-05-01T06:37:41Z</time>
      </trkpt>
      <trkpt lat="45.63543" lon="4.54888">
        <ele>714.5</ele>
        <time>2014-05-01T06:37:43Z</time>
      </trkpt>
      <trkpt lat="45.63546" lon="4.54897">
        <ele>715</ele>
        <time>2014-05-01T06:37:45Z</time>
      </trkpt>
      <trkpt lat="45.6355" lon="4.54906">
        <ele>715</ele>
        <time>2014-05-01T06:37:47Z</time>
      </trkpt>
      <trkpt lat="45.63556" lon="4.54916">
        <ele>714.8</ele>
        <time>2014-05-01T06:37:49Z</time>
      </trkpt>
      <trkpt lat="45.63561" lon="4.54927">
        <ele>714.6</ele>
        <time>2014-05-01T06:37:51Z</time>
      </trkpt>
      <trkpt lat="45.63566" lon="4.54939">
        <ele>714.8</ele>
        <time>2014-05-01T06:37:53Z</time>
      </trkpt>
      <trkpt lat="45.63572" lon="4.54951">
        <ele>715.1</ele>
        <time>2014-05-01T06:37:55Z</time>
      </trkpt>
      <trkpt lat="45.63577" lon="4.54964">
        <ele>715</ele>
        <time>2014-05-01T06:37:57Z</time>
      </trkpt>
      <trkpt lat="45.63582" lon="4.54978">
        <ele>714.5</ele>
        <time>2014-05-01T06:37:59Z</time>
      </trkpt>
      <trkpt lat="45.63588" lon="4.54992">
        <ele>713.6</ele>
        <time>2014-05-01T06:38:01Z</time>
      </trkpt>
      <trkpt lat="45.63593" lon="4.55007">
        <ele>712.7</ele>
        <time>2014-05-01T06:38:03Z</time>
      </trkpt>
      <trkpt lat="45.63598" lon="4.55024">
        <ele>711.5</ele>
        <time>2014-05-01T06:38:05Z</time>
      </trkpt>
      <trkpt lat="45.63602" lon="4.55044">
        <ele>711.1</ele>
        <time>2014-05-01T06:38:07Z</time>
      </trkpt>
      <trkpt lat="45.63606" lon="4.55066">
        <ele>711.1</ele>
        <time>2014-05-01T06:38:09Z</time>
      </trkpt>
      <trkpt lat="45.63611" lon="4.55089">
        <ele>710.7</ele>
        <time>2014-05-01T06:38:11Z</time>
      </trkpt>
      <trkpt lat="45.6362" lon="4.55112">
        <ele>709.5</ele>
        <time>2014-05-01T06:38:13Z</time>
      </trkpt>
      <trkpt lat="45.63632" lon="4.55135">
        <ele>707.9</ele>
        <time>2014-05-01T06:38:15Z</time>
      </trkpt>
      <trkpt lat="45.63643" lon="4.55159">
        <ele>705.7</ele>
        <time>2014-05-01T06:38:17Z</time>
      </trkpt>
      <trkpt lat="45.63652" lon="4.55186">
        <ele>703.4</ele>
        <time>2014-05-01T06:38:19Z</time>
      </trkpt>
      <trkpt lat="45.63659" lon="4.55214">
        <ele>702.4</ele>
        <time>2014-05-01T06:38:21Z</time>
      </trkpt>
      <trkpt lat="45.63667" lon="4.55242">
        <ele>701.5</ele>
        <time>2014-05-01T06:38:23Z</time>
      </trkpt>
      <trkpt lat="45.63675" lon="4.55269">
        <ele>700.5</ele>
        <time>2014-05-01T06:38:25Z</time>
      </trkpt>
      <trkpt lat="45.63682" lon="4.55295">
        <ele>700.1</ele>
        <time>2014-05-01T06:38:27Z</time>
      </trkpt>
      <trkpt lat="45.6369" lon="4.55319">
        <ele>699.7</ele>
        <time>2014-05-01T06:38:29Z</time>
      </trkpt>
      <trkpt lat="45.63696" lon="4.55343">
        <ele>698.7</ele>
        <time>2014-05-01T06:38:31Z</time>
      </trkpt>
      <trkpt lat="45.63702" lon="4.55367">
        <ele>697.4</ele>
        <time>2014-05-01T06:38:33Z</time>
      </trkpt>
      <trkpt lat="45.63708" lon="4.55391">
        <ele>697.1</ele>
        <time>2014-05-01T06:38:35Z</time>
      </trkpt>
      <trkpt lat="45.63715" lon="4.55416">
        <ele>697.6</ele>
        <time>2014-05-01T06:38:37Z</time>
      </trkpt>
      <trkpt lat="45.63722" lon="4.55439">
        <ele>698.4</ele>
        <time>2014-05-01T06:38:39Z</time>
      </trkpt>
      <trkpt lat="45.63727" lon="4.55463">
        <ele>697.9</ele>
        <time>2014-05-01T06:38:41Z</time>
      </trkpt>
      <trkpt lat="45.63725" lon="4.55485">
        <ele>697.3</ele>
        <time>2014-05-01T06:38:43Z</time>
      </trkpt>
      <trkpt lat="45.6372" lon="4.55503">
        <ele>697</ele>
        <time>2014-05-01T06:38:45Z</time>
      </trkpt>
      <trkpt lat="45.63715" lon="4.5552">
        <ele>696.7</ele>
        <time>2014-05-01T06:38:47Z</time>
      </trkpt>
      <trkpt lat="45.63711" lon="4.55535">
        <ele>696.8</ele>
        <time>2014-05-01T06:38:49Z</time>
      </trkpt>
      <trkpt lat="45.63707" lon="4.5555">
        <ele>697.1</ele>
        <time>2014-05-01T06:38:51Z</time>
      </trkpt>
      <trkpt lat="45.63705" lon="4.55565">
        <ele>697.1</ele>
        <time>2014-05-01T06:38:53Z</time>
      </trkpt>
      <trkpt lat="45.63702" lon="4.55579">
        <ele>697.2</ele>
        <time>2014-05-01T06:38:55Z</time>
      </trkpt>
      <trkpt lat="45.63699" lon="4.55592">
        <ele>697.6</ele>
        <time>2014-05-01T06:38:57Z</time>
      </trkpt>
      <trkpt lat="45.63696" lon="4.55605">
        <ele>698</ele>
        <time>2014-05-01T06:38:59Z</time>
      </trkpt>
      <trkpt lat="45.63693" lon="4.55618">
        <ele>698.4</ele>
        <time>2014-05-01T06:39:01Z</time>
      </trkpt>
      <trkpt lat="45.63689" lon="4.5563">
        <ele>698.9</ele>
        <time>2014-05-01T06:39:03Z</time>
      </trkpt>
      <trkpt lat="45.63686" lon="4.55643">
        <ele>699.3</ele>
        <time>2014-05-01T06:39:05Z</time>
      </trkpt>
      <trkpt lat="45.63682" lon="4.55655">
        <ele>699.9</ele>
        <time>2014-05-01T06:39:07Z</time>
      </trkpt>
      <trkpt lat="45.63679" lon="4.55668">
        <ele>700.3</ele>
        <time>2014-05-01T06:39:09Z</time>
      </trkpt>
      <trkpt lat="45.63675" lon="4.5568">
        <ele>701</ele>
        <time>2014-05-01T06:39:11Z</time>
      </trkpt>
      <trkpt lat="45.63672" lon="4.55692">
        <ele>701.9</ele>
        <time>2014-05-01T06:39:13Z</time>
      </trkpt>
      <trkpt lat="45.63667" lon="4.55703">
        <ele>702.5</ele>
        <time>2014-05-01T06:39:15Z</time>
      </trkpt>
      <trkpt lat="45.63664" lon="4.55715">
        <ele>702.8</ele>
        <time>2014-05-01T06:39:17Z</time>
      </trkpt>
      <trkpt lat="45.6366" lon="4.55727">
        <ele>703.2</ele>
        <time>2014-05-01T06:39:19Z</time>
      </trkpt>
      <trkpt lat="45.63657" lon="4.55739">
        <ele>703.5</ele>
        <time>2014-05-01T06:39:21Z</time>
      </trkpt>
      <trkpt lat="45.63654" lon="4.55751">
        <ele>703.6</ele>
        <time>2014-05-01T06:39:23Z</time>
      </trkpt>
      <trkpt lat="45.63652" lon="4.55764">
        <ele>703.5</ele>
        <time>2014-05-01T06:39:25Z</time>
      </trkpt>
      <trkpt lat="45.63649" lon="4.55777">
        <ele>703.6</ele>
        <time>2014-05-01T06:39:27Z</time>
      </trkpt>
      <trkpt lat="45.63648" lon="4.5579">
        <ele>703.5</ele>
        <time>2014-05-01T06:39:29Z</time>
      </trkpt>
      <trkpt lat="45.63646" lon="4.55804">
        <ele>703.5</ele>
        <time>2014-05-01T06:39:31Z</time>
      </trkpt>
      <trkpt lat="45.63644" lon="4.55818">
        <ele>703.6</ele>
        <time>2014-05-01T06:39:33Z</time>
      </trkpt>
      <trkpt lat="45.63641" lon="4.55835">
        <ele>703.6</ele>
        <time>2014-05-01T06:39:35Z</time>
      </trkpt>
      <trkpt lat="45.63639" lon="4.55854">
        <ele>703.5</ele>
        <time>2014-05-01T06:39:37Z</time>
      </trkpt>
      <trkpt lat="45.63636" lon="4.55874">
        <ele>703.4</ele>
        <time>2014-05-01T06:39:39Z</time>
      </trkpt>
      <trkpt lat="45.63635" lon="4.55898">
        <ele>703.3</ele>
        <time>2014-05-01T06:39:41Z</time>
      </trkpt>
      <trkpt lat="45.63636" lon="4.55923">
        <ele>702.4</ele>
        <time>2014-05-01T06:39:43Z</time>
      </trkpt>
      <trkpt lat="45.63639" lon="4.55949">
        <ele>701</ele>
        <time>2014-05-01T06:39:45Z</time>
      </trkpt>
      <trkpt lat="45.6364" lon="4.55974">
        <ele>699.3</ele>
        <time>2014-05-01T06:39:47Z</time>
      </trkpt>
      <trkpt lat="45.63639" lon="4.55996">
        <ele>697.1</ele>
        <time>2014-05-01T06:39:49Z</time>
      </trkpt>
      <trkpt lat="45.63636" lon="4.56012">
        <ele>695.5</ele>
        <time>2014-05-01T06:39:51Z</time>
      </trkpt>
      <trkpt lat="45.63631" lon="4.56022">
        <ele>694.8</ele>
        <time>2014-05-01T06:39:53Z</time>
      </trkpt>
      <trkpt lat="45.63623" lon="4.56025">
        <ele>694.1</ele>
        <time>2014-05-01T06:39:55Z</time>
      </trkpt>
      <trkpt lat="45.63615" lon="4.56023">
        <ele>695.2</ele>
        <time>2014-05-01T06:39:57Z</time>
      </trkpt>
      <trkpt lat="45.63607" lon="4.5602">
        <ele>695.9</ele>
        <time>2014-05-01T06:39:59Z</time>
      </trkpt>
      <trkpt lat="45.63599" lon="4.56021">
        <ele>696.3</ele>
        <time>2014-05-01T06:40:01Z</time>
      </trkpt>
      <trkpt lat="45.6359" lon="4.56022">
        <ele>696.4</ele>
        <time>2014-05-01T06:40:03Z</time>
      </trkpt>
      <trkpt lat="45.63578" lon="4.56022">
        <ele>696.2</ele>
        <time>2014-05-01T06:40:05Z</time>
      </trkpt>
      <trkpt lat="45.63564" lon="4.56021">
        <ele>695.6</ele>
        <time>2014-05-01T06:40:07Z</time>
      </trkpt>
      <trkpt lat="45.63548" lon="4.56023">
        <ele>694.6</ele>
        <time>2014-05-01T06:40:09Z</time>
      </trkpt>
      <trkpt lat="45.63533" lon="4.56029">
        <ele>692.6</ele>
        <time>2014-05-01T06:40:11Z</time>
      </trkpt>
      <trkpt lat="45.63518" lon="4.56037">
        <ele>691.1</ele>
        <time>2014-05-01T06:40:13Z</time>
      </trkpt>
      <trkpt lat="45.63501" lon="4.56043">
        <ele>689.8</ele>
        <time>2014-05-01T06:40:15Z</time>
      </trkpt>
      <trkpt lat="45.63485" lon="4.56051">
        <ele>688.3</ele>
        <time>2014-05-01T06:40:17Z</time>
      </trkpt>
      <trkpt lat="45.63471" lon="4.5606">
        <ele>687.2</ele>
        <time>2014-05-01T06:40:19Z</time>
      </trkpt>
      <trkpt lat="45.63456" lon="4.56069">
        <ele>686.6</ele>
        <time>2014-05-01T06:40:21Z</time>
      </trkpt>
      <trkpt lat="45.63438" lon="4.56075">
        <ele>686.1</ele>
        <time>2014-05-01T06:40:23Z</time>
      </trkpt>
      <trkpt lat="45.63422" lon="4.56071">
        <ele>684.9</ele>
        <time>2014-05-01T06:40:25Z</time>
      </trkpt>
      <trkpt lat="45.63408" lon="4.56066">
        <ele>683.3</ele>
        <time>2014-05-01T06:40:27Z</time>
      </trkpt>
      <trkpt lat="45.63395" lon="4.56062">
        <ele>681.8</ele>
        <time>2014-05-01T06:40:29Z</time>
      </trkpt>
      <trkpt lat="45.63383" lon="4.56058">
        <ele>680.4</ele>
        <time>2014-05-01T06:40:31Z</time>
      </trkpt>
      <trkpt lat="45.63372" lon="4.56055">
        <ele>679</ele>
        <time>2014-05-01T06:40:33Z</time>
      </trkpt>
      <trkpt lat="45.63364" lon="4.56056">
        <ele>677.9</ele>
        <time>2014-05-01T06:40:35Z</time>
      </trkpt>
      <trkpt lat="45.63358" lon="4.56065">
        <ele>677.2</ele>
        <time>2014-05-01T06:40:37Z</time>
      </trkpt>
      <trkpt lat="45.63352" lon="4.56076">
        <ele>677.3</ele>
        <time>2014-05-01T06:40:39Z</time>
      </trkpt>
      <trkpt lat="45.63345" lon="4.56085">
        <ele>677.5</ele>
        <time>2014-05-01T06:40:41Z</time>
      </trkpt>
      <trkpt lat="45.63336" lon="4.56091">
        <ele>677.6</ele>
        <time>2014-05-01T06:40:43Z</time>
      </trkpt>
      <trkpt lat="45.63326" lon="4.56095">
        <ele>677.9</ele>
        <time>2014-05-01T06:40:45Z</time>
      </trkpt>
      <trkpt lat="45.63314" lon="4.561">
        <ele>678.1</ele>
        <time>2014-05-01T06:40:47Z</time>
      </trkpt>
      <trkpt lat="45.63301" lon="4.56099">
        <ele>678.6</ele>
        <time>2014-05-01T06:40:49Z</time>
      </trkpt>
      <trkpt lat="45.63287" lon="4.56095">
        <ele>676.7</ele>
        <time>2014-05-01T06:40:51Z</time>
      </trkpt>
      <trkpt lat="45.63275" lon="4.56087">
        <ele>675.7</ele>
        <time>2014-05-01T06:40:53Z</time>
      </trkpt>
      <trkpt lat="45.63266" lon="4.56079">
        <ele>675.6</ele>
        <time>2014-05-01T06:40:55Z</time>
      </trkpt>
      <trkpt lat="45.63258" lon="4.56072">
        <ele>676</ele>
        <time>2014-05-01T06:40:57Z</time>
      </trkpt>
      <trkpt lat="45.63253" lon="4.56067">
        <ele>676.3</ele>
        <time>2014-05-01T06:40:59Z</time>
      </trkpt>
      <trkpt lat="45.63249" lon="4.56063">
        <ele>677.7</ele>
        <time>2014-05-01T06:41:01Z</time>
      </trkpt>
      <trkpt lat="45.63247" lon="4.56061">
        <ele>677.3</ele>
        <time>2014-05-01T06:41:03Z</time>
      </trkpt>
      <trkpt lat="45.63244" lon="4.56057">
        <ele>678</ele>
        <time>2014-05-01T06:41:05Z</time>
      </trkpt>
      <trkpt lat="45.6324" lon="4.56054">
        <ele>680.5</ele>
        <time>2014-05-01T06:41:07Z</time>
      </trkpt>
      <trkpt lat="45.63237" lon="4.5605">
        <ele>681.4</ele>
        <time>2014-05-01T06:41:09Z</time>
      </trkpt>
      <trkpt lat="45.63233" lon="4.56047">
        <ele>682.1</ele>
        <time>2014-05-01T06:41:11Z</time>
      </trkpt>
      <trkpt lat="45.63229" lon="4.56043">
        <ele>682.7</ele>
        <time>2014-05-01T06:41:13Z</time>
      </trkpt>
      <trkpt lat="45.63226" lon="4.5604">
        <ele>683.1</ele>
        <time>2014-05-01T06:41:15Z</time>
      </trkpt>
      <trkpt lat="45.63222" lon="4.56036">
        <ele>684.8</ele>
        <time>2014-05-01T06:41:17Z</time>
      </trkpt>
      <trkpt lat="45.63219" lon="4.56032">
        <ele>684.9</ele>
        <time>2014-05-01T06:41:19Z</time>
      </trkpt>
      <trkpt lat="45.63215" lon="4.56028">
        <ele>684.9</ele>
        <time>2014-05-01T06:41:21Z</time>
      </trkpt>
      <trkpt lat="45.63211" lon="4.56024">
        <ele>684.8</ele>
        <time>2014-05-01T06:41:23Z</time>
      </trkpt>
      <trkpt lat="45.63207" lon="4.56019">
        <ele>685</ele>
        <time>2014-05-01T06:41:25Z</time>
      </trkpt>
      <trkpt lat="45.63202" lon="4.56014">
        <ele>683.5</ele>
        <time>2014-05-01T06:41:27Z</time>
      </trkpt>
      <trkpt lat="45.63199" lon="4.56008">
        <ele>683.1</ele>
        <time>2014-05-01T06:41:29Z</time>
      </trkpt>
      <trkpt lat="45.63195" lon="4.56004">
        <ele>682.5</ele>
        <time>2014-05-01T06:41:31Z</time>
      </trkpt>
      <trkpt lat="45.63191" lon="4.56">
        <ele>682.2</ele>
        <time>2014-05-01T06:41:33Z</time>
      </trkpt>
      <trkpt lat="45.63188" lon="4.55997">
        <ele>682.2</ele>
        <time>2014-05-01T06:41:35Z</time>
      </trkpt>
      <trkpt lat="45.63186" lon="4.55993">
        <ele>682.8</ele>
        <time>2014-05-01T06:41:37Z</time>
      </trkpt>
      <trkpt lat="45.63182" lon="4.5599">
        <ele>683.1</ele>
        <time>2014-05-01T06:41:39Z</time>
      </trkpt>
      <trkpt lat="45.6318" lon="4.55988">
        <ele>683.3</ele>
        <time>2014-05-01T06:41:41Z</time>
      </trkpt>
      <trkpt lat="45.63177" lon="4.55986">
        <ele>684.2</ele>
        <time>2014-05-01T06:41:43Z</time>
      </trkpt>
      <trkpt lat="45.63175" lon="4.55986">
        <ele>684.2</ele>
        <time>2014-05-01T06:41:45Z</time>
      </trkpt>
      <trkpt lat="45.63173" lon="4.55986">
        <ele>685.1</ele>
        <time>2014-05-01T06:41:47Z</time>
      </trkpt>
      <trkpt lat="45.63172" lon="4.55988">
        <ele>685.1</ele>
        <time>2014-05-01T06:41:49Z</time>
      </trkpt>
      <trkpt lat="45.63171" lon="4.55989">
        <ele>686.8</ele>
        <time>2014-05-01T06:41:51Z</time>
      </trkpt>
      <trkpt lat="45.6317" lon="4.55991">
        <ele>686.7</ele>
        <time>2014-05-01T06:41:53Z</time>
      </trkpt>
      <trkpt lat="45.63169" lon="4.55992">
        <ele>686.7</ele>
        <time>2014-05-01T06:41:55Z</time>
      </trkpt>
      <trkpt lat="45.63168" lon="4.55994">
        <ele>688.5</ele>
        <time>2014-05-01T06:41:57Z</time>
      </trkpt>
      <trkpt lat="45.63167" lon="4.55997">
        <ele>688.4</ele>
        <time>2014-05-01T06:41:59Z</time>
      </trkpt>
      <trkpt lat="45.63166" lon="4.56">
        <ele>689.2</ele>
        <time>2014-05-01T06:42:01Z</time>
      </trkpt>
      <trkpt lat="45.63166" lon="4.56003">
        <ele>690</ele>
        <time>2014-05-01T06:42:03Z</time>
      </trkpt>
      <trkpt lat="45.63166" lon="4.56006">
        <ele>690.8</ele>
        <time>2014-05-01T06:42:05Z</time>
      </trkpt>
      <trkpt lat="45.63165" lon="4.5601">
        <ele>691.9</ele>
        <time>2014-05-01T06:42:07Z</time>
      </trkpt>
      <trkpt lat="45.63165" lon="4.56013">
        <ele>692.9</ele>
        <time>2014-05-01T06:42:09Z</time>
      </trkpt>
      <trkpt lat="45.63165" lon="4.56015">
        <ele>693.8</ele>
        <time>2014-05-01T06:42:11Z</time>
      </trkpt>
      <trkpt lat="45.63164" lon="4.56018">
        <ele>693.8</ele>
        <time>2014-05-01T06:42:19Z</time>
      </trkpt>
      <trkpt lat="45.63163" lon="4.5602">
        <ele>694.8</ele>
        <time>2014-05-01T06:42:21Z</time>
      </trkpt>
      <trkpt lat="45.63163" lon="4.56022">
        <ele>694.7</ele>
        <time>2014-05-01T06:42:23Z</time>
      </trkpt>
      <trkpt lat="45.63163" lon="4.56024">
        <ele>695.6</ele>
        <time>2014-05-01T06:42:25Z</time>
      </trkpt>
      <trkpt lat="45.63164" lon="4.56026">
        <ele>695.6</ele>
        <time>2014-05-01T06:42:27Z</time>
      </trkpt>
      <trkpt lat="45.63164" lon="4.56029">
        <ele>696.4</ele>
        <time>2014-05-01T06:42:29Z</time>
      </trkpt>
      <trkpt lat="45.63164" lon="4.56031">
        <ele>696.4</ele>
        <time>2014-05-01T06:42:31Z</time>
      </trkpt>
      <trkpt lat="45.63164" lon="4.56033">
        <ele>697.2</ele>
        <time>2014-05-01T06:42:33Z</time>
      </trkpt>
      <trkpt lat="45.63164" lon="4.56036">
        <ele>698.1</ele>
        <time>2014-05-01T06:42:35Z</time>
      </trkpt>
      <trkpt lat="45.63164" lon="4.56039">
        <ele>698</ele>
        <time>2014-05-01T06:42:37Z</time>
      </trkpt>
      <trkpt lat="45.63163" lon="4.56041">
        <ele>698.9</ele>
        <time>2014-05-01T06:42:39Z</time>
      </trkpt>
      <trkpt lat="45.63163" lon="4.56043">
        <ele>698.9</ele>
        <time>2014-05-01T06:42:41Z</time>
      </trkpt>
      <trkpt lat="45.63163" lon="4.56045">
        <ele>699.6</ele>
        <time>2014-05-01T06:42:43Z</time>
      </trkpt>
      <trkpt lat="45.63163" lon="4.56048">
        <ele>699.6</ele>
        <time>2014-05-01T06:42:45Z</time>
      </trkpt>
      <trkpt lat="45.63163" lon="4.5605">
        <ele>700.2</ele>
        <time>2014-05-01T06:42:47Z</time>
      </trkpt>
      <trkpt lat="45.63163" lon="4.56052">
        <ele>700.2</ele>
        <time>2014-05-01T06:42:49Z</time>
      </trkpt>
      <trkpt lat="45.63162" lon="4.56054">
        <ele>702</ele>
        <time>2014-05-01T06:42:51Z</time>
      </trkpt>
      <trkpt lat="45.63162" lon="4.56056">
        <ele>702</ele>
        <time>2014-05-01T06:42:53Z</time>
      </trkpt>
      <trkpt lat="45.63162" lon="4.56058">
        <ele>702.4</ele>
        <time>2014-05-01T06:42:55Z</time>
      </trkpt>
      <trkpt lat="45.63161" lon="4.5606">
        <ele>702.4</ele>
        <time>2014-05-01T06:42:57Z</time>
      </trkpt>
      <trkpt lat="45.6316" lon="4.56063">
        <ele>702.8</ele>
        <time>2014-05-01T06:42:59Z</time>
      </trkpt>
      <trkpt lat="45.6316" lon="4.56064">
        <ele>702.8</ele>
        <time>2014-05-01T06:43:01Z</time>
      </trkpt>
      <trkpt lat="45.6316" lon="4.56066">
        <ele>703.1</ele>
        <time>2014-05-01T06:43:03Z</time>
      </trkpt>
      <trkpt lat="45.63159" lon="4.56068">
        <ele>704.5</ele>
        <time>2014-05-01T06:43:05Z</time>
      </trkpt>
      <trkpt lat="45.63159" lon="4.5607">
        <ele>704.7</ele>
        <time>2014-05-01T06:43:07Z</time>
      </trkpt>
      <trkpt lat="45.63159" lon="4.56072">
        <ele>704.7</ele>
        <time>2014-05-01T06:43:09Z</time>
      </trkpt>
      <trkpt lat="45.63158" lon="4.56074">
        <ele>704.7</ele>
        <time>2014-05-01T06:43:11Z</time>
      </trkpt>
      <trkpt lat="45.63158" lon="4.56076">
        <ele>704.8</ele>
        <time>2014-05-01T06:43:13Z</time>
      </trkpt>
      <trkpt lat="45.63158" lon="4.56077">
        <ele>704.8</ele>
        <time>2014-05-01T06:43:15Z</time>
      </trkpt>
      <trkpt lat="45.63158" lon="4.56079">
        <ele>704.8</ele>
        <time>2014-05-01T06:43:17Z</time>
      </trkpt>
      <trkpt lat="45.63157" lon="4.56081">
        <ele>704.7</ele>
        <time>2014-05-01T06:43:19Z</time>
      </trkpt>
      <trkpt lat="45.63156" lon="4.56083">
        <ele>706.1</ele>
        <time>2014-05-01T06:43:21Z</time>
      </trkpt>
      <trkpt lat="45.63156" lon="4.56085">
        <ele>706</ele>
        <time>2014-05-01T06:43:23Z</time>
      </trkpt>
      <trkpt lat="45.63155" lon="4.56087">
        <ele>705.9</ele>
        <time>2014-05-01T06:43:25Z</time>
      </trkpt>
      <trkpt lat="45.63155" lon="4.5609">
        <ele>705.9</ele>
        <time>2014-05-01T06:43:27Z</time>
      </trkpt>
      <trkpt lat="45.63154" lon="4.56092">
        <ele>705.7</ele>
        <time>2014-05-01T06:43:29Z</time>
      </trkpt>
      <trkpt lat="45.63153" lon="4.56094">
        <ele>707</ele>
        <time>2014-05-01T06:43:31Z</time>
      </trkpt>
      <trkpt lat="45.63152" lon="4.56096">
        <ele>706.8</ele>
        <time>2014-05-01T06:43:33Z</time>
      </trkpt>
      <trkpt lat="45.63151" lon="4.56097">
        <ele>706.8</ele>
        <time>2014-05-01T06:43:35Z</time>
      </trkpt>
      <trkpt lat="45.63151" lon="4.56099">
        <ele>706.7</ele>
        <time>2014-05-01T06:43:37Z</time>
      </trkpt>
      <trkpt lat="45.6315" lon="4.561">
        <ele>707.7</ele>
        <time>2014-05-01T06:43:39Z</time>
      </trkpt>
      <trkpt lat="45.6315" lon="4.56103">
        <ele>707.6</ele>
        <time>2014-05-01T06:43:41Z</time>
      </trkpt>
      <trkpt lat="45.63149" lon="4.56104">
        <ele>707.6</ele>
        <time>2014-05-01T06:43:43Z</time>
      </trkpt>
      <trkpt lat="45.63148" lon="4.56106">
        <ele>707.3</ele>
        <time>2014-05-01T06:43:45Z</time>
      </trkpt>
      <trkpt lat="45.63147" lon="4.56108">
        <ele>708.5</ele>
        <time>2014-05-01T06:43:47Z</time>
      </trkpt>
      <trkpt lat="45.63145" lon="4.56109">
        <ele>708.2</ele>
        <time>2014-05-01T06:43:49Z</time>
      </trkpt>
      <trkpt lat="45.63144" lon="4.56111">
        <ele>709.3</ele>
        <time>2014-05-01T06:43:51Z</time>
      </trkpt>
      <trkpt lat="45.63142" lon="4.56113">
        <ele>709.3</ele>
        <time>2014-05-01T06:43:53Z</time>
      </trkpt>
      <trkpt lat="45.63141" lon="4.56115">
        <ele>710.2</ele>
        <time>2014-05-01T06:43:55Z</time>
      </trkpt>
      <trkpt lat="45.63139" lon="4.56117">
        <ele>710.2</ele>
        <time>2014-05-01T06:43:57Z</time>
      </trkpt>
      <trkpt lat="45.63137" lon="4.56118">
        <ele>711.1</ele>
        <time>2014-05-01T06:43:59Z</time>
      </trkpt>
      <trkpt lat="45.63135" lon="4.5612">
        <ele>712.2</ele>
        <time>2014-05-01T06:44:01Z</time>
      </trkpt>
      <trkpt lat="45.63133" lon="4.56121">
        <ele>712.2</ele>
        <time>2014-05-01T06:44:03Z</time>
      </trkpt>
      <trkpt lat="45.63131" lon="4.56122">
        <ele>713.2</ele>
        <time>2014-05-01T06:44:05Z</time>
      </trkpt>
      <trkpt lat="45.63129" lon="4.56124">
        <ele>714.2</ele>
        <time>2014-05-01T06:44:07Z</time>
      </trkpt>
      <trkpt lat="45.63121" lon="4.56128">
        <ele>715.8</ele>
        <time>2014-05-01T06:44:21Z</time>
      </trkpt>
      <trkpt lat="45.63119" lon="4.56129">
        <ele>716.5</ele>
        <time>2014-05-01T06:44:23Z</time>
      </trkpt>
      <trkpt lat="45.63116" lon="4.5613">
        <ele>717.1</ele>
        <time>2014-05-01T06:44:25Z</time>
      </trkpt>
      <trkpt lat="45.63114" lon="4.56131">
        <ele>717</ele>
        <time>2014-05-01T06:44:27Z</time>
      </trkpt>
      <trkpt lat="45.63111" lon="4.56131">
        <ele>717.4</ele>
        <time>2014-05-01T06:44:29Z</time>
      </trkpt>
      <trkpt lat="45.63108" lon="4.56132">
        <ele>717.7</ele>
        <time>2014-05-01T06:44:31Z</time>
      </trkpt>
      <trkpt lat="45.63106" lon="4.56133">
        <ele>717.7</ele>
        <time>2014-05-01T06:44:33Z</time>
      </trkpt>
      <trkpt lat="45.63104" lon="4.56134">
        <ele>718.1</ele>
        <time>2014-05-01T06:44:35Z</time>
      </trkpt>
      <trkpt lat="45.63102" lon="4.56135">
        <ele>717.8</ele>
        <time>2014-05-01T06:44:37Z</time>
      </trkpt>
      <trkpt lat="45.63099" lon="4.56136">
        <ele>718.2</ele>
        <time>2014-05-01T06:44:39Z</time>
      </trkpt>
      <trkpt lat="45.63096" lon="4.56138">
        <ele>718.6</ele>
        <time>2014-05-01T06:44:41Z</time>
      </trkpt>
      <trkpt lat="45.63093" lon="4.56139">
        <ele>718.3</ele>
        <time>2014-05-01T06:44:43Z</time>
      </trkpt>
      <trkpt lat="45.6309" lon="4.5614">
        <ele>718.6</ele>
        <time>2014-05-01T06:44:45Z</time>
      </trkpt>
      <trkpt lat="45.63088" lon="4.56142">
        <ele>718.5</ele>
        <time>2014-05-01T06:44:47Z</time>
      </trkpt>
      <trkpt lat="45.63085" lon="4.56143">
        <ele>718.7</ele>
        <time>2014-05-01T06:44:49Z</time>
      </trkpt>
      <trkpt lat="45.63083" lon="4.56144">
        <ele>718.3</ele>
        <time>2014-05-01T06:44:51Z</time>
      </trkpt>
      <trkpt lat="45.6308" lon="4.56145">
        <ele>718.4</ele>
        <time>2014-05-01T06:44:53Z</time>
      </trkpt>
      <trkpt lat="45.63077" lon="4.56146">
        <ele>718.6</ele>
        <time>2014-05-01T06:44:55Z</time>
      </trkpt>
      <trkpt lat="45.63074" lon="4.56146">
        <ele>718.9</ele>
        <time>2014-05-01T06:44:57Z</time>
      </trkpt>
      <trkpt lat="45.63071" lon="4.56148">
        <ele>718.6</ele>
        <time>2014-05-01T06:44:59Z</time>
      </trkpt>
      <trkpt lat="45.63068" lon="4.56149">
        <ele>719</ele>
        <time>2014-05-01T06:45:01Z</time>
      </trkpt>
      <trkpt lat="45.63065" lon="4.56151">
        <ele>719.4</ele>
        <time>2014-05-01T06:45:03Z</time>
      </trkpt>
      <trkpt lat="45.63062" lon="4.56152">
        <ele>719.1</ele>
        <time>2014-05-01T06:45:05Z</time>
      </trkpt>
      <trkpt lat="45.63058" lon="4.56155">
        <ele>719.6</ele>
        <time>2014-05-01T06:45:07Z</time>
      </trkpt>
      <trkpt lat="45.63055" lon="4.56157">
        <ele>719.2</ele>
        <time>2014-05-01T06:45:09Z</time>
      </trkpt>
      <trkpt lat="45.63052" lon="4.56159">
        <ele>719.7</ele>
        <time>2014-05-01T06:45:11Z</time>
      </trkpt>
      <trkpt lat="45.63048" lon="4.5616">
        <ele>720</ele>
        <time>2014-05-01T06:45:13Z</time>
      </trkpt>
      <trkpt lat="45.63045" lon="4.56162">
        <ele>720.7</ele>
        <time>2014-05-01T06:45:15Z</time>
      </trkpt>
      <trkpt lat="45.63042" lon="4.56163">
        <ele>721.4</ele>
        <time>2014-05-01T06:45:17Z</time>
      </trkpt>
      <trkpt lat="45.63038" lon="4.56165">
        <ele>721.2</ele>
        <time>2014-05-01T06:45:19Z</time>
      </trkpt>
      <trkpt lat="45.63034" lon="4.56166">
        <ele>721.9</ele>
        <time>2014-05-01T06:45:21Z</time>
      </trkpt>
      <trkpt lat="45.63031" lon="4.56166">
        <ele>722.6</ele>
        <time>2014-05-01T06:45:23Z</time>
      </trkpt>
      <trkpt lat="45.63027" lon="4.56168">
        <ele>724</ele>
        <time>2014-05-01T06:45:25Z</time>
      </trkpt>
      <trkpt lat="45.63022" lon="4.5617">
        <ele>723.7</ele>
        <time>2014-05-01T06:45:27Z</time>
      </trkpt>
      <trkpt lat="45.63018" lon="4.56172">
        <ele>725.2</ele>
        <time>2014-05-01T06:45:29Z</time>
      </trkpt>
      <trkpt lat="45.63013" lon="4.56174">
        <ele>724.9</ele>
        <time>2014-05-01T06:45:31Z</time>
      </trkpt>
      <trkpt lat="45.63009" lon="4.56176">
        <ele>726.3</ele>
        <time>2014-05-01T06:45:33Z</time>
      </trkpt>
      <trkpt lat="45.63004" lon="4.56178">
        <ele>725.9</ele>
        <time>2014-05-01T06:45:35Z</time>
      </trkpt>
      <trkpt lat="45.62999" lon="4.5618">
        <ele>727.1</ele>
        <time>2014-05-01T06:45:37Z</time>
      </trkpt>
      <trkpt lat="45.62995" lon="4.56182">
        <ele>726.7</ele>
        <time>2014-05-01T06:45:39Z</time>
      </trkpt>
      <trkpt lat="45.6299" lon="4.56185">
        <ele>727.9</ele>
        <time>2014-05-01T06:45:41Z</time>
      </trkpt>
      <trkpt lat="45.62986" lon="4.56187">
        <ele>727.6</ele>
        <time>2014-05-01T06:45:43Z</time>
      </trkpt>
      <trkpt lat="45.62982" lon="4.5619">
        <ele>728.7</ele>
        <time>2014-05-01T06:45:45Z</time>
      </trkpt>
      <trkpt lat="45.62978" lon="4.56193">
        <ele>728.6</ele>
        <time>2014-05-01T06:45:47Z</time>
      </trkpt>
      <trkpt lat="45.62974" lon="4.56195">
        <ele>728.5</ele>
        <time>2014-05-01T06:45:49Z</time>
      </trkpt>
      <trkpt lat="45.62971" lon="4.56198">
        <ele>728.9</ele>
        <time>2014-05-01T06:45:51Z</time>
      </trkpt>
      <trkpt lat="45.62968" lon="4.562">
        <ele>728.8</ele>
        <time>2014-05-01T06:45:53Z</time>
      </trkpt>
      <trkpt lat="45.62964" lon="4.56202">
        <ele>729.5</ele>
        <time>2014-05-01T06:45:55Z</time>
      </trkpt>
      <trkpt lat="45.62961" lon="4.56205">
        <ele>729.2</ele>
        <time>2014-05-01T06:45:57Z</time>
      </trkpt>
      <trkpt lat="45.62957" lon="4.56207">
        <ele>728.8</ele>
        <time>2014-05-01T06:45:59Z</time>
      </trkpt>
      <trkpt lat="45.62954" lon="4.5621">
        <ele>729</ele>
        <time>2014-05-01T06:46:01Z</time>
      </trkpt>
      <trkpt lat="45.62951" lon="4.56212">
        <ele>728.6</ele>
        <time>2014-05-01T06:46:03Z</time>
      </trkpt>
      <trkpt lat="45.62948" lon="4.56214">
        <ele>728.7</ele>
        <time>2014-05-01T06:46:05Z</time>
      </trkpt>
      <trkpt lat="45.62945" lon="4.56217">
        <ele>728.4</ele>
        <time>2014-05-01T06:46:07Z</time>
      </trkpt>
      <trkpt lat="45.62942" lon="4.56219">
        <ele>728.6</ele>
        <time>2014-05-01T06:46:09Z</time>
      </trkpt>
      <trkpt lat="45.6294" lon="4.56221">
        <ele>728.4</ele>
        <time>2014-05-01T06:46:11Z</time>
      </trkpt>
      <trkpt lat="45.62937" lon="4.56224">
        <ele>728.7</ele>
        <time>2014-05-01T06:46:13Z</time>
      </trkpt>
      <trkpt lat="45.62934" lon="4.56227">
        <ele>728.6</ele>
        <time>2014-05-01T06:46:15Z</time>
      </trkpt>
      <trkpt lat="45.62931" lon="4.56229">
        <ele>728.4</ele>
        <time>2014-05-01T06:46:17Z</time>
      </trkpt>
      <trkpt lat="45.62928" lon="4.56232">
        <ele>728.7</ele>
        <time>2014-05-01T06:46:19Z</time>
      </trkpt>
      <trkpt lat="45.62925" lon="4.56233">
        <ele>728.4</ele>
        <time>2014-05-01T06:46:21Z</time>
      </trkpt>
      <trkpt lat="45.62923" lon="4.56235">
        <ele>728.4</ele>
        <time>2014-05-01T06:46:23Z</time>
      </trkpt>
      <trkpt lat="45.6292" lon="4.56237">
        <ele>728.6</ele>
        <time>2014-05-01T06:46:25Z</time>
      </trkpt>
      <trkpt lat="45.62917" lon="4.56239">
        <ele>728.3</ele>
        <time>2014-05-01T06:46:27Z</time>
      </trkpt>
      <trkpt lat="45.62915" lon="4.56241">
        <ele>728.5</ele>
        <time>2014-05-01T06:46:29Z</time>
      </trkpt>
      <trkpt lat="45.62912" lon="4.56243">
        <ele>728.4</ele>
        <time>2014-05-01T06:46:31Z</time>
      </trkpt>
      <trkpt lat="45.62909" lon="4.56246">
        <ele>728.6</ele>
        <time>2014-05-01T06:46:33Z</time>
      </trkpt>
      <trkpt lat="45.62905" lon="4.56248">
        <ele>728.7</ele>
        <time>2014-05-01T06:46:35Z</time>
      </trkpt>
      <trkpt lat="45.62902" lon="4.5625">
        <ele>729</ele>
        <time>2014-05-01T06:46:37Z</time>
      </trkpt>
      <trkpt lat="45.62898" lon="4.56252">
        <ele>729.4</ele>
        <time>2014-05-01T06:46:39Z</time>
      </trkpt>
      <trkpt lat="45.62895" lon="4.56254">
        <ele>729.5</ele>
        <time>2014-05-01T06:46:41Z</time>
      </trkpt>
      <trkpt lat="45.62891" lon="4.56256">
        <ele>729.7</ele>
        <time>2014-05-01T06:46:43Z</time>
      </trkpt>
      <trkpt lat="45.62888" lon="4.56258">
        <ele>729.6</ele>
        <time>2014-05-01T06:46:45Z</time>
      </trkpt>
      <trkpt lat="45.62885" lon="4.56261">
        <ele>729.7</ele>
        <time>2014-05-01T06:46:47Z</time>
      </trkpt>
      <trkpt lat="45.62882" lon="4.56263">
        <ele>729.5</ele>
        <time>2014-05-01T06:46:49Z</time>
      </trkpt>
      <trkpt lat="45.62878" lon="4.56265">
        <ele>729.4</ele>
        <time>2014-05-01T06:46:51Z</time>
      </trkpt>
      <trkpt lat="45.62875" lon="4.56267">
        <ele>729.3</ele>
        <time>2014-05-01T06:46:53Z</time>
      </trkpt>
      <trkpt lat="45.62871" lon="4.5627">
        <ele>728.5</ele>
        <time>2014-05-01T06:46:55Z</time>
      </trkpt>
      <trkpt lat="45.62867" lon="4.56274">
        <ele>728.4</ele>
        <time>2014-05-01T06:46:57Z</time>
      </trkpt>
      <trkpt lat="45.62863" lon="4.56278">
        <ele>728.3</ele>
        <time>2014-05-01T06:46:59Z</time>
      </trkpt>
      <trkpt lat="45.62859" lon="4.56281">
        <ele>728.2</ele>
        <time>2014-05-01T06:47:01Z</time>
      </trkpt>
      <trkpt lat="45.62855" lon="4.56284">
        <ele>728.1</ele>
        <time>2014-05-01T06:47:03Z</time>
      </trkpt>
      <trkpt lat="45.62851" lon="4.56288">
        <ele>728.4</ele>
        <time>2014-05-01T06:47:05Z</time>
      </trkpt>
      <trkpt lat="45.62847" lon="4.56292">
        <ele>729</ele>
        <time>2014-05-01T06:47:07Z</time>
      </trkpt>
      <trkpt lat="45.62843" lon="4.56296">
        <ele>729.6</ele>
        <time>2014-05-01T06:47:09Z</time>
      </trkpt>
      <trkpt lat="45.62839" lon="4.56301">
        <ele>730.2</ele>
        <time>2014-05-01T06:47:11Z</time>
      </trkpt>
      <trkpt lat="45.62836" lon="4.56305">
        <ele>730.7</ele>
        <time>2014-05-01T06:47:13Z</time>
      </trkpt>
      <trkpt lat="45.62832" lon="4.5631">
        <ele>731</ele>
        <time>2014-05-01T06:47:15Z</time>
      </trkpt>
      <trkpt lat="45.62828" lon="4.56315">
        <ele>731.9</ele>
        <time>2014-05-01T06:47:17Z</time>
      </trkpt>
      <trkpt lat="45.62824" lon="4.56321">
        <ele>732.2</ele>
        <time>2014-05-01T06:47:19Z</time>
      </trkpt>
      <trkpt lat="45.6282" lon="4.56327">
        <ele>732.2</ele>
        <time>2014-05-01T06:47:21Z</time>
      </trkpt>
      <trkpt lat="45.62816" lon="4.56333">
        <ele>732.6</ele>
        <time>2014-05-01T06:47:23Z</time>
      </trkpt>
      <trkpt lat="45.62813" lon="4.56339">
        <ele>732.6</ele>
        <time>2014-05-01T06:47:25Z</time>
      </trkpt>
      <trkpt lat="45.6281" lon="4.56345">
        <ele>733</ele>
        <time>2014-05-01T06:47:27Z</time>
      </trkpt>
      <trkpt lat="45.62808" lon="4.56352">
        <ele>733</ele>
        <time>2014-05-01T06:47:29Z</time>
      </trkpt>
      <trkpt lat="45.62805" lon="4.56359">
        <ele>733.2</ele>
        <time>2014-05-01T06:47:31Z</time>
      </trkpt>
      <trkpt lat="45.62802" lon="4.56366">
        <ele>733.1</ele>
        <time>2014-05-01T06:47:33Z</time>
      </trkpt>
      <trkpt lat="45.62798" lon="4.56373">
        <ele>733.5</ele>
        <time>2014-05-01T06:47:35Z</time>
      </trkpt>
      <trkpt lat="45.62795" lon="4.56379">
        <ele>733.9</ele>
        <time>2014-05-01T06:47:37Z</time>
      </trkpt>
      <trkpt lat="45.6279" lon="4.56386">
        <ele>733.5</ele>
        <time>2014-05-01T06:47:39Z</time>
      </trkpt>
      <trkpt lat="45.62785" lon="4.56392">
        <ele>733.5</ele>
        <time>2014-05-01T06:47:41Z</time>
      </trkpt>
      <trkpt lat="45.62779" lon="4.56398">
        <ele>732.8</ele>
        <time>2014-05-01T06:47:43Z</time>
      </trkpt>
      <trkpt lat="45.62773" lon="4.56405">
        <ele>732.2</ele>
        <time>2014-05-01T06:47:45Z</time>
      </trkpt>
      <trkpt lat="45.62766" lon="4.56411">
        <ele>731.2</ele>
        <time>2014-05-01T06:47:47Z</time>
      </trkpt>
      <trkpt lat="45.6276" lon="4.56417">
        <ele>730.8</ele>
        <time>2014-05-01T06:47:49Z</time>
      </trkpt>
      <trkpt lat="45.62753" lon="4.56423">
        <ele>730.5</ele>
        <time>2014-05-01T06:47:51Z</time>
      </trkpt>
      <trkpt lat="45.62746" lon="4.5643">
        <ele>730.2</ele>
        <time>2014-05-01T06:47:53Z</time>
      </trkpt>
      <trkpt lat="45.62743" lon="4.56438">
        <ele>730.1</ele>
        <time>2014-05-01T06:47:55Z</time>
      </trkpt>
      <trkpt lat="45.6274" lon="4.56448">
        <ele>729.9</ele>
        <time>2014-05-01T06:47:57Z</time>
      </trkpt>
      <trkpt lat="45.62737" lon="4.5646">
        <ele>729.5</ele>
        <time>2014-05-01T06:47:59Z</time>
      </trkpt>
      <trkpt lat="45.62733" lon="4.56473">
        <ele>729.5</ele>
        <time>2014-05-01T06:48:01Z</time>
      </trkpt>
      <trkpt lat="45.6273" lon="4.56486">
        <ele>729.4</ele>
        <time>2014-05-01T06:48:03Z</time>
      </trkpt>
      <trkpt lat="45.62727" lon="4.56499">
        <ele>729.1</ele>
        <time>2014-05-01T06:48:05Z</time>
      </trkpt>
      <trkpt lat="45.62725" lon="4.56512">
        <ele>728.6</ele>
        <time>2014-05-01T06:48:07Z</time>
      </trkpt>
      <trkpt lat="45.62724" lon="4.56525">
        <ele>728.2</ele>
        <time>2014-05-01T06:48:09Z</time>
      </trkpt>
      <trkpt lat="45.62724" lon="4.56538">
        <ele>727.2</ele>
        <time>2014-05-01T06:48:11Z</time>
      </trkpt>
      <trkpt lat="45.62725" lon="4.5655">
        <ele>725.8</ele>
        <time>2014-05-01T06:48:13Z</time>
      </trkpt>
      <trkpt lat="45.62726" lon="4.5656">
        <ele>725.4</ele>
        <time>2014-05-01T06:48:15Z</time>
      </trkpt>
      <trkpt lat="45.62729" lon="4.5657">
        <ele>725.2</ele>
        <time>2014-05-01T06:48:17Z</time>
      </trkpt>
      <trkpt lat="45.6273" lon="4.56579">
        <ele>725.6</ele>
        <time>2014-05-01T06:48:19Z</time>
      </trkpt>
      <trkpt lat="45.62732" lon="4.56588">
        <ele>725.5</ele>
        <time>2014-05-01T06:48:21Z</time>
      </trkpt>
      <trkpt lat="45.62734" lon="4.56597">
        <ele>725.3</ele>
        <time>2014-05-01T06:48:23Z</time>
      </trkpt>
      <trkpt lat="45.62736" lon="4.56607">
        <ele>726</ele>
        <time>2014-05-01T06:48:25Z</time>
      </trkpt>
      <trkpt lat="45.62738" lon="4.56616">
        <ele>725.9</ele>
        <time>2014-05-01T06:48:27Z</time>
      </trkpt>
      <trkpt lat="45.62739" lon="4.56626">
        <ele>726.7</ele>
        <time>2014-05-01T06:48:29Z</time>
      </trkpt>
      <trkpt lat="45.6274" lon="4.56636">
        <ele>726.7</ele>
        <time>2014-05-01T06:48:31Z</time>
      </trkpt>
      <trkpt lat="45.62741" lon="4.56645">
        <ele>727.4</ele>
        <time>2014-05-01T06:48:33Z</time>
      </trkpt>
      <trkpt lat="45.62742" lon="4.56654">
        <ele>728.5</ele>
        <time>2014-05-01T06:48:35Z</time>
      </trkpt>
      <trkpt lat="45.62743" lon="4.56664">
        <ele>728.1</ele>
        <time>2014-05-01T06:48:37Z</time>
      </trkpt>
      <trkpt lat="45.62743" lon="4.56674">
        <ele>728.9</ele>
        <time>2014-05-01T06:48:39Z</time>
      </trkpt>
      <trkpt lat="45.62744" lon="4.56685">
        <ele>730.3</ele>
        <time>2014-05-01T06:48:41Z</time>
      </trkpt>
      <trkpt lat="45.62743" lon="4.56694">
        <ele>731</ele>
        <time>2014-05-01T06:48:43Z</time>
      </trkpt>
      <trkpt lat="45.62743" lon="4.56704">
        <ele>731.5</ele>
        <time>2014-05-01T06:48:45Z</time>
      </trkpt>
      <trkpt lat="45.62742" lon="4.56713">
        <ele>732.7</ele>
        <time>2014-05-01T06:48:47Z</time>
      </trkpt>
      <trkpt lat="45.6274" lon="4.56722">
        <ele>732.8</ele>
        <time>2014-05-01T06:48:49Z</time>
      </trkpt>
      <trkpt lat="45.62737" lon="4.5673">
        <ele>733.8</ele>
        <time>2014-05-01T06:48:51Z</time>
      </trkpt>
      <trkpt lat="45.62734" lon="4.56738">
        <ele>734.7</ele>
        <time>2014-05-01T06:48:53Z</time>
      </trkpt>
      <trkpt lat="45.62731" lon="4.56745">
        <ele>735.3</ele>
        <time>2014-05-01T06:48:55Z</time>
      </trkpt>
      <trkpt lat="45.62729" lon="4.56751">
        <ele>735.8</ele>
        <time>2014-05-01T06:48:57Z</time>
      </trkpt>
      <trkpt lat="45.62726" lon="4.56759">
        <ele>735.4</ele>
        <time>2014-05-01T06:48:59Z</time>
      </trkpt>
      <trkpt lat="45.62722" lon="4.56767">
        <ele>734.6</ele>
        <time>2014-05-01T06:49:01Z</time>
      </trkpt>
      <trkpt lat="45.62717" lon="4.56779">
        <ele>734</ele>
        <time>2014-05-01T06:49:03Z</time>
      </trkpt>
      <trkpt lat="45.62713" lon="4.56793">
        <ele>735.2</ele>
        <time>2014-05-01T06:49:05Z</time>
      </trkpt>
      <trkpt lat="45.62709" lon="4.56806">
        <ele>736.3</ele>
        <time>2014-05-01T06:49:07Z</time>
      </trkpt>
      <trkpt lat="45.62706" lon="4.56818">
        <ele>737.4</ele>
        <time>2014-05-01T06:49:09Z</time>
      </trkpt>
      <trkpt lat="45.62703" lon="4.56829">
        <ele>738</ele>
        <time>2014-05-01T06:49:11Z</time>
      </trkpt>
      <trkpt lat="45.62702" lon="4.56841">
        <ele>738.6</ele>
        <time>2014-05-01T06:49:13Z</time>
      </trkpt>
      <trkpt lat="45.627" lon="4.56851">
        <ele>739.5</ele>
        <time>2014-05-01T06:49:15Z</time>
      </trkpt>
      <trkpt lat="45.62697" lon="4.56862">
        <ele>740</ele>
        <time>2014-05-01T06:49:17Z</time>
      </trkpt>
      <trkpt lat="45.62695" lon="4.56871">
        <ele>740.5</ele>
        <time>2014-05-01T06:49:19Z</time>
      </trkpt>
      <trkpt lat="45.62693" lon="4.56879">
        <ele>741.2</ele>
        <time>2014-05-01T06:49:21Z</time>
      </trkpt>
      <trkpt lat="45.62691" lon="4.56885">
        <ele>741.9</ele>
        <time>2014-05-01T06:49:23Z</time>
      </trkpt>
      <trkpt lat="45.6269" lon="4.56892">
        <ele>742.3</ele>
        <time>2014-05-01T06:49:25Z</time>
      </trkpt>
      <trkpt lat="45.62688" lon="4.56897">
        <ele>743</ele>
        <time>2014-05-01T06:49:27Z</time>
      </trkpt>
      <trkpt lat="45.62686" lon="4.56903">
        <ele>743.7</ele>
        <time>2014-05-01T06:49:29Z</time>
      </trkpt>
      <trkpt lat="45.62685" lon="4.56909">
        <ele>744</ele>
        <time>2014-05-01T06:49:31Z</time>
      </trkpt>
      <trkpt lat="45.62684" lon="4.56915">
        <ele>744.3</ele>
        <time>2014-05-01T06:49:33Z</time>
      </trkpt>
      <trkpt lat="45.62682" lon="4.56921">
        <ele>744.7</ele>
        <time>2014-05-01T06:49:35Z</time>
      </trkpt>
      <trkpt lat="45.62681" lon="4.56927">
        <ele>745.3</ele>
        <time>2014-05-01T06:49:37Z</time>
      </trkpt>
      <trkpt lat="45.6268" lon="4.56933">
        <ele>745.9</ele>
        <time>2014-05-01T06:49:39Z</time>
      </trkpt>
      <trkpt lat="45.62678" lon="4.56939">
        <ele>746.3</ele>
        <time>2014-05-01T06:49:41Z</time>
      </trkpt>
      <trkpt lat="45.62677" lon="4.56944">
        <ele>746.7</ele>
        <time>2014-05-01T06:49:43Z</time>
      </trkpt>
      <trkpt lat="45.62676" lon="4.56949">
        <ele>747.3</ele>
        <time>2014-05-01T06:49:45Z</time>
      </trkpt>
      <trkpt lat="45.62674" lon="4.56955">
        <ele>747.7</ele>
        <time>2014-05-01T06:49:47Z</time>
      </trkpt>
      <trkpt lat="45.62673" lon="4.5696">
        <ele>748</ele>
        <time>2014-05-01T06:49:49Z</time>
      </trkpt>
      <trkpt lat="45.62671" lon="4.56965">
        <ele>748.2</ele>
        <time>2014-05-01T06:49:51Z</time>
      </trkpt>
      <trkpt lat="45.62671" lon="4.56971">
        <ele>748.6</ele>
        <time>2014-05-01T06:49:53Z</time>
      </trkpt>
      <trkpt lat="45.62669" lon="4.56977">
        <ele>749.1</ele>
        <time>2014-05-01T06:49:55Z</time>
      </trkpt>
      <trkpt lat="45.62668" lon="4.56982">
        <ele>749.5</ele>
        <time>2014-05-01T06:49:57Z</time>
      </trkpt>
      <trkpt lat="45.62667" lon="4.56987">
        <ele>749.8</ele>
        <time>2014-05-01T06:49:59Z</time>
      </trkpt>
      <trkpt lat="45.62666" lon="4.56993">
        <ele>750.1</ele>
        <time>2014-05-01T06:50:01Z</time>
      </trkpt>
      <trkpt lat="45.62665" lon="4.56998">
        <ele>750.4</ele>
        <time>2014-05-01T06:50:03Z</time>
      </trkpt>
      <trkpt lat="45.62664" lon="4.57004">
        <ele>751</ele>
        <time>2014-05-01T06:50:05Z</time>
      </trkpt>
      <trkpt lat="45.62663" lon="4.5701">
        <ele>751.5</ele>
        <time>2014-05-01T06:50:07Z</time>
      </trkpt>
      <trkpt lat="45.62662" lon="4.57016">
        <ele>751.8</ele>
        <time>2014-05-01T06:50:09Z</time>
      </trkpt>
      <trkpt lat="45.62661" lon="4.57022">
        <ele>752.1</ele>
        <time>2014-05-01T06:50:11Z</time>
      </trkpt>
      <trkpt lat="45.62659" lon="4.57028">
        <ele>752.3</ele>
        <time>2014-05-01T06:50:13Z</time>
      </trkpt>
      <trkpt lat="45.62658" lon="4.57034">
        <ele>752.5</ele>
        <time>2014-05-01T06:50:15Z</time>
      </trkpt>
      <trkpt lat="45.62656" lon="4.57039">
        <ele>753</ele>
        <time>2014-05-01T06:50:17Z</time>
      </trkpt>
      <trkpt lat="45.62655" lon="4.57045">
        <ele>753.4</ele>
        <time>2014-05-01T06:50:19Z</time>
      </trkpt>
      <trkpt lat="45.62654" lon="4.5705">
        <ele>753.7</ele>
        <time>2014-05-01T06:50:21Z</time>
      </trkpt>
      <trkpt lat="45.62652" lon="4.57056">
        <ele>753.8</ele>
        <time>2014-05-01T06:50:23Z</time>
      </trkpt>
      <trkpt lat="45.62651" lon="4.57061">
        <ele>754</ele>
        <time>2014-05-01T06:50:25Z</time>
      </trkpt>
      <trkpt lat="45.6265" lon="4.57066">
        <ele>754.1</ele>
        <time>2014-05-01T06:50:27Z</time>
      </trkpt>
      <trkpt lat="45.62648" lon="4.57071">
        <ele>754.4</ele>
        <time>2014-05-01T06:50:29Z</time>
      </trkpt>
      <trkpt lat="45.62647" lon="4.57076">
        <ele>754.8</ele>
        <time>2014-05-01T06:50:31Z</time>
      </trkpt>
      <trkpt lat="45.62645" lon="4.57081">
        <ele>755.2</ele>
        <time>2014-05-01T06:50:33Z</time>
      </trkpt>
      <trkpt lat="45.62644" lon="4.57086">
        <ele>755.7</ele>
        <time>2014-05-01T06:50:35Z</time>
      </trkpt>
      <trkpt lat="45.62643" lon="4.57091">
        <ele>756.1</ele>
        <time>2014-05-01T06:50:37Z</time>
      </trkpt>
      <trkpt lat="45.62642" lon="4.57097">
        <ele>756.5</ele>
        <time>2014-05-01T06:50:39Z</time>
      </trkpt>
      <trkpt lat="45.6264" lon="4.57102">
        <ele>756.9</ele>
        <time>2014-05-01T06:50:41Z</time>
      </trkpt>
      <trkpt lat="45.62639" lon="4.57107">
        <ele>757.4</ele>
        <time>2014-05-01T06:50:43Z</time>
      </trkpt>
      <trkpt lat="45.62638" lon="4.57112">
        <ele>757.9</ele>
        <time>2014-05-01T06:50:45Z</time>
      </trkpt>
      <trkpt lat="45.62637" lon="4.57117">
        <ele>758.4</ele>
        <time>2014-05-01T06:50:47Z</time>
      </trkpt>
      <trkpt lat="45.62635" lon="4.57122">
        <ele>758.7</ele>
        <time>2014-05-01T06:50:49Z</time>
      </trkpt>
      <trkpt lat="45.62634" lon="4.57127">
        <ele>759.2</ele>
        <time>2014-05-01T06:50:51Z</time>
      </trkpt>
      <trkpt lat="45.62632" lon="4.57132">
        <ele>759.7</ele>
        <time>2014-05-01T06:50:53Z</time>
      </trkpt>
      <trkpt lat="45.62631" lon="4.57137">
        <ele>760.2</ele>
        <time>2014-05-01T06:50:55Z</time>
      </trkpt>
      <trkpt lat="45.6263" lon="4.57142">
        <ele>760.6</ele>
        <time>2014-05-01T06:50:57Z</time>
      </trkpt>
      <trkpt lat="45.62628" lon="4.57147">
        <ele>761</ele>
        <time>2014-05-01T06:50:59Z</time>
      </trkpt>
      <trkpt lat="45.62627" lon="4.57152">
        <ele>761.4</ele>
        <time>2014-05-01T06:51:01Z</time>
      </trkpt>
      <trkpt lat="45.62626" lon="4.57157">
        <ele>761.9</ele>
        <time>2014-05-01T06:51:03Z</time>
      </trkpt>
      <trkpt lat="45.62624" lon="4.57162">
        <ele>762.3</ele>
        <time>2014-05-01T06:51:05Z</time>
      </trkpt>
      <trkpt lat="45.62624" lon="4.57167">
        <ele>762.4</ele>
        <time>2014-05-01T06:51:07Z</time>
      </trkpt>
      <trkpt lat="45.62623" lon="4.57173">
        <ele>762.5</ele>
        <time>2014-05-01T06:51:09Z</time>
      </trkpt>
      <trkpt lat="45.62622" lon="4.57178">
        <ele>762.5</ele>
        <time>2014-05-01T06:51:11Z</time>
      </trkpt>
      <trkpt lat="45.62621" lon="4.57185">
        <ele>762.5</ele>
        <time>2014-05-01T06:51:13Z</time>
      </trkpt>
      <trkpt lat="45.62621" lon="4.57193">
        <ele>762.5</ele>
        <time>2014-05-01T06:51:15Z</time>
      </trkpt>
      <trkpt lat="45.62619" lon="4.57202">
        <ele>762.5</ele>
        <time>2014-05-01T06:51:17Z</time>
      </trkpt>
      <trkpt lat="45.62619" lon="4.57212">
        <ele>762.5</ele>
        <time>2014-05-01T06:51:19Z</time>
      </trkpt>
      <trkpt lat="45.62619" lon="4.57222">
        <ele>762.4</ele>
        <time>2014-05-01T06:51:21Z</time>
      </trkpt>
      <trkpt lat="45.6262" lon="4.57233">
        <ele>762.4</ele>
        <time>2014-05-01T06:51:23Z</time>
      </trkpt>
      <trkpt lat="45.62621" lon="4.57244">
        <ele>762.3</ele>
        <time>2014-05-01T06:51:25Z</time>
      </trkpt>
      <trkpt lat="45.62621" lon="4.57255">
        <ele>762.3</ele>
        <time>2014-05-01T06:51:27Z</time>
      </trkpt>
      <trkpt lat="45.62621" lon="4.57266">
        <ele>762.2</ele>
        <time>2014-05-01T06:51:29Z</time>
      </trkpt>
      <trkpt lat="45.6262" lon="4.57276">
        <ele>762.2</ele>
        <time>2014-05-01T06:51:31Z</time>
      </trkpt>
      <trkpt lat="45.62619" lon="4.57286">
        <ele>762.2</ele>
        <time>2014-05-01T06:51:33Z</time>
      </trkpt>
      <trkpt lat="45.62618" lon="4.57296">
        <ele>762.1</ele>
        <time>2014-05-01T06:51:35Z</time>
      </trkpt>
      <trkpt lat="45.62619" lon="4.57308">
        <ele>762</ele>
        <time>2014-05-01T06:51:37Z</time>
      </trkpt>
      <trkpt lat="45.62621" lon="4.5732">
        <ele>761.9</ele>
        <time>2014-05-01T06:51:39Z</time>
      </trkpt>
      <trkpt lat="45.62623" lon="4.57329">
        <ele>761.8</ele>
        <time>2014-05-01T06:51:41Z</time>
      </trkpt>
      <trkpt lat="45.62624" lon="4.57337">
        <ele>761.8</ele>
        <time>2014-05-01T06:51:43Z</time>
      </trkpt>
      <trkpt lat="45.62626" lon="4.57346">
        <ele>761.8</ele>
        <time>2014-05-01T06:51:45Z</time>
      </trkpt>
      <trkpt lat="45.62627" lon="4.57354">
        <ele>761.7</ele>
        <time>2014-05-01T06:51:47Z</time>
      </trkpt>
      <trkpt lat="45.62628" lon="4.57362">
        <ele>761.7</ele>
        <time>2014-05-01T06:51:49Z</time>
      </trkpt>
      <trkpt lat="45.62627" lon="4.57368">
        <ele>761.6</ele>
        <time>2014-05-01T06:51:51Z</time>
      </trkpt>
      <trkpt lat="45.62629" lon="4.57371">
        <ele>761.6</ele>
        <time>2014-05-01T06:51:53Z</time>
      </trkpt>
      <trkpt lat="45.62627" lon="4.57374">
        <ele>761.6</ele>
        <time>2014-05-01T06:59:01Z</time>
      </trkpt>
      <trkpt lat="45.62625" lon="4.57379">
        <ele>761.6</ele>
        <time>2014-05-01T06:59:03Z</time>
      </trkpt>
      <trkpt lat="45.62622" lon="4.57385">
        <ele>761.5</ele>
        <time>2014-05-01T06:59:05Z</time>
      </trkpt>
      <trkpt lat="45.62618" lon="4.57394">
        <ele>761.5</ele>
        <time>2014-05-01T06:59:07Z</time>
      </trkpt>
      <trkpt lat="45.62614" lon="4.57406">
        <ele>761.4</ele>
        <time>2014-05-01T06:59:09Z</time>
      </trkpt>
      <trkpt lat="45.62612" lon="4.57417">
        <ele>761.3</ele>
        <time>2014-05-01T06:59:11Z</time>
      </trkpt>
      <trkpt lat="45.62611" lon="4.57426">
        <ele>761.3</ele>
        <time>2014-05-01T06:59:13Z</time>
      </trkpt>
      <trkpt lat="45.6261" lon="4.57435">
        <ele>761.2</ele>
        <time>2014-05-01T06:59:15Z</time>
      </trkpt>
      <trkpt lat="45.62609" lon="4.57445">
        <ele>761.1</ele>
        <time>2014-05-01T06:59:17Z</time>
      </trkpt>
      <trkpt lat="45.62608" lon="4.57458">
        <ele>761</ele>
        <time>2014-05-01T06:59:19Z</time>
      </trkpt>
      <trkpt lat="45.62605" lon="4.57473">
        <ele>760.9</ele>
        <time>2014-05-01T06:59:21Z</time>
      </trkpt>
      <trkpt lat="45.62601" lon="4.57488">
        <ele>760.8</ele>
        <time>2014-05-01T06:59:23Z</time>
      </trkpt>
      <trkpt lat="45.62597" lon="4.57504">
        <ele>760.7</ele>
        <time>2014-05-01T06:59:25Z</time>
      </trkpt>
      <trkpt lat="45.62595" lon="4.5752">
        <ele>760.5</ele>
        <time>2014-05-01T06:59:27Z</time>
      </trkpt>
      <trkpt lat="45.62594" lon="4.57535">
        <ele>760.4</ele>
        <time>2014-05-01T06:59:29Z</time>
      </trkpt>
      <trkpt lat="45.62589" lon="4.57551">
        <ele>760.2</ele>
        <time>2014-05-01T06:59:31Z</time>
      </trkpt>
      <trkpt lat="45.62582" lon="4.57565">
        <ele>760</ele>
        <time>2014-05-01T06:59:33Z</time>
      </trkpt>
      <trkpt lat="45.62576" lon="4.57582">
        <ele>759.8</ele>
        <time>2014-05-01T06:59:35Z</time>
      </trkpt>
      <trkpt lat="45.62568" lon="4.57598">
        <ele>759.3</ele>
        <time>2014-05-01T06:59:37Z</time>
      </trkpt>
      <trkpt lat="45.62559" lon="4.57614">
        <ele>758.7</ele>
        <time>2014-05-01T06:59:39Z</time>
      </trkpt>
      <trkpt lat="45.62552" lon="4.57631">
        <ele>758.1</ele>
        <time>2014-05-01T06:59:41Z</time>
      </trkpt>
      <trkpt lat="45.62548" lon="4.57651">
        <ele>757.5</ele>
        <time>2014-05-01T06:59:43Z</time>
      </trkpt>
      <trkpt lat="45.62552" lon="4.57672">
        <ele>757</ele>
        <time>2014-05-01T06:59:45Z</time>
      </trkpt>
      <trkpt lat="45.62561" lon="4.57692">
        <ele>756.7</ele>
        <time>2014-05-01T06:59:47Z</time>
      </trkpt>
      <trkpt lat="45.62571" lon="4.57712">
        <ele>756.4</ele>
        <time>2014-05-01T06:59:49Z</time>
      </trkpt>
      <trkpt lat="45.62581" lon="4.57731">
        <ele>755.6</ele>
        <time>2014-05-01T06:59:51Z</time>
      </trkpt>
      <trkpt lat="45.62592" lon="4.57747">
        <ele>754.4</ele>
        <time>2014-05-01T06:59:53Z</time>
      </trkpt>
      <trkpt lat="45.626" lon="4.57765">
        <ele>752.9</ele>
        <time>2014-05-01T06:59:55Z</time>
      </trkpt>
      <trkpt lat="45.62603" lon="4.57783">
        <ele>751.3</ele>
        <time>2014-05-01T06:59:57Z</time>
      </trkpt>
      <trkpt lat="45.62605" lon="4.57801">
        <ele>749.5</ele>
        <time>2014-05-01T06:59:59Z</time>
      </trkpt>
      <trkpt lat="45.62606" lon="4.57818">
        <ele>749.1</ele>
        <time>2014-05-01T07:00:01Z</time>
      </trkpt>
      <trkpt lat="45.6261" lon="4.57833">
        <ele>749.1</ele>
        <time>2014-05-01T07:00:03Z</time>
      </trkpt>
      <trkpt lat="45.62618" lon="4.57844">
        <ele>749.1</ele>
        <time>2014-05-01T07:00:05Z</time>
      </trkpt>
      <trkpt lat="45.62624" lon="4.57854">
        <ele>748.9</ele>
        <time>2014-05-01T07:00:07Z</time>
      </trkpt>
      <trkpt lat="45.62629" lon="4.57865">
        <ele>748.5</ele>
        <time>2014-05-01T07:00:09Z</time>
      </trkpt>
      <trkpt lat="45.62632" lon="4.57878">
        <ele>748.3</ele>
        <time>2014-05-01T07:00:11Z</time>
      </trkpt>
      <trkpt lat="45.62636" lon="4.5789">
        <ele>748.4</ele>
        <time>2014-05-01T07:00:13Z</time>
      </trkpt>
      <trkpt lat="45.62639" lon="4.57902">
        <ele>748.5</ele>
        <time>2014-05-01T07:00:15Z</time>
      </trkpt>
      <trkpt lat="45.62641" lon="4.57913">
        <ele>748.7</ele>
        <time>2014-05-01T07:00:17Z</time>
      </trkpt>
      <trkpt lat="45.62644" lon="4.57923">
        <ele>748.9</ele>
        <time>2014-05-01T07:00:19Z</time>
      </trkpt>
      <trkpt lat="45.62649" lon="4.57931">
        <ele>749.1</ele>
        <time>2014-05-01T07:00:21Z</time>
      </trkpt>
      <trkpt lat="45.62654" lon="4.57939">
        <ele>749.6</ele>
        <time>2014-05-01T07:00:23Z</time>
      </trkpt>
      <trkpt lat="45.62658" lon="4.57947">
        <ele>750.1</ele>
        <time>2014-05-01T07:00:25Z</time>
      </trkpt>
      <trkpt lat="45.62661" lon="4.57954">
        <ele>750.3</ele>
        <time>2014-05-01T07:00:27Z</time>
      </trkpt>
      <trkpt lat="45.62664" lon="4.57961">
        <ele>750.5</ele>
        <time>2014-05-01T07:00:29Z</time>
      </trkpt>
      <trkpt lat="45.62668" lon="4.57967">
        <ele>750.6</ele>
        <time>2014-05-01T07:00:31Z</time>
      </trkpt>
      <trkpt lat="45.62671" lon="4.57974">
        <ele>750.8</ele>
        <time>2014-05-01T07:00:33Z</time>
      </trkpt>
      <trkpt lat="45.62673" lon="4.57981">
        <ele>750.9</ele>
        <time>2014-05-01T07:00:35Z</time>
      </trkpt>
      <trkpt lat="45.62676" lon="4.57987">
        <ele>751</ele>
        <time>2014-05-01T07:00:37Z</time>
      </trkpt>
      <trkpt lat="45.62678" lon="4.57994">
        <ele>751.1</ele>
        <time>2014-05-01T07:00:39Z</time>
      </trkpt>
      <trkpt lat="45.6268" lon="4.58002">
        <ele>751.2</ele>
        <time>2014-05-01T07:00:41Z</time>
      </trkpt>
      <trkpt lat="45.62682" lon="4.5801">
        <ele>751.3</ele>
        <time>2014-05-01T07:00:43Z</time>
      </trkpt>
      <trkpt lat="45.62684" lon="4.58018">
        <ele>751.5</ele>
        <time>2014-05-01T07:00:45Z</time>
      </trkpt>
      <trkpt lat="45.62687" lon="4.58027">
        <ele>751.8</ele>
        <time>2014-05-01T07:00:47Z</time>
      </trkpt>
      <trkpt lat="45.62689" lon="4.58037">
        <ele>752.3</ele>
        <time>2014-05-01T07:00:49Z</time>
      </trkpt>
      <trkpt lat="45.62692" lon="4.58046">
        <ele>753</ele>
        <time>2014-05-01T07:00:51Z</time>
      </trkpt>
      <trkpt lat="45.62694" lon="4.58055">
        <ele>753.3</ele>
        <time>2014-05-01T07:00:53Z</time>
      </trkpt>
      <trkpt lat="45.62697" lon="4.58064">
        <ele>753.4</ele>
        <time>2014-05-01T07:00:55Z</time>
      </trkpt>
      <trkpt lat="45.627" lon="4.58073">
        <ele>753.6</ele>
        <time>2014-05-01T07:00:57Z</time>
      </trkpt>
      <trkpt lat="45.62702" lon="4.58083">
        <ele>753.7</ele>
        <time>2014-05-01T07:00:59Z</time>
      </trkpt>
      <trkpt lat="45.62705" lon="4.58092">
        <ele>753.8</ele>
        <time>2014-05-01T07:01:01Z</time>
      </trkpt>
      <trkpt lat="45.62708" lon="4.58101">
        <ele>753.9</ele>
        <time>2014-05-01T07:01:03Z</time>
      </trkpt>
      <trkpt lat="45.6271" lon="4.5811">
        <ele>754.1</ele>
        <time>2014-05-01T07:01:05Z</time>
      </trkpt>
      <trkpt lat="45.62713" lon="4.58119">
        <ele>754.2</ele>
        <time>2014-05-01T07:01:07Z</time>
      </trkpt>
      <trkpt lat="45.62716" lon="4.58128">
        <ele>754.4</ele>
        <time>2014-05-01T07:01:09Z</time>
      </trkpt>
      <trkpt lat="45.62719" lon="4.58137">
        <ele>754.8</ele>
        <time>2014-05-01T07:01:11Z</time>
      </trkpt>
      <trkpt lat="45.62722" lon="4.58146">
        <ele>755.4</ele>
        <time>2014-05-01T07:01:13Z</time>
      </trkpt>
      <trkpt lat="45.62725" lon="4.58154">
        <ele>756</ele>
        <time>2014-05-01T07:01:15Z</time>
      </trkpt>
      <trkpt lat="45.62727" lon="4.58163">
        <ele>756.2</ele>
        <time>2014-05-01T07:01:17Z</time>
      </trkpt>
      <trkpt lat="45.6273" lon="4.58171">
        <ele>756.3</ele>
        <time>2014-05-01T07:01:19Z</time>
      </trkpt>
      <trkpt lat="45.62733" lon="4.5818">
        <ele>756.5</ele>
        <time>2014-05-01T07:01:21Z</time>
      </trkpt>
      <trkpt lat="45.62736" lon="4.58189">
        <ele>756.6</ele>
        <time>2014-05-01T07:01:23Z</time>
      </trkpt>
      <trkpt lat="45.62738" lon="4.58197">
        <ele>756.7</ele>
        <time>2014-05-01T07:01:25Z</time>
      </trkpt>
      <trkpt lat="45.62741" lon="4.58206">
        <ele>756.7</ele>
        <time>2014-05-01T07:01:27Z</time>
      </trkpt>
      <trkpt lat="45.62743" lon="4.58215">
        <ele>756.8</ele>
        <time>2014-05-01T07:01:29Z</time>
      </trkpt>
      <trkpt lat="45.62745" lon="4.58225">
        <ele>756.8</ele>
        <time>2014-05-01T07:01:31Z</time>
      </trkpt>
      <trkpt lat="45.62748" lon="4.58234">
        <ele>756.9</ele>
        <time>2014-05-01T07:01:33Z</time>
      </trkpt>
      <trkpt lat="45.62751" lon="4.58242">
        <ele>756.9</ele>
        <time>2014-05-01T07:01:35Z</time>
      </trkpt>
      <trkpt lat="45.62753" lon="4.58251">
        <ele>757</ele>
        <time>2014-05-01T07:01:37Z</time>
      </trkpt>
      <trkpt lat="45.62754" lon="4.58258">
        <ele>757.1</ele>
        <time>2014-05-01T07:01:39Z</time>
      </trkpt>
      <trkpt lat="45.62754" lon="4.58263">
        <ele>757.4</ele>
        <time>2014-05-01T07:01:41Z</time>
      </trkpt>
      <trkpt lat="45.62753" lon="4.58267">
        <ele>757.7</ele>
        <time>2014-05-01T07:01:43Z</time>
      </trkpt>
      <trkpt lat="45.62751" lon="4.5827">
        <ele>758.2</ele>
        <time>2014-05-01T07:01:45Z</time>
      </trkpt>
      <trkpt lat="45.6275" lon="4.58272">
        <ele>758.6</ele>
        <time>2014-05-01T07:01:47Z</time>
      </trkpt>
      <trkpt lat="45.62747" lon="4.58274">
        <ele>759</ele>
        <time>2014-05-01T07:01:49Z</time>
      </trkpt>
      <trkpt lat="45.62746" lon="4.58277">
        <ele>759.1</ele>
        <time>2014-05-01T07:01:51Z</time>
      </trkpt>
      <trkpt lat="45.62744" lon="4.58278">
        <ele>759.3</ele>
        <time>2014-05-01T07:01:53Z</time>
      </trkpt>
      <trkpt lat="45.62742" lon="4.5828">
        <ele>759.4</ele>
        <time>2014-05-01T07:01:55Z</time>
      </trkpt>
      <trkpt lat="45.6274" lon="4.58283">
        <ele>759.6</ele>
        <time>2014-05-01T07:01:57Z</time>
      </trkpt>
      <trkpt lat="45.62738" lon="4.58286">
        <ele>760.1</ele>
        <time>2014-05-01T07:01:59Z</time>
      </trkpt>
      <trkpt lat="45.62736" lon="4.58289">
        <ele>760.8</ele>
        <time>2014-05-01T07:02:01Z</time>
      </trkpt>
      <trkpt lat="45.62734" lon="4.58291">
        <ele>761.2</ele>
        <time>2014-05-01T07:02:03Z</time>
      </trkpt>
      <trkpt lat="45.62732" lon="4.58293">
        <ele>761.5</ele>
        <time>2014-05-01T07:02:05Z</time>
      </trkpt>
      <trkpt lat="45.62729" lon="4.58295">
        <ele>762</ele>
        <time>2014-05-01T07:02:07Z</time>
      </trkpt>
      <trkpt lat="45.62726" lon="4.58297">
        <ele>762.8</ele>
        <time>2014-05-01T07:02:09Z</time>
      </trkpt>
      <trkpt lat="45.62724" lon="4.583">
        <ele>763.1</ele>
        <time>2014-05-01T07:02:11Z</time>
      </trkpt>
      <trkpt lat="45.62722" lon="4.58302">
        <ele>763.3</ele>
        <time>2014-05-01T07:02:13Z</time>
      </trkpt>
      <trkpt lat="45.62719" lon="4.58304">
        <ele>763.6</ele>
        <time>2014-05-01T07:02:15Z</time>
      </trkpt>
      <trkpt lat="45.62717" lon="4.58305">
        <ele>763.9</ele>
        <time>2014-05-01T07:02:17Z</time>
      </trkpt>
      <trkpt lat="45.62714" lon="4.58307">
        <ele>764.3</ele>
        <time>2014-05-01T07:02:19Z</time>
      </trkpt>
      <trkpt lat="45.62713" lon="4.58309">
        <ele>764.7</ele>
        <time>2014-05-01T07:02:21Z</time>
      </trkpt>
      <trkpt lat="45.62711" lon="4.58311">
        <ele>765</ele>
        <time>2014-05-01T07:02:23Z</time>
      </trkpt>
      <trkpt lat="45.62709" lon="4.58313">
        <ele>765.2</ele>
        <time>2014-05-01T07:02:25Z</time>
      </trkpt>
      <trkpt lat="45.62708" lon="4.58315">
        <ele>765.4</ele>
        <time>2014-05-01T07:02:27Z</time>
      </trkpt>
      <trkpt lat="45.62706" lon="4.58316">
        <ele>765.6</ele>
        <time>2014-05-01T07:02:29Z</time>
      </trkpt>
      <trkpt lat="45.62704" lon="4.58317">
        <ele>765.9</ele>
        <time>2014-05-01T07:02:31Z</time>
      </trkpt>
      <trkpt lat="45.62703" lon="4.58318">
        <ele>766.2</ele>
        <time>2014-05-01T07:02:33Z</time>
      </trkpt>
      <trkpt lat="45.62701" lon="4.58319">
        <ele>766.5</ele>
        <time>2014-05-01T07:02:35Z</time>
      </trkpt>
      <trkpt lat="45.62698" lon="4.58323">
        <ele>767.2</ele>
        <time>2014-05-01T07:02:37Z</time>
      </trkpt>
      <trkpt lat="45.62696" lon="4.58324">
        <ele>767.4</ele>
        <time>2014-05-01T07:02:39Z</time>
      </trkpt>
      <trkpt lat="45.62693" lon="4.58326">
        <ele>767.8</ele>
        <time>2014-05-01T07:02:41Z</time>
      </trkpt>
      <trkpt lat="45.6269" lon="4.58328">
        <ele>768.5</ele>
        <time>2014-05-01T07:02:43Z</time>
      </trkpt>
      <trkpt lat="45.62688" lon="4.58329">
        <ele>769.3</ele>
        <time>2014-05-01T07:02:45Z</time>
      </trkpt>
      <trkpt lat="45.62686" lon="4.5833">
        <ele>769.5</ele>
        <time>2014-05-01T07:02:47Z</time>
      </trkpt>
      <trkpt lat="45.62684" lon="4.58332">
        <ele>769.7</ele>
        <time>2014-05-01T07:02:49Z</time>
      </trkpt>
      <trkpt lat="45.62682" lon="4.58333">
        <ele>769.9</ele>
        <time>2014-05-01T07:02:51Z</time>
      </trkpt>
      <trkpt lat="45.62679" lon="4.58335">
        <ele>770.4</ele>
        <time>2014-05-01T07:02:53Z</time>
      </trkpt>
      <trkpt lat="45.62677" lon="4.58337">
        <ele>770.9</ele>
        <time>2014-05-01T07:02:55Z</time>
      </trkpt>
      <trkpt lat="45.62677" lon="4.58339">
        <ele>771.6</ele>
        <time>2014-05-01T07:02:57Z</time>
      </trkpt>
      <trkpt lat="45.62675" lon="4.58342">
        <ele>771.8</ele>
        <time>2014-05-01T07:02:59Z</time>
      </trkpt>
      <trkpt lat="45.62674" lon="4.58343">
        <ele>771.9</ele>
        <time>2014-05-01T07:03:01Z</time>
      </trkpt>
      <trkpt lat="45.62672" lon="4.58345">
        <ele>772.1</ele>
        <time>2014-05-01T07:03:03Z</time>
      </trkpt>
      <trkpt lat="45.62671" lon="4.58346">
        <ele>772.3</ele>
        <time>2014-05-01T07:03:05Z</time>
      </trkpt>
      <trkpt lat="45.62669" lon="4.58347">
        <ele>772.6</ele>
        <time>2014-05-01T07:03:07Z</time>
      </trkpt>
      <trkpt lat="45.62668" lon="4.58349">
        <ele>773.2</ele>
        <time>2014-05-01T07:03:09Z</time>
      </trkpt>
      <trkpt lat="45.62665" lon="4.58351">
        <ele>773.6</ele>
        <time>2014-05-01T07:03:11Z</time>
      </trkpt>
      <trkpt lat="45.62664" lon="4.58353">
        <ele>773.8</ele>
        <time>2014-05-01T07:03:13Z</time>
      </trkpt>
      <trkpt lat="45.62662" lon="4.58354">
        <ele>774</ele>
        <time>2014-05-01T07:03:15Z</time>
      </trkpt>
      <trkpt lat="45.6266" lon="4.58357">
        <ele>774.2</ele>
        <time>2014-05-01T07:03:17Z</time>
      </trkpt>
      <trkpt lat="45.62647" lon="4.5838">
        <ele>778.1</ele>
        <time>2014-05-01T07:03:47Z</time>
      </trkpt>
      <trkpt lat="45.62646" lon="4.58383">
        <ele>778.2</ele>
        <time>2014-05-01T07:03:49Z</time>
      </trkpt>
      <trkpt lat="45.62645" lon="4.58385">
        <ele>778.4</ele>
        <time>2014-05-01T07:03:51Z</time>
      </trkpt>
      <trkpt lat="45.62644" lon="4.58387">
        <ele>778.6</ele>
        <time>2014-05-01T07:03:53Z</time>
      </trkpt>
      <trkpt lat="45.62643" lon="4.5839">
        <ele>778.9</ele>
        <time>2014-05-01T07:03:55Z</time>
      </trkpt>
      <trkpt lat="45.62642" lon="4.58392">
        <ele>779.1</ele>
        <time>2014-05-01T07:03:57Z</time>
      </trkpt>
      <trkpt lat="45.62641" lon="4.58394">
        <ele>779.3</ele>
        <time>2014-05-01T07:03:59Z</time>
      </trkpt>
      <trkpt lat="45.62637" lon="4.58399">
        <ele>779.8</ele>
        <time>2014-05-01T07:04:09Z</time>
      </trkpt>
      <trkpt lat="45.62636" lon="4.58401">
        <ele>780</ele>
        <time>2014-05-01T07:04:11Z</time>
      </trkpt>
      <trkpt lat="45.62634" lon="4.58403">
        <ele>780.1</ele>
        <time>2014-05-01T07:04:13Z</time>
      </trkpt>
      <trkpt lat="45.62633" lon="4.58406">
        <ele>780.3</ele>
        <time>2014-05-01T07:04:15Z</time>
      </trkpt>
      <trkpt lat="45.62631" lon="4.58409">
        <ele>780.5</ele>
        <time>2014-05-01T07:04:17Z</time>
      </trkpt>
      <trkpt lat="45.62629" lon="4.58411">
        <ele>780.8</ele>
        <time>2014-05-01T07:04:19Z</time>
      </trkpt>
      <trkpt lat="45.62628" lon="4.58413">
        <ele>781.2</ele>
        <time>2014-05-01T07:04:21Z</time>
      </trkpt>
      <trkpt lat="45.62626" lon="4.58417">
        <ele>781.7</ele>
        <time>2014-05-01T07:04:23Z</time>
      </trkpt>
      <trkpt lat="45.62625" lon="4.5842">
        <ele>782</ele>
        <time>2014-05-01T07:04:25Z</time>
      </trkpt>
      <trkpt lat="45.62623" lon="4.58423">
        <ele>782.3</ele>
        <time>2014-05-01T07:04:27Z</time>
      </trkpt>
      <trkpt lat="45.62622" lon="4.58425">
        <ele>782.7</ele>
        <time>2014-05-01T07:04:29Z</time>
      </trkpt>
      <trkpt lat="45.6262" lon="4.58427">
        <ele>783.4</ele>
        <time>2014-05-01T07:04:31Z</time>
      </trkpt>
      <trkpt lat="45.62619" lon="4.5843">
        <ele>784</ele>
        <time>2014-05-01T07:04:33Z</time>
      </trkpt>
      <trkpt lat="45.62616" lon="4.58432">
        <ele>784.3</ele>
        <time>2014-05-01T07:04:35Z</time>
      </trkpt>
      <trkpt lat="45.62614" lon="4.58435">
        <ele>784.6</ele>
        <time>2014-05-01T07:04:37Z</time>
      </trkpt>
      <trkpt lat="45.62613" lon="4.58437">
        <ele>784.9</ele>
        <time>2014-05-01T07:04:39Z</time>
      </trkpt>
      <trkpt lat="45.62611" lon="4.58439">
        <ele>785.6</ele>
        <time>2014-05-01T07:04:41Z</time>
      </trkpt>
      <trkpt lat="45.62608" lon="4.58442">
        <ele>786.1</ele>
        <time>2014-05-01T07:04:43Z</time>
      </trkpt>
      <trkpt lat="45.62606" lon="4.58444">
        <ele>786.3</ele>
        <time>2014-05-01T07:04:45Z</time>
      </trkpt>
      <trkpt lat="45.62604" lon="4.58446">
        <ele>786.6</ele>
        <time>2014-05-01T07:04:47Z</time>
      </trkpt>
      <trkpt lat="45.62602" lon="4.58447">
        <ele>786.9</ele>
        <time>2014-05-01T07:04:49Z</time>
      </trkpt>
      <trkpt lat="45.626" lon="4.58449">
        <ele>787.3</ele>
        <time>2014-05-01T07:04:51Z</time>
      </trkpt>
      <trkpt lat="45.62598" lon="4.58452">
        <ele>787.8</ele>
        <time>2014-05-01T07:04:53Z</time>
      </trkpt>
      <trkpt lat="45.62596" lon="4.58453">
        <ele>788.3</ele>
        <time>2014-05-01T07:04:55Z</time>
      </trkpt>
      <trkpt lat="45.62592" lon="4.58457">
        <ele>789</ele>
        <time>2014-05-01T07:05:01Z</time>
      </trkpt>
      <trkpt lat="45.6259" lon="4.5846">
        <ele>789.8</ele>
        <time>2014-05-01T07:05:03Z</time>
      </trkpt>
      <trkpt lat="45.62588" lon="4.58462">
        <ele>790.4</ele>
        <time>2014-05-01T07:05:05Z</time>
      </trkpt>
      <trkpt lat="45.62587" lon="4.58463">
        <ele>790.7</ele>
        <time>2014-05-01T07:05:07Z</time>
      </trkpt>
      <trkpt lat="45.62585" lon="4.58466">
        <ele>791</ele>
        <time>2014-05-01T07:05:09Z</time>
      </trkpt>
      <trkpt lat="45.62582" lon="4.58469">
        <ele>791.6</ele>
        <time>2014-05-01T07:05:13Z</time>
      </trkpt>
      <trkpt lat="45.62581" lon="4.58471">
        <ele>792</ele>
        <time>2014-05-01T07:05:15Z</time>
      </trkpt>
      <trkpt lat="45.62579" lon="4.58473">
        <ele>792.4</ele>
        <time>2014-05-01T07:05:17Z</time>
      </trkpt>
      <trkpt lat="45.62577" lon="4.58474">
        <ele>792.5</ele>
        <time>2014-05-01T07:05:19Z</time>
      </trkpt>
      <trkpt lat="45.62576" lon="4.58475">
        <ele>792.7</ele>
        <time>2014-05-01T07:05:21Z</time>
      </trkpt>
      <trkpt lat="45.62574" lon="4.58479">
        <ele>793</ele>
        <time>2014-05-01T07:05:27Z</time>
      </trkpt>
      <trkpt lat="45.62572" lon="4.58482">
        <ele>793.2</ele>
        <time>2014-05-01T07:05:29Z</time>
      </trkpt>
      <trkpt lat="45.6257" lon="4.58484">
        <ele>793.5</ele>
        <time>2014-05-01T07:05:31Z</time>
      </trkpt>
      <trkpt lat="45.62569" lon="4.58486">
        <ele>793.9</ele>
        <time>2014-05-01T07:05:33Z</time>
      </trkpt>
      <trkpt lat="45.62566" lon="4.58488">
        <ele>794.2</ele>
        <time>2014-05-01T07:05:35Z</time>
      </trkpt>
      <trkpt lat="45.62565" lon="4.5849">
        <ele>794.4</ele>
        <time>2014-05-01T07:05:37Z</time>
      </trkpt>
      <trkpt lat="45.62563" lon="4.58493">
        <ele>794.6</ele>
        <time>2014-05-01T07:05:39Z</time>
      </trkpt>
      <trkpt lat="45.62562" lon="4.58496">
        <ele>794.7</ele>
        <time>2014-05-01T07:05:41Z</time>
      </trkpt>
      <trkpt lat="45.6256" lon="4.58499">
        <ele>794.9</ele>
        <time>2014-05-01T07:05:43Z</time>
      </trkpt>
      <trkpt lat="45.62558" lon="4.58502">
        <ele>795.1</ele>
        <time>2014-05-01T07:05:45Z</time>
      </trkpt>
      <trkpt lat="45.62558" lon="4.58506">
        <ele>795.3</ele>
        <time>2014-05-01T07:05:47Z</time>
      </trkpt>
      <trkpt lat="45.62557" lon="4.58509">
        <ele>795.8</ele>
        <time>2014-05-01T07:05:49Z</time>
      </trkpt>
      <trkpt lat="45.62555" lon="4.58513">
        <ele>796.2</ele>
        <time>2014-05-01T07:05:51Z</time>
      </trkpt>
      <trkpt lat="45.62554" lon="4.58517">
        <ele>796.4</ele>
        <time>2014-05-01T07:05:53Z</time>
      </trkpt>
      <trkpt lat="45.62553" lon="4.5852">
        <ele>796.5</ele>
        <time>2014-05-01T07:05:55Z</time>
      </trkpt>
      <trkpt lat="45.62552" lon="4.58524">
        <ele>796.7</ele>
        <time>2014-05-01T07:05:57Z</time>
      </trkpt>
      <trkpt lat="45.62551" lon="4.58528">
        <ele>796.8</ele>
        <time>2014-05-01T07:05:59Z</time>
      </trkpt>
      <trkpt lat="45.62551" lon="4.58532">
        <ele>797</ele>
        <time>2014-05-01T07:06:01Z</time>
      </trkpt>
      <trkpt lat="45.62549" lon="4.58536">
        <ele>797.2</ele>
        <time>2014-05-01T07:06:03Z</time>
      </trkpt>
      <trkpt lat="45.62547" lon="4.58541">
        <ele>797.6</ele>
        <time>2014-05-01T07:06:05Z</time>
      </trkpt>
      <trkpt lat="45.62545" lon="4.58545">
        <ele>798</ele>
        <time>2014-05-01T07:06:07Z</time>
      </trkpt>
      <trkpt lat="45.62544" lon="4.58552">
        <ele>798.4</ele>
        <time>2014-05-01T07:06:09Z</time>
      </trkpt>
      <trkpt lat="45.62541" lon="4.58558">
        <ele>798.5</ele>
        <time>2014-05-01T07:06:11Z</time>
      </trkpt>
      <trkpt lat="45.6254" lon="4.58564">
        <ele>798.5</ele>
        <time>2014-05-01T07:06:13Z</time>
      </trkpt>
      <trkpt lat="45.62538" lon="4.5857">
        <ele>798.6</ele>
        <time>2014-05-01T07:06:15Z</time>
      </trkpt>
      <trkpt lat="45.62536" lon="4.58576">
        <ele>798.7</ele>
        <time>2014-05-01T07:06:17Z</time>
      </trkpt>
      <trkpt lat="45.62534" lon="4.58581">
        <ele>798.7</ele>
        <time>2014-05-01T07:06:19Z</time>
      </trkpt>
      <trkpt lat="45.62532" lon="4.58587">
        <ele>798.7</ele>
        <time>2014-05-01T07:06:21Z</time>
      </trkpt>
      <trkpt lat="45.62531" lon="4.58591">
        <ele>798.7</ele>
        <time>2014-05-01T07:06:23Z</time>
      </trkpt>
      <trkpt lat="45.62529" lon="4.58596">
        <ele>798.8</ele>
        <time>2014-05-01T07:06:25Z</time>
      </trkpt>
      <trkpt lat="45.62528" lon="4.58602">
        <ele>798.8</ele>
        <time>2014-05-01T07:06:27Z</time>
      </trkpt>
      <trkpt lat="45.62525" lon="4.58608">
        <ele>798.9</ele>
        <time>2014-05-01T07:06:29Z</time>
      </trkpt>
      <trkpt lat="45.62523" lon="4.58613">
        <ele>798.9</ele>
        <time>2014-05-01T07:06:31Z</time>
      </trkpt>
      <trkpt lat="45.62521" lon="4.58619">
        <ele>799</ele>
        <time>2014-05-01T07:06:33Z</time>
      </trkpt>
      <trkpt lat="45.62519" lon="4.58623">
        <ele>799.1</ele>
        <time>2014-05-01T07:06:35Z</time>
      </trkpt>
      <trkpt lat="45.62518" lon="4.58627">
        <ele>799.2</ele>
        <time>2014-05-01T07:06:37Z</time>
      </trkpt>
      <trkpt lat="45.62515" lon="4.5863">
        <ele>799.3</ele>
        <time>2014-05-01T07:06:39Z</time>
      </trkpt>
      <trkpt lat="45.62513" lon="4.58634">
        <ele>799.4</ele>
        <time>2014-05-01T07:06:41Z</time>
      </trkpt>
      <trkpt lat="45.6251" lon="4.58638">
        <ele>799.8</ele>
        <time>2014-05-01T07:06:43Z</time>
      </trkpt>
      <trkpt lat="45.62508" lon="4.58643">
        <ele>800.2</ele>
        <time>2014-05-01T07:06:45Z</time>
      </trkpt>
      <trkpt lat="45.62506" lon="4.58646">
        <ele>800.5</ele>
        <time>2014-05-01T07:06:47Z</time>
      </trkpt>
      <trkpt lat="45.62503" lon="4.5865">
        <ele>800.7</ele>
        <time>2014-05-01T07:06:49Z</time>
      </trkpt>
      <trkpt lat="45.62501" lon="4.58654">
        <ele>800.9</ele>
        <time>2014-05-01T07:06:51Z</time>
      </trkpt>
      <trkpt lat="45.62498" lon="4.58657">
        <ele>801.2</ele>
        <time>2014-05-01T07:06:53Z</time>
      </trkpt>
      <trkpt lat="45.62495" lon="4.58661">
        <ele>801.5</ele>
        <time>2014-05-01T07:06:55Z</time>
      </trkpt>
      <trkpt lat="45.62491" lon="4.58666">
        <ele>802.3</ele>
        <time>2014-05-01T07:06:59Z</time>
      </trkpt>
      <trkpt lat="45.62489" lon="4.58669">
        <ele>802.6</ele>
        <time>2014-05-01T07:07:01Z</time>
      </trkpt>
      <trkpt lat="45.62487" lon="4.58672">
        <ele>802.9</ele>
        <time>2014-05-01T07:07:03Z</time>
      </trkpt>
      <trkpt lat="45.62486" lon="4.58675">
        <ele>803.1</ele>
        <time>2014-05-01T07:07:05Z</time>
      </trkpt>
      <trkpt lat="45.62483" lon="4.58678">
        <ele>803.3</ele>
        <time>2014-05-01T07:07:07Z</time>
      </trkpt>
      <trkpt lat="45.62481" lon="4.58681">
        <ele>803.6</ele>
        <time>2014-05-01T07:07:09Z</time>
      </trkpt>
      <trkpt lat="45.62479" lon="4.58684">
        <ele>804.4</ele>
        <time>2014-05-01T07:07:11Z</time>
      </trkpt>
      <trkpt lat="45.62476" lon="4.58686">
        <ele>804.6</ele>
        <time>2014-05-01T07:07:13Z</time>
      </trkpt>
      <trkpt lat="45.62468" lon="4.58698">
        <ele>805.7</ele>
        <time>2014-05-01T07:07:27Z</time>
      </trkpt>
      <trkpt lat="45.62463" lon="4.58707">
        <ele>806.8</ele>
        <time>2014-05-01T07:07:37Z</time>
      </trkpt>
      <trkpt lat="45.62461" lon="4.58709">
        <ele>806.9</ele>
        <time>2014-05-01T07:07:39Z</time>
      </trkpt>
      <trkpt lat="45.62457" lon="4.58716">
        <ele>807.4</ele>
        <time>2014-05-01T07:07:48Z</time>
      </trkpt>
      <trkpt lat="45.62454" lon="4.58718">
        <ele>807.7</ele>
        <time>2014-05-01T07:07:52Z</time>
      </trkpt>
      <trkpt lat="45.62452" lon="4.5872">
        <ele>808.1</ele>
        <time>2014-05-01T07:07:54Z</time>
      </trkpt>
      <trkpt lat="45.62448" lon="4.58724">
        <ele>809</ele>
        <time>2014-05-01T07:08:00Z</time>
      </trkpt>
      <trkpt lat="45.62446" lon="4.58728">
        <ele>809.3</ele>
        <time>2014-05-01T07:08:04Z</time>
      </trkpt>
      <trkpt lat="45.62445" lon="4.5873">
        <ele>809.4</ele>
        <time>2014-05-01T07:08:06Z</time>
      </trkpt>
      <trkpt lat="45.62443" lon="4.58733">
        <ele>809.8</ele>
        <time>2014-05-01T07:08:08Z</time>
      </trkpt>
      <trkpt lat="45.62441" lon="4.58735">
        <ele>810.4</ele>
        <time>2014-05-01T07:08:10Z</time>
      </trkpt>
      <trkpt lat="45.62439" lon="4.58738">
        <ele>810.8</ele>
        <time>2014-05-01T07:08:12Z</time>
      </trkpt>
      <trkpt lat="45.62437" lon="4.5874">
        <ele>811</ele>
        <time>2014-05-01T07:08:14Z</time>
      </trkpt>
      <trkpt lat="45.62435" lon="4.58742">
        <ele>811.2</ele>
        <time>2014-05-01T07:08:16Z</time>
      </trkpt>
      <trkpt lat="45.62433" lon="4.58745">
        <ele>811.5</ele>
        <time>2014-05-01T07:08:18Z</time>
      </trkpt>
      <trkpt lat="45.62432" lon="4.58748">
        <ele>811.7</ele>
        <time>2014-05-01T07:08:20Z</time>
      </trkpt>
      <trkpt lat="45.6243" lon="4.5875">
        <ele>811.9</ele>
        <time>2014-05-01T07:08:22Z</time>
      </trkpt>
      <trkpt lat="45.62428" lon="4.58751">
        <ele>812.3</ele>
        <time>2014-05-01T07:08:24Z</time>
      </trkpt>
      <trkpt lat="45.62427" lon="4.58753">
        <ele>812.7</ele>
        <time>2014-05-01T07:08:26Z</time>
      </trkpt>
      <trkpt lat="45.62425" lon="4.58755">
        <ele>813</ele>
        <time>2014-05-01T07:08:28Z</time>
      </trkpt>
      <trkpt lat="45.62423" lon="4.58756">
        <ele>813.3</ele>
        <time>2014-05-01T07:08:30Z</time>
      </trkpt>
      <trkpt lat="45.62422" lon="4.58758">
        <ele>813.5</ele>
        <time>2014-05-01T07:08:32Z</time>
      </trkpt>
      <trkpt lat="45.6242" lon="4.5876">
        <ele>813.7</ele>
        <time>2014-05-01T07:08:34Z</time>
      </trkpt>
      <trkpt lat="45.62418" lon="4.58762">
        <ele>813.9</ele>
        <time>2014-05-01T07:08:36Z</time>
      </trkpt>
      <trkpt lat="45.62416" lon="4.58763">
        <ele>814.3</ele>
        <time>2014-05-01T07:08:38Z</time>
      </trkpt>
      <trkpt lat="45.62413" lon="4.58766">
        <ele>814.7</ele>
        <time>2014-05-01T07:08:42Z</time>
      </trkpt>
      <trkpt lat="45.62411" lon="4.58768">
        <ele>815</ele>
        <time>2014-05-01T07:08:46Z</time>
      </trkpt>
      <trkpt lat="45.62409" lon="4.58771">
        <ele>815.1</ele>
        <time>2014-05-01T07:08:48Z</time>
      </trkpt>
      <trkpt lat="45.62407" lon="4.58772">
        <ele>815.3</ele>
        <time>2014-05-01T07:08:50Z</time>
      </trkpt>
      <trkpt lat="45.62405" lon="4.58774">
        <ele>815.4</ele>
        <time>2014-05-01T07:08:52Z</time>
      </trkpt>
      <trkpt lat="45.62404" lon="4.58776">
        <ele>815.6</ele>
        <time>2014-05-01T07:08:54Z</time>
      </trkpt>
      <trkpt lat="45.62401" lon="4.58778">
        <ele>815.9</ele>
        <time>2014-05-01T07:08:56Z</time>
      </trkpt>
      <trkpt lat="45.624" lon="4.5878">
        <ele>816.8</ele>
        <time>2014-05-01T07:08:58Z</time>
      </trkpt>
      <trkpt lat="45.62398" lon="4.58782">
        <ele>817.1</ele>
        <time>2014-05-01T07:09:00Z</time>
      </trkpt>
      <trkpt lat="45.62397" lon="4.58784">
        <ele>817.3</ele>
        <time>2014-05-01T07:09:02Z</time>
      </trkpt>
      <trkpt lat="45.62395" lon="4.58786">
        <ele>817.6</ele>
        <time>2014-05-01T07:09:04Z</time>
      </trkpt>
      <trkpt lat="45.62393" lon="4.58787">
        <ele>818.4</ele>
        <time>2014-05-01T07:09:06Z</time>
      </trkpt>
      <trkpt lat="45.62392" lon="4.58789">
        <ele>818.7</ele>
        <time>2014-05-01T07:09:08Z</time>
      </trkpt>
      <trkpt lat="45.62391" lon="4.5879">
        <ele>818.8</ele>
        <time>2014-05-01T07:09:10Z</time>
      </trkpt>
      <trkpt lat="45.62389" lon="4.58792">
        <ele>819</ele>
        <time>2014-05-01T07:09:12Z</time>
      </trkpt>
      <trkpt lat="45.62386" lon="4.58793">
        <ele>819.2</ele>
        <time>2014-05-01T07:09:14Z</time>
      </trkpt>
      <trkpt lat="45.62385" lon="4.58796">
        <ele>819.3</ele>
        <time>2014-05-01T07:09:16Z</time>
      </trkpt>
      <trkpt lat="45.62383" lon="4.58797">
        <ele>819.5</ele>
        <time>2014-05-01T07:09:18Z</time>
      </trkpt>
      <trkpt lat="45.62381" lon="4.58798">
        <ele>819.6</ele>
        <time>2014-05-01T07:09:20Z</time>
      </trkpt>
      <trkpt lat="45.62379" lon="4.588">
        <ele>819.7</ele>
        <time>2014-05-01T07:09:22Z</time>
      </trkpt>
      <trkpt lat="45.62376" lon="4.58801">
        <ele>819.9</ele>
        <time>2014-05-01T07:09:24Z</time>
      </trkpt>
      <trkpt lat="45.62375" lon="4.58802">
        <ele>820.1</ele>
        <time>2014-05-01T07:09:26Z</time>
      </trkpt>
      <trkpt lat="45.62373" lon="4.58803">
        <ele>820.5</ele>
        <time>2014-05-01T07:09:28Z</time>
      </trkpt>
      <trkpt lat="45.62371" lon="4.58804">
        <ele>820.9</ele>
        <time>2014-05-01T07:09:30Z</time>
      </trkpt>
      <trkpt lat="45.62369" lon="4.58805">
        <ele>821.6</ele>
        <time>2014-05-01T07:09:32Z</time>
      </trkpt>
      <trkpt lat="45.62367" lon="4.58807">
        <ele>822.5</ele>
        <time>2014-05-01T07:09:34Z</time>
      </trkpt>
      <trkpt lat="45.62365" lon="4.58808">
        <ele>823</ele>
        <time>2014-05-01T07:09:36Z</time>
      </trkpt>
      <trkpt lat="45.62363" lon="4.58809">
        <ele>823.4</ele>
        <time>2014-05-01T07:09:38Z</time>
      </trkpt>
      <trkpt lat="45.6236" lon="4.5881">
        <ele>823.9</ele>
        <time>2014-05-01T07:09:40Z</time>
      </trkpt>
      <trkpt lat="45.62359" lon="4.58811">
        <ele>824.9</ele>
        <time>2014-05-01T07:09:42Z</time>
      </trkpt>
      <trkpt lat="45.62357" lon="4.58813">
        <ele>825.2</ele>
        <time>2014-05-01T07:09:44Z</time>
      </trkpt>
      <trkpt lat="45.62355" lon="4.58814">
        <ele>825.4</ele>
        <time>2014-05-01T07:09:46Z</time>
      </trkpt>
      <trkpt lat="45.62354" lon="4.58815">
        <ele>825.6</ele>
        <time>2014-05-01T07:09:48Z</time>
      </trkpt>
      <trkpt lat="45.62352" lon="4.58815">
        <ele>825.7</ele>
        <time>2014-05-01T07:09:50Z</time>
      </trkpt>
      <trkpt lat="45.6235" lon="4.58817">
        <ele>825.9</ele>
        <time>2014-05-01T07:09:52Z</time>
      </trkpt>
      <trkpt lat="45.62348" lon="4.58818">
        <ele>826.9</ele>
        <time>2014-05-01T07:09:54Z</time>
      </trkpt>
      <trkpt lat="45.62346" lon="4.58819">
        <ele>827.4</ele>
        <time>2014-05-01T07:09:56Z</time>
      </trkpt>
      <trkpt lat="45.62344" lon="4.5882">
        <ele>827.5</ele>
        <time>2014-05-01T07:09:58Z</time>
      </trkpt>
      <trkpt lat="45.62341" lon="4.58821">
        <ele>827.7</ele>
        <time>2014-05-01T07:10:02Z</time>
      </trkpt>
      <trkpt lat="45.62339" lon="4.58822">
        <ele>827.9</ele>
        <time>2014-05-01T07:10:04Z</time>
      </trkpt>
      <trkpt lat="45.62338" lon="4.58823">
        <ele>828</ele>
        <time>2014-05-01T07:10:06Z</time>
      </trkpt>
      <trkpt lat="45.62333" lon="4.58824">
        <ele>828.6</ele>
        <time>2014-05-01T07:10:12Z</time>
      </trkpt>
      <trkpt lat="45.62332" lon="4.58824">
        <ele>828.8</ele>
        <time>2014-05-01T07:10:14Z</time>
      </trkpt>
      <trkpt lat="45.6233" lon="4.58825">
        <ele>829</ele>
        <time>2014-05-01T07:10:16Z</time>
      </trkpt>
      <trkpt lat="45.62327" lon="4.58827">
        <ele>829.6</ele>
        <time>2014-05-01T07:10:20Z</time>
      </trkpt>
      <trkpt lat="45.62326" lon="4.58827">
        <ele>829.7</ele>
        <time>2014-05-01T07:10:22Z</time>
      </trkpt>
      <trkpt lat="45.62324" lon="4.58828">
        <ele>829.8</ele>
        <time>2014-05-01T07:10:24Z</time>
      </trkpt>
      <trkpt lat="45.62323" lon="4.58829">
        <ele>829.9</ele>
        <time>2014-05-01T07:10:26Z</time>
      </trkpt>
      <trkpt lat="45.62321" lon="4.58829">
        <ele>830.2</ele>
        <time>2014-05-01T07:10:28Z</time>
      </trkpt>
      <trkpt lat="45.62319" lon="4.5883">
        <ele>830.5</ele>
        <time>2014-05-01T07:10:30Z</time>
      </trkpt>
      <trkpt lat="45.62317" lon="4.58831">
        <ele>830.8</ele>
        <time>2014-05-01T07:10:32Z</time>
      </trkpt>
      <trkpt lat="45.62315" lon="4.5883">
        <ele>831</ele>
        <time>2014-05-01T07:10:34Z</time>
      </trkpt>
      <trkpt lat="45.62313" lon="4.58831">
        <ele>831.3</ele>
        <time>2014-05-01T07:10:36Z</time>
      </trkpt>
      <trkpt lat="45.6231" lon="4.58832">
        <ele>831.6</ele>
        <time>2014-05-01T07:10:38Z</time>
      </trkpt>
      <trkpt lat="45.62309" lon="4.58831">
        <ele>831.7</ele>
        <time>2014-05-01T07:10:40Z</time>
      </trkpt>
      <trkpt lat="45.62307" lon="4.58831">
        <ele>831.8</ele>
        <time>2014-05-01T07:10:42Z</time>
      </trkpt>
      <trkpt lat="45.62305" lon="4.58831">
        <ele>832</ele>
        <time>2014-05-01T07:10:44Z</time>
      </trkpt>
      <trkpt lat="45.62303" lon="4.5883">
        <ele>832.1</ele>
        <time>2014-05-01T07:10:46Z</time>
      </trkpt>
      <trkpt lat="45.62301" lon="4.58829">
        <ele>832.4</ele>
        <time>2014-05-01T07:10:48Z</time>
      </trkpt>
      <trkpt lat="45.623" lon="4.58827">
        <ele>832.7</ele>
        <time>2014-05-01T07:10:50Z</time>
      </trkpt>
      <trkpt lat="45.62298" lon="4.58825">
        <ele>833.1</ele>
        <time>2014-05-01T07:10:52Z</time>
      </trkpt>
      <trkpt lat="45.62296" lon="4.58825">
        <ele>833.6</ele>
        <time>2014-05-01T07:11:11Z</time>
      </trkpt>
      <trkpt lat="45.62294" lon="4.58825">
        <ele>833.8</ele>
        <time>2014-05-01T07:11:13Z</time>
      </trkpt>
      <trkpt lat="45.62293" lon="4.58827">
        <ele>834</ele>
        <time>2014-05-01T07:11:15Z</time>
      </trkpt>
      <trkpt lat="45.62291" lon="4.58826">
        <ele>834.1</ele>
        <time>2014-05-01T07:11:17Z</time>
      </trkpt>
      <trkpt lat="45.62289" lon="4.58824">
        <ele>834.3</ele>
        <time>2014-05-01T07:11:19Z</time>
      </trkpt>
      <trkpt lat="45.62287" lon="4.58822">
        <ele>834.8</ele>
        <time>2014-05-01T07:11:21Z</time>
      </trkpt>
      <trkpt lat="45.62285" lon="4.5882">
        <ele>835.3</ele>
        <time>2014-05-01T07:11:23Z</time>
      </trkpt>
      <trkpt lat="45.62283" lon="4.58819">
        <ele>835.7</ele>
        <time>2014-05-01T07:11:25Z</time>
      </trkpt>
      <trkpt lat="45.6228" lon="4.58816">
        <ele>836.5</ele>
        <time>2014-05-01T07:11:27Z</time>
      </trkpt>
      <trkpt lat="45.62278" lon="4.58814">
        <ele>837.2</ele>
        <time>2014-05-01T07:11:29Z</time>
      </trkpt>
      <trkpt lat="45.62276" lon="4.58813">
        <ele>837.7</ele>
        <time>2014-05-01T07:11:31Z</time>
      </trkpt>
      <trkpt lat="45.62274" lon="4.58811">
        <ele>838.2</ele>
        <time>2014-05-01T07:11:33Z</time>
      </trkpt>
      <trkpt lat="45.62272" lon="4.5881">
        <ele>838.5</ele>
        <time>2014-05-01T07:11:35Z</time>
      </trkpt>
      <trkpt lat="45.62269" lon="4.58809">
        <ele>839.1</ele>
        <time>2014-05-01T07:11:37Z</time>
      </trkpt>
      <trkpt lat="45.62266" lon="4.58808">
        <ele>839.7</ele>
        <time>2014-05-01T07:11:39Z</time>
      </trkpt>
      <trkpt lat="45.62264" lon="4.58807">
        <ele>840</ele>
        <time>2014-05-01T07:11:41Z</time>
      </trkpt>
      <trkpt lat="45.62261" lon="4.58805">
        <ele>840.3</ele>
        <time>2014-05-01T07:11:43Z</time>
      </trkpt>
      <trkpt lat="45.62259" lon="4.58803">
        <ele>840.6</ele>
        <time>2014-05-01T07:11:45Z</time>
      </trkpt>
      <trkpt lat="45.62256" lon="4.58801">
        <ele>841.2</ele>
        <time>2014-05-01T07:11:47Z</time>
      </trkpt>
      <trkpt lat="45.62253" lon="4.588">
        <ele>841.8</ele>
        <time>2014-05-01T07:11:49Z</time>
      </trkpt>
      <trkpt lat="45.62249" lon="4.58799">
        <ele>841.9</ele>
        <time>2014-05-01T07:11:51Z</time>
      </trkpt>
      <trkpt lat="45.62245" lon="4.58797">
        <ele>842</ele>
        <time>2014-05-01T07:11:53Z</time>
      </trkpt>
      <trkpt lat="45.62241" lon="4.58796">
        <ele>842</ele>
        <time>2014-05-01T07:11:55Z</time>
      </trkpt>
      <trkpt lat="45.62237" lon="4.58794">
        <ele>842</ele>
        <time>2014-05-01T07:11:57Z</time>
      </trkpt>
      <trkpt lat="45.62233" lon="4.58793">
        <ele>842</ele>
        <time>2014-05-01T07:11:59Z</time>
      </trkpt>
      <trkpt lat="45.62228" lon="4.58793">
        <ele>842</ele>
        <time>2014-05-01T07:12:01Z</time>
      </trkpt>
      <trkpt lat="45.62223" lon="4.58793">
        <ele>842</ele>
        <time>2014-05-01T07:12:03Z</time>
      </trkpt>
      <trkpt lat="45.62219" lon="4.58793">
        <ele>842</ele>
        <time>2014-05-01T07:12:05Z</time>
      </trkpt>
      <trkpt lat="45.62214" lon="4.58792">
        <ele>842</ele>
        <time>2014-05-01T07:12:07Z</time>
      </trkpt>
      <trkpt lat="45.6221" lon="4.5879">
        <ele>842</ele>
        <time>2014-05-01T07:12:09Z</time>
      </trkpt>
      <trkpt lat="45.62209" lon="4.58786">
        <ele>842</ele>
        <time>2014-05-01T07:12:11Z</time>
      </trkpt>
      <trkpt lat="45.62209" lon="4.58781">
        <ele>842</ele>
        <time>2014-05-01T07:12:13Z</time>
      </trkpt>
      <trkpt lat="45.62209" lon="4.58775">
        <ele>842</ele>
        <time>2014-05-01T07:12:15Z</time>
      </trkpt>
      <trkpt lat="45.62211" lon="4.5877">
        <ele>842.1</ele>
        <time>2014-05-01T07:12:17Z</time>
      </trkpt>
      <trkpt lat="45.62211" lon="4.58765">
        <ele>842.2</ele>
        <time>2014-05-01T07:12:19Z</time>
      </trkpt>
      <trkpt lat="45.62211" lon="4.58759">
        <ele>842.4</ele>
        <time>2014-05-01T07:12:21Z</time>
      </trkpt>
      <trkpt lat="45.62212" lon="4.58753">
        <ele>842.6</ele>
        <time>2014-05-01T07:12:23Z</time>
      </trkpt>
      <trkpt lat="45.62212" lon="4.58746">
        <ele>842.8</ele>
        <time>2014-05-01T07:12:25Z</time>
      </trkpt>
      <trkpt lat="45.62212" lon="4.5874">
        <ele>842.8</ele>
        <time>2014-05-01T07:12:27Z</time>
      </trkpt>
      <trkpt lat="45.62212" lon="4.58735">
        <ele>842.9</ele>
        <time>2014-05-01T07:12:29Z</time>
      </trkpt>
      <trkpt lat="45.62212" lon="4.58729">
        <ele>842.9</ele>
        <time>2014-05-01T07:12:31Z</time>
      </trkpt>
      <trkpt lat="45.62212" lon="4.58721">
        <ele>843</ele>
        <time>2014-05-01T07:12:33Z</time>
      </trkpt>
      <trkpt lat="45.62215" lon="4.58713">
        <ele>843</ele>
        <time>2014-05-01T07:12:35Z</time>
      </trkpt>
      <trkpt lat="45.62217" lon="4.58707">
        <ele>843</ele>
        <time>2014-05-01T07:12:37Z</time>
      </trkpt>
      <trkpt lat="45.62219" lon="4.58701">
        <ele>843.1</ele>
        <time>2014-05-01T07:12:39Z</time>
      </trkpt>
      <trkpt lat="45.6222" lon="4.58696">
        <ele>843.2</ele>
        <time>2014-05-01T07:12:41Z</time>
      </trkpt>
      <trkpt lat="45.62221" lon="4.58691">
        <ele>843.3</ele>
        <time>2014-05-01T07:12:43Z</time>
      </trkpt>
      <trkpt lat="45.62222" lon="4.58686">
        <ele>843.5</ele>
        <time>2014-05-01T07:12:45Z</time>
      </trkpt>
      <trkpt lat="45.62223" lon="4.58682">
        <ele>843.7</ele>
        <time>2014-05-01T07:12:47Z</time>
      </trkpt>
      <trkpt lat="45.62223" lon="4.58677">
        <ele>843.9</ele>
        <time>2014-05-01T07:12:49Z</time>
      </trkpt>
      <trkpt lat="45.62221" lon="4.58672">
        <ele>844.2</ele>
        <time>2014-05-01T07:12:51Z</time>
      </trkpt>
      <trkpt lat="45.62219" lon="4.58666">
        <ele>844.5</ele>
        <time>2014-05-01T07:12:53Z</time>
      </trkpt>
      <trkpt lat="45.62217" lon="4.5866">
        <ele>844.4</ele>
        <time>2014-05-01T07:12:55Z</time>
      </trkpt>
      <trkpt lat="45.62215" lon="4.58654">
        <ele>844.7</ele>
        <time>2014-05-01T07:12:57Z</time>
      </trkpt>
      <trkpt lat="45.62212" lon="4.58648">
        <ele>844.8</ele>
        <time>2014-05-01T07:12:59Z</time>
      </trkpt>
      <trkpt lat="45.62209" lon="4.58642">
        <ele>844.7</ele>
        <time>2014-05-01T07:13:01Z</time>
      </trkpt>
      <trkpt lat="45.62206" lon="4.58635">
        <ele>844.6</ele>
        <time>2014-05-01T07:13:03Z</time>
      </trkpt>
      <trkpt lat="45.62202" lon="4.58629">
        <ele>844.1</ele>
        <time>2014-05-01T07:13:05Z</time>
      </trkpt>
      <trkpt lat="45.62199" lon="4.58623">
        <ele>844.1</ele>
        <time>2014-05-01T07:13:07Z</time>
      </trkpt>
      <trkpt lat="45.62194" lon="4.58618">
        <ele>844.1</ele>
        <time>2014-05-01T07:13:09Z</time>
      </trkpt>
      <trkpt lat="45.6219" lon="4.58612">
        <ele>843.9</ele>
        <time>2014-05-01T07:13:11Z</time>
      </trkpt>
      <trkpt lat="45.62185" lon="4.58606">
        <ele>844.6</ele>
        <time>2014-05-01T07:13:13Z</time>
      </trkpt>
      <trkpt lat="45.6218" lon="4.58598">
        <ele>844.9</ele>
        <time>2014-05-01T07:13:15Z</time>
      </trkpt>
      <trkpt lat="45.62177" lon="4.58591">
        <ele>846</ele>
        <time>2014-05-01T07:13:17Z</time>
      </trkpt>
      <trkpt lat="45.62174" lon="4.58584">
        <ele>846.8</ele>
        <time>2014-05-01T07:13:19Z</time>
      </trkpt>
      <trkpt lat="45.62171" lon="4.58578">
        <ele>847.3</ele>
        <time>2014-05-01T07:13:21Z</time>
      </trkpt>
      <trkpt lat="45.62169" lon="4.58573">
        <ele>847.9</ele>
        <time>2014-05-01T07:13:23Z</time>
      </trkpt>
      <trkpt lat="45.62165" lon="4.58568">
        <ele>848.5</ele>
        <time>2014-05-01T07:13:25Z</time>
      </trkpt>
      <trkpt lat="45.62161" lon="4.58563">
        <ele>849.6</ele>
        <time>2014-05-01T07:13:27Z</time>
      </trkpt>
      <trkpt lat="45.62157" lon="4.58559">
        <ele>850.1</ele>
        <time>2014-05-01T07:13:29Z</time>
      </trkpt>
      <trkpt lat="45.62151" lon="4.58554">
        <ele>850.6</ele>
        <time>2014-05-01T07:13:31Z</time>
      </trkpt>
      <trkpt lat="45.62146" lon="4.58551">
        <ele>850.6</ele>
        <time>2014-05-01T07:13:33Z</time>
      </trkpt>
      <trkpt lat="45.6214" lon="4.58547">
        <ele>851.3</ele>
        <time>2014-05-01T07:13:35Z</time>
      </trkpt>
      <trkpt lat="45.62133" lon="4.58543">
        <ele>852.2</ele>
        <time>2014-05-01T07:13:37Z</time>
      </trkpt>
      <trkpt lat="45.62126" lon="4.58538">
        <ele>853</ele>
        <time>2014-05-01T07:13:39Z</time>
      </trkpt>
      <trkpt lat="45.6212" lon="4.58533">
        <ele>853.7</ele>
        <time>2014-05-01T07:13:41Z</time>
      </trkpt>
      <trkpt lat="45.62113" lon="4.58529">
        <ele>854.4</ele>
        <time>2014-05-01T07:13:43Z</time>
      </trkpt>
      <trkpt lat="45.62108" lon="4.58525">
        <ele>855.1</ele>
        <time>2014-05-01T07:13:45Z</time>
      </trkpt>
      <trkpt lat="45.62103" lon="4.58522">
        <ele>855.8</ele>
        <time>2014-05-01T07:13:47Z</time>
      </trkpt>
      <trkpt lat="45.62098" lon="4.58518">
        <ele>856.4</ele>
        <time>2014-05-01T07:13:49Z</time>
      </trkpt>
      <trkpt lat="45.62091" lon="4.58516">
        <ele>856.7</ele>
        <time>2014-05-01T07:13:51Z</time>
      </trkpt>
      <trkpt lat="45.62081" lon="4.58514">
        <ele>854.2</ele>
        <time>2014-05-01T07:13:53Z</time>
      </trkpt>
      <trkpt lat="45.62071" lon="4.58512">
        <ele>851.3</ele>
        <time>2014-05-01T07:13:55Z</time>
      </trkpt>
      <trkpt lat="45.62059" lon="4.5851">
        <ele>848.2</ele>
        <time>2014-05-01T07:13:57Z</time>
      </trkpt>
      <trkpt lat="45.62048" lon="4.58504">
        <ele>845.8</ele>
        <time>2014-05-01T07:13:59Z</time>
      </trkpt>
      <trkpt lat="45.62039" lon="4.58497">
        <ele>845.1</ele>
        <time>2014-05-01T07:14:01Z</time>
      </trkpt>
      <trkpt lat="45.6203" lon="4.58489">
        <ele>844.5</ele>
        <time>2014-05-01T07:14:03Z</time>
      </trkpt>
      <trkpt lat="45.62022" lon="4.5848">
        <ele>844.6</ele>
        <time>2014-05-01T07:14:05Z</time>
      </trkpt>
      <trkpt lat="45.62016" lon="4.5847">
        <ele>843.4</ele>
        <time>2014-05-01T07:14:07Z</time>
      </trkpt>
      <trkpt lat="45.62008" lon="4.5846">
        <ele>843.9</ele>
        <time>2014-05-01T07:14:09Z</time>
      </trkpt>
      <trkpt lat="45.62001" lon="4.58451">
        <ele>843.5</ele>
        <time>2014-05-01T07:14:11Z</time>
      </trkpt>
      <trkpt lat="45.61993" lon="4.5844">
        <ele>843.4</ele>
        <time>2014-05-01T07:14:13Z</time>
      </trkpt>
      <trkpt lat="45.61984" lon="4.58427">
        <ele>842.1</ele>
        <time>2014-05-01T07:14:15Z</time>
      </trkpt>
      <trkpt lat="45.61976" lon="4.58413">
        <ele>840.5</ele>
        <time>2014-05-01T07:14:17Z</time>
      </trkpt>
      <trkpt lat="45.61966" lon="4.58398">
        <ele>840.1</ele>
        <time>2014-05-01T07:14:19Z</time>
      </trkpt>
      <trkpt lat="45.6196" lon="4.58381">
        <ele>838.7</ele>
        <time>2014-05-01T07:14:21Z</time>
      </trkpt>
      <trkpt lat="45.61956" lon="4.58363">
        <ele>836.5</ele>
        <time>2014-05-01T07:14:23Z</time>
      </trkpt>
      <trkpt lat="45.61951" lon="4.58347">
        <ele>836.3</ele>
        <time>2014-05-01T07:14:25Z</time>
      </trkpt>
      <trkpt lat="45.61945" lon="4.58329">
        <ele>835.3</ele>
        <time>2014-05-01T07:14:27Z</time>
      </trkpt>
      <trkpt lat="45.61938" lon="4.5831">
        <ele>833.8</ele>
        <time>2014-05-01T07:14:29Z</time>
      </trkpt>
      <trkpt lat="45.61931" lon="4.58291">
        <ele>831.9</ele>
        <time>2014-05-01T07:14:31Z</time>
      </trkpt>
      <trkpt lat="45.61925" lon="4.58271">
        <ele>831.8</ele>
        <time>2014-05-01T07:14:33Z</time>
      </trkpt>
      <trkpt lat="45.6192" lon="4.58251">
        <ele>831.5</ele>
        <time>2014-05-01T07:14:35Z</time>
      </trkpt>
      <trkpt lat="45.61915" lon="4.58232">
        <ele>831.4</ele>
        <time>2014-05-01T07:14:37Z</time>
      </trkpt>
      <trkpt lat="45.61911" lon="4.58214">
        <ele>830.9</ele>
        <time>2014-05-01T07:14:39Z</time>
      </trkpt>
      <trkpt lat="45.61906" lon="4.58197">
        <ele>830.3</ele>
        <time>2014-05-01T07:14:41Z</time>
      </trkpt>
      <trkpt lat="45.619" lon="4.58179">
        <ele>828.8</ele>
        <time>2014-05-01T07:14:43Z</time>
      </trkpt>
      <trkpt lat="45.61893" lon="4.58161">
        <ele>827.4</ele>
        <time>2014-05-01T07:14:45Z</time>
      </trkpt>
      <trkpt lat="45.61885" lon="4.58143">
        <ele>828.5</ele>
        <time>2014-05-01T07:14:47Z</time>
      </trkpt>
      <trkpt lat="45.61876" lon="4.58128">
        <ele>828.6</ele>
        <time>2014-05-01T07:14:49Z</time>
      </trkpt>
      <trkpt lat="45.61868" lon="4.58116">
        <ele>828.5</ele>
        <time>2014-05-01T07:14:51Z</time>
      </trkpt>
      <trkpt lat="45.61859" lon="4.58105">
        <ele>827.9</ele>
        <time>2014-05-01T07:14:53Z</time>
      </trkpt>
      <trkpt lat="45.6185" lon="4.58094">
        <ele>828.3</ele>
        <time>2014-05-01T07:14:55Z</time>
      </trkpt>
      <trkpt lat="45.61842" lon="4.58084">
        <ele>829</ele>
        <time>2014-05-01T07:14:57Z</time>
      </trkpt>
      <trkpt lat="45.61836" lon="4.58073">
        <ele>829.3</ele>
        <time>2014-05-01T07:14:59Z</time>
      </trkpt>
      <trkpt lat="45.61832" lon="4.58064">
        <ele>829.4</ele>
        <time>2014-05-01T07:15:01Z</time>
      </trkpt>
      <trkpt lat="45.61828" lon="4.58055">
        <ele>829.5</ele>
        <time>2014-05-01T07:15:03Z</time>
      </trkpt>
      <trkpt lat="45.61824" lon="4.58047">
        <ele>829.5</ele>
        <time>2014-05-01T07:15:05Z</time>
      </trkpt>
      <trkpt lat="45.61816" lon="4.5804">
        <ele>830.9</ele>
        <time>2014-05-01T07:15:07Z</time>
      </trkpt>
      <trkpt lat="45.61805" lon="4.58036">
        <ele>828.4</ele>
        <time>2014-05-01T07:15:09Z</time>
      </trkpt>
      <trkpt lat="45.61794" lon="4.58027">
        <ele>827.2</ele>
        <time>2014-05-01T07:15:11Z</time>
      </trkpt>
      <trkpt lat="45.61784" lon="4.58014">
        <ele>825.2</ele>
        <time>2014-05-01T07:15:13Z</time>
      </trkpt>
      <trkpt lat="45.61774" lon="4.57998">
        <ele>823.5</ele>
        <time>2014-05-01T07:15:15Z</time>
      </trkpt>
      <trkpt lat="45.61763" lon="4.57981">
        <ele>822</ele>
        <time>2014-05-01T07:15:17Z</time>
      </trkpt>
      <trkpt lat="45.61752" lon="4.57962">
        <ele>820</ele>
        <time>2014-05-01T07:15:19Z</time>
      </trkpt>
      <trkpt lat="45.61742" lon="4.57945">
        <ele>816.9</ele>
        <time>2014-05-01T07:15:21Z</time>
      </trkpt>
      <trkpt lat="45.61732" lon="4.57928">
        <ele>814.6</ele>
        <time>2014-05-01T07:15:23Z</time>
      </trkpt>
      <trkpt lat="45.61721" lon="4.5791">
        <ele>812.3</ele>
        <time>2014-05-01T07:15:25Z</time>
      </trkpt>
      <trkpt lat="45.6171" lon="4.57892">
        <ele>811.7</ele>
        <time>2014-05-01T07:15:27Z</time>
      </trkpt>
      <trkpt lat="45.61702" lon="4.57878">
        <ele>810.7</ele>
        <time>2014-05-01T07:15:29Z</time>
      </trkpt>
      <trkpt lat="45.61694" lon="4.57868">
        <ele>809.7</ele>
        <time>2014-05-01T07:15:31Z</time>
      </trkpt>
      <trkpt lat="45.61685" lon="4.57861">
        <ele>807.4</ele>
        <time>2014-05-01T07:15:33Z</time>
      </trkpt>
      <trkpt lat="45.61675" lon="4.57854">
        <ele>804.5</ele>
        <time>2014-05-01T07:15:35Z</time>
      </trkpt>
      <trkpt lat="45.61668" lon="4.57851">
        <ele>802.8</ele>
        <time>2014-05-01T07:15:37Z</time>
      </trkpt>
      <trkpt lat="45.61665" lon="4.57848">
        <ele>801.1</ele>
        <time>2014-05-01T07:15:39Z</time>
      </trkpt>
      <trkpt lat="45.61662" lon="4.57846">
        <ele>800.9</ele>
        <time>2014-05-01T07:15:41Z</time>
      </trkpt>
      <trkpt lat="45.61658" lon="4.57843">
        <ele>799.2</ele>
        <time>2014-05-01T07:15:43Z</time>
      </trkpt>
      <trkpt lat="45.61654" lon="4.57841">
        <ele>798.4</ele>
        <time>2014-05-01T07:15:45Z</time>
      </trkpt>
      <trkpt lat="45.6165" lon="4.57838">
        <ele>797.5</ele>
        <time>2014-05-01T07:15:47Z</time>
      </trkpt>
      <trkpt lat="45.61645" lon="4.57836">
        <ele>796.3</ele>
        <time>2014-05-01T07:15:49Z</time>
      </trkpt>
      <trkpt lat="45.61638" lon="4.57836">
        <ele>795.4</ele>
        <time>2014-05-01T07:15:51Z</time>
      </trkpt>
      <trkpt lat="45.6163" lon="4.57835">
        <ele>794.6</ele>
        <time>2014-05-01T07:15:53Z</time>
      </trkpt>
      <trkpt lat="45.61625" lon="4.57835">
        <ele>793.9</ele>
        <time>2014-05-01T07:15:55Z</time>
      </trkpt>
      <trkpt lat="45.6162" lon="4.57836">
        <ele>793.3</ele>
        <time>2014-05-01T07:15:57Z</time>
      </trkpt>
      <trkpt lat="45.61614" lon="4.57835">
        <ele>792.8</ele>
        <time>2014-05-01T07:15:59Z</time>
      </trkpt>
      <trkpt lat="45.61609" lon="4.57834">
        <ele>792.8</ele>
        <time>2014-05-01T07:16:01Z</time>
      </trkpt>
      <trkpt lat="45.616" lon="4.57831">
        <ele>792</ele>
        <time>2014-05-01T07:16:03Z</time>
      </trkpt>
      <trkpt lat="45.6159" lon="4.57829">
        <ele>791.5</ele>
        <time>2014-05-01T07:16:05Z</time>
      </trkpt>
      <trkpt lat="45.61582" lon="4.57828">
        <ele>789.8</ele>
        <time>2014-05-01T07:16:07Z</time>
      </trkpt>
      <trkpt lat="45.61576" lon="4.57831">
        <ele>787.3</ele>
        <time>2014-05-01T07:16:09Z</time>
      </trkpt>
      <trkpt lat="45.61575" lon="4.57839">
        <ele>785</ele>
        <time>2014-05-01T07:16:11Z</time>
      </trkpt>
      <trkpt lat="45.61577" lon="4.57846">
        <ele>785.4</ele>
        <time>2014-05-01T07:16:13Z</time>
      </trkpt>
      <trkpt lat="45.61584" lon="4.5785">
        <ele>786</ele>
        <time>2014-05-01T07:16:15Z</time>
      </trkpt>
      <trkpt lat="45.61591" lon="4.57853">
        <ele>786.5</ele>
        <time>2014-05-01T07:16:17Z</time>
      </trkpt>
      <trkpt lat="45.61597" lon="4.57858">
        <ele>786.9</ele>
        <time>2014-05-01T07:16:19Z</time>
      </trkpt>
      <trkpt lat="45.61597" lon="4.57864">
        <ele>786.9</ele>
        <time>2014-05-01T07:16:21Z</time>
      </trkpt>
      <trkpt lat="45.61591" lon="4.57866">
        <ele>786.7</ele>
        <time>2014-05-01T07:16:23Z</time>
      </trkpt>
      <trkpt lat="45.61583" lon="4.57862">
        <ele>785.9</ele>
        <time>2014-05-01T07:16:25Z</time>
      </trkpt>
      <trkpt lat="45.61573" lon="4.5786">
        <ele>784.9</ele>
        <time>2014-05-01T07:16:27Z</time>
      </trkpt>
      <trkpt lat="45.61564" lon="4.57856">
        <ele>784.2</ele>
        <time>2014-05-01T07:16:29Z</time>
      </trkpt>
      <trkpt lat="45.61554" lon="4.5785">
        <ele>783.8</ele>
        <time>2014-05-01T07:16:31Z</time>
      </trkpt>
      <trkpt lat="45.61545" lon="4.57842">
        <ele>783.4</ele>
        <time>2014-05-01T07:16:33Z</time>
      </trkpt>
      <trkpt lat="45.61536" lon="4.57832">
        <ele>783</ele>
        <time>2014-05-01T07:16:35Z</time>
      </trkpt>
      <trkpt lat="45.61528" lon="4.57821">
        <ele>782.3</ele>
        <time>2014-05-01T07:16:37Z</time>
      </trkpt>
      <trkpt lat="45.61522" lon="4.57809">
        <ele>781.5</ele>
        <time>2014-05-01T07:16:39Z</time>
      </trkpt>
      <trkpt lat="45.61515" lon="4.57797">
        <ele>781.1</ele>
        <time>2014-05-01T07:16:41Z</time>
      </trkpt>
      <trkpt lat="45.61509" lon="4.57783">
        <ele>780.8</ele>
        <time>2014-05-01T07:16:43Z</time>
      </trkpt>
      <trkpt lat="45.61503" lon="4.5777">
        <ele>780.5</ele>
        <time>2014-05-01T07:16:45Z</time>
      </trkpt>
      <trkpt lat="45.61499" lon="4.57755">
        <ele>780.2</ele>
        <time>2014-05-01T07:16:47Z</time>
      </trkpt>
      <trkpt lat="45.61494" lon="4.5774">
        <ele>779.9</ele>
        <time>2014-05-01T07:16:49Z</time>
      </trkpt>
      <trkpt lat="45.61491" lon="4.57724">
        <ele>779.1</ele>
        <time>2014-05-01T07:16:51Z</time>
      </trkpt>
      <trkpt lat="45.61487" lon="4.57707">
        <ele>778.1</ele>
        <time>2014-05-01T07:16:53Z</time>
      </trkpt>
      <trkpt lat="45.61483" lon="4.5769">
        <ele>777.7</ele>
        <time>2014-05-01T07:16:55Z</time>
      </trkpt>
      <trkpt lat="45.61479" lon="4.57673">
        <ele>777.1</ele>
        <time>2014-05-01T07:16:57Z</time>
      </trkpt>
      <trkpt lat="45.61475" lon="4.57655">
        <ele>776.7</ele>
        <time>2014-05-01T07:16:59Z</time>
      </trkpt>
      <trkpt lat="45.61471" lon="4.57636">
        <ele>776.1</ele>
        <time>2014-05-01T07:17:01Z</time>
      </trkpt>
      <trkpt lat="45.61466" lon="4.57618">
        <ele>774.9</ele>
        <time>2014-05-01T07:17:03Z</time>
      </trkpt>
      <trkpt lat="45.6146" lon="4.57599">
        <ele>774.4</ele>
        <time>2014-05-01T07:17:05Z</time>
      </trkpt>
      <trkpt lat="45.61454" lon="4.5758">
        <ele>773.9</ele>
        <time>2014-05-01T07:17:07Z</time>
      </trkpt>
      <trkpt lat="45.61448" lon="4.57562">
        <ele>773.5</ele>
        <time>2014-05-01T07:17:09Z</time>
      </trkpt>
      <trkpt lat="45.61442" lon="4.57543">
        <ele>772.8</ele>
        <time>2014-05-01T07:17:11Z</time>
      </trkpt>
      <trkpt lat="45.61436" lon="4.57525">
        <ele>771.5</ele>
        <time>2014-05-01T07:17:13Z</time>
      </trkpt>
      <trkpt lat="45.6143" lon="4.57508">
        <ele>770.9</ele>
        <time>2014-05-01T07:17:15Z</time>
      </trkpt>
      <trkpt lat="45.61422" lon="4.57491">
        <ele>769.7</ele>
        <time>2014-05-01T07:17:17Z</time>
      </trkpt>
      <trkpt lat="45.61414" lon="4.57474">
        <ele>768.3</ele>
        <time>2014-05-01T07:17:19Z</time>
      </trkpt>
      <trkpt lat="45.61406" lon="4.57455">
        <ele>767</ele>
        <time>2014-05-01T07:17:21Z</time>
      </trkpt>
      <trkpt lat="45.61397" lon="4.57437">
        <ele>764.9</ele>
        <time>2014-05-01T07:17:23Z</time>
      </trkpt>
      <trkpt lat="45.61388" lon="4.57419">
        <ele>763</ele>
        <time>2014-05-01T07:17:25Z</time>
      </trkpt>
      <trkpt lat="45.61383" lon="4.57411">
        <ele>761.9</ele>
        <time>2014-05-01T07:17:27Z</time>
      </trkpt>
      <trkpt lat="45.61377" lon="4.57413">
        <ele>761.7</ele>
        <time>2014-05-01T07:17:29Z</time>
      </trkpt>
      <trkpt lat="45.61366" lon="4.57415">
        <ele>761.2</ele>
        <time>2014-05-01T07:17:31Z</time>
      </trkpt>
      <trkpt lat="45.61354" lon="4.57417">
        <ele>760</ele>
        <time>2014-05-01T07:17:33Z</time>
      </trkpt>
      <trkpt lat="45.61342" lon="4.57418">
        <ele>759.7</ele>
        <time>2014-05-01T07:17:35Z</time>
      </trkpt>
      <trkpt lat="45.61329" lon="4.5742">
        <ele>759.3</ele>
        <time>2014-05-01T07:17:37Z</time>
      </trkpt>
      <trkpt lat="45.61317" lon="4.57423">
        <ele>758.3</ele>
        <time>2014-05-01T07:17:39Z</time>
      </trkpt>
      <trkpt lat="45.61304" lon="4.57425">
        <ele>756.5</ele>
        <time>2014-05-01T07:17:41Z</time>
      </trkpt>
      <trkpt lat="45.61292" lon="4.57428">
        <ele>754.7</ele>
        <time>2014-05-01T07:17:43Z</time>
      </trkpt>
      <trkpt lat="45.6128" lon="4.5743">
        <ele>753.2</ele>
        <time>2014-05-01T07:17:45Z</time>
      </trkpt>
      <trkpt lat="45.61269" lon="4.57434">
        <ele>752.1</ele>
        <time>2014-05-01T07:17:47Z</time>
      </trkpt>
      <trkpt lat="45.6126" lon="4.5744">
        <ele>750.7</ele>
        <time>2014-05-01T07:17:49Z</time>
      </trkpt>
      <trkpt lat="45.61249" lon="4.57449">
        <ele>749.9</ele>
        <time>2014-05-01T07:17:51Z</time>
      </trkpt>
      <trkpt lat="45.61242" lon="4.57458">
        <ele>749.1</ele>
        <time>2014-05-01T07:17:53Z</time>
      </trkpt>
      <trkpt lat="45.61236" lon="4.57469">
        <ele>747.8</ele>
        <time>2014-05-01T07:17:55Z</time>
      </trkpt>
      <trkpt lat="45.61231" lon="4.57476">
        <ele>747</ele>
        <time>2014-05-01T07:17:57Z</time>
      </trkpt>
      <trkpt lat="45.61223" lon="4.57481">
        <ele>746.1</ele>
        <time>2014-05-01T07:17:59Z</time>
      </trkpt>
      <trkpt lat="45.61214" lon="4.57487">
        <ele>745.2</ele>
        <time>2014-05-01T07:18:01Z</time>
      </trkpt>
      <trkpt lat="45.61205" lon="4.57492">
        <ele>744</ele>
        <time>2014-05-01T07:18:03Z</time>
      </trkpt>
      <trkpt lat="45.61194" lon="4.57498">
        <ele>742.9</ele>
        <time>2014-05-01T07:18:05Z</time>
      </trkpt>
      <trkpt lat="45.61182" lon="4.57507">
        <ele>743.1</ele>
        <time>2014-05-01T07:18:07Z</time>
      </trkpt>
      <trkpt lat="45.61171" lon="4.57519">
        <ele>743.1</ele>
        <time>2014-05-01T07:18:09Z</time>
      </trkpt>
      <trkpt lat="45.6116" lon="4.57529">
        <ele>742.4</ele>
        <time>2014-05-01T07:18:11Z</time>
      </trkpt>
      <trkpt lat="45.61149" lon="4.57536">
        <ele>742</ele>
        <time>2014-05-01T07:18:13Z</time>
      </trkpt>
      <trkpt lat="45.61139" lon="4.57542">
        <ele>742</ele>
        <time>2014-05-01T07:18:15Z</time>
      </trkpt>
      <trkpt lat="45.61128" lon="4.57547">
        <ele>742.4</ele>
        <time>2014-05-01T07:18:17Z</time>
      </trkpt>
      <trkpt lat="45.61118" lon="4.57553">
        <ele>743</ele>
        <time>2014-05-01T07:18:19Z</time>
      </trkpt>
      <trkpt lat="45.6111" lon="4.57559">
        <ele>744.3</ele>
        <time>2014-05-01T07:18:21Z</time>
      </trkpt>
      <trkpt lat="45.61103" lon="4.57563">
        <ele>745.3</ele>
        <time>2014-05-01T07:18:23Z</time>
      </trkpt>
      <trkpt lat="45.61098" lon="4.57567">
        <ele>746.2</ele>
        <time>2014-05-01T07:18:25Z</time>
      </trkpt>
      <trkpt lat="45.61093" lon="4.5757">
        <ele>747.3</ele>
        <time>2014-05-01T07:18:27Z</time>
      </trkpt>
      <trkpt lat="45.61088" lon="4.57573">
        <ele>748.4</ele>
        <time>2014-05-01T07:18:29Z</time>
      </trkpt>
      <trkpt lat="45.61083" lon="4.57576">
        <ele>748.8</ele>
        <time>2014-05-01T07:18:31Z</time>
      </trkpt>
      <trkpt lat="45.6108" lon="4.57579">
        <ele>750.2</ele>
        <time>2014-05-01T07:18:33Z</time>
      </trkpt>
      <trkpt lat="45.61077" lon="4.57582">
        <ele>751.3</ele>
        <time>2014-05-01T07:18:35Z</time>
      </trkpt>
      <trkpt lat="45.61074" lon="4.57584">
        <ele>751.8</ele>
        <time>2014-05-01T07:18:37Z</time>
      </trkpt>
      <trkpt lat="45.61071" lon="4.57586">
        <ele>752.7</ele>
        <time>2014-05-01T07:18:39Z</time>
      </trkpt>
      <trkpt lat="45.61069" lon="4.57588">
        <ele>753.1</ele>
        <time>2014-05-01T07:18:41Z</time>
      </trkpt>
      <trkpt lat="45.61067" lon="4.5759">
        <ele>754.1</ele>
        <time>2014-05-01T07:18:43Z</time>
      </trkpt>
      <trkpt lat="45.61064" lon="4.57592">
        <ele>754.4</ele>
        <time>2014-05-01T07:18:45Z</time>
      </trkpt>
      <trkpt lat="45.61062" lon="4.57595">
        <ele>755.3</ele>
        <time>2014-05-01T07:18:47Z</time>
      </trkpt>
      <trkpt lat="45.6106" lon="4.57596">
        <ele>755.3</ele>
        <time>2014-05-01T07:18:49Z</time>
      </trkpt>
      <trkpt lat="45.61057" lon="4.57599">
        <ele>756.3</ele>
        <time>2014-05-01T07:18:57Z</time>
      </trkpt>
      <trkpt lat="45.61055" lon="4.576">
        <ele>756.5</ele>
        <time>2014-05-01T07:18:59Z</time>
      </trkpt>
      <trkpt lat="45.61054" lon="4.576">
        <ele>756.6</ele>
        <time>2014-05-01T07:19:01Z</time>
      </trkpt>
      <trkpt lat="45.61052" lon="4.576">
        <ele>756.9</ele>
        <time>2014-05-01T07:19:03Z</time>
      </trkpt>
      <trkpt lat="45.6105" lon="4.57601">
        <ele>756.9</ele>
        <time>2014-05-01T07:19:05Z</time>
      </trkpt>
      <trkpt lat="45.61049" lon="4.57602">
        <ele>757.2</ele>
        <time>2014-05-01T07:19:07Z</time>
      </trkpt>
      <trkpt lat="45.61047" lon="4.57602">
        <ele>757.9</ele>
        <time>2014-05-01T07:19:09Z</time>
      </trkpt>
      <trkpt lat="45.61046" lon="4.57602">
        <ele>758.3</ele>
        <time>2014-05-01T07:19:11Z</time>
      </trkpt>
      <trkpt lat="45.61044" lon="4.57603">
        <ele>758.3</ele>
        <time>2014-05-01T07:19:13Z</time>
      </trkpt>
      <trkpt lat="45.61042" lon="4.57603">
        <ele>758.7</ele>
        <time>2014-05-01T07:19:15Z</time>
      </trkpt>
      <trkpt lat="45.61041" lon="4.57604">
        <ele>759.1</ele>
        <time>2014-05-01T07:19:17Z</time>
      </trkpt>
      <trkpt lat="45.61039" lon="4.57604">
        <ele>759.1</ele>
        <time>2014-05-01T07:19:19Z</time>
      </trkpt>
      <trkpt lat="45.61038" lon="4.57605">
        <ele>759.1</ele>
        <time>2014-05-01T07:19:21Z</time>
      </trkpt>
      <trkpt lat="45.61036" lon="4.57605">
        <ele>759.4</ele>
        <time>2014-05-01T07:19:23Z</time>
      </trkpt>
      <trkpt lat="45.61034" lon="4.57606">
        <ele>759.7</ele>
        <time>2014-05-01T07:19:25Z</time>
      </trkpt>
      <trkpt lat="45.61033" lon="4.57606">
        <ele>759.7</ele>
        <time>2014-05-01T07:19:27Z</time>
      </trkpt>
      <trkpt lat="45.61031" lon="4.57606">
        <ele>759.9</ele>
        <time>2014-05-01T07:19:29Z</time>
      </trkpt>
      <trkpt lat="45.6103" lon="4.57607">
        <ele>760.6</ele>
        <time>2014-05-01T07:19:31Z</time>
      </trkpt>
      <trkpt lat="45.61028" lon="4.57607">
        <ele>760.7</ele>
        <time>2014-05-01T07:19:33Z</time>
      </trkpt>
      <trkpt lat="45.61025" lon="4.57608">
        <ele>760.8</ele>
        <time>2014-05-01T07:19:39Z</time>
      </trkpt>
      <trkpt lat="45.61023" lon="4.57608">
        <ele>760.8</ele>
        <time>2014-05-01T07:19:41Z</time>
      </trkpt>
      <trkpt lat="45.61022" lon="4.57609">
        <ele>761</ele>
        <time>2014-05-01T07:19:43Z</time>
      </trkpt>
      <trkpt lat="45.6102" lon="4.5761">
        <ele>761</ele>
        <time>2014-05-01T07:19:45Z</time>
      </trkpt>
      <trkpt lat="45.61018" lon="4.57611">
        <ele>761.1</ele>
        <time>2014-05-01T07:19:47Z</time>
      </trkpt>
      <trkpt lat="45.61017" lon="4.57611">
        <ele>761.7</ele>
        <time>2014-05-01T07:19:49Z</time>
      </trkpt>
      <trkpt lat="45.61015" lon="4.57612">
        <ele>761.9</ele>
        <time>2014-05-01T07:19:51Z</time>
      </trkpt>
      <trkpt lat="45.61013" lon="4.57613">
        <ele>762.2</ele>
        <time>2014-05-01T07:19:53Z</time>
      </trkpt>
      <trkpt lat="45.61012" lon="4.57614">
        <ele>762.2</ele>
        <time>2014-05-01T07:19:55Z</time>
      </trkpt>
      <trkpt lat="45.6101" lon="4.57614">
        <ele>762.4</ele>
        <time>2014-05-01T07:19:57Z</time>
      </trkpt>
      <trkpt lat="45.61008" lon="4.57615">
        <ele>762.5</ele>
        <time>2014-05-01T07:19:59Z</time>
      </trkpt>
      <trkpt lat="45.61006" lon="4.57615">
        <ele>763.4</ele>
        <time>2014-05-01T07:20:01Z</time>
      </trkpt>
      <trkpt lat="45.61005" lon="4.57616">
        <ele>763.5</ele>
        <time>2014-05-01T07:20:03Z</time>
      </trkpt>
      <trkpt lat="45.61003" lon="4.57616">
        <ele>763.8</ele>
        <time>2014-05-01T07:20:05Z</time>
      </trkpt>
      <trkpt lat="45.61002" lon="4.57617">
        <ele>763.9</ele>
        <time>2014-05-01T07:20:07Z</time>
      </trkpt>
      <trkpt lat="45.61" lon="4.57618">
        <ele>764.3</ele>
        <time>2014-05-01T07:20:09Z</time>
      </trkpt>
      <trkpt lat="45.60998" lon="4.57618">
        <ele>764.8</ele>
        <time>2014-05-01T07:20:11Z</time>
      </trkpt>
      <trkpt lat="45.60996" lon="4.57619">
        <ele>764.8</ele>
        <time>2014-05-01T07:20:13Z</time>
      </trkpt>
      <trkpt lat="45.60995" lon="4.57619">
        <ele>765.5</ele>
        <time>2014-05-01T07:20:15Z</time>
      </trkpt>
      <trkpt lat="45.60994" lon="4.57619">
        <ele>765.5</ele>
        <time>2014-05-01T07:20:17Z</time>
      </trkpt>
      <trkpt lat="45.60992" lon="4.5762">
        <ele>767.1</ele>
        <time>2014-05-01T07:20:19Z</time>
      </trkpt>
      <trkpt lat="45.6099" lon="4.5762">
        <ele>767.1</ele>
        <time>2014-05-01T07:20:21Z</time>
      </trkpt>
      <trkpt lat="45.60987" lon="4.57621">
        <ele>767.9</ele>
        <time>2014-05-01T07:20:25Z</time>
      </trkpt>
      <trkpt lat="45.60986" lon="4.57621">
        <ele>768.9</ele>
        <time>2014-05-01T07:20:27Z</time>
      </trkpt>
      <trkpt lat="45.60984" lon="4.57621">
        <ele>768.9</ele>
        <time>2014-05-01T07:20:29Z</time>
      </trkpt>
      <trkpt lat="45.60982" lon="4.57621">
        <ele>769.8</ele>
        <time>2014-05-01T07:20:31Z</time>
      </trkpt>
      <trkpt lat="45.60981" lon="4.57621">
        <ele>769.8</ele>
        <time>2014-05-01T07:20:33Z</time>
      </trkpt>
      <trkpt lat="45.60979" lon="4.57622">
        <ele>770.7</ele>
        <time>2014-05-01T07:20:35Z</time>
      </trkpt>
      <trkpt lat="45.60978" lon="4.57622">
        <ele>770.7</ele>
        <time>2014-05-01T07:20:37Z</time>
      </trkpt>
      <trkpt lat="45.60976" lon="4.57621">
        <ele>771.6</ele>
        <time>2014-05-01T07:20:39Z</time>
      </trkpt>
      <trkpt lat="45.60975" lon="4.57621">
        <ele>771.6</ele>
        <time>2014-05-01T07:20:41Z</time>
      </trkpt>
      <trkpt lat="45.60973" lon="4.5762">
        <ele>772.4</ele>
        <time>2014-05-01T07:20:43Z</time>
      </trkpt>
      <trkpt lat="45.60972" lon="4.5762">
        <ele>772.4</ele>
        <time>2014-05-01T07:20:45Z</time>
      </trkpt>
      <trkpt lat="45.6097" lon="4.5762">
        <ele>773.2</ele>
        <time>2014-05-01T07:20:47Z</time>
      </trkpt>
      <trkpt lat="45.60968" lon="4.57619">
        <ele>773.9</ele>
        <time>2014-05-01T07:20:49Z</time>
      </trkpt>
      <trkpt lat="45.60967" lon="4.5762">
        <ele>774</ele>
        <time>2014-05-01T07:20:51Z</time>
      </trkpt>
      <trkpt lat="45.60965" lon="4.57619">
        <ele>774.7</ele>
        <time>2014-05-01T07:20:53Z</time>
      </trkpt>
      <trkpt lat="45.60963" lon="4.57618">
        <ele>773.9</ele>
        <time>2014-05-01T07:20:55Z</time>
      </trkpt>
      <trkpt lat="45.6096" lon="4.57618">
        <ele>774.6</ele>
        <time>2014-05-01T07:20:59Z</time>
      </trkpt>
      <trkpt lat="45.60959" lon="4.57618">
        <ele>775.3</ele>
        <time>2014-05-01T07:21:01Z</time>
      </trkpt>
      <trkpt lat="45.60956" lon="4.57618">
        <ele>775.9</ele>
        <time>2014-05-01T07:21:03Z</time>
      </trkpt>
      <trkpt lat="45.60954" lon="4.57618">
        <ele>775.9</ele>
        <time>2014-05-01T07:21:05Z</time>
      </trkpt>
      <trkpt lat="45.60952" lon="4.57618">
        <ele>776.5</ele>
        <time>2014-05-01T07:21:07Z</time>
      </trkpt>
      <trkpt lat="45.6095" lon="4.57617">
        <ele>777</ele>
        <time>2014-05-01T07:21:09Z</time>
      </trkpt>
      <trkpt lat="45.60948" lon="4.57617">
        <ele>777</ele>
        <time>2014-05-01T07:21:11Z</time>
      </trkpt>
      <trkpt lat="45.60946" lon="4.57617">
        <ele>777.5</ele>
        <time>2014-05-01T07:21:13Z</time>
      </trkpt>
      <trkpt lat="45.60944" lon="4.57616">
        <ele>777.8</ele>
        <time>2014-05-01T07:21:15Z</time>
      </trkpt>
      <trkpt lat="45.60943" lon="4.57616">
        <ele>777.9</ele>
        <time>2014-05-01T07:21:17Z</time>
      </trkpt>
      <trkpt lat="45.60941" lon="4.57615">
        <ele>778.2</ele>
        <time>2014-05-01T07:21:19Z</time>
      </trkpt>
      <trkpt lat="45.60939" lon="4.57615">
        <ele>778.3</ele>
        <time>2014-05-01T07:21:21Z</time>
      </trkpt>
      <trkpt lat="45.60937" lon="4.57615">
        <ele>778</ele>
        <time>2014-05-01T07:21:23Z</time>
      </trkpt>
      <trkpt lat="45.60935" lon="4.57615">
        <ele>778.4</ele>
        <time>2014-05-01T07:21:25Z</time>
      </trkpt>
      <trkpt lat="45.60933" lon="4.57614">
        <ele>778.4</ele>
        <time>2014-05-01T07:21:27Z</time>
      </trkpt>
      <trkpt lat="45.60931" lon="4.57614">
        <ele>778.8</ele>
        <time>2014-05-01T07:21:29Z</time>
      </trkpt>
      <trkpt lat="45.6093" lon="4.57614">
        <ele>778.8</ele>
        <time>2014-05-01T07:21:31Z</time>
      </trkpt>
      <trkpt lat="45.60928" lon="4.57613">
        <ele>779.2</ele>
        <time>2014-05-01T07:21:33Z</time>
      </trkpt>
      <trkpt lat="45.60926" lon="4.57613">
        <ele>779.5</ele>
        <time>2014-05-01T07:21:35Z</time>
      </trkpt>
      <trkpt lat="45.60925" lon="4.57612">
        <ele>779.5</ele>
        <time>2014-05-01T07:21:37Z</time>
      </trkpt>
      <trkpt lat="45.60923" lon="4.57612">
        <ele>779.8</ele>
        <time>2014-05-01T07:21:39Z</time>
      </trkpt>
      <trkpt lat="45.60922" lon="4.57613">
        <ele>779.8</ele>
        <time>2014-05-01T07:21:41Z</time>
      </trkpt>
      <trkpt lat="45.6092" lon="4.57613">
        <ele>780.1</ele>
        <time>2014-05-01T07:21:43Z</time>
      </trkpt>
      <trkpt lat="45.60918" lon="4.57614">
        <ele>780.1</ele>
        <time>2014-05-01T07:21:45Z</time>
      </trkpt>
      <trkpt lat="45.60917" lon="4.57614">
        <ele>780.3</ele>
        <time>2014-05-01T07:21:47Z</time>
      </trkpt>
      <trkpt lat="45.60914" lon="4.57614">
        <ele>780.6</ele>
        <time>2014-05-01T07:21:55Z</time>
      </trkpt>
      <trkpt lat="45.60912" lon="4.57614">
        <ele>780.6</ele>
        <time>2014-05-01T07:21:57Z</time>
      </trkpt>
      <trkpt lat="45.60909" lon="4.57613">
        <ele>780.9</ele>
        <time>2014-05-01T07:21:59Z</time>
      </trkpt>
      <trkpt lat="45.60907" lon="4.57613">
        <ele>781.3</ele>
        <time>2014-05-01T07:22:01Z</time>
      </trkpt>
      <trkpt lat="45.60904" lon="4.57613">
        <ele>781.7</ele>
        <time>2014-05-01T07:22:03Z</time>
      </trkpt>
      <trkpt lat="45.60902" lon="4.57613">
        <ele>782.1</ele>
        <time>2014-05-01T07:22:05Z</time>
      </trkpt>
      <trkpt lat="45.60899" lon="4.57613">
        <ele>782.5</ele>
        <time>2014-05-01T07:22:07Z</time>
      </trkpt>
      <trkpt lat="45.60896" lon="4.57613">
        <ele>782.9</ele>
        <time>2014-05-01T07:22:09Z</time>
      </trkpt>
      <trkpt lat="45.60893" lon="4.57613">
        <ele>783.2</ele>
        <time>2014-05-01T07:22:11Z</time>
      </trkpt>
      <trkpt lat="45.60891" lon="4.57614">
        <ele>783.2</ele>
        <time>2014-05-01T07:22:13Z</time>
      </trkpt>
      <trkpt lat="45.60888" lon="4.57614">
        <ele>783.5</ele>
        <time>2014-05-01T07:22:15Z</time>
      </trkpt>
      <trkpt lat="45.60886" lon="4.57613">
        <ele>783.7</ele>
        <time>2014-05-01T07:22:17Z</time>
      </trkpt>
      <trkpt lat="45.60883" lon="4.57613">
        <ele>784</ele>
        <time>2014-05-01T07:22:19Z</time>
      </trkpt>
      <trkpt lat="45.6088" lon="4.57613">
        <ele>784.3</ele>
        <time>2014-05-01T07:22:21Z</time>
      </trkpt>
      <trkpt lat="45.60878" lon="4.57612">
        <ele>784.6</ele>
        <time>2014-05-01T07:22:23Z</time>
      </trkpt>
      <trkpt lat="45.60875" lon="4.57612">
        <ele>785</ele>
        <time>2014-05-01T07:22:25Z</time>
      </trkpt>
      <trkpt lat="45.60872" lon="4.57612">
        <ele>785.3</ele>
        <time>2014-05-01T07:22:27Z</time>
      </trkpt>
      <trkpt lat="45.60869" lon="4.57612">
        <ele>785.7</ele>
        <time>2014-05-01T07:22:29Z</time>
      </trkpt>
      <trkpt lat="45.60866" lon="4.57612">
        <ele>786.1</ele>
        <time>2014-05-01T07:22:31Z</time>
      </trkpt>
      <trkpt lat="45.60864" lon="4.57613">
        <ele>786.1</ele>
        <time>2014-05-01T07:22:33Z</time>
      </trkpt>
      <trkpt lat="45.60861" lon="4.57613">
        <ele>786.5</ele>
        <time>2014-05-01T07:22:35Z</time>
      </trkpt>
      <trkpt lat="45.60858" lon="4.57613">
        <ele>786.9</ele>
        <time>2014-05-01T07:22:37Z</time>
      </trkpt>
      <trkpt lat="45.60856" lon="4.57613">
        <ele>787.4</ele>
        <time>2014-05-01T07:22:39Z</time>
      </trkpt>
      <trkpt lat="45.60853" lon="4.57614">
        <ele>788</ele>
        <time>2014-05-01T07:22:41Z</time>
      </trkpt>
      <trkpt lat="45.60851" lon="4.57614">
        <ele>788.6</ele>
        <time>2014-05-01T07:22:43Z</time>
      </trkpt>
      <trkpt lat="45.60848" lon="4.57615">
        <ele>789.2</ele>
        <time>2014-05-01T07:22:45Z</time>
      </trkpt>
      <trkpt lat="45.60846" lon="4.57615">
        <ele>789.9</ele>
        <time>2014-05-01T07:22:47Z</time>
      </trkpt>
      <trkpt lat="45.60843" lon="4.57616">
        <ele>790.5</ele>
        <time>2014-05-01T07:22:49Z</time>
      </trkpt>
      <trkpt lat="45.60841" lon="4.57616">
        <ele>791.1</ele>
        <time>2014-05-01T07:22:51Z</time>
      </trkpt>
      <trkpt lat="45.60838" lon="4.57617">
        <ele>791.7</ele>
        <time>2014-05-01T07:22:53Z</time>
      </trkpt>
      <trkpt lat="45.60836" lon="4.57617">
        <ele>792.2</ele>
        <time>2014-05-01T07:22:55Z</time>
      </trkpt>
      <trkpt lat="45.60833" lon="4.57618">
        <ele>792.7</ele>
        <time>2014-05-01T07:22:57Z</time>
      </trkpt>
      <trkpt lat="45.60831" lon="4.57619">
        <ele>792.8</ele>
        <time>2014-05-01T07:22:59Z</time>
      </trkpt>
      <trkpt lat="45.60828" lon="4.57619">
        <ele>794</ele>
        <time>2014-05-01T07:23:01Z</time>
      </trkpt>
      <trkpt lat="45.60826" lon="4.57619">
        <ele>793.8</ele>
        <time>2014-05-01T07:23:03Z</time>
      </trkpt>
      <trkpt lat="45.60824" lon="4.5762">
        <ele>795</ele>
        <time>2014-05-01T07:23:05Z</time>
      </trkpt>
      <trkpt lat="45.60822" lon="4.57622">
        <ele>795</ele>
        <time>2014-05-01T07:23:07Z</time>
      </trkpt>
      <trkpt lat="45.6082" lon="4.57623">
        <ele>795.3</ele>
        <time>2014-05-01T07:23:09Z</time>
      </trkpt>
      <trkpt lat="45.60817" lon="4.57624">
        <ele>795.7</ele>
        <time>2014-05-01T07:23:11Z</time>
      </trkpt>
      <trkpt lat="45.60815" lon="4.57625">
        <ele>796.3</ele>
        <time>2014-05-01T07:23:13Z</time>
      </trkpt>
      <trkpt lat="45.60812" lon="4.57626">
        <ele>796.9</ele>
        <time>2014-05-01T07:23:15Z</time>
      </trkpt>
      <trkpt lat="45.6081" lon="4.57627">
        <ele>797.2</ele>
        <time>2014-05-01T07:23:17Z</time>
      </trkpt>
      <trkpt lat="45.60808" lon="4.57628">
        <ele>797.5</ele>
        <time>2014-05-01T07:23:19Z</time>
      </trkpt>
      <trkpt lat="45.60806" lon="4.5763">
        <ele>797.8</ele>
        <time>2014-05-01T07:23:21Z</time>
      </trkpt>
      <trkpt lat="45.60803" lon="4.57631">
        <ele>798.1</ele>
        <time>2014-05-01T07:23:23Z</time>
      </trkpt>
      <trkpt lat="45.60801" lon="4.57632">
        <ele>798.5</ele>
        <time>2014-05-01T07:23:25Z</time>
      </trkpt>
      <trkpt lat="45.60799" lon="4.57634">
        <ele>799.1</ele>
        <time>2014-05-01T07:23:27Z</time>
      </trkpt>
      <trkpt lat="45.60797" lon="4.57635">
        <ele>799.5</ele>
        <time>2014-05-01T07:23:29Z</time>
      </trkpt>
      <trkpt lat="45.60795" lon="4.57636">
        <ele>800</ele>
        <time>2014-05-01T07:23:31Z</time>
      </trkpt>
      <trkpt lat="45.60793" lon="4.57637">
        <ele>800.3</ele>
        <time>2014-05-01T07:23:33Z</time>
      </trkpt>
      <trkpt lat="45.60791" lon="4.57639">
        <ele>800.6</ele>
        <time>2014-05-01T07:23:35Z</time>
      </trkpt>
      <trkpt lat="45.6079" lon="4.5764">
        <ele>800.8</ele>
        <time>2014-05-01T07:23:37Z</time>
      </trkpt>
      <trkpt lat="45.60787" lon="4.57642">
        <ele>801.4</ele>
        <time>2014-05-01T07:23:39Z</time>
      </trkpt>
      <trkpt lat="45.60786" lon="4.57644">
        <ele>801.9</ele>
        <time>2014-05-01T07:23:41Z</time>
      </trkpt>
      <trkpt lat="45.60784" lon="4.57646">
        <ele>802.4</ele>
        <time>2014-05-01T07:23:43Z</time>
      </trkpt>
      <trkpt lat="45.60782" lon="4.57647">
        <ele>802.6</ele>
        <time>2014-05-01T07:23:45Z</time>
      </trkpt>
      <trkpt lat="45.6078" lon="4.57649">
        <ele>802.8</ele>
        <time>2014-05-01T07:23:47Z</time>
      </trkpt>
      <trkpt lat="45.60778" lon="4.57651">
        <ele>803.1</ele>
        <time>2014-05-01T07:23:49Z</time>
      </trkpt>
      <trkpt lat="45.60777" lon="4.57653">
        <ele>803.6</ele>
        <time>2014-05-01T07:23:51Z</time>
      </trkpt>
      <trkpt lat="45.60775" lon="4.57655">
        <ele>804.1</ele>
        <time>2014-05-01T07:23:53Z</time>
      </trkpt>
      <trkpt lat="45.60773" lon="4.57658">
        <ele>804.8</ele>
        <time>2014-05-01T07:23:55Z</time>
      </trkpt>
      <trkpt lat="45.60772" lon="4.57661">
        <ele>805.3</ele>
        <time>2014-05-01T07:23:57Z</time>
      </trkpt>
      <trkpt lat="45.6077" lon="4.57663">
        <ele>805.7</ele>
        <time>2014-05-01T07:23:59Z</time>
      </trkpt>
      <trkpt lat="45.60769" lon="4.57666">
        <ele>805.9</ele>
        <time>2014-05-01T07:24:01Z</time>
      </trkpt>
      <trkpt lat="45.60767" lon="4.57669">
        <ele>806.1</ele>
        <time>2014-05-01T07:24:03Z</time>
      </trkpt>
      <trkpt lat="45.60766" lon="4.57671">
        <ele>806.5</ele>
        <time>2014-05-01T07:24:05Z</time>
      </trkpt>
      <trkpt lat="45.60765" lon="4.57674">
        <ele>806.9</ele>
        <time>2014-05-01T07:24:07Z</time>
      </trkpt>
      <trkpt lat="45.60764" lon="4.57677">
        <ele>807.3</ele>
        <time>2014-05-01T07:24:09Z</time>
      </trkpt>
      <trkpt lat="45.60762" lon="4.5768">
        <ele>807.6</ele>
        <time>2014-05-01T07:24:15Z</time>
      </trkpt>
      <trkpt lat="45.60761" lon="4.57682">
        <ele>807.7</ele>
        <time>2014-05-01T07:24:17Z</time>
      </trkpt>
      <trkpt lat="45.60761" lon="4.57684">
        <ele>807.8</ele>
        <time>2014-05-01T07:24:19Z</time>
      </trkpt>
      <trkpt lat="45.6076" lon="4.57685">
        <ele>807.9</ele>
        <time>2014-05-01T07:24:21Z</time>
      </trkpt>
      <trkpt lat="45.60759" lon="4.57687">
        <ele>808</ele>
        <time>2014-05-01T07:24:23Z</time>
      </trkpt>
      <trkpt lat="45.60758" lon="4.57689">
        <ele>808.1</ele>
        <time>2014-05-01T07:24:25Z</time>
      </trkpt>
      <trkpt lat="45.60757" lon="4.57691">
        <ele>808.3</ele>
        <time>2014-05-01T07:24:27Z</time>
      </trkpt>
      <trkpt lat="45.60755" lon="4.57693">
        <ele>808.5</ele>
        <time>2014-05-01T07:24:29Z</time>
      </trkpt>
      <trkpt lat="45.60754" lon="4.57695">
        <ele>808.6</ele>
        <time>2014-05-01T07:24:31Z</time>
      </trkpt>
      <trkpt lat="45.60753" lon="4.57697">
        <ele>808.9</ele>
        <time>2014-05-01T07:24:33Z</time>
      </trkpt>
      <trkpt lat="45.60751" lon="4.57699">
        <ele>809.3</ele>
        <time>2014-05-01T07:24:35Z</time>
      </trkpt>
      <trkpt lat="45.6075" lon="4.57702">
        <ele>809.6</ele>
        <time>2014-05-01T07:24:37Z</time>
      </trkpt>
      <trkpt lat="45.60749" lon="4.57704">
        <ele>810</ele>
        <time>2014-05-01T07:24:39Z</time>
      </trkpt>
      <trkpt lat="45.60748" lon="4.57706">
        <ele>810.2</ele>
        <time>2014-05-01T07:24:41Z</time>
      </trkpt>
      <trkpt lat="45.60747" lon="4.57708">
        <ele>810.4</ele>
        <time>2014-05-01T07:24:43Z</time>
      </trkpt>
      <trkpt lat="45.60746" lon="4.5771">
        <ele>810.6</ele>
        <time>2014-05-01T07:24:45Z</time>
      </trkpt>
      <trkpt lat="45.60745" lon="4.57713">
        <ele>810.8</ele>
        <time>2014-05-01T07:24:47Z</time>
      </trkpt>
      <trkpt lat="45.60744" lon="4.57715">
        <ele>811.1</ele>
        <time>2014-05-01T07:24:49Z</time>
      </trkpt>
      <trkpt lat="45.60743" lon="4.57718">
        <ele>811.4</ele>
        <time>2014-05-01T07:24:51Z</time>
      </trkpt>
      <trkpt lat="45.60741" lon="4.5772">
        <ele>811.8</ele>
        <time>2014-05-01T07:24:53Z</time>
      </trkpt>
      <trkpt lat="45.60741" lon="4.57722">
        <ele>812.1</ele>
        <time>2014-05-01T07:24:55Z</time>
      </trkpt>
      <trkpt lat="45.6074" lon="4.57725">
        <ele>812.4</ele>
        <time>2014-05-01T07:24:57Z</time>
      </trkpt>
      <trkpt lat="45.60739" lon="4.57727">
        <ele>812.6</ele>
        <time>2014-05-01T07:24:59Z</time>
      </trkpt>
      <trkpt lat="45.60738" lon="4.5773">
        <ele>812.7</ele>
        <time>2014-05-01T07:25:01Z</time>
      </trkpt>
      <trkpt lat="45.60737" lon="4.57732">
        <ele>812.9</ele>
        <time>2014-05-01T07:25:09Z</time>
      </trkpt>
      <trkpt lat="45.60735" lon="4.57735">
        <ele>813</ele>
        <time>2014-05-01T07:25:11Z</time>
      </trkpt>
      <trkpt lat="45.60734" lon="4.57738">
        <ele>813.2</ele>
        <time>2014-05-01T07:25:13Z</time>
      </trkpt>
      <trkpt lat="45.60733" lon="4.57741">
        <ele>813.4</ele>
        <time>2014-05-01T07:25:15Z</time>
      </trkpt>
      <trkpt lat="45.60731" lon="4.57745">
        <ele>813.7</ele>
        <time>2014-05-01T07:25:17Z</time>
      </trkpt>
      <trkpt lat="45.60729" lon="4.57749">
        <ele>814</ele>
        <time>2014-05-01T07:25:19Z</time>
      </trkpt>
      <trkpt lat="45.60728" lon="4.57753">
        <ele>814.6</ele>
        <time>2014-05-01T07:25:21Z</time>
      </trkpt>
      <trkpt lat="45.60727" lon="4.57757">
        <ele>815.1</ele>
        <time>2014-05-01T07:25:23Z</time>
      </trkpt>
      <trkpt lat="45.60725" lon="4.57761">
        <ele>815.3</ele>
        <time>2014-05-01T07:25:25Z</time>
      </trkpt>
      <trkpt lat="45.60724" lon="4.57765">
        <ele>815.5</ele>
        <time>2014-05-01T07:25:27Z</time>
      </trkpt>
      <trkpt lat="45.60723" lon="4.57769">
        <ele>815.7</ele>
        <time>2014-05-01T07:25:29Z</time>
      </trkpt>
      <trkpt lat="45.60721" lon="4.57773">
        <ele>816</ele>
        <time>2014-05-01T07:25:31Z</time>
      </trkpt>
      <trkpt lat="45.60719" lon="4.57777">
        <ele>816.2</ele>
        <time>2014-05-01T07:25:33Z</time>
      </trkpt>
      <trkpt lat="45.60718" lon="4.57781">
        <ele>816.6</ele>
        <time>2014-05-01T07:25:35Z</time>
      </trkpt>
      <trkpt lat="45.60717" lon="4.57785">
        <ele>817.2</ele>
        <time>2014-05-01T07:25:37Z</time>
      </trkpt>
      <trkpt lat="45.60715" lon="4.5779">
        <ele>817.5</ele>
        <time>2014-05-01T07:25:39Z</time>
      </trkpt>
      <trkpt lat="45.60714" lon="4.57793">
        <ele>817.6</ele>
        <time>2014-05-01T07:25:41Z</time>
      </trkpt>
      <trkpt lat="45.60712" lon="4.57797">
        <ele>817.8</ele>
        <time>2014-05-01T07:25:43Z</time>
      </trkpt>
      <trkpt lat="45.60711" lon="4.57801">
        <ele>817.9</ele>
        <time>2014-05-01T07:25:45Z</time>
      </trkpt>
      <trkpt lat="45.6071" lon="4.57804">
        <ele>818</ele>
        <time>2014-05-01T07:25:47Z</time>
      </trkpt>
      <trkpt lat="45.60708" lon="4.57805">
        <ele>818</ele>
        <time>2014-05-01T07:25:49Z</time>
      </trkpt>
      <trkpt lat="45.60706" lon="4.57803">
        <ele>817.9</ele>
        <time>2014-05-01T07:25:51Z</time>
      </trkpt>
      <trkpt lat="45.60705" lon="4.578">
        <ele>817.8</ele>
        <time>2014-05-01T07:25:53Z</time>
      </trkpt>
      <trkpt lat="45.60703" lon="4.57796">
        <ele>817.8</ele>
        <time>2014-05-01T07:25:55Z</time>
      </trkpt>
      <trkpt lat="45.60701" lon="4.57792">
        <ele>817.7</ele>
        <time>2014-05-01T07:25:57Z</time>
      </trkpt>
      <trkpt lat="45.60697" lon="4.57788">
        <ele>817.6</ele>
        <time>2014-05-01T07:25:59Z</time>
      </trkpt>
      <trkpt lat="45.60694" lon="4.57783">
        <ele>817.5</ele>
        <time>2014-05-01T07:26:01Z</time>
      </trkpt>
      <trkpt lat="45.6069" lon="4.57779">
        <ele>817.4</ele>
        <time>2014-05-01T07:26:03Z</time>
      </trkpt>
      <trkpt lat="45.60686" lon="4.57774">
        <ele>817.3</ele>
        <time>2014-05-01T07:26:05Z</time>
      </trkpt>
      <trkpt lat="45.60682" lon="4.57769">
        <ele>817.2</ele>
        <time>2014-05-01T07:26:07Z</time>
      </trkpt>
      <trkpt lat="45.60677" lon="4.57764">
        <ele>817.1</ele>
        <time>2014-05-01T07:26:09Z</time>
      </trkpt>
      <trkpt lat="45.60672" lon="4.57758">
        <ele>817</ele>
        <time>2014-05-01T07:26:11Z</time>
      </trkpt>
      <trkpt lat="45.60667" lon="4.57753">
        <ele>816.9</ele>
        <time>2014-05-01T07:26:13Z</time>
      </trkpt>
      <trkpt lat="45.60661" lon="4.57746">
        <ele>816.8</ele>
        <time>2014-05-01T07:26:15Z</time>
      </trkpt>
      <trkpt lat="45.60655" lon="4.57739">
        <ele>816.6</ele>
        <time>2014-05-01T07:26:17Z</time>
      </trkpt>
      <trkpt lat="45.60648" lon="4.57731">
        <ele>816.5</ele>
        <time>2014-05-01T07:26:19Z</time>
      </trkpt>
      <trkpt lat="45.60641" lon="4.57723">
        <ele>816.3</ele>
        <time>2014-05-01T07:26:21Z</time>
      </trkpt>
      <trkpt lat="45.60635" lon="4.57711">
        <ele>816.1</ele>
        <time>2014-05-01T07:26:23Z</time>
      </trkpt>
      <trkpt lat="45.60631" lon="4.57695">
        <ele>815.7</ele>
        <time>2014-05-01T07:26:25Z</time>
      </trkpt>
      <trkpt lat="45.60626" lon="4.57678">
        <ele>814.8</ele>
        <time>2014-05-01T07:26:27Z</time>
      </trkpt>
      <trkpt lat="45.6062" lon="4.5766">
        <ele>813.7</ele>
        <time>2014-05-01T07:26:29Z</time>
      </trkpt>
      <trkpt lat="45.60614" lon="4.57642">
        <ele>812.8</ele>
        <time>2014-05-01T07:26:31Z</time>
      </trkpt>
      <trkpt lat="45.60607" lon="4.57625">
        <ele>811.8</ele>
        <time>2014-05-01T07:26:33Z</time>
      </trkpt>
      <trkpt lat="45.60602" lon="4.5761">
        <ele>810.5</ele>
        <time>2014-05-01T07:26:35Z</time>
      </trkpt>
      <trkpt lat="45.60597" lon="4.57597">
        <ele>809.7</ele>
        <time>2014-05-01T07:26:37Z</time>
      </trkpt>
      <trkpt lat="45.60592" lon="4.57586">
        <ele>809.3</ele>
        <time>2014-05-01T07:26:39Z</time>
      </trkpt>
      <trkpt lat="45.60588" lon="4.57576">
        <ele>809.1</ele>
        <time>2014-05-01T07:26:41Z</time>
      </trkpt>
      <trkpt lat="45.60583" lon="4.57567">
        <ele>808.8</ele>
        <time>2014-05-01T07:26:43Z</time>
      </trkpt>
      <trkpt lat="45.60577" lon="4.57558">
        <ele>808.6</ele>
        <time>2014-05-01T07:26:45Z</time>
      </trkpt>
      <trkpt lat="45.60571" lon="4.57547">
        <ele>808.3</ele>
        <time>2014-05-01T07:26:47Z</time>
      </trkpt>
      <trkpt lat="45.60566" lon="4.5753">
        <ele>807.9</ele>
        <time>2014-05-01T07:26:49Z</time>
      </trkpt>
      <trkpt lat="45.60561" lon="4.57511">
        <ele>807.3</ele>
        <time>2014-05-01T07:26:51Z</time>
      </trkpt>
      <trkpt lat="45.60555" lon="4.57486">
        <ele>806.2</ele>
        <time>2014-05-01T07:26:53Z</time>
      </trkpt>
      <trkpt lat="45.60553" lon="4.57458">
        <ele>804.7</ele>
        <time>2014-05-01T07:26:55Z</time>
      </trkpt>
      <trkpt lat="45.60552" lon="4.57431">
        <ele>802.9</ele>
        <time>2014-05-01T07:26:57Z</time>
      </trkpt>
      <trkpt lat="45.6055" lon="4.57404">
        <ele>801.1</ele>
        <time>2014-05-01T07:26:59Z</time>
      </trkpt>
      <trkpt lat="45.60548" lon="4.57379">
        <ele>799.4</ele>
        <time>2014-05-01T07:27:01Z</time>
      </trkpt>
      <trkpt lat="45.60547" lon="4.57355">
        <ele>798.1</ele>
        <time>2014-05-01T07:27:03Z</time>
      </trkpt>
      <trkpt lat="45.60547" lon="4.57334">
        <ele>797.4</ele>
        <time>2014-05-01T07:27:05Z</time>
      </trkpt>
      <trkpt lat="45.60547" lon="4.57314">
        <ele>796.3</ele>
        <time>2014-05-01T07:27:07Z</time>
      </trkpt>
      <trkpt lat="45.60547" lon="4.57295">
        <ele>794.9</ele>
        <time>2014-05-01T07:27:09Z</time>
      </trkpt>
      <trkpt lat="45.60548" lon="4.57279">
        <ele>794.4</ele>
        <time>2014-05-01T07:27:11Z</time>
      </trkpt>
      <trkpt lat="45.60549" lon="4.57263">
        <ele>794.1</ele>
        <time>2014-05-01T07:27:13Z</time>
      </trkpt>
      <trkpt lat="45.60551" lon="4.57248">
        <ele>793.9</ele>
        <time>2014-05-01T07:27:15Z</time>
      </trkpt>
      <trkpt lat="45.60554" lon="4.57232">
        <ele>793.7</ele>
        <time>2014-05-01T07:27:17Z</time>
      </trkpt>
      <trkpt lat="45.60557" lon="4.57216">
        <ele>793.5</ele>
        <time>2014-05-01T07:27:19Z</time>
      </trkpt>
      <trkpt lat="45.60561" lon="4.57201">
        <ele>793.3</ele>
        <time>2014-05-01T07:27:21Z</time>
      </trkpt>
      <trkpt lat="45.60564" lon="4.57185">
        <ele>793.1</ele>
        <time>2014-05-01T07:27:23Z</time>
      </trkpt>
      <trkpt lat="45.60566" lon="4.57169">
        <ele>792.9</ele>
        <time>2014-05-01T07:27:25Z</time>
      </trkpt>
      <trkpt lat="45.60568" lon="4.57152">
        <ele>792.6</ele>
        <time>2014-05-01T07:27:27Z</time>
      </trkpt>
      <trkpt lat="45.60571" lon="4.57134">
        <ele>792.3</ele>
        <time>2014-05-01T07:27:29Z</time>
      </trkpt>
      <trkpt lat="45.60571" lon="4.57114">
        <ele>791.6</ele>
        <time>2014-05-01T07:27:31Z</time>
      </trkpt>
      <trkpt lat="45.60571" lon="4.57094">
        <ele>790.6</ele>
        <time>2014-05-01T07:27:33Z</time>
      </trkpt>
      <trkpt lat="45.60569" lon="4.57072">
        <ele>789.5</ele>
        <time>2014-05-01T07:27:35Z</time>
      </trkpt>
      <trkpt lat="45.60564" lon="4.57051">
        <ele>788.3</ele>
        <time>2014-05-01T07:27:37Z</time>
      </trkpt>
      <trkpt lat="45.60558" lon="4.57031">
        <ele>787.1</ele>
        <time>2014-05-01T07:27:39Z</time>
      </trkpt>
      <trkpt lat="45.6055" lon="4.57012">
        <ele>785.9</ele>
        <time>2014-05-01T07:27:41Z</time>
      </trkpt>
      <trkpt lat="45.60539" lon="4.56995">
        <ele>784.6</ele>
        <time>2014-05-01T07:27:43Z</time>
      </trkpt>
      <trkpt lat="45.60528" lon="4.5698">
        <ele>783.4</ele>
        <time>2014-05-01T07:27:45Z</time>
      </trkpt>
      <trkpt lat="45.60515" lon="4.56968">
        <ele>782.5</ele>
        <time>2014-05-01T07:27:47Z</time>
      </trkpt>
      <trkpt lat="45.60501" lon="4.56958">
        <ele>782</ele>
        <time>2014-05-01T07:27:49Z</time>
      </trkpt>
      <trkpt lat="45.60487" lon="4.56949">
        <ele>781.4</ele>
        <time>2014-05-01T07:27:51Z</time>
      </trkpt>
      <trkpt lat="45.60472" lon="4.5694">
        <ele>780.7</ele>
        <time>2014-05-01T07:27:53Z</time>
      </trkpt>
      <trkpt lat="45.60457" lon="4.56933">
        <ele>778.9</ele>
        <time>2014-05-01T07:27:55Z</time>
      </trkpt>
      <trkpt lat="45.6044" lon="4.56934">
        <ele>777.4</ele>
        <time>2014-05-01T07:27:57Z</time>
      </trkpt>
      <trkpt lat="45.60424" lon="4.56938">
        <ele>776.1</ele>
        <time>2014-05-01T07:27:59Z</time>
      </trkpt>
      <trkpt lat="45.60411" lon="4.56951">
        <ele>774.9</ele>
        <time>2014-05-01T07:28:01Z</time>
      </trkpt>
      <trkpt lat="45.60397" lon="4.56966">
        <ele>773.4</ele>
        <time>2014-05-01T07:28:03Z</time>
      </trkpt>
      <trkpt lat="45.60383" lon="4.5698">
        <ele>771.5</ele>
        <time>2014-05-01T07:28:05Z</time>
      </trkpt>
      <trkpt lat="45.60369" lon="4.56995">
        <ele>769.5</ele>
        <time>2014-05-01T07:28:07Z</time>
      </trkpt>
      <trkpt lat="45.60359" lon="4.57005">
        <ele>768.1</ele>
        <time>2014-05-01T07:28:09Z</time>
      </trkpt>
      <trkpt lat="45.60352" lon="4.57005">
        <ele>767.4</ele>
        <time>2014-05-01T07:28:11Z</time>
      </trkpt>
      <trkpt lat="45.6035" lon="4.56996">
        <ele>766.6</ele>
        <time>2014-05-01T07:28:13Z</time>
      </trkpt>
      <trkpt lat="45.60351" lon="4.56988">
        <ele>765.9</ele>
        <time>2014-05-01T07:28:15Z</time>
      </trkpt>
      <trkpt lat="45.60349" lon="4.56985">
        <ele>765.5</ele>
        <time>2014-05-01T07:28:17Z</time>
      </trkpt>
      <trkpt lat="45.60344" lon="4.56989">
        <ele>764.5</ele>
        <time>2014-05-01T07:28:19Z</time>
      </trkpt>
      <trkpt lat="45.60339" lon="4.56996">
        <ele>764.2</ele>
        <time>2014-05-01T07:28:21Z</time>
      </trkpt>
      <trkpt lat="45.60332" lon="4.57003">
        <ele>763.5</ele>
        <time>2014-05-01T07:28:23Z</time>
      </trkpt>
      <trkpt lat="45.60323" lon="4.57013">
        <ele>760.8</ele>
        <time>2014-05-01T07:28:25Z</time>
      </trkpt>
      <trkpt lat="45.60317" lon="4.57026">
        <ele>760.4</ele>
        <time>2014-05-01T07:28:27Z</time>
      </trkpt>
      <trkpt lat="45.60312" lon="4.57042">
        <ele>760.1</ele>
        <time>2014-05-01T07:28:29Z</time>
      </trkpt>
      <trkpt lat="45.60305" lon="4.5706">
        <ele>759.8</ele>
        <time>2014-05-01T07:28:31Z</time>
      </trkpt>
      <trkpt lat="45.60296" lon="4.57079">
        <ele>758.9</ele>
        <time>2014-05-01T07:28:33Z</time>
      </trkpt>
      <trkpt lat="45.60286" lon="4.57096">
        <ele>757.7</ele>
        <time>2014-05-01T07:28:35Z</time>
      </trkpt>
      <trkpt lat="45.60276" lon="4.57111">
        <ele>757.2</ele>
        <time>2014-05-01T07:28:37Z</time>
      </trkpt>
      <trkpt lat="45.60267" lon="4.57124">
        <ele>756.9</ele>
        <time>2014-05-01T07:28:39Z</time>
      </trkpt>
      <trkpt lat="45.60259" lon="4.57136">
        <ele>756.7</ele>
        <time>2014-05-01T07:28:41Z</time>
      </trkpt>
      <trkpt lat="45.60251" lon="4.5715">
        <ele>756.6</ele>
        <time>2014-05-01T07:28:43Z</time>
      </trkpt>
      <trkpt lat="45.60243" lon="4.57165">
        <ele>756.5</ele>
        <time>2014-05-01T07:28:45Z</time>
      </trkpt>
      <trkpt lat="45.60236" lon="4.57179">
        <ele>756.5</ele>
        <time>2014-05-01T07:28:47Z</time>
      </trkpt>
      <trkpt lat="45.6023" lon="4.57194">
        <ele>756.6</ele>
        <time>2014-05-01T07:28:49Z</time>
      </trkpt>
      <trkpt lat="45.60223" lon="4.57208">
        <ele>756.8</ele>
        <time>2014-05-01T07:28:51Z</time>
      </trkpt>
      <trkpt lat="45.60218" lon="4.57223">
        <ele>757.1</ele>
        <time>2014-05-01T07:28:53Z</time>
      </trkpt>
      <trkpt lat="45.60212" lon="4.5724">
        <ele>757</ele>
        <time>2014-05-01T07:28:55Z</time>
      </trkpt>
      <trkpt lat="45.60207" lon="4.57259">
        <ele>756.7</ele>
        <time>2014-05-01T07:28:57Z</time>
      </trkpt>
      <trkpt lat="45.60204" lon="4.57277">
        <ele>756.4</ele>
        <time>2014-05-01T07:28:59Z</time>
      </trkpt>
      <trkpt lat="45.60202" lon="4.57297">
        <ele>755.6</ele>
        <time>2014-05-01T07:29:01Z</time>
      </trkpt>
      <trkpt lat="45.60201" lon="4.57319">
        <ele>754.4</ele>
        <time>2014-05-01T07:29:03Z</time>
      </trkpt>
      <trkpt lat="45.602" lon="4.57341">
        <ele>753.6</ele>
        <time>2014-05-01T07:29:05Z</time>
      </trkpt>
      <trkpt lat="45.60199" lon="4.57363">
        <ele>753.1</ele>
        <time>2014-05-01T07:29:07Z</time>
      </trkpt>
      <trkpt lat="45.60197" lon="4.57385">
        <ele>751.9</ele>
        <time>2014-05-01T07:29:09Z</time>
      </trkpt>
      <trkpt lat="45.60196" lon="4.57406">
        <ele>750.9</ele>
        <time>2014-05-01T07:29:11Z</time>
      </trkpt>
      <trkpt lat="45.60197" lon="4.57427">
        <ele>750.3</ele>
        <time>2014-05-01T07:29:13Z</time>
      </trkpt>
      <trkpt lat="45.60198" lon="4.57448">
        <ele>749.7</ele>
        <time>2014-05-01T07:29:15Z</time>
      </trkpt>
      <trkpt lat="45.60201" lon="4.57469">
        <ele>748.7</ele>
        <time>2014-05-01T07:29:17Z</time>
      </trkpt>
      <trkpt lat="45.60205" lon="4.57488">
        <ele>747.7</ele>
        <time>2014-05-01T07:29:19Z</time>
      </trkpt>
      <trkpt lat="45.6021" lon="4.57507">
        <ele>747.2</ele>
        <time>2014-05-01T07:29:21Z</time>
      </trkpt>
      <trkpt lat="45.60215" lon="4.57524">
        <ele>746.5</ele>
        <time>2014-05-01T07:29:23Z</time>
      </trkpt>
      <trkpt lat="45.6022" lon="4.57541">
        <ele>745.4</ele>
        <time>2014-05-01T07:29:25Z</time>
      </trkpt>
      <trkpt lat="45.60225" lon="4.57557">
        <ele>744.4</ele>
        <time>2014-05-01T07:29:27Z</time>
      </trkpt>
      <trkpt lat="45.6023" lon="4.57573">
        <ele>743.2</ele>
        <time>2014-05-01T07:29:29Z</time>
      </trkpt>
      <trkpt lat="45.60235" lon="4.57591">
        <ele>741.8</ele>
        <time>2014-05-01T07:29:31Z</time>
      </trkpt>
      <trkpt lat="45.6024" lon="4.57609">
        <ele>740.7</ele>
        <time>2014-05-01T07:29:33Z</time>
      </trkpt>
      <trkpt lat="45.60244" lon="4.57627">
        <ele>739.4</ele>
        <time>2014-05-01T07:29:35Z</time>
      </trkpt>
      <trkpt lat="45.60246" lon="4.57642">
        <ele>738.3</ele>
        <time>2014-05-01T07:29:37Z</time>
      </trkpt>
      <trkpt lat="45.60246" lon="4.57656">
        <ele>737.1</ele>
        <time>2014-05-01T07:29:39Z</time>
      </trkpt>
      <trkpt lat="45.60247" lon="4.57671">
        <ele>735.9</ele>
        <time>2014-05-01T07:29:41Z</time>
      </trkpt>
      <trkpt lat="45.60248" lon="4.57685">
        <ele>734.6</ele>
        <time>2014-05-01T07:29:43Z</time>
      </trkpt>
      <trkpt lat="45.60249" lon="4.57698">
        <ele>733.2</ele>
        <time>2014-05-01T07:29:45Z</time>
      </trkpt>
      <trkpt lat="45.6025" lon="4.57711">
        <ele>731.9</ele>
        <time>2014-05-01T07:29:47Z</time>
      </trkpt>
      <trkpt lat="45.60251" lon="4.57726">
        <ele>730.1</ele>
        <time>2014-05-01T07:29:49Z</time>
      </trkpt>
      <trkpt lat="45.60251" lon="4.5774">
        <ele>728.3</ele>
        <time>2014-05-01T07:29:51Z</time>
      </trkpt>
      <trkpt lat="45.6025" lon="4.57752">
        <ele>726.7</ele>
        <time>2014-05-01T07:29:53Z</time>
      </trkpt>
      <trkpt lat="45.60247" lon="4.57763">
        <ele>724.6</ele>
        <time>2014-05-01T07:29:55Z</time>
      </trkpt>
      <trkpt lat="45.60245" lon="4.57777">
        <ele>723.4</ele>
        <time>2014-05-01T07:29:57Z</time>
      </trkpt>
      <trkpt lat="45.60246" lon="4.57791">
        <ele>724.5</ele>
        <time>2014-05-01T07:29:59Z</time>
      </trkpt>
      <trkpt lat="45.60248" lon="4.57804">
        <ele>725.6</ele>
        <time>2014-05-01T07:30:01Z</time>
      </trkpt>
      <trkpt lat="45.60252" lon="4.57816">
        <ele>726.6</ele>
        <time>2014-05-01T07:30:03Z</time>
      </trkpt>
      <trkpt lat="45.60256" lon="4.57828">
        <ele>727.6</ele>
        <time>2014-05-01T07:30:05Z</time>
      </trkpt>
      <trkpt lat="45.60261" lon="4.5784">
        <ele>728.6</ele>
        <time>2014-05-01T07:30:07Z</time>
      </trkpt>
      <trkpt lat="45.60266" lon="4.57853">
        <ele>729.9</ele>
        <time>2014-05-01T07:30:09Z</time>
      </trkpt>
      <trkpt lat="45.6027" lon="4.57865">
        <ele>731.3</ele>
        <time>2014-05-01T07:30:11Z</time>
      </trkpt>
      <trkpt lat="45.60275" lon="4.57877">
        <ele>732.6</ele>
        <time>2014-05-01T07:30:13Z</time>
      </trkpt>
      <trkpt lat="45.6028" lon="4.57888">
        <ele>733.6</ele>
        <time>2014-05-01T07:30:15Z</time>
      </trkpt>
      <trkpt lat="45.60283" lon="4.57897">
        <ele>734.4</ele>
        <time>2014-05-01T07:30:17Z</time>
      </trkpt>
      <trkpt lat="45.60287" lon="4.57905">
        <ele>735.1</ele>
        <time>2014-05-01T07:30:19Z</time>
      </trkpt>
      <trkpt lat="45.6029" lon="4.57914">
        <ele>735.8</ele>
        <time>2014-05-01T07:30:21Z</time>
      </trkpt>
      <trkpt lat="45.60293" lon="4.57922">
        <ele>736.5</ele>
        <time>2014-05-01T07:30:23Z</time>
      </trkpt>
      <trkpt lat="45.60296" lon="4.5793">
        <ele>737.1</ele>
        <time>2014-05-01T07:30:25Z</time>
      </trkpt>
      <trkpt lat="45.60299" lon="4.57938">
        <ele>737.7</ele>
        <time>2014-05-01T07:30:27Z</time>
      </trkpt>
      <trkpt lat="45.60302" lon="4.57946">
        <ele>738.3</ele>
        <time>2014-05-01T07:30:29Z</time>
      </trkpt>
      <trkpt lat="45.60304" lon="4.57954">
        <ele>738.9</ele>
        <time>2014-05-01T07:30:31Z</time>
      </trkpt>
      <trkpt lat="45.60306" lon="4.57962">
        <ele>739.5</ele>
        <time>2014-05-01T07:30:33Z</time>
      </trkpt>
      <trkpt lat="45.60308" lon="4.57971">
        <ele>740.2</ele>
        <time>2014-05-01T07:30:35Z</time>
      </trkpt>
      <trkpt lat="45.6031" lon="4.5798">
        <ele>740.8</ele>
        <time>2014-05-01T07:30:37Z</time>
      </trkpt>
      <trkpt lat="45.60312" lon="4.57988">
        <ele>741.5</ele>
        <time>2014-05-01T07:30:39Z</time>
      </trkpt>
      <trkpt lat="45.60313" lon="4.57997">
        <ele>742.1</ele>
        <time>2014-05-01T07:30:41Z</time>
      </trkpt>
      <trkpt lat="45.60315" lon="4.58005">
        <ele>742.7</ele>
        <time>2014-05-01T07:30:43Z</time>
      </trkpt>
      <trkpt lat="45.60317" lon="4.58012">
        <ele>743.4</ele>
        <time>2014-05-01T07:30:45Z</time>
      </trkpt>
      <trkpt lat="45.60318" lon="4.58019">
        <ele>744</ele>
        <time>2014-05-01T07:30:47Z</time>
      </trkpt>
      <trkpt lat="45.6032" lon="4.58026">
        <ele>744.7</ele>
        <time>2014-05-01T07:30:49Z</time>
      </trkpt>
      <trkpt lat="45.60323" lon="4.58033">
        <ele>745.3</ele>
        <time>2014-05-01T07:30:51Z</time>
      </trkpt>
      <trkpt lat="45.60325" lon="4.58039">
        <ele>745.9</ele>
        <time>2014-05-01T07:30:53Z</time>
      </trkpt>
      <trkpt lat="45.60327" lon="4.58046">
        <ele>746.5</ele>
        <time>2014-05-01T07:30:55Z</time>
      </trkpt>
      <trkpt lat="45.60329" lon="4.58052">
        <ele>747.1</ele>
        <time>2014-05-01T07:30:57Z</time>
      </trkpt>
      <trkpt lat="45.60331" lon="4.58059">
        <ele>747.7</ele>
        <time>2014-05-01T07:30:59Z</time>
      </trkpt>
      <trkpt lat="45.60334" lon="4.58066">
        <ele>748.3</ele>
        <time>2014-05-01T07:31:01Z</time>
      </trkpt>
      <trkpt lat="45.60336" lon="4.58073">
        <ele>748.9</ele>
        <time>2014-05-01T07:31:03Z</time>
      </trkpt>
      <trkpt lat="45.60339" lon="4.58082">
        <ele>749.6</ele>
        <time>2014-05-01T07:31:05Z</time>
      </trkpt>
      <trkpt lat="45.60342" lon="4.5809">
        <ele>750.3</ele>
        <time>2014-05-01T07:31:07Z</time>
      </trkpt>
      <trkpt lat="45.60344" lon="4.58098">
        <ele>751</ele>
        <time>2014-05-01T07:31:09Z</time>
      </trkpt>
      <trkpt lat="45.60347" lon="4.58106">
        <ele>751.6</ele>
        <time>2014-05-01T07:31:11Z</time>
      </trkpt>
      <trkpt lat="45.60351" lon="4.58115">
        <ele>752.3</ele>
        <time>2014-05-01T07:31:13Z</time>
      </trkpt>
      <trkpt lat="45.60354" lon="4.58123">
        <ele>753</ele>
        <time>2014-05-01T07:31:15Z</time>
      </trkpt>
      <trkpt lat="45.60357" lon="4.58132">
        <ele>753.7</ele>
        <time>2014-05-01T07:31:17Z</time>
      </trkpt>
      <trkpt lat="45.60359" lon="4.5814">
        <ele>754.4</ele>
        <time>2014-05-01T07:31:19Z</time>
      </trkpt>
      <trkpt lat="45.6036" lon="4.58149">
        <ele>755</ele>
        <time>2014-05-01T07:31:21Z</time>
      </trkpt>
      <trkpt lat="45.60362" lon="4.58158">
        <ele>755.7</ele>
        <time>2014-05-01T07:31:23Z</time>
      </trkpt>
      <trkpt lat="45.60364" lon="4.58167">
        <ele>756.4</ele>
        <time>2014-05-01T07:31:25Z</time>
      </trkpt>
      <trkpt lat="45.60366" lon="4.58178">
        <ele>757</ele>
        <time>2014-05-01T07:31:27Z</time>
      </trkpt>
      <trkpt lat="45.60369" lon="4.5819">
        <ele>757.6</ele>
        <time>2014-05-01T07:31:29Z</time>
      </trkpt>
      <trkpt lat="45.60373" lon="4.58202">
        <ele>758.2</ele>
        <time>2014-05-01T07:31:31Z</time>
      </trkpt>
      <trkpt lat="45.60376" lon="4.58216">
        <ele>758.9</ele>
        <time>2014-05-01T07:31:33Z</time>
      </trkpt>
      <trkpt lat="45.60379" lon="4.58231">
        <ele>759.8</ele>
        <time>2014-05-01T07:31:35Z</time>
      </trkpt>
      <trkpt lat="45.60381" lon="4.58245">
        <ele>760.7</ele>
        <time>2014-05-01T07:31:37Z</time>
      </trkpt>
      <trkpt lat="45.60385" lon="4.58259">
        <ele>761.5</ele>
        <time>2014-05-01T07:31:39Z</time>
      </trkpt>
      <trkpt lat="45.60388" lon="4.58274">
        <ele>762.3</ele>
        <time>2014-05-01T07:31:41Z</time>
      </trkpt>
      <trkpt lat="45.60392" lon="4.58288">
        <ele>763</ele>
        <time>2014-05-01T07:31:43Z</time>
      </trkpt>
      <trkpt lat="45.60397" lon="4.583">
        <ele>763.8</ele>
        <time>2014-05-01T07:31:45Z</time>
      </trkpt>
      <trkpt lat="45.60403" lon="4.58311">
        <ele>764.5</ele>
        <time>2014-05-01T07:31:47Z</time>
      </trkpt>
      <trkpt lat="45.60409" lon="4.58322">
        <ele>765.3</ele>
        <time>2014-05-01T07:31:49Z</time>
      </trkpt>
      <trkpt lat="45.60414" lon="4.58331">
        <ele>766.1</ele>
        <time>2014-05-01T07:31:51Z</time>
      </trkpt>
      <trkpt lat="45.60418" lon="4.5834">
        <ele>766.8</ele>
        <time>2014-05-01T07:31:53Z</time>
      </trkpt>
      <trkpt lat="45.60421" lon="4.5835">
        <ele>767.1</ele>
        <time>2014-05-01T07:31:55Z</time>
      </trkpt>
      <trkpt lat="45.60423" lon="4.58362">
        <ele>767.4</ele>
        <time>2014-05-01T07:31:57Z</time>
      </trkpt>
      <trkpt lat="45.60426" lon="4.58372">
        <ele>767.6</ele>
        <time>2014-05-01T07:31:59Z</time>
      </trkpt>
      <trkpt lat="45.60431" lon="4.58382">
        <ele>767.8</ele>
        <time>2014-05-01T07:32:01Z</time>
      </trkpt>
      <trkpt lat="45.60435" lon="4.58392">
        <ele>768.1</ele>
        <time>2014-05-01T07:32:03Z</time>
      </trkpt>
      <trkpt lat="45.6044" lon="4.58401">
        <ele>768.3</ele>
        <time>2014-05-01T07:32:05Z</time>
      </trkpt>
      <trkpt lat="45.60445" lon="4.5841">
        <ele>768.5</ele>
        <time>2014-05-01T07:32:07Z</time>
      </trkpt>
      <trkpt lat="45.60449" lon="4.5842">
        <ele>768.7</ele>
        <time>2014-05-01T07:32:09Z</time>
      </trkpt>
      <trkpt lat="45.60453" lon="4.58429">
        <ele>768.8</ele>
        <time>2014-05-01T07:32:11Z</time>
      </trkpt>
      <trkpt lat="45.60457" lon="4.58437">
        <ele>769</ele>
        <time>2014-05-01T07:32:13Z</time>
      </trkpt>
      <trkpt lat="45.60461" lon="4.58445">
        <ele>769.1</ele>
        <time>2014-05-01T07:32:15Z</time>
      </trkpt>
      <trkpt lat="45.60466" lon="4.58453">
        <ele>769.3</ele>
        <time>2014-05-01T07:32:17Z</time>
      </trkpt>
      <trkpt lat="45.6047" lon="4.58461">
        <ele>769.4</ele>
        <time>2014-05-01T07:32:19Z</time>
      </trkpt>
      <trkpt lat="45.60473" lon="4.58468">
        <ele>769.5</ele>
        <time>2014-05-01T07:32:21Z</time>
      </trkpt>
      <trkpt lat="45.60475" lon="4.58477">
        <ele>769.6</ele>
        <time>2014-05-01T07:32:23Z</time>
      </trkpt>
      <trkpt lat="45.60477" lon="4.58485">
        <ele>769.7</ele>
        <time>2014-05-01T07:32:25Z</time>
      </trkpt>
      <trkpt lat="45.6048" lon="4.58494">
        <ele>769.8</ele>
        <time>2014-05-01T07:32:27Z</time>
      </trkpt>
      <trkpt lat="45.60482" lon="4.58504">
        <ele>770</ele>
        <time>2014-05-01T07:32:29Z</time>
      </trkpt>
      <trkpt lat="45.60484" lon="4.58513">
        <ele>770.1</ele>
        <time>2014-05-01T07:32:31Z</time>
      </trkpt>
      <trkpt lat="45.60487" lon="4.58523">
        <ele>770.2</ele>
        <time>2014-05-01T07:32:33Z</time>
      </trkpt>
      <trkpt lat="45.6049" lon="4.58532">
        <ele>770.3</ele>
        <time>2014-05-01T07:32:35Z</time>
      </trkpt>
      <trkpt lat="45.60493" lon="4.58541">
        <ele>770.4</ele>
        <time>2014-05-01T07:32:37Z</time>
      </trkpt>
      <trkpt lat="45.60496" lon="4.5855">
        <ele>770.8</ele>
        <time>2014-05-01T07:32:39Z</time>
      </trkpt>
      <trkpt lat="45.605" lon="4.58559">
        <ele>770.9</ele>
        <time>2014-05-01T07:32:41Z</time>
      </trkpt>
      <trkpt lat="45.60502" lon="4.58568">
        <ele>771.1</ele>
        <time>2014-05-01T07:32:43Z</time>
      </trkpt>
      <trkpt lat="45.60505" lon="4.58576">
        <ele>771.3</ele>
        <time>2014-05-01T07:32:45Z</time>
      </trkpt>
      <trkpt lat="45.60508" lon="4.58585">
        <ele>771.4</ele>
        <time>2014-05-01T07:32:47Z</time>
      </trkpt>
      <trkpt lat="45.60511" lon="4.58594">
        <ele>771.6</ele>
        <time>2014-05-01T07:32:49Z</time>
      </trkpt>
      <trkpt lat="45.60514" lon="4.58603">
        <ele>771.8</ele>
        <time>2014-05-01T07:32:51Z</time>
      </trkpt>
      <trkpt lat="45.60516" lon="4.58612">
        <ele>772</ele>
        <time>2014-05-01T07:32:53Z</time>
      </trkpt>
      <trkpt lat="45.60519" lon="4.58621">
        <ele>772.2</ele>
        <time>2014-05-01T07:32:55Z</time>
      </trkpt>
      <trkpt lat="45.60521" lon="4.58629">
        <ele>772.4</ele>
        <time>2014-05-01T07:32:57Z</time>
      </trkpt>
      <trkpt lat="45.60524" lon="4.58638">
        <ele>772.6</ele>
        <time>2014-05-01T07:32:59Z</time>
      </trkpt>
      <trkpt lat="45.60528" lon="4.58646">
        <ele>772.8</ele>
        <time>2014-05-01T07:33:01Z</time>
      </trkpt>
      <trkpt lat="45.60532" lon="4.58654">
        <ele>773</ele>
        <time>2014-05-01T07:33:03Z</time>
      </trkpt>
      <trkpt lat="45.60536" lon="4.58661">
        <ele>773.2</ele>
        <time>2014-05-01T07:33:05Z</time>
      </trkpt>
      <trkpt lat="45.6054" lon="4.58669">
        <ele>773.5</ele>
        <time>2014-05-01T07:33:07Z</time>
      </trkpt>
      <trkpt lat="45.60545" lon="4.58676">
        <ele>773.8</ele>
        <time>2014-05-01T07:33:09Z</time>
      </trkpt>
      <trkpt lat="45.6055" lon="4.58682">
        <ele>774.1</ele>
        <time>2014-05-01T07:33:11Z</time>
      </trkpt>
      <trkpt lat="45.60555" lon="4.58687">
        <ele>774.3</ele>
        <time>2014-05-01T07:33:13Z</time>
      </trkpt>
      <trkpt lat="45.6056" lon="4.58693">
        <ele>774.5</ele>
        <time>2014-05-01T07:33:15Z</time>
      </trkpt>
      <trkpt lat="45.60565" lon="4.58697">
        <ele>774.6</ele>
        <time>2014-05-01T07:33:17Z</time>
      </trkpt>
      <trkpt lat="45.60571" lon="4.58702">
        <ele>774.8</ele>
        <time>2014-05-01T07:33:19Z</time>
      </trkpt>
      <trkpt lat="45.60577" lon="4.58708">
        <ele>774.9</ele>
        <time>2014-05-01T07:33:21Z</time>
      </trkpt>
      <trkpt lat="45.60583" lon="4.58713">
        <ele>775.1</ele>
        <time>2014-05-01T07:33:23Z</time>
      </trkpt>
      <trkpt lat="45.60589" lon="4.58719">
        <ele>775.2</ele>
        <time>2014-05-01T07:33:25Z</time>
      </trkpt>
      <trkpt lat="45.60595" lon="4.58724">
        <ele>775.3</ele>
        <time>2014-05-01T07:33:27Z</time>
      </trkpt>
      <trkpt lat="45.60601" lon="4.58731">
        <ele>775.4</ele>
        <time>2014-05-01T07:33:29Z</time>
      </trkpt>
      <trkpt lat="45.60608" lon="4.58737">
        <ele>775.6</ele>
        <time>2014-05-01T07:33:31Z</time>
      </trkpt>
      <trkpt lat="45.60613" lon="4.58742">
        <ele>775.7</ele>
        <time>2014-05-01T07:33:33Z</time>
      </trkpt>
      <trkpt lat="45.60618" lon="4.58746">
        <ele>775.9</ele>
        <time>2014-05-01T07:33:35Z</time>
      </trkpt>
      <trkpt lat="45.60623" lon="4.58751">
        <ele>776</ele>
        <time>2014-05-01T07:33:37Z</time>
      </trkpt>
      <trkpt lat="45.60629" lon="4.58756">
        <ele>776</ele>
        <time>2014-05-01T07:33:39Z</time>
      </trkpt>
      <trkpt lat="45.60635" lon="4.58762">
        <ele>776</ele>
        <time>2014-05-01T07:33:41Z</time>
      </trkpt>
      <trkpt lat="45.60642" lon="4.58768">
        <ele>776</ele>
        <time>2014-05-01T07:33:43Z</time>
      </trkpt>
      <trkpt lat="45.60647" lon="4.58777">
        <ele>776</ele>
        <time>2014-05-01T07:33:45Z</time>
      </trkpt>
      <trkpt lat="45.60653" lon="4.58788">
        <ele>775.8</ele>
        <time>2014-05-01T07:33:47Z</time>
      </trkpt>
      <trkpt lat="45.60658" lon="4.58801">
        <ele>775.6</ele>
        <time>2014-05-01T07:33:49Z</time>
      </trkpt>
      <trkpt lat="45.60664" lon="4.58816">
        <ele>775.2</ele>
        <time>2014-05-01T07:33:51Z</time>
      </trkpt>
      <trkpt lat="45.60671" lon="4.58834">
        <ele>774.8</ele>
        <time>2014-05-01T07:33:53Z</time>
      </trkpt>
      <trkpt lat="45.60679" lon="4.58854">
        <ele>774.5</ele>
        <time>2014-05-01T07:33:55Z</time>
      </trkpt>
      <trkpt lat="45.60687" lon="4.58874">
        <ele>774.1</ele>
        <time>2014-05-01T07:33:57Z</time>
      </trkpt>
      <trkpt lat="45.60697" lon="4.58894">
        <ele>773.7</ele>
        <time>2014-05-01T07:33:59Z</time>
      </trkpt>
      <trkpt lat="45.60709" lon="4.58912">
        <ele>773.2</ele>
        <time>2014-05-01T07:34:01Z</time>
      </trkpt>
      <trkpt lat="45.60722" lon="4.58928">
        <ele>772.7</ele>
        <time>2014-05-01T07:34:03Z</time>
      </trkpt>
      <trkpt lat="45.60736" lon="4.58943">
        <ele>772.3</ele>
        <time>2014-05-01T07:34:05Z</time>
      </trkpt>
      <trkpt lat="45.60751" lon="4.58958">
        <ele>771.6</ele>
        <time>2014-05-01T07:34:07Z</time>
      </trkpt>
      <trkpt lat="45.60767" lon="4.58973">
        <ele>771.3</ele>
        <time>2014-05-01T07:34:09Z</time>
      </trkpt>
      <trkpt lat="45.60786" lon="4.58986">
        <ele>771</ele>
        <time>2014-05-01T07:34:11Z</time>
      </trkpt>
      <trkpt lat="45.60803" lon="4.58994">
        <ele>769.8</ele>
        <time>2014-05-01T07:34:13Z</time>
      </trkpt>
      <trkpt lat="45.60819" lon="4.59001">
        <ele>768.6</ele>
        <time>2014-05-01T07:34:15Z</time>
      </trkpt>
      <trkpt lat="45.60833" lon="4.59011">
        <ele>767.6</ele>
        <time>2014-05-01T07:34:17Z</time>
      </trkpt>
      <trkpt lat="45.60844" lon="4.59024">
        <ele>766.7</ele>
        <time>2014-05-01T07:34:19Z</time>
      </trkpt>
      <trkpt lat="45.60852" lon="4.59036">
        <ele>766</ele>
        <time>2014-05-01T07:34:21Z</time>
      </trkpt>
      <trkpt lat="45.60858" lon="4.59048">
        <ele>766.1</ele>
        <time>2014-05-01T07:34:23Z</time>
      </trkpt>
      <trkpt lat="45.60864" lon="4.59059">
        <ele>766.3</ele>
        <time>2014-05-01T07:34:25Z</time>
      </trkpt>
      <trkpt lat="45.60869" lon="4.5907">
        <ele>766.4</ele>
        <time>2014-05-01T07:34:27Z</time>
      </trkpt>
      <trkpt lat="45.60873" lon="4.59082">
        <ele>766.5</ele>
        <time>2014-05-01T07:34:29Z</time>
      </trkpt>
      <trkpt lat="45.60878" lon="4.59093">
        <ele>766.6</ele>
        <time>2014-05-01T07:34:31Z</time>
      </trkpt>
      <trkpt lat="45.60882" lon="4.59104">
        <ele>766.7</ele>
        <time>2014-05-01T07:34:33Z</time>
      </trkpt>
      <trkpt lat="45.60886" lon="4.59116">
        <ele>766.8</ele>
        <time>2014-05-01T07:34:35Z</time>
      </trkpt>
      <trkpt lat="45.6089" lon="4.59127">
        <ele>766.8</ele>
        <time>2014-05-01T07:34:37Z</time>
      </trkpt>
      <trkpt lat="45.60894" lon="4.59139">
        <ele>766.9</ele>
        <time>2014-05-01T07:34:39Z</time>
      </trkpt>
      <trkpt lat="45.60897" lon="4.59152">
        <ele>767</ele>
        <time>2014-05-01T07:34:41Z</time>
      </trkpt>
      <trkpt lat="45.609" lon="4.59164">
        <ele>767</ele>
        <time>2014-05-01T07:34:43Z</time>
      </trkpt>
      <trkpt lat="45.60901" lon="4.59177">
        <ele>767</ele>
        <time>2014-05-01T07:34:45Z</time>
      </trkpt>
      <trkpt lat="45.60899" lon="4.59192">
        <ele>767</ele>
        <time>2014-05-01T07:34:47Z</time>
      </trkpt>
      <trkpt lat="45.60898" lon="4.59208">
        <ele>767</ele>
        <time>2014-05-01T07:34:49Z</time>
      </trkpt>
      <trkpt lat="45.60897" lon="4.59225">
        <ele>767</ele>
        <time>2014-05-01T07:34:51Z</time>
      </trkpt>
      <trkpt lat="45.60895" lon="4.59244">
        <ele>767</ele>
        <time>2014-05-01T07:34:53Z</time>
      </trkpt>
      <trkpt lat="45.60893" lon="4.59264">
        <ele>767</ele>
        <time>2014-05-01T07:34:55Z</time>
      </trkpt>
      <trkpt lat="45.60891" lon="4.59286">
        <ele>767</ele>
        <time>2014-05-01T07:34:57Z</time>
      </trkpt>
      <trkpt lat="45.60889" lon="4.59309">
        <ele>767</ele>
        <time>2014-05-01T07:34:59Z</time>
      </trkpt>
      <trkpt lat="45.60888" lon="4.59332">
        <ele>767</ele>
        <time>2014-05-01T07:35:01Z</time>
      </trkpt>
      <trkpt lat="45.60886" lon="4.59354">
        <ele>767</ele>
        <time>2014-05-01T07:35:03Z</time>
      </trkpt>
      <trkpt lat="45.60883" lon="4.59375">
        <ele>767</ele>
        <time>2014-05-01T07:35:05Z</time>
      </trkpt>
      <trkpt lat="45.60878" lon="4.59394">
        <ele>767</ele>
        <time>2014-05-01T07:35:07Z</time>
      </trkpt>
      <trkpt lat="45.60875" lon="4.59412">
        <ele>767</ele>
        <time>2014-05-01T07:35:09Z</time>
      </trkpt>
      <trkpt lat="45.60872" lon="4.59429">
        <ele>767</ele>
        <time>2014-05-01T07:35:11Z</time>
      </trkpt>
      <trkpt lat="45.60869" lon="4.59447">
        <ele>767</ele>
        <time>2014-05-01T07:35:13Z</time>
      </trkpt>
      <trkpt lat="45.60869" lon="4.59465">
        <ele>767.2</ele>
        <time>2014-05-01T07:35:15Z</time>
      </trkpt>
      <trkpt lat="45.60869" lon="4.59483">
        <ele>767.4</ele>
        <time>2014-05-01T07:35:17Z</time>
      </trkpt>
      <trkpt lat="45.6087" lon="4.59501">
        <ele>767.7</ele>
        <time>2014-05-01T07:35:19Z</time>
      </trkpt>
      <trkpt lat="45.60872" lon="4.5952">
        <ele>768.2</ele>
        <time>2014-05-01T07:35:21Z</time>
      </trkpt>
      <trkpt lat="45.60874" lon="4.5954">
        <ele>768.7</ele>
        <time>2014-05-01T07:35:23Z</time>
      </trkpt>
      <trkpt lat="45.60879" lon="4.59558">
        <ele>768.9</ele>
        <time>2014-05-01T07:35:25Z</time>
      </trkpt>
      <trkpt lat="45.60886" lon="4.59573">
        <ele>769</ele>
        <time>2014-05-01T07:35:27Z</time>
      </trkpt>
      <trkpt lat="45.60893" lon="4.59587">
        <ele>769</ele>
        <time>2014-05-01T07:35:29Z</time>
      </trkpt>
      <trkpt lat="45.60901" lon="4.59601">
        <ele>769</ele>
        <time>2014-05-01T07:35:31Z</time>
      </trkpt>
      <trkpt lat="45.60911" lon="4.59612">
        <ele>769</ele>
        <time>2014-05-01T07:35:33Z</time>
      </trkpt>
      <trkpt lat="45.6092" lon="4.59621">
        <ele>769</ele>
        <time>2014-05-01T07:35:35Z</time>
      </trkpt>
      <trkpt lat="45.60928" lon="4.59629">
        <ele>769</ele>
        <time>2014-05-01T07:35:37Z</time>
      </trkpt>
      <trkpt lat="45.60933" lon="4.59639">
        <ele>768.6</ele>
        <time>2014-05-01T07:35:39Z</time>
      </trkpt>
      <trkpt lat="45.60937" lon="4.59653">
        <ele>768.1</ele>
        <time>2014-05-01T07:35:41Z</time>
      </trkpt>
      <trkpt lat="45.60943" lon="4.59669">
        <ele>767.6</ele>
        <time>2014-05-01T07:35:43Z</time>
      </trkpt>
      <trkpt lat="45.60951" lon="4.59684">
        <ele>767.1</ele>
        <time>2014-05-01T07:35:45Z</time>
      </trkpt>
      <trkpt lat="45.60957" lon="4.59701">
        <ele>766.6</ele>
        <time>2014-05-01T07:35:47Z</time>
      </trkpt>
      <trkpt lat="45.60963" lon="4.59718">
        <ele>766.2</ele>
        <time>2014-05-01T07:35:49Z</time>
      </trkpt>
      <trkpt lat="45.60969" lon="4.59735">
        <ele>765.7</ele>
        <time>2014-05-01T07:35:51Z</time>
      </trkpt>
      <trkpt lat="45.60975" lon="4.59752">
        <ele>765.2</ele>
        <time>2014-05-01T07:35:53Z</time>
      </trkpt>
      <trkpt lat="45.60984" lon="4.59766">
        <ele>764.3</ele>
        <time>2014-05-01T07:35:55Z</time>
      </trkpt>
      <trkpt lat="45.60997" lon="4.59775">
        <ele>763.1</ele>
        <time>2014-05-01T07:35:57Z</time>
      </trkpt>
      <trkpt lat="45.6101" lon="4.59777">
        <ele>761.8</ele>
        <time>2014-05-01T07:35:59Z</time>
      </trkpt>
      <trkpt lat="45.61023" lon="4.59784">
        <ele>759.8</ele>
        <time>2014-05-01T07:36:01Z</time>
      </trkpt>
      <trkpt lat="45.61027" lon="4.59799">
        <ele>758.7</ele>
        <time>2014-05-01T07:36:03Z</time>
      </trkpt>
      <trkpt lat="45.61024" lon="4.59817">
        <ele>756.8</ele>
        <time>2014-05-01T07:36:05Z</time>
      </trkpt>
      <trkpt lat="45.6102" lon="4.59836">
        <ele>755</ele>
        <time>2014-05-01T07:36:07Z</time>
      </trkpt>
      <trkpt lat="45.61016" lon="4.59857">
        <ele>753.9</ele>
        <time>2014-05-01T07:36:09Z</time>
      </trkpt>
      <trkpt lat="45.61013" lon="4.59876">
        <ele>753.7</ele>
        <time>2014-05-01T07:36:11Z</time>
      </trkpt>
      <trkpt lat="45.61013" lon="4.59895">
        <ele>753.5</ele>
        <time>2014-05-01T07:36:13Z</time>
      </trkpt>
      <trkpt lat="45.61016" lon="4.59912">
        <ele>753.2</ele>
        <time>2014-05-01T07:36:15Z</time>
      </trkpt>
      <trkpt lat="45.6102" lon="4.59924">
        <ele>752.9</ele>
        <time>2014-05-01T07:36:17Z</time>
      </trkpt>
      <trkpt lat="45.61023" lon="4.59934">
        <ele>752.7</ele>
        <time>2014-05-01T07:36:19Z</time>
      </trkpt>
      <trkpt lat="45.61027" lon="4.59942">
        <ele>752.5</ele>
        <time>2014-05-01T07:36:21Z</time>
      </trkpt>
      <trkpt lat="45.61031" lon="4.59949">
        <ele>752.3</ele>
        <time>2014-05-01T07:36:23Z</time>
      </trkpt>
      <trkpt lat="45.61034" lon="4.59956">
        <ele>752.2</ele>
        <time>2014-05-01T07:36:25Z</time>
      </trkpt>
      <trkpt lat="45.61039" lon="4.59963">
        <ele>752.1</ele>
        <time>2014-05-01T07:36:27Z</time>
      </trkpt>
      <trkpt lat="45.61042" lon="4.59969">
        <ele>751.9</ele>
        <time>2014-05-01T07:36:29Z</time>
      </trkpt>
      <trkpt lat="45.61046" lon="4.59975">
        <ele>751.8</ele>
        <time>2014-05-01T07:36:31Z</time>
      </trkpt>
      <trkpt lat="45.61049" lon="4.5998">
        <ele>751.7</ele>
        <time>2014-05-01T07:36:33Z</time>
      </trkpt>
      <trkpt lat="45.61054" lon="4.59986">
        <ele>751.6</ele>
        <time>2014-05-01T07:36:35Z</time>
      </trkpt>
      <trkpt lat="45.6106" lon="4.59993">
        <ele>751.4</ele>
        <time>2014-05-01T07:36:37Z</time>
      </trkpt>
      <trkpt lat="45.61068" lon="4.60001">
        <ele>751.1</ele>
        <time>2014-05-01T07:36:39Z</time>
      </trkpt>
      <trkpt lat="45.61076" lon="4.60009">
        <ele>750.7</ele>
        <time>2014-05-01T07:36:41Z</time>
      </trkpt>
      <trkpt lat="45.61086" lon="4.60016">
        <ele>750.3</ele>
        <time>2014-05-01T07:36:43Z</time>
      </trkpt>
      <trkpt lat="45.61094" lon="4.60022">
        <ele>750</ele>
        <time>2014-05-01T07:36:45Z</time>
      </trkpt>
      <trkpt lat="45.61101" lon="4.60027">
        <ele>749.7</ele>
        <time>2014-05-01T07:36:47Z</time>
      </trkpt>
      <trkpt lat="45.6111" lon="4.60033">
        <ele>749.4</ele>
        <time>2014-05-01T07:36:49Z</time>
      </trkpt>
      <trkpt lat="45.61119" lon="4.60038">
        <ele>749</ele>
        <time>2014-05-01T07:36:51Z</time>
      </trkpt>
      <trkpt lat="45.61127" lon="4.60042">
        <ele>748.5</ele>
        <time>2014-05-01T07:36:53Z</time>
      </trkpt>
      <trkpt lat="45.61137" lon="4.60046">
        <ele>747.8</ele>
        <time>2014-05-01T07:36:55Z</time>
      </trkpt>
      <trkpt lat="45.61149" lon="4.6005">
        <ele>746.8</ele>
        <time>2014-05-01T07:36:57Z</time>
      </trkpt>
      <trkpt lat="45.61159" lon="4.60056">
        <ele>745.8</ele>
        <time>2014-05-01T07:36:59Z</time>
      </trkpt>
      <trkpt lat="45.61166" lon="4.60066">
        <ele>745</ele>
        <time>2014-05-01T07:37:01Z</time>
      </trkpt>
      <trkpt lat="45.61169" lon="4.60078">
        <ele>744.5</ele>
        <time>2014-05-01T07:37:03Z</time>
      </trkpt>
      <trkpt lat="45.61171" lon="4.6009">
        <ele>744.1</ele>
        <time>2014-05-01T07:37:05Z</time>
      </trkpt>
      <trkpt lat="45.61173" lon="4.60103">
        <ele>743.8</ele>
        <time>2014-05-01T07:37:07Z</time>
      </trkpt>
      <trkpt lat="45.61174" lon="4.60118">
        <ele>743.2</ele>
        <time>2014-05-01T07:37:09Z</time>
      </trkpt>
      <trkpt lat="45.61176" lon="4.60136">
        <ele>741.7</ele>
        <time>2014-05-01T07:37:11Z</time>
      </trkpt>
      <trkpt lat="45.61179" lon="4.60156">
        <ele>740.2</ele>
        <time>2014-05-01T07:37:13Z</time>
      </trkpt>
      <trkpt lat="45.61182" lon="4.60178">
        <ele>738.6</ele>
        <time>2014-05-01T07:37:15Z</time>
      </trkpt>
      <trkpt lat="45.61185" lon="4.60199">
        <ele>737.4</ele>
        <time>2014-05-01T07:37:17Z</time>
      </trkpt>
      <trkpt lat="45.6119" lon="4.60219">
        <ele>736.1</ele>
        <time>2014-05-01T07:37:19Z</time>
      </trkpt>
      <trkpt lat="45.61197" lon="4.60239">
        <ele>734.6</ele>
        <time>2014-05-01T07:37:21Z</time>
      </trkpt>
      <trkpt lat="45.61202" lon="4.60257">
        <ele>733.4</ele>
        <time>2014-05-01T07:37:23Z</time>
      </trkpt>
      <trkpt lat="45.61207" lon="4.60272">
        <ele>732.2</ele>
        <time>2014-05-01T07:37:25Z</time>
      </trkpt>
      <trkpt lat="45.61215" lon="4.60283">
        <ele>732</ele>
        <time>2014-05-01T07:37:27Z</time>
      </trkpt>
      <trkpt lat="45.6122" lon="4.60289">
        <ele>731.9</ele>
        <time>2014-05-01T07:37:29Z</time>
      </trkpt>
      <trkpt lat="45.61224" lon="4.60294">
        <ele>731.9</ele>
        <time>2014-05-01T07:37:31Z</time>
      </trkpt>
      <trkpt lat="45.61228" lon="4.60301">
        <ele>731.9</ele>
        <time>2014-05-01T07:37:33Z</time>
      </trkpt>
      <trkpt lat="45.61233" lon="4.60311">
        <ele>731.8</ele>
        <time>2014-05-01T07:37:35Z</time>
      </trkpt>
      <trkpt lat="45.61237" lon="4.60322">
        <ele>731.7</ele>
        <time>2014-05-01T07:37:37Z</time>
      </trkpt>
      <trkpt lat="45.61244" lon="4.60333">
        <ele>731.6</ele>
        <time>2014-05-01T07:37:39Z</time>
      </trkpt>
      <trkpt lat="45.61251" lon="4.60341">
        <ele>731.6</ele>
        <time>2014-05-01T07:37:41Z</time>
      </trkpt>
      <trkpt lat="45.6126" lon="4.60349">
        <ele>731.6</ele>
        <time>2014-05-01T07:37:43Z</time>
      </trkpt>
      <trkpt lat="45.61268" lon="4.60353">
        <ele>731.7</ele>
        <time>2014-05-01T07:37:45Z</time>
      </trkpt>
      <trkpt lat="45.61274" lon="4.60362">
        <ele>731.8</ele>
        <time>2014-05-01T07:37:47Z</time>
      </trkpt>
      <trkpt lat="45.61279" lon="4.60372">
        <ele>732</ele>
        <time>2014-05-01T07:37:49Z</time>
      </trkpt>
      <trkpt lat="45.61283" lon="4.60381">
        <ele>732.4</ele>
        <time>2014-05-01T07:37:51Z</time>
      </trkpt>
      <trkpt lat="45.61285" lon="4.60389">
        <ele>732.7</ele>
        <time>2014-05-01T07:37:53Z</time>
      </trkpt>
      <trkpt lat="45.61288" lon="4.60396">
        <ele>733</ele>
        <time>2014-05-01T07:37:55Z</time>
      </trkpt>
      <trkpt lat="45.61289" lon="4.60403">
        <ele>733.2</ele>
        <time>2014-05-01T07:37:57Z</time>
      </trkpt>
      <trkpt lat="45.6129" lon="4.60411">
        <ele>733.5</ele>
        <time>2014-05-01T07:37:59Z</time>
      </trkpt>
      <trkpt lat="45.61292" lon="4.60421">
        <ele>733.8</ele>
        <time>2014-05-01T07:38:01Z</time>
      </trkpt>
      <trkpt lat="45.61293" lon="4.60433">
        <ele>734</ele>
        <time>2014-05-01T07:38:03Z</time>
      </trkpt>
      <trkpt lat="45.61293" lon="4.60443">
        <ele>734.3</ele>
        <time>2014-05-01T07:38:05Z</time>
      </trkpt>
      <trkpt lat="45.61295" lon="4.60453">
        <ele>734.6</ele>
        <time>2014-05-01T07:38:07Z</time>
      </trkpt>
      <trkpt lat="45.61296" lon="4.60462">
        <ele>734.9</ele>
        <time>2014-05-01T07:38:09Z</time>
      </trkpt>
      <trkpt lat="45.61297" lon="4.60472">
        <ele>735.2</ele>
        <time>2014-05-01T07:38:11Z</time>
      </trkpt>
      <trkpt lat="45.61297" lon="4.60479">
        <ele>735.5</ele>
        <time>2014-05-01T07:38:13Z</time>
      </trkpt>
      <trkpt lat="45.61297" lon="4.60485">
        <ele>735.8</ele>
        <time>2014-05-01T07:38:15Z</time>
      </trkpt>
      <trkpt lat="45.61298" lon="4.60492">
        <ele>736.1</ele>
        <time>2014-05-01T07:38:17Z</time>
      </trkpt>
      <trkpt lat="45.61301" lon="4.60498">
        <ele>736.4</ele>
        <time>2014-05-01T07:38:19Z</time>
      </trkpt>
      <trkpt lat="45.61303" lon="4.60505">
        <ele>736.6</ele>
        <time>2014-05-01T07:38:21Z</time>
      </trkpt>
      <trkpt lat="45.61305" lon="4.60511">
        <ele>736.9</ele>
        <time>2014-05-01T07:38:23Z</time>
      </trkpt>
      <trkpt lat="45.61308" lon="4.60517">
        <ele>737.1</ele>
        <time>2014-05-01T07:38:25Z</time>
      </trkpt>
      <trkpt lat="45.61312" lon="4.60523">
        <ele>737.4</ele>
        <time>2014-05-01T07:38:27Z</time>
      </trkpt>
      <trkpt lat="45.61316" lon="4.60529">
        <ele>737.6</ele>
        <time>2014-05-01T07:38:29Z</time>
      </trkpt>
      <trkpt lat="45.61321" lon="4.60536">
        <ele>737.7</ele>
        <time>2014-05-01T07:38:31Z</time>
      </trkpt>
      <trkpt lat="45.61326" lon="4.60543">
        <ele>737.8</ele>
        <time>2014-05-01T07:38:33Z</time>
      </trkpt>
      <trkpt lat="45.61331" lon="4.60552">
        <ele>737.8</ele>
        <time>2014-05-01T07:38:35Z</time>
      </trkpt>
      <trkpt lat="45.61338" lon="4.60559">
        <ele>737.7</ele>
        <time>2014-05-01T07:38:37Z</time>
      </trkpt>
      <trkpt lat="45.61344" lon="4.60563">
        <ele>737.7</ele>
        <time>2014-05-01T07:38:39Z</time>
      </trkpt>
      <trkpt lat="45.61351" lon="4.60565">
        <ele>737.6</ele>
        <time>2014-05-01T07:38:41Z</time>
      </trkpt>
      <trkpt lat="45.61357" lon="4.60567">
        <ele>737.6</ele>
        <time>2014-05-01T07:38:43Z</time>
      </trkpt>
      <trkpt lat="45.61363" lon="4.60567">
        <ele>737.5</ele>
        <time>2014-05-01T07:38:45Z</time>
      </trkpt>
      <trkpt lat="45.61368" lon="4.60568">
        <ele>737.6</ele>
        <time>2014-05-01T07:38:47Z</time>
      </trkpt>
      <trkpt lat="45.61374" lon="4.60569">
        <ele>737.8</ele>
        <time>2014-05-01T07:38:49Z</time>
      </trkpt>
      <trkpt lat="45.61379" lon="4.60569">
        <ele>737.9</ele>
        <time>2014-05-01T07:38:51Z</time>
      </trkpt>
      <trkpt lat="45.61383" lon="4.6057">
        <ele>738.1</ele>
        <time>2014-05-01T07:38:53Z</time>
      </trkpt>
      <trkpt lat="45.61389" lon="4.60571">
        <ele>738.3</ele>
        <time>2014-05-01T07:38:55Z</time>
      </trkpt>
      <trkpt lat="45.61395" lon="4.60573">
        <ele>738.5</ele>
        <time>2014-05-01T07:38:57Z</time>
      </trkpt>
      <trkpt lat="45.61399" lon="4.60575">
        <ele>738.8</ele>
        <time>2014-05-01T07:38:59Z</time>
      </trkpt>
      <trkpt lat="45.61403" lon="4.60577">
        <ele>739</ele>
        <time>2014-05-01T07:39:01Z</time>
      </trkpt>
      <trkpt lat="45.61408" lon="4.60579">
        <ele>739.1</ele>
        <time>2014-05-01T07:39:03Z</time>
      </trkpt>
      <trkpt lat="45.61414" lon="4.60579">
        <ele>739.3</ele>
        <time>2014-05-01T07:39:05Z</time>
      </trkpt>
      <trkpt lat="45.6142" lon="4.60581">
        <ele>739.5</ele>
        <time>2014-05-01T07:39:07Z</time>
      </trkpt>
      <trkpt lat="45.61425" lon="4.60582">
        <ele>739.5</ele>
        <time>2014-05-01T07:39:09Z</time>
      </trkpt>
      <trkpt lat="45.6143" lon="4.60583">
        <ele>739.4</ele>
        <time>2014-05-01T07:39:11Z</time>
      </trkpt>
      <trkpt lat="45.61436" lon="4.6058">
        <ele>739.3</ele>
        <time>2014-05-01T07:39:13Z</time>
      </trkpt>
      <trkpt lat="45.61441" lon="4.60575">
        <ele>739.1</ele>
        <time>2014-05-01T07:39:15Z</time>
      </trkpt>
      <trkpt lat="45.61446" lon="4.6057">
        <ele>738.9</ele>
        <time>2014-05-01T07:39:17Z</time>
      </trkpt>
      <trkpt lat="45.61451" lon="4.60568">
        <ele>738.6</ele>
        <time>2014-05-01T07:39:19Z</time>
      </trkpt>
      <trkpt lat="45.61456" lon="4.60569">
        <ele>738.4</ele>
        <time>2014-05-01T07:39:21Z</time>
      </trkpt>
      <trkpt lat="45.61461" lon="4.60573">
        <ele>738.2</ele>
        <time>2014-05-01T07:39:23Z</time>
      </trkpt>
      <trkpt lat="45.61465" lon="4.60578">
        <ele>738.2</ele>
        <time>2014-05-01T07:39:25Z</time>
      </trkpt>
      <trkpt lat="45.6147" lon="4.60584">
        <ele>738.1</ele>
        <time>2014-05-01T07:39:27Z</time>
      </trkpt>
      <trkpt lat="45.61474" lon="4.60589">
        <ele>738.2</ele>
        <time>2014-05-01T07:39:29Z</time>
      </trkpt>
      <trkpt lat="45.61479" lon="4.60593">
        <ele>738.2</ele>
        <time>2014-05-01T07:39:31Z</time>
      </trkpt>
      <trkpt lat="45.61484" lon="4.60597">
        <ele>738.3</ele>
        <time>2014-05-01T07:39:33Z</time>
      </trkpt>
      <trkpt lat="45.6149" lon="4.606">
        <ele>738.4</ele>
        <time>2014-05-01T07:39:35Z</time>
      </trkpt>
      <trkpt lat="45.61496" lon="4.60606">
        <ele>738.6</ele>
        <time>2014-05-01T07:39:37Z</time>
      </trkpt>
      <trkpt lat="45.61504" lon="4.60611">
        <ele>738.8</ele>
        <time>2014-05-01T07:39:39Z</time>
      </trkpt>
      <trkpt lat="45.61512" lon="4.60616">
        <ele>739</ele>
        <time>2014-05-01T07:39:41Z</time>
      </trkpt>
      <trkpt lat="45.6152" lon="4.60623">
        <ele>739.1</ele>
        <time>2014-05-01T07:39:43Z</time>
      </trkpt>
      <trkpt lat="45.61528" lon="4.60629">
        <ele>738.9</ele>
        <time>2014-05-01T07:39:45Z</time>
      </trkpt>
      <trkpt lat="45.61536" lon="4.60637">
        <ele>738.6</ele>
        <time>2014-05-01T07:39:47Z</time>
      </trkpt>
      <trkpt lat="45.61544" lon="4.60646">
        <ele>738</ele>
        <time>2014-05-01T07:39:49Z</time>
      </trkpt>
      <trkpt lat="45.61552" lon="4.60656">
        <ele>737.2</ele>
        <time>2014-05-01T07:39:51Z</time>
      </trkpt>
      <trkpt lat="45.6156" lon="4.60668">
        <ele>736.5</ele>
        <time>2014-05-01T07:39:53Z</time>
      </trkpt>
      <trkpt lat="45.6157" lon="4.60679">
        <ele>735.7</ele>
        <time>2014-05-01T07:39:55Z</time>
      </trkpt>
      <trkpt lat="45.6158" lon="4.60692">
        <ele>734.9</ele>
        <time>2014-05-01T07:39:57Z</time>
      </trkpt>
      <trkpt lat="45.6159" lon="4.60704">
        <ele>734.2</ele>
        <time>2014-05-01T07:39:59Z</time>
      </trkpt>
      <trkpt lat="45.61597" lon="4.60714">
        <ele>733.9</ele>
        <time>2014-05-01T07:40:01Z</time>
      </trkpt>
      <trkpt lat="45.61603" lon="4.60725">
        <ele>733.6</ele>
        <time>2014-05-01T07:40:03Z</time>
      </trkpt>
      <trkpt lat="45.61609" lon="4.60739">
        <ele>733.4</ele>
        <time>2014-05-01T07:40:05Z</time>
      </trkpt>
      <trkpt lat="45.61615" lon="4.60756">
        <ele>731.5</ele>
        <time>2014-05-01T07:40:07Z</time>
      </trkpt>
      <trkpt lat="45.61619" lon="4.60772">
        <ele>729.2</ele>
        <time>2014-05-01T07:40:09Z</time>
      </trkpt>
      <trkpt lat="45.6162" lon="4.60783">
        <ele>728.2</ele>
        <time>2014-05-01T07:40:11Z</time>
      </trkpt>
      <trkpt lat="45.6162" lon="4.60792">
        <ele>726.3</ele>
        <time>2014-05-01T07:40:13Z</time>
      </trkpt>
      <trkpt lat="45.61616" lon="4.60801">
        <ele>724.6</ele>
        <time>2014-05-01T07:40:15Z</time>
      </trkpt>
      <trkpt lat="45.6161" lon="4.60812">
        <ele>721.9</ele>
        <time>2014-05-01T07:40:17Z</time>
      </trkpt>
      <trkpt lat="45.61605" lon="4.60823">
        <ele>720.1</ele>
        <time>2014-05-01T07:40:19Z</time>
      </trkpt>
      <trkpt lat="45.61603" lon="4.60834">
        <ele>718.1</ele>
        <time>2014-05-01T07:40:21Z</time>
      </trkpt>
      <trkpt lat="45.616" lon="4.60845">
        <ele>716.7</ele>
        <time>2014-05-01T07:40:23Z</time>
      </trkpt>
      <trkpt lat="45.61598" lon="4.60856">
        <ele>714.6</ele>
        <time>2014-05-01T07:40:25Z</time>
      </trkpt>
      <trkpt lat="45.61595" lon="4.60869">
        <ele>712.4</ele>
        <time>2014-05-01T07:40:27Z</time>
      </trkpt>
      <trkpt lat="45.61595" lon="4.60884">
        <ele>710.4</ele>
        <time>2014-05-01T07:40:29Z</time>
      </trkpt>
      <trkpt lat="45.61595" lon="4.60901">
        <ele>708.3</ele>
        <time>2014-05-01T07:40:31Z</time>
      </trkpt>
      <trkpt lat="45.61593" lon="4.6092">
        <ele>705.9</ele>
        <time>2014-05-01T07:40:33Z</time>
      </trkpt>
      <trkpt lat="45.61586" lon="4.60942">
        <ele>703.8</ele>
        <time>2014-05-01T07:40:35Z</time>
      </trkpt>
      <trkpt lat="45.61582" lon="4.60964">
        <ele>702.6</ele>
        <time>2014-05-01T07:40:37Z</time>
      </trkpt>
      <trkpt lat="45.6158" lon="4.60982">
        <ele>700.4</ele>
        <time>2014-05-01T07:40:39Z</time>
      </trkpt>
      <trkpt lat="45.61573" lon="4.60997">
        <ele>697.7</ele>
        <time>2014-05-01T07:40:41Z</time>
      </trkpt>
      <trkpt lat="45.61563" lon="4.61014">
        <ele>694.2</ele>
        <time>2014-05-01T07:40:43Z</time>
      </trkpt>
      <trkpt lat="45.61554" lon="4.61033">
        <ele>691.4</ele>
        <time>2014-05-01T07:40:45Z</time>
      </trkpt>
      <trkpt lat="45.61548" lon="4.61052">
        <ele>691.6</ele>
        <time>2014-05-01T07:40:47Z</time>
      </trkpt>
      <trkpt lat="45.61543" lon="4.61068">
        <ele>692.1</ele>
        <time>2014-05-01T07:40:49Z</time>
      </trkpt>
      <trkpt lat="45.61536" lon="4.61077">
        <ele>692.5</ele>
        <time>2014-05-01T07:40:51Z</time>
      </trkpt>
      <trkpt lat="45.61528" lon="4.61088">
        <ele>693.4</ele>
        <time>2014-05-01T07:40:53Z</time>
      </trkpt>
      <trkpt lat="45.61526" lon="4.61105">
        <ele>694.5</ele>
        <time>2014-05-01T07:40:55Z</time>
      </trkpt>
      <trkpt lat="45.61528" lon="4.61121">
        <ele>695.4</ele>
        <time>2014-05-01T07:40:57Z</time>
      </trkpt>
      <trkpt lat="45.61529" lon="4.61135">
        <ele>695.6</ele>
        <time>2014-05-01T07:40:59Z</time>
      </trkpt>
      <trkpt lat="45.61528" lon="4.61151">
        <ele>694.6</ele>
        <time>2014-05-01T07:41:01Z</time>
      </trkpt>
      <trkpt lat="45.61528" lon="4.61169">
        <ele>693.7</ele>
        <time>2014-05-01T07:41:03Z</time>
      </trkpt>
      <trkpt lat="45.61527" lon="4.61187">
        <ele>693.2</ele>
        <time>2014-05-01T07:41:05Z</time>
      </trkpt>
      <trkpt lat="45.61523" lon="4.61203">
        <ele>692.1</ele>
        <time>2014-05-01T07:41:07Z</time>
      </trkpt>
      <trkpt lat="45.61519" lon="4.61218">
        <ele>690.6</ele>
        <time>2014-05-01T07:41:09Z</time>
      </trkpt>
      <trkpt lat="45.61517" lon="4.61237">
        <ele>688.2</ele>
        <time>2014-05-01T07:41:11Z</time>
      </trkpt>
      <trkpt lat="45.61516" lon="4.61256">
        <ele>686.1</ele>
        <time>2014-05-01T07:41:13Z</time>
      </trkpt>
      <trkpt lat="45.61514" lon="4.61272">
        <ele>682.5</ele>
        <time>2014-05-01T07:41:15Z</time>
      </trkpt>
      <trkpt lat="45.61512" lon="4.61289">
        <ele>678.5</ele>
        <time>2014-05-01T07:41:17Z</time>
      </trkpt>
      <trkpt lat="45.61513" lon="4.61305">
        <ele>675.8</ele>
        <time>2014-05-01T07:41:19Z</time>
      </trkpt>
      <trkpt lat="45.61515" lon="4.61319">
        <ele>672</ele>
        <time>2014-05-01T07:41:21Z</time>
      </trkpt>
      <trkpt lat="45.61514" lon="4.61332">
        <ele>670</ele>
        <time>2014-05-01T07:41:23Z</time>
      </trkpt>
      <trkpt lat="45.61509" lon="4.61343">
        <ele>668.4</ele>
        <time>2014-05-01T07:41:25Z</time>
      </trkpt>
      <trkpt lat="45.61503" lon="4.6135">
        <ele>666.8</ele>
        <time>2014-05-01T07:41:27Z</time>
      </trkpt>
      <trkpt lat="45.615" lon="4.61359">
        <ele>666.2</ele>
        <time>2014-05-01T07:41:29Z</time>
      </trkpt>
      <trkpt lat="45.61498" lon="4.61367">
        <ele>665.2</ele>
        <time>2014-05-01T07:41:31Z</time>
      </trkpt>
      <trkpt lat="45.61497" lon="4.61373">
        <ele>664.8</ele>
        <time>2014-05-01T07:41:33Z</time>
      </trkpt>
      <trkpt lat="45.61491" lon="4.61395">
        <ele>660.4</ele>
        <time>2014-05-01T07:41:53Z</time>
      </trkpt>
      <trkpt lat="45.6149" lon="4.61402">
        <ele>658.5</ele>
        <time>2014-05-01T07:41:55Z</time>
      </trkpt>
      <trkpt lat="45.61488" lon="4.61407">
        <ele>657.9</ele>
        <time>2014-05-01T07:41:57Z</time>
      </trkpt>
      <trkpt lat="45.61486" lon="4.61412">
        <ele>656.7</ele>
        <time>2014-05-01T07:41:59Z</time>
      </trkpt>
      <trkpt lat="45.61483" lon="4.61417">
        <ele>655.7</ele>
        <time>2014-05-01T07:42:01Z</time>
      </trkpt>
      <trkpt lat="45.61483" lon="4.61422">
        <ele>654.7</ele>
        <time>2014-05-01T07:42:03Z</time>
      </trkpt>
      <trkpt lat="45.61484" lon="4.61426">
        <ele>655.3</ele>
        <time>2014-05-01T07:42:05Z</time>
      </trkpt>
      <trkpt lat="45.61486" lon="4.61426">
        <ele>655.6</ele>
        <time>2014-05-01T07:42:07Z</time>
      </trkpt>
      <trkpt lat="45.61487" lon="4.61425">
        <ele>655.9</ele>
        <time>2014-05-01T07:42:09Z</time>
      </trkpt>
      <trkpt lat="45.6149" lon="4.61424">
        <ele>656.2</ele>
        <time>2014-05-01T07:42:11Z</time>
      </trkpt>
      <trkpt lat="45.61492" lon="4.61423">
        <ele>656.4</ele>
        <time>2014-05-01T07:42:13Z</time>
      </trkpt>
      <trkpt lat="45.61494" lon="4.61423">
        <ele>656.6</ele>
        <time>2014-05-01T07:42:15Z</time>
      </trkpt>
      <trkpt lat="45.61498" lon="4.61423">
        <ele>656.9</ele>
        <time>2014-05-01T07:42:17Z</time>
      </trkpt>
      <trkpt lat="45.61501" lon="4.61422">
        <ele>657.2</ele>
        <time>2014-05-01T07:42:19Z</time>
      </trkpt>
      <trkpt lat="45.61505" lon="4.61421">
        <ele>658.4</ele>
        <time>2014-05-01T07:42:21Z</time>
      </trkpt>
      <trkpt lat="45.6151" lon="4.61418">
        <ele>659</ele>
        <time>2014-05-01T07:42:23Z</time>
      </trkpt>
      <trkpt lat="45.61515" lon="4.61413">
        <ele>660.8</ele>
        <time>2014-05-01T07:42:25Z</time>
      </trkpt>
      <trkpt lat="45.61519" lon="4.61409">
        <ele>662.5</ele>
        <time>2014-05-01T07:42:27Z</time>
      </trkpt>
      <trkpt lat="45.61522" lon="4.61404">
        <ele>663.5</ele>
        <time>2014-05-01T07:42:29Z</time>
      </trkpt>
      <trkpt lat="45.61524" lon="4.61401">
        <ele>663.8</ele>
        <time>2014-05-01T07:42:31Z</time>
      </trkpt>
      <trkpt lat="45.61527" lon="4.61396">
        <ele>664.3</ele>
        <time>2014-05-01T07:42:33Z</time>
      </trkpt>
      <trkpt lat="45.6153" lon="4.61392">
        <ele>665.1</ele>
        <time>2014-05-01T07:42:35Z</time>
      </trkpt>
      <trkpt lat="45.61533" lon="4.61387">
        <ele>665.8</ele>
        <time>2014-05-01T07:42:37Z</time>
      </trkpt>
      <trkpt lat="45.61536" lon="4.61382">
        <ele>666.5</ele>
        <time>2014-05-01T07:42:39Z</time>
      </trkpt>
      <trkpt lat="45.61538" lon="4.61378">
        <ele>666.9</ele>
        <time>2014-05-01T07:42:41Z</time>
      </trkpt>
      <trkpt lat="45.61541" lon="4.61373">
        <ele>667.4</ele>
        <time>2014-05-01T07:42:43Z</time>
      </trkpt>
      <trkpt lat="45.61543" lon="4.61368">
        <ele>667.5</ele>
        <time>2014-05-01T07:42:45Z</time>
      </trkpt>
      <trkpt lat="45.61544" lon="4.61364">
        <ele>667.6</ele>
        <time>2014-05-01T07:42:47Z</time>
      </trkpt>
      <trkpt lat="45.61546" lon="4.6136">
        <ele>668.1</ele>
        <time>2014-05-01T07:42:49Z</time>
      </trkpt>
      <trkpt lat="45.61548" lon="4.61355">
        <ele>668.6</ele>
        <time>2014-05-01T07:42:51Z</time>
      </trkpt>
      <trkpt lat="45.61549" lon="4.6135">
        <ele>669.1</ele>
        <time>2014-05-01T07:42:53Z</time>
      </trkpt>
      <trkpt lat="45.61551" lon="4.61345">
        <ele>669.7</ele>
        <time>2014-05-01T07:42:55Z</time>
      </trkpt>
      <trkpt lat="45.61553" lon="4.6134">
        <ele>670.9</ele>
        <time>2014-05-01T07:42:57Z</time>
      </trkpt>
      <trkpt lat="45.61556" lon="4.61335">
        <ele>672.2</ele>
        <time>2014-05-01T07:42:59Z</time>
      </trkpt>
      <trkpt lat="45.61558" lon="4.6133">
        <ele>672.8</ele>
        <time>2014-05-01T07:43:01Z</time>
      </trkpt>
      <trkpt lat="45.6156" lon="4.61325">
        <ele>673.2</ele>
        <time>2014-05-01T07:43:03Z</time>
      </trkpt>
      <trkpt lat="45.61562" lon="4.6132">
        <ele>673.8</ele>
        <time>2014-05-01T07:43:05Z</time>
      </trkpt>
      <trkpt lat="45.61564" lon="4.61314">
        <ele>674.5</ele>
        <time>2014-05-01T07:43:07Z</time>
      </trkpt>
      <trkpt lat="45.61566" lon="4.61309">
        <ele>674.8</ele>
        <time>2014-05-01T07:43:09Z</time>
      </trkpt>
      <trkpt lat="45.61569" lon="4.61304">
        <ele>674.9</ele>
        <time>2014-05-01T07:43:11Z</time>
      </trkpt>
      <trkpt lat="45.6157" lon="4.61298">
        <ele>675.2</ele>
        <time>2014-05-01T07:43:13Z</time>
      </trkpt>
      <trkpt lat="45.61573" lon="4.61293">
        <ele>675.5</ele>
        <time>2014-05-01T07:43:15Z</time>
      </trkpt>
      <trkpt lat="45.61575" lon="4.61287">
        <ele>675.5</ele>
        <time>2014-05-01T07:43:17Z</time>
      </trkpt>
      <trkpt lat="45.61576" lon="4.61282">
        <ele>675.5</ele>
        <time>2014-05-01T07:43:19Z</time>
      </trkpt>
      <trkpt lat="45.61577" lon="4.61277">
        <ele>675.6</ele>
        <time>2014-05-01T07:43:21Z</time>
      </trkpt>
      <trkpt lat="45.61578" lon="4.61272">
        <ele>675.8</ele>
        <time>2014-05-01T07:43:23Z</time>
      </trkpt>
      <trkpt lat="45.6158" lon="4.61266">
        <ele>676</ele>
        <time>2014-05-01T07:43:25Z</time>
      </trkpt>
      <trkpt lat="45.61582" lon="4.61261">
        <ele>676.2</ele>
        <time>2014-05-01T07:43:27Z</time>
      </trkpt>
      <trkpt lat="45.61585" lon="4.61255">
        <ele>676.7</ele>
        <time>2014-05-01T07:43:29Z</time>
      </trkpt>
      <trkpt lat="45.61587" lon="4.61249">
        <ele>677.2</ele>
        <time>2014-05-01T07:43:31Z</time>
      </trkpt>
      <trkpt lat="45.61589" lon="4.61243">
        <ele>677.5</ele>
        <time>2014-05-01T07:43:33Z</time>
      </trkpt>
      <trkpt lat="45.61592" lon="4.61237">
        <ele>677.9</ele>
        <time>2014-05-01T07:43:35Z</time>
      </trkpt>
      <trkpt lat="45.61595" lon="4.6123">
        <ele>678.6</ele>
        <time>2014-05-01T07:43:37Z</time>
      </trkpt>
      <trkpt lat="45.61597" lon="4.61223">
        <ele>678.4</ele>
        <time>2014-05-01T07:43:39Z</time>
      </trkpt>
      <trkpt lat="45.616" lon="4.61216">
        <ele>678</ele>
        <time>2014-05-01T07:43:41Z</time>
      </trkpt>
      <trkpt lat="45.61602" lon="4.61209">
        <ele>678.4</ele>
        <time>2014-05-01T07:43:43Z</time>
      </trkpt>
      <trkpt lat="45.61605" lon="4.61202">
        <ele>678.8</ele>
        <time>2014-05-01T07:43:45Z</time>
      </trkpt>
      <trkpt lat="45.61608" lon="4.61196">
        <ele>679.2</ele>
        <time>2014-05-01T07:43:47Z</time>
      </trkpt>
      <trkpt lat="45.6161" lon="4.61189">
        <ele>679.5</ele>
        <time>2014-05-01T07:43:49Z</time>
      </trkpt>
      <trkpt lat="45.61612" lon="4.61182">
        <ele>679.8</ele>
        <time>2014-05-01T07:43:51Z</time>
      </trkpt>
      <trkpt lat="45.61614" lon="4.61175">
        <ele>680.4</ele>
        <time>2014-05-01T07:43:53Z</time>
      </trkpt>
      <trkpt lat="45.61615" lon="4.61171">
        <ele>680.8</ele>
        <time>2014-05-01T07:43:55Z</time>
      </trkpt>
      <trkpt lat="45.61617" lon="4.61166">
        <ele>680.6</ele>
        <time>2014-05-01T07:43:57Z</time>
      </trkpt>
      <trkpt lat="45.61619" lon="4.61161">
        <ele>680.3</ele>
        <time>2014-05-01T07:43:59Z</time>
      </trkpt>
      <trkpt lat="45.6162" lon="4.61157">
        <ele>680.3</ele>
        <time>2014-05-01T07:44:01Z</time>
      </trkpt>
      <trkpt lat="45.61622" lon="4.6115">
        <ele>681.2</ele>
        <time>2014-05-01T07:44:03Z</time>
      </trkpt>
      <trkpt lat="45.61625" lon="4.61143">
        <ele>681</ele>
        <time>2014-05-01T07:44:05Z</time>
      </trkpt>
      <trkpt lat="45.61627" lon="4.61136">
        <ele>681.3</ele>
        <time>2014-05-01T07:44:07Z</time>
      </trkpt>
      <trkpt lat="45.61629" lon="4.61129">
        <ele>681.2</ele>
        <time>2014-05-01T07:44:09Z</time>
      </trkpt>
      <trkpt lat="45.61632" lon="4.61123">
        <ele>680.4</ele>
        <time>2014-05-01T07:44:11Z</time>
      </trkpt>
      <trkpt lat="45.61634" lon="4.61117">
        <ele>680.4</ele>
        <time>2014-05-01T07:44:13Z</time>
      </trkpt>
      <trkpt lat="45.61636" lon="4.61111">
        <ele>680.5</ele>
        <time>2014-05-01T07:44:15Z</time>
      </trkpt>
      <trkpt lat="45.61638" lon="4.61106">
        <ele>680.3</ele>
        <time>2014-05-01T07:44:17Z</time>
      </trkpt>
      <trkpt lat="45.61639" lon="4.61102">
        <ele>680</ele>
        <time>2014-05-01T07:44:19Z</time>
      </trkpt>
      <trkpt lat="45.61641" lon="4.61098">
        <ele>680</ele>
        <time>2014-05-01T07:44:21Z</time>
      </trkpt>
      <trkpt lat="45.61642" lon="4.61094">
        <ele>680.2</ele>
        <time>2014-05-01T07:44:23Z</time>
      </trkpt>
      <trkpt lat="45.61643" lon="4.6109">
        <ele>680.4</ele>
        <time>2014-05-01T07:44:25Z</time>
      </trkpt>
      <trkpt lat="45.61644" lon="4.61086">
        <ele>680.7</ele>
        <time>2014-05-01T07:44:27Z</time>
      </trkpt>
      <trkpt lat="45.61645" lon="4.61081">
        <ele>680.9</ele>
        <time>2014-05-01T07:44:29Z</time>
      </trkpt>
      <trkpt lat="45.61647" lon="4.61078">
        <ele>681.1</ele>
        <time>2014-05-01T07:44:31Z</time>
      </trkpt>
      <trkpt lat="45.61648" lon="4.61075">
        <ele>681.2</ele>
        <time>2014-05-01T07:44:33Z</time>
      </trkpt>
      <trkpt lat="45.61649" lon="4.61072">
        <ele>681.2</ele>
        <time>2014-05-01T07:44:35Z</time>
      </trkpt>
      <trkpt lat="45.61651" lon="4.61069">
        <ele>681.1</ele>
        <time>2014-05-01T07:44:37Z</time>
      </trkpt>
      <trkpt lat="45.61652" lon="4.61066">
        <ele>681.2</ele>
        <time>2014-05-01T07:44:39Z</time>
      </trkpt>
      <trkpt lat="45.61655" lon="4.61063">
        <ele>681.4</ele>
        <time>2014-05-01T07:44:41Z</time>
      </trkpt>
      <trkpt lat="45.61658" lon="4.61059">
        <ele>681.6</ele>
        <time>2014-05-01T07:44:43Z</time>
      </trkpt>
      <trkpt lat="45.6166" lon="4.61055">
        <ele>682.1</ele>
        <time>2014-05-01T07:44:45Z</time>
      </trkpt>
      <trkpt lat="45.61663" lon="4.61051">
        <ele>682.7</ele>
        <time>2014-05-01T07:44:47Z</time>
      </trkpt>
      <trkpt lat="45.61666" lon="4.61047">
        <ele>682.9</ele>
        <time>2014-05-01T07:44:49Z</time>
      </trkpt>
      <trkpt lat="45.61669" lon="4.61044">
        <ele>683</ele>
        <time>2014-05-01T07:44:51Z</time>
      </trkpt>
      <trkpt lat="45.61672" lon="4.61041">
        <ele>682.8</ele>
        <time>2014-05-01T07:44:53Z</time>
      </trkpt>
      <trkpt lat="45.61675" lon="4.61038">
        <ele>682.4</ele>
        <time>2014-05-01T07:44:55Z</time>
      </trkpt>
      <trkpt lat="45.61678" lon="4.61034">
        <ele>682.3</ele>
        <time>2014-05-01T07:44:57Z</time>
      </trkpt>
      <trkpt lat="45.6168" lon="4.61031">
        <ele>682.8</ele>
        <time>2014-05-01T07:44:59Z</time>
      </trkpt>
      <trkpt lat="45.61683" lon="4.61027">
        <ele>683.4</ele>
        <time>2014-05-01T07:45:01Z</time>
      </trkpt>
      <trkpt lat="45.61686" lon="4.61024">
        <ele>683.4</ele>
        <time>2014-05-01T07:45:03Z</time>
      </trkpt>
      <trkpt lat="45.61688" lon="4.6102">
        <ele>683.4</ele>
        <time>2014-05-01T07:45:05Z</time>
      </trkpt>
      <trkpt lat="45.61691" lon="4.61016">
        <ele>683.9</ele>
        <time>2014-05-01T07:45:07Z</time>
      </trkpt>
      <trkpt lat="45.61694" lon="4.61013">
        <ele>684.6</ele>
        <time>2014-05-01T07:45:09Z</time>
      </trkpt>
      <trkpt lat="45.61697" lon="4.6101">
        <ele>685.2</ele>
        <time>2014-05-01T07:45:11Z</time>
      </trkpt>
      <trkpt lat="45.61699" lon="4.61006">
        <ele>685.5</ele>
        <time>2014-05-01T07:45:13Z</time>
      </trkpt>
      <trkpt lat="45.61702" lon="4.61003">
        <ele>685.8</ele>
        <time>2014-05-01T07:45:15Z</time>
      </trkpt>
      <trkpt lat="45.61704" lon="4.61001">
        <ele>685.6</ele>
        <time>2014-05-01T07:45:17Z</time>
      </trkpt>
      <trkpt lat="45.61707" lon="4.60998">
        <ele>685.2</ele>
        <time>2014-05-01T07:45:19Z</time>
      </trkpt>
      <trkpt lat="45.61709" lon="4.60995">
        <ele>685</ele>
        <time>2014-05-01T07:45:21Z</time>
      </trkpt>
      <trkpt lat="45.61712" lon="4.60992">
        <ele>685.7</ele>
        <time>2014-05-01T07:45:23Z</time>
      </trkpt>
      <trkpt lat="45.61716" lon="4.60988">
        <ele>686.5</ele>
        <time>2014-05-01T07:45:25Z</time>
      </trkpt>
      <trkpt lat="45.61719" lon="4.60983">
        <ele>687.5</ele>
        <time>2014-05-01T07:45:27Z</time>
      </trkpt>
      <trkpt lat="45.61723" lon="4.6098">
        <ele>687.7</ele>
        <time>2014-05-01T07:45:29Z</time>
      </trkpt>
      <trkpt lat="45.61726" lon="4.60978">
        <ele>689.2</ele>
        <time>2014-05-01T07:45:31Z</time>
      </trkpt>
      <trkpt lat="45.61728" lon="4.60977">
        <ele>689.5</ele>
        <time>2014-05-01T07:45:33Z</time>
      </trkpt>
      <trkpt lat="45.61731" lon="4.60976">
        <ele>689.8</ele>
        <time>2014-05-01T07:45:35Z</time>
      </trkpt>
      <trkpt lat="45.61734" lon="4.60975">
        <ele>691.4</ele>
        <time>2014-05-01T07:45:37Z</time>
      </trkpt>
      <trkpt lat="45.61737" lon="4.60974">
        <ele>691.8</ele>
        <time>2014-05-01T07:45:39Z</time>
      </trkpt>
      <trkpt lat="45.6174" lon="4.60973">
        <ele>692.2</ele>
        <time>2014-05-01T07:45:41Z</time>
      </trkpt>
      <trkpt lat="45.61742" lon="4.60972">
        <ele>692.6</ele>
        <time>2014-05-01T07:45:43Z</time>
      </trkpt>
      <trkpt lat="45.61746" lon="4.60971">
        <ele>693.1</ele>
        <time>2014-05-01T07:45:45Z</time>
      </trkpt>
      <trkpt lat="45.61749" lon="4.6097">
        <ele>694.7</ele>
        <time>2014-05-01T07:45:47Z</time>
      </trkpt>
      <trkpt lat="45.61753" lon="4.6097">
        <ele>695.2</ele>
        <time>2014-05-01T07:45:49Z</time>
      </trkpt>
      <trkpt lat="45.61756" lon="4.60969">
        <ele>695.5</ele>
        <time>2014-05-01T07:45:51Z</time>
      </trkpt>
      <trkpt lat="45.6176" lon="4.60968">
        <ele>695.9</ele>
        <time>2014-05-01T07:45:53Z</time>
      </trkpt>
      <trkpt lat="45.61763" lon="4.60967">
        <ele>696.2</ele>
        <time>2014-05-01T07:45:55Z</time>
      </trkpt>
      <trkpt lat="45.61767" lon="4.60967">
        <ele>697.5</ele>
        <time>2014-05-01T07:45:57Z</time>
      </trkpt>
      <trkpt lat="45.61773" lon="4.60966">
        <ele>697.7</ele>
        <time>2014-05-01T07:45:59Z</time>
      </trkpt>
      <trkpt lat="45.61779" lon="4.60966">
        <ele>697.9</ele>
        <time>2014-05-01T07:46:01Z</time>
      </trkpt>
      <trkpt lat="45.61785" lon="4.60965">
        <ele>698.2</ele>
        <time>2014-05-01T07:46:03Z</time>
      </trkpt>
      <trkpt lat="45.61791" lon="4.60964">
        <ele>698.4</ele>
        <time>2014-05-01T07:46:05Z</time>
      </trkpt>
      <trkpt lat="45.61798" lon="4.60963">
        <ele>698.4</ele>
        <time>2014-05-01T07:46:07Z</time>
      </trkpt>
      <trkpt lat="45.61806" lon="4.60962">
        <ele>700.2</ele>
        <time>2014-05-01T07:46:09Z</time>
      </trkpt>
      <trkpt lat="45.61814" lon="4.60962">
        <ele>700.3</ele>
        <time>2014-05-01T07:46:11Z</time>
      </trkpt>
      <trkpt lat="45.61822" lon="4.60961">
        <ele>699.7</ele>
        <time>2014-05-01T07:46:13Z</time>
      </trkpt>
      <trkpt lat="45.61831" lon="4.60959">
        <ele>698.9</ele>
        <time>2014-05-01T07:46:15Z</time>
      </trkpt>
      <trkpt lat="45.61839" lon="4.60959">
        <ele>698.4</ele>
        <time>2014-05-01T07:46:17Z</time>
      </trkpt>
      <trkpt lat="45.61847" lon="4.60954">
        <ele>699</ele>
        <time>2014-05-01T07:46:19Z</time>
      </trkpt>
      <trkpt lat="45.61854" lon="4.60949">
        <ele>701.8</ele>
        <time>2014-05-01T07:46:21Z</time>
      </trkpt>
      <trkpt lat="45.61859" lon="4.60946">
        <ele>700.8</ele>
        <time>2014-05-01T07:46:23Z</time>
      </trkpt>
      <trkpt lat="45.61863" lon="4.60943">
        <ele>702</ele>
        <time>2014-05-01T07:46:25Z</time>
      </trkpt>
      <trkpt lat="45.61867" lon="4.6094">
        <ele>702.6</ele>
        <time>2014-05-01T07:46:27Z</time>
      </trkpt>
      <trkpt lat="45.6187" lon="4.60938">
        <ele>701.5</ele>
        <time>2014-05-01T07:46:29Z</time>
      </trkpt>
      <trkpt lat="45.61874" lon="4.60936">
        <ele>700.2</ele>
        <time>2014-05-01T07:46:31Z</time>
      </trkpt>
      <trkpt lat="45.61877" lon="4.60934">
        <ele>698.9</ele>
        <time>2014-05-01T07:46:33Z</time>
      </trkpt>
      <trkpt lat="45.6188" lon="4.60932">
        <ele>697.8</ele>
        <time>2014-05-01T07:46:35Z</time>
      </trkpt>
      <trkpt lat="45.61883" lon="4.6093">
        <ele>696.8</ele>
        <time>2014-05-01T07:46:37Z</time>
      </trkpt>
      <trkpt lat="45.61886" lon="4.60928">
        <ele>695.9</ele>
        <time>2014-05-01T07:46:39Z</time>
      </trkpt>
      <trkpt lat="45.61889" lon="4.60926">
        <ele>694.9</ele>
        <time>2014-05-01T07:46:41Z</time>
      </trkpt>
      <trkpt lat="45.61892" lon="4.60925">
        <ele>694.1</ele>
        <time>2014-05-01T07:46:43Z</time>
      </trkpt>
      <trkpt lat="45.61895" lon="4.60923">
        <ele>693.3</ele>
        <time>2014-05-01T07:46:45Z</time>
      </trkpt>
      <trkpt lat="45.619" lon="4.60922">
        <ele>692.6</ele>
        <time>2014-05-01T07:46:49Z</time>
      </trkpt>
      <trkpt lat="45.61903" lon="4.60922">
        <ele>692.2</ele>
        <time>2014-05-01T07:46:51Z</time>
      </trkpt>
      <trkpt lat="45.61905" lon="4.60922">
        <ele>691.8</ele>
        <time>2014-05-01T07:46:53Z</time>
      </trkpt>
      <trkpt lat="45.61908" lon="4.60922">
        <ele>692.5</ele>
        <time>2014-05-01T07:46:55Z</time>
      </trkpt>
      <trkpt lat="45.61911" lon="4.60923">
        <ele>693.2</ele>
        <time>2014-05-01T07:46:57Z</time>
      </trkpt>
      <trkpt lat="45.61914" lon="4.60923">
        <ele>694</ele>
        <time>2014-05-01T07:46:59Z</time>
      </trkpt>
      <trkpt lat="45.61918" lon="4.60923">
        <ele>694.7</ele>
        <time>2014-05-01T07:47:01Z</time>
      </trkpt>
      <trkpt lat="45.61921" lon="4.60923">
        <ele>695.4</ele>
        <time>2014-05-01T07:47:03Z</time>
      </trkpt>
      <trkpt lat="45.61923" lon="4.60922">
        <ele>696</ele>
        <time>2014-05-01T07:47:05Z</time>
      </trkpt>
      <trkpt lat="45.61926" lon="4.60921">
        <ele>696.6</ele>
        <time>2014-05-01T07:47:07Z</time>
      </trkpt>
      <trkpt lat="45.61929" lon="4.60921">
        <ele>697.2</ele>
        <time>2014-05-01T07:47:09Z</time>
      </trkpt>
      <trkpt lat="45.61931" lon="4.60921">
        <ele>697.7</ele>
        <time>2014-05-01T07:47:11Z</time>
      </trkpt>
      <trkpt lat="45.61934" lon="4.60921">
        <ele>698.2</ele>
        <time>2014-05-01T07:47:13Z</time>
      </trkpt>
      <trkpt lat="45.61936" lon="4.60921">
        <ele>698.7</ele>
        <time>2014-05-01T07:47:15Z</time>
      </trkpt>
      <trkpt lat="45.61938" lon="4.60921">
        <ele>699.2</ele>
        <time>2014-05-01T07:47:17Z</time>
      </trkpt>
      <trkpt lat="45.61941" lon="4.6092">
        <ele>699.7</ele>
        <time>2014-05-01T07:47:19Z</time>
      </trkpt>
      <trkpt lat="45.61944" lon="4.6092">
        <ele>700.3</ele>
        <time>2014-05-01T07:47:21Z</time>
      </trkpt>
      <trkpt lat="45.61948" lon="4.60918">
        <ele>702.4</ele>
        <time>2014-05-01T07:47:25Z</time>
      </trkpt>
      <trkpt lat="45.61951" lon="4.60916">
        <ele>702</ele>
        <time>2014-05-01T07:47:27Z</time>
      </trkpt>
      <trkpt lat="45.61953" lon="4.60915">
        <ele>701.7</ele>
        <time>2014-05-01T07:47:29Z</time>
      </trkpt>
      <trkpt lat="45.61957" lon="4.60912">
        <ele>701.3</ele>
        <time>2014-05-01T07:47:31Z</time>
      </trkpt>
      <trkpt lat="45.61961" lon="4.6091">
        <ele>700.9</ele>
        <time>2014-05-01T07:47:33Z</time>
      </trkpt>
      <trkpt lat="45.61964" lon="4.60907">
        <ele>700.6</ele>
        <time>2014-05-01T07:47:35Z</time>
      </trkpt>
      <trkpt lat="45.61967" lon="4.60904">
        <ele>700.3</ele>
        <time>2014-05-01T07:47:37Z</time>
      </trkpt>
      <trkpt lat="45.61971" lon="4.60903">
        <ele>700.2</ele>
        <time>2014-05-01T07:47:39Z</time>
      </trkpt>
      <trkpt lat="45.61974" lon="4.609">
        <ele>700.1</ele>
        <time>2014-05-01T07:47:41Z</time>
      </trkpt>
      <trkpt lat="45.61978" lon="4.60898">
        <ele>700.2</ele>
        <time>2014-05-01T07:47:43Z</time>
      </trkpt>
      <trkpt lat="45.61982" lon="4.60896">
        <ele>700.2</ele>
        <time>2014-05-01T07:47:45Z</time>
      </trkpt>
      <trkpt lat="45.61986" lon="4.60894">
        <ele>700.2</ele>
        <time>2014-05-01T07:47:47Z</time>
      </trkpt>
      <trkpt lat="45.6199" lon="4.60891">
        <ele>700.2</ele>
        <time>2014-05-01T07:47:49Z</time>
      </trkpt>
      <trkpt lat="45.61994" lon="4.60889">
        <ele>700.3</ele>
        <time>2014-05-01T07:47:51Z</time>
      </trkpt>
      <trkpt lat="45.61998" lon="4.60888">
        <ele>700.4</ele>
        <time>2014-05-01T07:47:53Z</time>
      </trkpt>
      <trkpt lat="45.62003" lon="4.60888">
        <ele>700.6</ele>
        <time>2014-05-01T07:47:55Z</time>
      </trkpt>
      <trkpt lat="45.62006" lon="4.60887">
        <ele>700.7</ele>
        <time>2014-05-01T07:47:57Z</time>
      </trkpt>
      <trkpt lat="45.62009" lon="4.60886">
        <ele>700.8</ele>
        <time>2014-05-01T07:47:59Z</time>
      </trkpt>
      <trkpt lat="45.62013" lon="4.60885">
        <ele>700.9</ele>
        <time>2014-05-01T07:48:01Z</time>
      </trkpt>
      <trkpt lat="45.62019" lon="4.60883">
        <ele>701.1</ele>
        <time>2014-05-01T07:48:05Z</time>
      </trkpt>
      <trkpt lat="45.62022" lon="4.60883">
        <ele>701.2</ele>
        <time>2014-05-01T07:48:07Z</time>
      </trkpt>
      <trkpt lat="45.62026" lon="4.60883">
        <ele>701.3</ele>
        <time>2014-05-01T07:48:09Z</time>
      </trkpt>
      <trkpt lat="45.62028" lon="4.60885">
        <ele>701.4</ele>
        <time>2014-05-01T07:48:11Z</time>
      </trkpt>
      <trkpt lat="45.62031" lon="4.60888">
        <ele>701.6</ele>
        <time>2014-05-01T07:48:13Z</time>
      </trkpt>
      <trkpt lat="45.62034" lon="4.6089">
        <ele>701.7</ele>
        <time>2014-05-01T07:48:15Z</time>
      </trkpt>
      <trkpt lat="45.62037" lon="4.60894">
        <ele>701.7</ele>
        <time>2014-05-01T07:48:17Z</time>
      </trkpt>
      <trkpt lat="45.62039" lon="4.60897">
        <ele>701.8</ele>
        <time>2014-05-01T07:48:19Z</time>
      </trkpt>
      <trkpt lat="45.62041" lon="4.609">
        <ele>701.6</ele>
        <time>2014-05-01T07:48:21Z</time>
      </trkpt>
      <trkpt lat="45.62042" lon="4.60905">
        <ele>701.2</ele>
        <time>2014-05-01T07:48:23Z</time>
      </trkpt>
      <trkpt lat="45.62041" lon="4.60911">
        <ele>700.7</ele>
        <time>2014-05-01T07:48:25Z</time>
      </trkpt>
      <trkpt lat="45.62039" lon="4.60917">
        <ele>700</ele>
        <time>2014-05-01T07:48:27Z</time>
      </trkpt>
      <trkpt lat="45.62035" lon="4.60928">
        <ele>698.9</ele>
        <time>2014-05-01T07:48:29Z</time>
      </trkpt>
      <trkpt lat="45.6203" lon="4.60942">
        <ele>697.7</ele>
        <time>2014-05-01T07:48:31Z</time>
      </trkpt>
      <trkpt lat="45.62027" lon="4.60957">
        <ele>696.5</ele>
        <time>2014-05-01T07:48:33Z</time>
      </trkpt>
      <trkpt lat="45.62022" lon="4.60971">
        <ele>695.5</ele>
        <time>2014-05-01T07:48:35Z</time>
      </trkpt>
      <trkpt lat="45.62019" lon="4.60984">
        <ele>695.1</ele>
        <time>2014-05-01T07:48:37Z</time>
      </trkpt>
      <trkpt lat="45.62018" lon="4.60997">
        <ele>694.8</ele>
        <time>2014-05-01T07:48:39Z</time>
      </trkpt>
      <trkpt lat="45.62016" lon="4.61009">
        <ele>694.6</ele>
        <time>2014-05-01T07:48:41Z</time>
      </trkpt>
      <trkpt lat="45.62014" lon="4.61019">
        <ele>694.4</ele>
        <time>2014-05-01T07:48:43Z</time>
      </trkpt>
      <trkpt lat="45.62013" lon="4.61027">
        <ele>694.1</ele>
        <time>2014-05-01T07:48:45Z</time>
      </trkpt>
      <trkpt lat="45.62013" lon="4.61034">
        <ele>693.7</ele>
        <time>2014-05-01T07:48:47Z</time>
      </trkpt>
      <trkpt lat="45.62011" lon="4.61041">
        <ele>693.2</ele>
        <time>2014-05-01T07:48:49Z</time>
      </trkpt>
      <trkpt lat="45.62009" lon="4.61048">
        <ele>692.7</ele>
        <time>2014-05-01T07:48:51Z</time>
      </trkpt>
      <trkpt lat="45.62008" lon="4.61056">
        <ele>692</ele>
        <time>2014-05-01T07:48:53Z</time>
      </trkpt>
      <trkpt lat="45.62007" lon="4.61064">
        <ele>691.4</ele>
        <time>2014-05-01T07:48:55Z</time>
      </trkpt>
      <trkpt lat="45.62005" lon="4.61071">
        <ele>690.6</ele>
        <time>2014-05-01T07:48:57Z</time>
      </trkpt>
      <trkpt lat="45.62003" lon="4.61078">
        <ele>689.6</ele>
        <time>2014-05-01T07:48:59Z</time>
      </trkpt>
      <trkpt lat="45.62001" lon="4.61085">
        <ele>688.3</ele>
        <time>2014-05-01T07:49:01Z</time>
      </trkpt>
      <trkpt lat="45.62001" lon="4.61093">
        <ele>687.1</ele>
        <time>2014-05-01T07:49:03Z</time>
      </trkpt>
      <trkpt lat="45.62001" lon="4.61103">
        <ele>685.5</ele>
        <time>2014-05-01T07:49:05Z</time>
      </trkpt>
      <trkpt lat="45.62" lon="4.61111">
        <ele>683.6</ele>
        <time>2014-05-01T07:49:07Z</time>
      </trkpt>
      <trkpt lat="45.62001" lon="4.61122">
        <ele>681.4</ele>
        <time>2014-05-01T07:49:09Z</time>
      </trkpt>
      <trkpt lat="45.62003" lon="4.61132">
        <ele>680.1</ele>
        <time>2014-05-01T07:49:11Z</time>
      </trkpt>
      <trkpt lat="45.62006" lon="4.61141">
        <ele>679</ele>
        <time>2014-05-01T07:49:13Z</time>
      </trkpt>
      <trkpt lat="45.62009" lon="4.6115">
        <ele>677.6</ele>
        <time>2014-05-01T07:49:15Z</time>
      </trkpt>
      <trkpt lat="45.62011" lon="4.61158">
        <ele>676.5</ele>
        <time>2014-05-01T07:49:17Z</time>
      </trkpt>
      <trkpt lat="45.62014" lon="4.61165">
        <ele>675.8</ele>
        <time>2014-05-01T07:49:19Z</time>
      </trkpt>
      <trkpt lat="45.62017" lon="4.61172">
        <ele>675.1</ele>
        <time>2014-05-01T07:49:21Z</time>
      </trkpt>
      <trkpt lat="45.62019" lon="4.6118">
        <ele>674.5</ele>
        <time>2014-05-01T07:49:23Z</time>
      </trkpt>
      <trkpt lat="45.62022" lon="4.61188">
        <ele>674</ele>
        <time>2014-05-01T07:49:25Z</time>
      </trkpt>
      <trkpt lat="45.62024" lon="4.61194">
        <ele>673.4</ele>
        <time>2014-05-01T07:49:27Z</time>
      </trkpt>
      <trkpt lat="45.62027" lon="4.61202">
        <ele>672.9</ele>
        <time>2014-05-01T07:49:29Z</time>
      </trkpt>
      <trkpt lat="45.62031" lon="4.61207">
        <ele>672.3</ele>
        <time>2014-05-01T07:49:31Z</time>
      </trkpt>
      <trkpt lat="45.62037" lon="4.61211">
        <ele>671.4</ele>
        <time>2014-05-01T07:49:33Z</time>
      </trkpt>
      <trkpt lat="45.62041" lon="4.61219">
        <ele>670.4</ele>
        <time>2014-05-01T07:49:35Z</time>
      </trkpt>
      <trkpt lat="45.62045" lon="4.61226">
        <ele>669.1</ele>
        <time>2014-05-01T07:49:37Z</time>
      </trkpt>
      <trkpt lat="45.6205" lon="4.61231">
        <ele>668.1</ele>
        <time>2014-05-01T07:49:39Z</time>
      </trkpt>
      <trkpt lat="45.62054" lon="4.61235">
        <ele>667.3</ele>
        <time>2014-05-01T07:49:41Z</time>
      </trkpt>
      <trkpt lat="45.6206" lon="4.6124">
        <ele>666.2</ele>
        <time>2014-05-01T07:49:43Z</time>
      </trkpt>
      <trkpt lat="45.62066" lon="4.61245">
        <ele>664.7</ele>
        <time>2014-05-01T07:49:45Z</time>
      </trkpt>
      <trkpt lat="45.62071" lon="4.61252">
        <ele>663.5</ele>
        <time>2014-05-01T07:49:47Z</time>
      </trkpt>
      <trkpt lat="45.62077" lon="4.61257">
        <ele>662.5</ele>
        <time>2014-05-01T07:49:49Z</time>
      </trkpt>
      <trkpt lat="45.62085" lon="4.61262">
        <ele>661.4</ele>
        <time>2014-05-01T07:49:51Z</time>
      </trkpt>
      <trkpt lat="45.62093" lon="4.61271">
        <ele>660.5</ele>
        <time>2014-05-01T07:49:53Z</time>
      </trkpt>
      <trkpt lat="45.62101" lon="4.61279">
        <ele>659.6</ele>
        <time>2014-05-01T07:49:55Z</time>
      </trkpt>
      <trkpt lat="45.62109" lon="4.61289">
        <ele>658.8</ele>
        <time>2014-05-01T07:49:57Z</time>
      </trkpt>
      <trkpt lat="45.62118" lon="4.61296">
        <ele>658.2</ele>
        <time>2014-05-01T07:49:59Z</time>
      </trkpt>
      <trkpt lat="45.62127" lon="4.61306">
        <ele>657.5</ele>
        <time>2014-05-01T07:50:01Z</time>
      </trkpt>
      <trkpt lat="45.62136" lon="4.61316">
        <ele>656.7</ele>
        <time>2014-05-01T07:50:03Z</time>
      </trkpt>
      <trkpt lat="45.62145" lon="4.61326">
        <ele>655.9</ele>
        <time>2014-05-01T07:50:05Z</time>
      </trkpt>
      <trkpt lat="45.62154" lon="4.61335">
        <ele>655.2</ele>
        <time>2014-05-01T07:50:07Z</time>
      </trkpt>
      <trkpt lat="45.62164" lon="4.61342">
        <ele>654.6</ele>
        <time>2014-05-01T07:50:09Z</time>
      </trkpt>
      <trkpt lat="45.6217" lon="4.61354">
        <ele>654.3</ele>
        <time>2014-05-01T07:50:11Z</time>
      </trkpt>
      <trkpt lat="45.62179" lon="4.61367">
        <ele>653.6</ele>
        <time>2014-05-01T07:50:13Z</time>
      </trkpt>
      <trkpt lat="45.62189" lon="4.61378">
        <ele>652.7</ele>
        <time>2014-05-01T07:50:15Z</time>
      </trkpt>
      <trkpt lat="45.62199" lon="4.61388">
        <ele>652.1</ele>
        <time>2014-05-01T07:50:17Z</time>
      </trkpt>
      <trkpt lat="45.62212" lon="4.61396">
        <ele>651.6</ele>
        <time>2014-05-01T07:50:19Z</time>
      </trkpt>
      <trkpt lat="45.62225" lon="4.61402">
        <ele>651.2</ele>
        <time>2014-05-01T07:50:21Z</time>
      </trkpt>
      <trkpt lat="45.62236" lon="4.61411">
        <ele>650.8</ele>
        <time>2014-05-01T07:50:23Z</time>
      </trkpt>
      <trkpt lat="45.62248" lon="4.61421">
        <ele>650.4</ele>
        <time>2014-05-01T07:50:25Z</time>
      </trkpt>
      <trkpt lat="45.62259" lon="4.61431">
        <ele>649.8</ele>
        <time>2014-05-01T07:50:27Z</time>
      </trkpt>
      <trkpt lat="45.62268" lon="4.61443">
        <ele>648.9</ele>
        <time>2014-05-01T07:50:29Z</time>
      </trkpt>
      <trkpt lat="45.62275" lon="4.61455">
        <ele>648</ele>
        <time>2014-05-01T07:50:31Z</time>
      </trkpt>
      <trkpt lat="45.6228" lon="4.61466">
        <ele>647.2</ele>
        <time>2014-05-01T07:50:33Z</time>
      </trkpt>
      <trkpt lat="45.62283" lon="4.61475">
        <ele>646.5</ele>
        <time>2014-05-01T07:50:35Z</time>
      </trkpt>
      <trkpt lat="45.6229" lon="4.61484">
        <ele>644.2</ele>
        <time>2014-05-01T07:50:37Z</time>
      </trkpt>
      <trkpt lat="45.62297" lon="4.61495">
        <ele>640.6</ele>
        <time>2014-05-01T07:50:39Z</time>
      </trkpt>
      <trkpt lat="45.62304" lon="4.61506">
        <ele>637.5</ele>
        <time>2014-05-01T07:50:41Z</time>
      </trkpt>
      <trkpt lat="45.62309" lon="4.61516">
        <ele>635.3</ele>
        <time>2014-05-01T07:50:43Z</time>
      </trkpt>
      <trkpt lat="45.62314" lon="4.6153">
        <ele>633.3</ele>
        <time>2014-05-01T07:50:45Z</time>
      </trkpt>
      <trkpt lat="45.62319" lon="4.61544">
        <ele>631.4</ele>
        <time>2014-05-01T07:50:47Z</time>
      </trkpt>
      <trkpt lat="45.62328" lon="4.61556">
        <ele>630.1</ele>
        <time>2014-05-01T07:50:49Z</time>
      </trkpt>
      <trkpt lat="45.62339" lon="4.61565">
        <ele>630.2</ele>
        <time>2014-05-01T07:50:51Z</time>
      </trkpt>
      <trkpt lat="45.62354" lon="4.61575">
        <ele>630.4</ele>
        <time>2014-05-01T07:50:53Z</time>
      </trkpt>
      <trkpt lat="45.62371" lon="4.61583">
        <ele>630.6</ele>
        <time>2014-05-01T07:50:55Z</time>
      </trkpt>
      <trkpt lat="45.62387" lon="4.61588">
        <ele>630.8</ele>
        <time>2014-05-01T07:50:57Z</time>
      </trkpt>
      <trkpt lat="45.62401" lon="4.61591">
        <ele>631</ele>
        <time>2014-05-01T07:50:59Z</time>
      </trkpt>
      <trkpt lat="45.62415" lon="4.61592">
        <ele>631.1</ele>
        <time>2014-05-01T07:51:01Z</time>
      </trkpt>
      <trkpt lat="45.62429" lon="4.61588">
        <ele>631.3</ele>
        <time>2014-05-01T07:51:03Z</time>
      </trkpt>
      <trkpt lat="45.62444" lon="4.6158">
        <ele>631.4</ele>
        <time>2014-05-01T07:51:05Z</time>
      </trkpt>
      <trkpt lat="45.62457" lon="4.61572">
        <ele>631.3</ele>
        <time>2014-05-01T07:51:07Z</time>
      </trkpt>
      <trkpt lat="45.62469" lon="4.61567">
        <ele>631.3</ele>
        <time>2014-05-01T07:51:09Z</time>
      </trkpt>
      <trkpt lat="45.6248" lon="4.61561">
        <ele>631.4</ele>
        <time>2014-05-01T07:51:11Z</time>
      </trkpt>
      <trkpt lat="45.6249" lon="4.61556">
        <ele>631.5</ele>
        <time>2014-05-01T07:51:13Z</time>
      </trkpt>
      <trkpt lat="45.62498" lon="4.61551">
        <ele>631.6</ele>
        <time>2014-05-01T07:51:15Z</time>
      </trkpt>
      <trkpt lat="45.62507" lon="4.61546">
        <ele>631.7</ele>
        <time>2014-05-01T07:51:17Z</time>
      </trkpt>
      <trkpt lat="45.62515" lon="4.61542">
        <ele>631.8</ele>
        <time>2014-05-01T07:51:19Z</time>
      </trkpt>
      <trkpt lat="45.62522" lon="4.61538">
        <ele>631.9</ele>
        <time>2014-05-01T07:51:21Z</time>
      </trkpt>
      <trkpt lat="45.62529" lon="4.61535">
        <ele>632</ele>
        <time>2014-05-01T07:51:23Z</time>
      </trkpt>
      <trkpt lat="45.62537" lon="4.61533">
        <ele>632.1</ele>
        <time>2014-05-01T07:51:25Z</time>
      </trkpt>
      <trkpt lat="45.62547" lon="4.61532">
        <ele>632.2</ele>
        <time>2014-05-01T07:51:27Z</time>
      </trkpt>
      <trkpt lat="45.62557" lon="4.61532">
        <ele>632.4</ele>
        <time>2014-05-01T07:51:29Z</time>
      </trkpt>
      <trkpt lat="45.62568" lon="4.61532">
        <ele>632.6</ele>
        <time>2014-05-01T07:51:31Z</time>
      </trkpt>
      <trkpt lat="45.62579" lon="4.61535">
        <ele>632.7</ele>
        <time>2014-05-01T07:51:33Z</time>
      </trkpt>
      <trkpt lat="45.62589" lon="4.61542">
        <ele>632.8</ele>
        <time>2014-05-01T07:51:35Z</time>
      </trkpt>
      <trkpt lat="45.62597" lon="4.61551">
        <ele>632.8</ele>
        <time>2014-05-01T07:51:37Z</time>
      </trkpt>
      <trkpt lat="45.62603" lon="4.61561">
        <ele>632.8</ele>
        <time>2014-05-01T07:51:39Z</time>
      </trkpt>
      <trkpt lat="45.6261" lon="4.61569">
        <ele>632.9</ele>
        <time>2014-05-01T07:51:41Z</time>
      </trkpt>
      <trkpt lat="45.62616" lon="4.61575">
        <ele>632.9</ele>
        <time>2014-05-01T07:51:43Z</time>
      </trkpt>
      <trkpt lat="45.62621" lon="4.61575">
        <ele>633</ele>
        <time>2014-05-01T07:51:45Z</time>
      </trkpt>
      <trkpt lat="45.62623" lon="4.61572">
        <ele>634.4</ele>
        <time>2014-05-01T07:51:47Z</time>
      </trkpt>
      <trkpt lat="45.62624" lon="4.61569">
        <ele>634.9</ele>
        <time>2014-05-01T07:51:49Z</time>
      </trkpt>
      <trkpt lat="45.62626" lon="4.61565">
        <ele>635.5</ele>
        <time>2014-05-01T07:51:51Z</time>
      </trkpt>
      <trkpt lat="45.62628" lon="4.61561">
        <ele>636.1</ele>
        <time>2014-05-01T07:51:53Z</time>
      </trkpt>
      <trkpt lat="45.62632" lon="4.6156">
        <ele>636.4</ele>
        <time>2014-05-01T07:51:55Z</time>
      </trkpt>
      <trkpt lat="45.62635" lon="4.61562">
        <ele>636.9</ele>
        <time>2014-05-01T07:51:57Z</time>
      </trkpt>
      <trkpt lat="45.62638" lon="4.61563">
        <ele>637.5</ele>
        <time>2014-05-01T07:51:59Z</time>
      </trkpt>
      <trkpt lat="45.62641" lon="4.61565">
        <ele>637.9</ele>
        <time>2014-05-01T07:52:01Z</time>
      </trkpt>
      <trkpt lat="45.62643" lon="4.61566">
        <ele>638.3</ele>
        <time>2014-05-01T07:52:03Z</time>
      </trkpt>
      <trkpt lat="45.62646" lon="4.61568">
        <ele>638.7</ele>
        <time>2014-05-01T07:52:05Z</time>
      </trkpt>
      <trkpt lat="45.62649" lon="4.61569">
        <ele>639.1</ele>
        <time>2014-05-01T07:52:07Z</time>
      </trkpt>
      <trkpt lat="45.62651" lon="4.6157">
        <ele>639.3</ele>
        <time>2014-05-01T07:52:09Z</time>
      </trkpt>
      <trkpt lat="45.62653" lon="4.61571">
        <ele>639.5</ele>
        <time>2014-05-01T07:52:11Z</time>
      </trkpt>
      <trkpt lat="45.62656" lon="4.61573">
        <ele>639.7</ele>
        <time>2014-05-01T07:52:13Z</time>
      </trkpt>
      <trkpt lat="45.62658" lon="4.61574">
        <ele>639.9</ele>
        <time>2014-05-01T07:52:15Z</time>
      </trkpt>
      <trkpt lat="45.62661" lon="4.61575">
        <ele>640.3</ele>
        <time>2014-05-01T07:52:17Z</time>
      </trkpt>
      <trkpt lat="45.62663" lon="4.61577">
        <ele>640.7</ele>
        <time>2014-05-01T07:52:19Z</time>
      </trkpt>
      <trkpt lat="45.62666" lon="4.61578">
        <ele>640.8</ele>
        <time>2014-05-01T07:52:21Z</time>
      </trkpt>
      <trkpt lat="45.62668" lon="4.61579">
        <ele>641</ele>
        <time>2014-05-01T07:52:23Z</time>
      </trkpt>
      <trkpt lat="45.62671" lon="4.61581">
        <ele>641.1</ele>
        <time>2014-05-01T07:52:25Z</time>
      </trkpt>
      <trkpt lat="45.62673" lon="4.61582">
        <ele>641.3</ele>
        <time>2014-05-01T07:52:27Z</time>
      </trkpt>
      <trkpt lat="45.62676" lon="4.61583">
        <ele>641.6</ele>
        <time>2014-05-01T07:52:29Z</time>
      </trkpt>
      <trkpt lat="45.62678" lon="4.61584">
        <ele>642</ele>
        <time>2014-05-01T07:52:31Z</time>
      </trkpt>
      <trkpt lat="45.6268" lon="4.61586">
        <ele>642.4</ele>
        <time>2014-05-01T07:52:33Z</time>
      </trkpt>
      <trkpt lat="45.62683" lon="4.61587">
        <ele>642.7</ele>
        <time>2014-05-01T07:52:35Z</time>
      </trkpt>
      <trkpt lat="45.62685" lon="4.61588">
        <ele>642.9</ele>
        <time>2014-05-01T07:52:37Z</time>
      </trkpt>
      <trkpt lat="45.62688" lon="4.6159">
        <ele>643.1</ele>
        <time>2014-05-01T07:52:39Z</time>
      </trkpt>
      <trkpt lat="45.6269" lon="4.61591">
        <ele>643.5</ele>
        <time>2014-05-01T07:52:41Z</time>
      </trkpt>
      <trkpt lat="45.62693" lon="4.61592">
        <ele>643.9</ele>
        <time>2014-05-01T07:52:43Z</time>
      </trkpt>
      <trkpt lat="45.62695" lon="4.61594">
        <ele>644.1</ele>
        <time>2014-05-01T07:52:45Z</time>
      </trkpt>
      <trkpt lat="45.62698" lon="4.61595">
        <ele>644.3</ele>
        <time>2014-05-01T07:52:47Z</time>
      </trkpt>
      <trkpt lat="45.627" lon="4.61596">
        <ele>644.5</ele>
        <time>2014-05-01T07:52:49Z</time>
      </trkpt>
      <trkpt lat="45.62703" lon="4.61596">
        <ele>644.9</ele>
        <time>2014-05-01T07:52:51Z</time>
      </trkpt>
      <trkpt lat="45.62706" lon="4.61597">
        <ele>645.2</ele>
        <time>2014-05-01T07:52:53Z</time>
      </trkpt>
      <trkpt lat="45.62708" lon="4.61598">
        <ele>645.4</ele>
        <time>2014-05-01T07:52:55Z</time>
      </trkpt>
      <trkpt lat="45.6271" lon="4.61599">
        <ele>645.6</ele>
        <time>2014-05-01T07:52:57Z</time>
      </trkpt>
      <trkpt lat="45.62712" lon="4.61599">
        <ele>645.7</ele>
        <time>2014-05-01T07:52:59Z</time>
      </trkpt>
      <trkpt lat="45.62714" lon="4.616">
        <ele>645.8</ele>
        <time>2014-05-01T07:53:01Z</time>
      </trkpt>
      <trkpt lat="45.62717" lon="4.61601">
        <ele>645.8</ele>
        <time>2014-05-01T07:53:03Z</time>
      </trkpt>
      <trkpt lat="45.62719" lon="4.61602">
        <ele>645.9</ele>
        <time>2014-05-01T07:53:05Z</time>
      </trkpt>
      <trkpt lat="45.62721" lon="4.61602">
        <ele>646</ele>
        <time>2014-05-01T07:53:07Z</time>
      </trkpt>
      <trkpt lat="45.62724" lon="4.61602">
        <ele>646.1</ele>
        <time>2014-05-01T07:53:09Z</time>
      </trkpt>
      <trkpt lat="45.62727" lon="4.61602">
        <ele>646.3</ele>
        <time>2014-05-01T07:53:11Z</time>
      </trkpt>
      <trkpt lat="45.6273" lon="4.61602">
        <ele>646.5</ele>
        <time>2014-05-01T07:53:13Z</time>
      </trkpt>
      <trkpt lat="45.62732" lon="4.61602">
        <ele>646.8</ele>
        <time>2014-05-01T07:53:15Z</time>
      </trkpt>
      <trkpt lat="45.62735" lon="4.61602">
        <ele>647.1</ele>
        <time>2014-05-01T07:53:17Z</time>
      </trkpt>
      <trkpt lat="45.62738" lon="4.61601">
        <ele>647.3</ele>
        <time>2014-05-01T07:53:19Z</time>
      </trkpt>
      <trkpt lat="45.6274" lon="4.616">
        <ele>647.4</ele>
        <time>2014-05-01T07:53:21Z</time>
      </trkpt>
      <trkpt lat="45.62743" lon="4.61599">
        <ele>647.5</ele>
        <time>2014-05-01T07:53:23Z</time>
      </trkpt>
      <trkpt lat="45.62746" lon="4.61598">
        <ele>647.6</ele>
        <time>2014-05-01T07:53:25Z</time>
      </trkpt>
      <trkpt lat="45.6275" lon="4.61597">
        <ele>647.9</ele>
        <time>2014-05-01T07:53:27Z</time>
      </trkpt>
      <trkpt lat="45.62754" lon="4.61595">
        <ele>648.3</ele>
        <time>2014-05-01T07:53:29Z</time>
      </trkpt>
      <trkpt lat="45.62757" lon="4.61593">
        <ele>648.6</ele>
        <time>2014-05-01T07:53:31Z</time>
      </trkpt>
      <trkpt lat="45.62761" lon="4.6159">
        <ele>648.8</ele>
        <time>2014-05-01T07:53:33Z</time>
      </trkpt>
      <trkpt lat="45.62764" lon="4.61587">
        <ele>648.9</ele>
        <time>2014-05-01T07:53:35Z</time>
      </trkpt>
      <trkpt lat="45.62767" lon="4.61584">
        <ele>649</ele>
        <time>2014-05-01T07:53:37Z</time>
      </trkpt>
      <trkpt lat="45.6277" lon="4.61581">
        <ele>649.1</ele>
        <time>2014-05-01T07:53:39Z</time>
      </trkpt>
      <trkpt lat="45.62774" lon="4.61578">
        <ele>649.2</ele>
        <time>2014-05-01T07:53:41Z</time>
      </trkpt>
      <trkpt lat="45.62777" lon="4.61575">
        <ele>649.3</ele>
        <time>2014-05-01T07:53:43Z</time>
      </trkpt>
      <trkpt lat="45.6278" lon="4.61571">
        <ele>649.5</ele>
        <time>2014-05-01T07:53:45Z</time>
      </trkpt>
      <trkpt lat="45.62783" lon="4.61567">
        <ele>649.7</ele>
        <time>2014-05-01T07:53:47Z</time>
      </trkpt>
      <trkpt lat="45.62785" lon="4.61563">
        <ele>650</ele>
        <time>2014-05-01T07:53:49Z</time>
      </trkpt>
      <trkpt lat="45.62787" lon="4.61558">
        <ele>650.3</ele>
        <time>2014-05-01T07:53:51Z</time>
      </trkpt>
      <trkpt lat="45.62788" lon="4.61553">
        <ele>650.5</ele>
        <time>2014-05-01T07:53:53Z</time>
      </trkpt>
      <trkpt lat="45.6279" lon="4.61548">
        <ele>650.6</ele>
        <time>2014-05-01T07:53:55Z</time>
      </trkpt>
      <trkpt lat="45.62791" lon="4.61544">
        <ele>650.7</ele>
        <time>2014-05-01T07:53:57Z</time>
      </trkpt>
      <trkpt lat="45.62792" lon="4.61539">
        <ele>651</ele>
        <time>2014-05-01T07:53:59Z</time>
      </trkpt>
      <trkpt lat="45.62793" lon="4.61535">
        <ele>651.4</ele>
        <time>2014-05-01T07:54:01Z</time>
      </trkpt>
      <trkpt lat="45.62794" lon="4.61532">
        <ele>651.8</ele>
        <time>2014-05-01T07:54:03Z</time>
      </trkpt>
      <trkpt lat="45.62795" lon="4.61528">
        <ele>652.2</ele>
        <time>2014-05-01T07:54:05Z</time>
      </trkpt>
      <trkpt lat="45.62796" lon="4.61524">
        <ele>652.4</ele>
        <time>2014-05-01T07:54:07Z</time>
      </trkpt>
      <trkpt lat="45.62796" lon="4.61521">
        <ele>652.6</ele>
        <time>2014-05-01T07:54:09Z</time>
      </trkpt>
      <trkpt lat="45.62797" lon="4.61517">
        <ele>653</ele>
        <time>2014-05-01T07:54:11Z</time>
      </trkpt>
      <trkpt lat="45.62798" lon="4.61514">
        <ele>653.4</ele>
        <time>2014-05-01T07:54:13Z</time>
      </trkpt>
      <trkpt lat="45.62799" lon="4.61511">
        <ele>653.8</ele>
        <time>2014-05-01T07:54:15Z</time>
      </trkpt>
      <trkpt lat="45.62799" lon="4.61508">
        <ele>654.1</ele>
        <time>2014-05-01T07:54:17Z</time>
      </trkpt>
      <trkpt lat="45.628" lon="4.61504">
        <ele>654.5</ele>
        <time>2014-05-01T07:54:19Z</time>
      </trkpt>
      <trkpt lat="45.628" lon="4.61501">
        <ele>654.8</ele>
        <time>2014-05-01T07:54:21Z</time>
      </trkpt>
      <trkpt lat="45.62801" lon="4.61498">
        <ele>655.2</ele>
        <time>2014-05-01T07:54:23Z</time>
      </trkpt>
      <trkpt lat="45.62801" lon="4.61496">
        <ele>655.3</ele>
        <time>2014-05-01T07:54:25Z</time>
      </trkpt>
      <trkpt lat="45.62801" lon="4.61493">
        <ele>655.5</ele>
        <time>2014-05-01T07:54:27Z</time>
      </trkpt>
      <trkpt lat="45.62802" lon="4.61489">
        <ele>655.8</ele>
        <time>2014-05-01T07:54:29Z</time>
      </trkpt>
      <trkpt lat="45.62803" lon="4.61485">
        <ele>656.3</ele>
        <time>2014-05-01T07:54:31Z</time>
      </trkpt>
      <trkpt lat="45.62803" lon="4.61482">
        <ele>656.8</ele>
        <time>2014-05-01T07:54:33Z</time>
      </trkpt>
      <trkpt lat="45.62804" lon="4.61479">
        <ele>657</ele>
        <time>2014-05-01T07:54:35Z</time>
      </trkpt>
      <trkpt lat="45.62806" lon="4.61476">
        <ele>657.4</ele>
        <time>2014-05-01T07:54:37Z</time>
      </trkpt>
      <trkpt lat="45.62807" lon="4.61472">
        <ele>657.8</ele>
        <time>2014-05-01T07:54:39Z</time>
      </trkpt>
      <trkpt lat="45.62809" lon="4.61469">
        <ele>658.1</ele>
        <time>2014-05-01T07:54:41Z</time>
      </trkpt>
      <trkpt lat="45.6281" lon="4.61467">
        <ele>658.3</ele>
        <time>2014-05-01T07:54:43Z</time>
      </trkpt>
      <trkpt lat="45.62811" lon="4.61464">
        <ele>658.5</ele>
        <time>2014-05-01T07:54:45Z</time>
      </trkpt>
      <trkpt lat="45.62812" lon="4.61461">
        <ele>658.7</ele>
        <time>2014-05-01T07:54:47Z</time>
      </trkpt>
      <trkpt lat="45.62814" lon="4.61457">
        <ele>659.1</ele>
        <time>2014-05-01T07:54:51Z</time>
      </trkpt>
      <trkpt lat="45.62815" lon="4.61454">
        <ele>659.4</ele>
        <time>2014-05-01T07:54:53Z</time>
      </trkpt>
      <trkpt lat="45.62816" lon="4.61452">
        <ele>659.7</ele>
        <time>2014-05-01T07:54:55Z</time>
      </trkpt>
      <trkpt lat="45.62817" lon="4.61449">
        <ele>659.9</ele>
        <time>2014-05-01T07:54:57Z</time>
      </trkpt>
      <trkpt lat="45.62819" lon="4.61446">
        <ele>660</ele>
        <time>2014-05-01T07:54:59Z</time>
      </trkpt>
      <trkpt lat="45.6282" lon="4.61443">
        <ele>660.2</ele>
        <time>2014-05-01T07:55:01Z</time>
      </trkpt>
      <trkpt lat="45.62821" lon="4.6144">
        <ele>660.3</ele>
        <time>2014-05-01T07:55:03Z</time>
      </trkpt>
      <trkpt lat="45.62822" lon="4.61436">
        <ele>660.4</ele>
        <time>2014-05-01T07:55:05Z</time>
      </trkpt>
      <trkpt lat="45.62824" lon="4.61433">
        <ele>660.5</ele>
        <time>2014-05-01T07:55:07Z</time>
      </trkpt>
      <trkpt lat="45.62825" lon="4.6143">
        <ele>660.6</ele>
        <time>2014-05-01T07:55:09Z</time>
      </trkpt>
      <trkpt lat="45.62826" lon="4.61426">
        <ele>660.9</ele>
        <time>2014-05-01T07:55:11Z</time>
      </trkpt>
      <trkpt lat="45.62828" lon="4.61423">
        <ele>661.2</ele>
        <time>2014-05-01T07:55:13Z</time>
      </trkpt>
      <trkpt lat="45.62829" lon="4.6142">
        <ele>661.4</ele>
        <time>2014-05-01T07:55:15Z</time>
      </trkpt>
      <trkpt lat="45.62831" lon="4.61417">
        <ele>661.7</ele>
        <time>2014-05-01T07:55:17Z</time>
      </trkpt>
      <trkpt lat="45.62832" lon="4.61413">
        <ele>661.8</ele>
        <time>2014-05-01T07:55:19Z</time>
      </trkpt>
      <trkpt lat="45.62833" lon="4.61409">
        <ele>662</ele>
        <time>2014-05-01T07:55:21Z</time>
      </trkpt>
      <trkpt lat="45.62835" lon="4.61406">
        <ele>662.3</ele>
        <time>2014-05-01T07:55:23Z</time>
      </trkpt>
      <trkpt lat="45.62835" lon="4.61402">
        <ele>662.7</ele>
        <time>2014-05-01T07:55:25Z</time>
      </trkpt>
      <trkpt lat="45.62837" lon="4.61399">
        <ele>662.9</ele>
        <time>2014-05-01T07:55:27Z</time>
      </trkpt>
      <trkpt lat="45.62838" lon="4.61396">
        <ele>663.1</ele>
        <time>2014-05-01T07:55:29Z</time>
      </trkpt>
      <trkpt lat="45.62838" lon="4.61393">
        <ele>663.2</ele>
        <time>2014-05-01T07:55:31Z</time>
      </trkpt>
      <trkpt lat="45.6284" lon="4.61391">
        <ele>663.3</ele>
        <time>2014-05-01T07:55:33Z</time>
      </trkpt>
      <trkpt lat="45.62841" lon="4.61387">
        <ele>663.6</ele>
        <time>2014-05-01T07:55:35Z</time>
      </trkpt>
      <trkpt lat="45.62842" lon="4.61384">
        <ele>663.9</ele>
        <time>2014-05-01T07:55:37Z</time>
      </trkpt>
      <trkpt lat="45.62843" lon="4.6138">
        <ele>664.3</ele>
        <time>2014-05-01T07:55:39Z</time>
      </trkpt>
      <trkpt lat="45.62845" lon="4.61377">
        <ele>664.7</ele>
        <time>2014-05-01T07:55:41Z</time>
      </trkpt>
      <trkpt lat="45.62846" lon="4.61373">
        <ele>665</ele>
        <time>2014-05-01T07:55:43Z</time>
      </trkpt>
      <trkpt lat="45.62848" lon="4.61369">
        <ele>665.2</ele>
        <time>2014-05-01T07:55:45Z</time>
      </trkpt>
      <trkpt lat="45.62849" lon="4.61365">
        <ele>665.6</ele>
        <time>2014-05-01T07:55:47Z</time>
      </trkpt>
      <trkpt lat="45.62849" lon="4.61363">
        <ele>665.8</ele>
        <time>2014-05-01T07:55:49Z</time>
      </trkpt>
      <trkpt lat="45.6285" lon="4.61359">
        <ele>666.2</ele>
        <time>2014-05-01T07:55:51Z</time>
      </trkpt>
      <trkpt lat="45.62851" lon="4.61356">
        <ele>666.3</ele>
        <time>2014-05-01T07:55:53Z</time>
      </trkpt>
      <trkpt lat="45.62852" lon="4.61353">
        <ele>666.5</ele>
        <time>2014-05-01T07:55:55Z</time>
      </trkpt>
      <trkpt lat="45.62853" lon="4.61349">
        <ele>666.6</ele>
        <time>2014-05-01T07:55:57Z</time>
      </trkpt>
      <trkpt lat="45.62854" lon="4.61346">
        <ele>666.8</ele>
        <time>2014-05-01T07:55:59Z</time>
      </trkpt>
      <trkpt lat="45.62855" lon="4.61344">
        <ele>667.1</ele>
        <time>2014-05-01T07:56:01Z</time>
      </trkpt>
      <trkpt lat="45.62856" lon="4.6134">
        <ele>667.5</ele>
        <time>2014-05-01T07:56:03Z</time>
      </trkpt>
      <trkpt lat="45.62857" lon="4.61337">
        <ele>667.7</ele>
        <time>2014-05-01T07:56:05Z</time>
      </trkpt>
      <trkpt lat="45.62858" lon="4.61334">
        <ele>667.9</ele>
        <time>2014-05-01T07:56:07Z</time>
      </trkpt>
      <trkpt lat="45.62859" lon="4.6133">
        <ele>668.2</ele>
        <time>2014-05-01T07:56:09Z</time>
      </trkpt>
      <trkpt lat="45.6286" lon="4.61326">
        <ele>668.4</ele>
        <time>2014-05-01T07:56:11Z</time>
      </trkpt>
      <trkpt lat="45.62861" lon="4.61322">
        <ele>668.8</ele>
        <time>2014-05-01T07:56:13Z</time>
      </trkpt>
      <trkpt lat="45.62862" lon="4.61318">
        <ele>669.2</ele>
        <time>2014-05-01T07:56:15Z</time>
      </trkpt>
      <trkpt lat="45.62863" lon="4.61314">
        <ele>669.3</ele>
        <time>2014-05-01T07:56:17Z</time>
      </trkpt>
      <trkpt lat="45.62864" lon="4.6131">
        <ele>669.5</ele>
        <time>2014-05-01T07:56:19Z</time>
      </trkpt>
      <trkpt lat="45.62865" lon="4.61306">
        <ele>669.7</ele>
        <time>2014-05-01T07:56:21Z</time>
      </trkpt>
      <trkpt lat="45.62865" lon="4.61302">
        <ele>669.8</ele>
        <time>2014-05-01T07:56:23Z</time>
      </trkpt>
      <trkpt lat="45.62866" lon="4.61299">
        <ele>670</ele>
        <time>2014-05-01T07:56:25Z</time>
      </trkpt>
      <trkpt lat="45.62868" lon="4.61295">
        <ele>670.4</ele>
        <time>2014-05-01T07:56:27Z</time>
      </trkpt>
      <trkpt lat="45.62869" lon="4.61291">
        <ele>670.7</ele>
        <time>2014-05-01T07:56:29Z</time>
      </trkpt>
      <trkpt lat="45.6287" lon="4.61288">
        <ele>670.9</ele>
        <time>2014-05-01T07:56:31Z</time>
      </trkpt>
      <trkpt lat="45.62871" lon="4.61285">
        <ele>671.1</ele>
        <time>2014-05-01T07:56:33Z</time>
      </trkpt>
      <trkpt lat="45.62872" lon="4.61281">
        <ele>671.3</ele>
        <time>2014-05-01T07:56:35Z</time>
      </trkpt>
      <trkpt lat="45.62872" lon="4.61277">
        <ele>671.5</ele>
        <time>2014-05-01T07:56:37Z</time>
      </trkpt>
      <trkpt lat="45.62874" lon="4.61273">
        <ele>671.7</ele>
        <time>2014-05-01T07:56:39Z</time>
      </trkpt>
      <trkpt lat="45.62875" lon="4.61269">
        <ele>671.9</ele>
        <time>2014-05-01T07:56:41Z</time>
      </trkpt>
      <trkpt lat="45.62876" lon="4.61265">
        <ele>672.2</ele>
        <time>2014-05-01T07:56:43Z</time>
      </trkpt>
      <trkpt lat="45.62877" lon="4.61261">
        <ele>672.3</ele>
        <time>2014-05-01T07:56:45Z</time>
      </trkpt>
      <trkpt lat="45.62879" lon="4.61256">
        <ele>672.4</ele>
        <time>2014-05-01T07:56:47Z</time>
      </trkpt>
      <trkpt lat="45.6288" lon="4.61253">
        <ele>672.5</ele>
        <time>2014-05-01T07:56:49Z</time>
      </trkpt>
      <trkpt lat="45.62882" lon="4.6125">
        <ele>672.6</ele>
        <time>2014-05-01T07:56:51Z</time>
      </trkpt>
      <trkpt lat="45.62883" lon="4.61246">
        <ele>672.6</ele>
        <time>2014-05-01T07:56:53Z</time>
      </trkpt>
      <trkpt lat="45.62885" lon="4.61242">
        <ele>672.7</ele>
        <time>2014-05-01T07:56:55Z</time>
      </trkpt>
      <trkpt lat="45.62887" lon="4.61238">
        <ele>672.8</ele>
        <time>2014-05-01T07:56:57Z</time>
      </trkpt>
      <trkpt lat="45.62889" lon="4.61232">
        <ele>673</ele>
        <time>2014-05-01T07:56:59Z</time>
      </trkpt>
      <trkpt lat="45.62891" lon="4.61226">
        <ele>673.1</ele>
        <time>2014-05-01T07:57:01Z</time>
      </trkpt>
      <trkpt lat="45.62893" lon="4.6122">
        <ele>673.2</ele>
        <time>2014-05-01T07:57:03Z</time>
      </trkpt>
      <trkpt lat="45.62894" lon="4.61214">
        <ele>673.6</ele>
        <time>2014-05-01T07:57:05Z</time>
      </trkpt>
      <trkpt lat="45.62896" lon="4.61208">
        <ele>674</ele>
        <time>2014-05-01T07:57:07Z</time>
      </trkpt>
      <trkpt lat="45.62897" lon="4.61202">
        <ele>674.3</ele>
        <time>2014-05-01T07:57:09Z</time>
      </trkpt>
      <trkpt lat="45.62898" lon="4.61197">
        <ele>674.5</ele>
        <time>2014-05-01T07:57:11Z</time>
      </trkpt>
      <trkpt lat="45.629" lon="4.61192">
        <ele>674.6</ele>
        <time>2014-05-01T07:57:13Z</time>
      </trkpt>
      <trkpt lat="45.62901" lon="4.61187">
        <ele>674.7</ele>
        <time>2014-05-01T07:57:15Z</time>
      </trkpt>
      <trkpt lat="45.62902" lon="4.61181">
        <ele>674.9</ele>
        <time>2014-05-01T07:57:17Z</time>
      </trkpt>
      <trkpt lat="45.62904" lon="4.61176">
        <ele>675.2</ele>
        <time>2014-05-01T07:57:19Z</time>
      </trkpt>
      <trkpt lat="45.62905" lon="4.6117">
        <ele>675.5</ele>
        <time>2014-05-01T07:57:21Z</time>
      </trkpt>
      <trkpt lat="45.62907" lon="4.61164">
        <ele>675.6</ele>
        <time>2014-05-01T07:57:23Z</time>
      </trkpt>
      <trkpt lat="45.62909" lon="4.61158">
        <ele>675.7</ele>
        <time>2014-05-01T07:57:25Z</time>
      </trkpt>
      <trkpt lat="45.62911" lon="4.61153">
        <ele>675.7</ele>
        <time>2014-05-01T07:57:27Z</time>
      </trkpt>
      <trkpt lat="45.62913" lon="4.61146">
        <ele>675.7</ele>
        <time>2014-05-01T07:57:29Z</time>
      </trkpt>
      <trkpt lat="45.62916" lon="4.61139">
        <ele>675.7</ele>
        <time>2014-05-01T07:57:31Z</time>
      </trkpt>
      <trkpt lat="45.62919" lon="4.61133">
        <ele>675.7</ele>
        <time>2014-05-01T07:57:33Z</time>
      </trkpt>
      <trkpt lat="45.62921" lon="4.61126">
        <ele>675.7</ele>
        <time>2014-05-01T07:57:35Z</time>
      </trkpt>
      <trkpt lat="45.62923" lon="4.6112">
        <ele>675.7</ele>
        <time>2014-05-01T07:57:37Z</time>
      </trkpt>
      <trkpt lat="45.62926" lon="4.61113">
        <ele>675.7</ele>
        <time>2014-05-01T07:57:39Z</time>
      </trkpt>
      <trkpt lat="45.62929" lon="4.61106">
        <ele>675.8</ele>
        <time>2014-05-01T07:57:41Z</time>
      </trkpt>
      <trkpt lat="45.62932" lon="4.61099">
        <ele>675.8</ele>
        <time>2014-05-01T07:57:43Z</time>
      </trkpt>
      <trkpt lat="45.62934" lon="4.61091">
        <ele>676</ele>
        <time>2014-05-01T07:57:45Z</time>
      </trkpt>
      <trkpt lat="45.62936" lon="4.61082">
        <ele>676.4</ele>
        <time>2014-05-01T07:57:47Z</time>
      </trkpt>
      <trkpt lat="45.62937" lon="4.61074">
        <ele>676.7</ele>
        <time>2014-05-01T07:57:49Z</time>
      </trkpt>
      <trkpt lat="45.6294" lon="4.61066">
        <ele>676.8</ele>
        <time>2014-05-01T07:57:51Z</time>
      </trkpt>
      <trkpt lat="45.62941" lon="4.61058">
        <ele>676.9</ele>
        <time>2014-05-01T07:57:53Z</time>
      </trkpt>
      <trkpt lat="45.62943" lon="4.6105">
        <ele>676.9</ele>
        <time>2014-05-01T07:57:55Z</time>
      </trkpt>
      <trkpt lat="45.62944" lon="4.61042">
        <ele>677</ele>
        <time>2014-05-01T07:57:57Z</time>
      </trkpt>
      <trkpt lat="45.62946" lon="4.61033">
        <ele>677</ele>
        <time>2014-05-01T07:57:59Z</time>
      </trkpt>
      <trkpt lat="45.62948" lon="4.61024">
        <ele>677.1</ele>
        <time>2014-05-01T07:58:01Z</time>
      </trkpt>
      <trkpt lat="45.62949" lon="4.61015">
        <ele>677.2</ele>
        <time>2014-05-01T07:58:03Z</time>
      </trkpt>
      <trkpt lat="45.62951" lon="4.61006">
        <ele>677.2</ele>
        <time>2014-05-01T07:58:05Z</time>
      </trkpt>
      <trkpt lat="45.62952" lon="4.60997">
        <ele>677.3</ele>
        <time>2014-05-01T07:58:07Z</time>
      </trkpt>
      <trkpt lat="45.62954" lon="4.60988">
        <ele>677.4</ele>
        <time>2014-05-01T07:58:09Z</time>
      </trkpt>
      <trkpt lat="45.62954" lon="4.6098">
        <ele>677.4</ele>
        <time>2014-05-01T07:58:11Z</time>
      </trkpt>
      <trkpt lat="45.62954" lon="4.60972">
        <ele>677.5</ele>
        <time>2014-05-01T07:58:13Z</time>
      </trkpt>
      <trkpt lat="45.62956" lon="4.60964">
        <ele>677.7</ele>
        <time>2014-05-01T07:58:15Z</time>
      </trkpt>
      <trkpt lat="45.62956" lon="4.60956">
        <ele>677.9</ele>
        <time>2014-05-01T07:58:17Z</time>
      </trkpt>
      <trkpt lat="45.62958" lon="4.60949">
        <ele>678.2</ele>
        <time>2014-05-01T07:58:19Z</time>
      </trkpt>
      <trkpt lat="45.62959" lon="4.60941">
        <ele>678.3</ele>
        <time>2014-05-01T07:58:21Z</time>
      </trkpt>
      <trkpt lat="45.62961" lon="4.60934">
        <ele>678.4</ele>
        <time>2014-05-01T07:58:23Z</time>
      </trkpt>
      <trkpt lat="45.62962" lon="4.60926">
        <ele>678.6</ele>
        <time>2014-05-01T07:58:25Z</time>
      </trkpt>
      <trkpt lat="45.62964" lon="4.60919">
        <ele>678.6</ele>
        <time>2014-05-01T07:58:27Z</time>
      </trkpt>
      <trkpt lat="45.62964" lon="4.60912">
        <ele>678.8</ele>
        <time>2014-05-01T07:58:29Z</time>
      </trkpt>
      <trkpt lat="45.62964" lon="4.60905">
        <ele>678.9</ele>
        <time>2014-05-01T07:58:31Z</time>
      </trkpt>
      <trkpt lat="45.62965" lon="4.60898">
        <ele>679.2</ele>
        <time>2014-05-01T07:58:33Z</time>
      </trkpt>
      <trkpt lat="45.62967" lon="4.6089">
        <ele>679.6</ele>
        <time>2014-05-01T07:58:35Z</time>
      </trkpt>
      <trkpt lat="45.62968" lon="4.60883">
        <ele>679.8</ele>
        <time>2014-05-01T07:58:37Z</time>
      </trkpt>
      <trkpt lat="45.62968" lon="4.60875">
        <ele>680</ele>
        <time>2014-05-01T07:58:39Z</time>
      </trkpt>
      <trkpt lat="45.62969" lon="4.60867">
        <ele>680.2</ele>
        <time>2014-05-01T07:58:41Z</time>
      </trkpt>
      <trkpt lat="45.6297" lon="4.60859">
        <ele>680.4</ele>
        <time>2014-05-01T07:58:43Z</time>
      </trkpt>
      <trkpt lat="45.62973" lon="4.60851">
        <ele>680.7</ele>
        <time>2014-05-01T07:58:45Z</time>
      </trkpt>
      <trkpt lat="45.62975" lon="4.60843">
        <ele>681.1</ele>
        <time>2014-05-01T07:58:47Z</time>
      </trkpt>
      <trkpt lat="45.6298" lon="4.60834">
        <ele>681.2</ele>
        <time>2014-05-01T07:58:49Z</time>
      </trkpt>
      <trkpt lat="45.62986" lon="4.60824">
        <ele>681.3</ele>
        <time>2014-05-01T07:58:51Z</time>
      </trkpt>
      <trkpt lat="45.62993" lon="4.60814">
        <ele>681.4</ele>
        <time>2014-05-01T07:58:53Z</time>
      </trkpt>
      <trkpt lat="45.63" lon="4.60803">
        <ele>681.4</ele>
        <time>2014-05-01T07:58:55Z</time>
      </trkpt>
      <trkpt lat="45.63008" lon="4.60793">
        <ele>681.3</ele>
        <time>2014-05-01T07:58:57Z</time>
      </trkpt>
      <trkpt lat="45.63017" lon="4.60787">
        <ele>681.3</ele>
        <time>2014-05-01T07:58:59Z</time>
      </trkpt>
      <trkpt lat="45.63024" lon="4.60783">
        <ele>681.3</ele>
        <time>2014-05-01T07:59:01Z</time>
      </trkpt>
      <trkpt lat="45.63029" lon="4.60781">
        <ele>681.2</ele>
        <time>2014-05-01T07:59:03Z</time>
      </trkpt>
      <trkpt lat="45.63034" lon="4.6078">
        <ele>681.2</ele>
        <time>2014-05-01T07:59:05Z</time>
      </trkpt>
      <trkpt lat="45.63039" lon="4.60779">
        <ele>681.2</ele>
        <time>2014-05-01T07:59:07Z</time>
      </trkpt>
      <trkpt lat="45.63044" lon="4.60779">
        <ele>681.2</ele>
        <time>2014-05-01T07:59:09Z</time>
      </trkpt>
      <trkpt lat="45.63049" lon="4.60777">
        <ele>681.1</ele>
        <time>2014-05-01T07:59:11Z</time>
      </trkpt>
      <trkpt lat="45.63054" lon="4.60775">
        <ele>681.1</ele>
        <time>2014-05-01T07:59:13Z</time>
      </trkpt>
      <trkpt lat="45.63059" lon="4.60774">
        <ele>681.1</ele>
        <time>2014-05-01T07:59:15Z</time>
      </trkpt>
      <trkpt lat="45.63063" lon="4.60775">
        <ele>681.1</ele>
        <time>2014-05-01T07:59:17Z</time>
      </trkpt>
      <trkpt lat="45.63067" lon="4.60778">
        <ele>681.1</ele>
        <time>2014-05-01T07:59:19Z</time>
      </trkpt>
      <trkpt lat="45.63071" lon="4.60783">
        <ele>681</ele>
        <time>2014-05-01T07:59:21Z</time>
      </trkpt>
      <trkpt lat="45.63075" lon="4.60788">
        <ele>681</ele>
        <time>2014-05-01T07:59:23Z</time>
      </trkpt>
      <trkpt lat="45.63079" lon="4.60793">
        <ele>681</ele>
        <time>2014-05-01T07:59:25Z</time>
      </trkpt>
      <trkpt lat="45.63083" lon="4.60797">
        <ele>681</ele>
        <time>2014-05-01T07:59:27Z</time>
      </trkpt>
      <trkpt lat="45.63087" lon="4.60801">
        <ele>681</ele>
        <time>2014-05-01T07:59:29Z</time>
      </trkpt>
      <trkpt lat="45.63091" lon="4.60804">
        <ele>681</ele>
        <time>2014-05-01T07:59:31Z</time>
      </trkpt>
      <trkpt lat="45.63094" lon="4.60809">
        <ele>681</ele>
        <time>2014-05-01T07:59:33Z</time>
      </trkpt>
      <trkpt lat="45.63097" lon="4.60812">
        <ele>681</ele>
        <time>2014-05-01T07:59:35Z</time>
      </trkpt>
      <trkpt lat="45.631" lon="4.60816">
        <ele>681.1</ele>
        <time>2014-05-01T07:59:37Z</time>
      </trkpt>
      <trkpt lat="45.63104" lon="4.60819">
        <ele>681.1</ele>
        <time>2014-05-01T07:59:39Z</time>
      </trkpt>
      <trkpt lat="45.63108" lon="4.60821">
        <ele>681.1</ele>
        <time>2014-05-01T07:59:41Z</time>
      </trkpt>
      <trkpt lat="45.63111" lon="4.60824">
        <ele>681.2</ele>
        <time>2014-05-01T07:59:43Z</time>
      </trkpt>
      <trkpt lat="45.63114" lon="4.60826">
        <ele>681.3</ele>
        <time>2014-05-01T07:59:45Z</time>
      </trkpt>
      <trkpt lat="45.63118" lon="4.60829">
        <ele>681.4</ele>
        <time>2014-05-01T07:59:47Z</time>
      </trkpt>
      <trkpt lat="45.63121" lon="4.60832">
        <ele>681.6</ele>
        <time>2014-05-01T07:59:49Z</time>
      </trkpt>
      <trkpt lat="45.63125" lon="4.60835">
        <ele>682</ele>
        <time>2014-05-01T07:59:51Z</time>
      </trkpt>
      <trkpt lat="45.63129" lon="4.60837">
        <ele>682.3</ele>
        <time>2014-05-01T07:59:53Z</time>
      </trkpt>
      <trkpt lat="45.63132" lon="4.6084">
        <ele>682.4</ele>
        <time>2014-05-01T07:59:55Z</time>
      </trkpt>
      <trkpt lat="45.63134" lon="4.60841">
        <ele>682.5</ele>
        <time>2014-05-01T07:59:57Z</time>
      </trkpt>
      <trkpt lat="45.63137" lon="4.60843">
        <ele>682.7</ele>
        <time>2014-05-01T07:59:59Z</time>
      </trkpt>
      <trkpt lat="45.6314" lon="4.60845">
        <ele>682.9</ele>
        <time>2014-05-01T08:00:01Z</time>
      </trkpt>
      <trkpt lat="45.63142" lon="4.60847">
        <ele>683.3</ele>
        <time>2014-05-01T08:00:03Z</time>
      </trkpt>
      <trkpt lat="45.63145" lon="4.60849">
        <ele>683.6</ele>
        <time>2014-05-01T08:00:05Z</time>
      </trkpt>
      <trkpt lat="45.63148" lon="4.60851">
        <ele>683.9</ele>
        <time>2014-05-01T08:00:07Z</time>
      </trkpt>
      <trkpt lat="45.63151" lon="4.60854">
        <ele>684.2</ele>
        <time>2014-05-01T08:00:09Z</time>
      </trkpt>
      <trkpt lat="45.63153" lon="4.60856">
        <ele>684.3</ele>
        <time>2014-05-01T08:00:11Z</time>
      </trkpt>
      <trkpt lat="45.63156" lon="4.60858">
        <ele>684.5</ele>
        <time>2014-05-01T08:00:13Z</time>
      </trkpt>
      <trkpt lat="45.63158" lon="4.6086">
        <ele>684.8</ele>
        <time>2014-05-01T08:00:15Z</time>
      </trkpt>
      <trkpt lat="45.6316" lon="4.60862">
        <ele>685.1</ele>
        <time>2014-05-01T08:00:17Z</time>
      </trkpt>
      <trkpt lat="45.63163" lon="4.60865">
        <ele>685.3</ele>
        <time>2014-05-01T08:00:19Z</time>
      </trkpt>
      <trkpt lat="45.63165" lon="4.60868">
        <ele>685.6</ele>
        <time>2014-05-01T08:00:21Z</time>
      </trkpt>
      <trkpt lat="45.63167" lon="4.6087">
        <ele>685.7</ele>
        <time>2014-05-01T08:00:23Z</time>
      </trkpt>
      <trkpt lat="45.6317" lon="4.60874">
        <ele>685.9</ele>
        <time>2014-05-01T08:00:25Z</time>
      </trkpt>
      <trkpt lat="45.63172" lon="4.60877">
        <ele>686.1</ele>
        <time>2014-05-01T08:00:27Z</time>
      </trkpt>
      <trkpt lat="45.63174" lon="4.6088">
        <ele>686.5</ele>
        <time>2014-05-01T08:00:29Z</time>
      </trkpt>
      <trkpt lat="45.63176" lon="4.60884">
        <ele>686.9</ele>
        <time>2014-05-01T08:00:31Z</time>
      </trkpt>
      <trkpt lat="45.63178" lon="4.60887">
        <ele>687.2</ele>
        <time>2014-05-01T08:00:33Z</time>
      </trkpt>
      <trkpt lat="45.63181" lon="4.6089">
        <ele>687.5</ele>
        <time>2014-05-01T08:00:35Z</time>
      </trkpt>
      <trkpt lat="45.63183" lon="4.60894">
        <ele>687.9</ele>
        <time>2014-05-01T08:00:37Z</time>
      </trkpt>
      <trkpt lat="45.63185" lon="4.60897">
        <ele>688.3</ele>
        <time>2014-05-01T08:00:39Z</time>
      </trkpt>
      <trkpt lat="45.63187" lon="4.609">
        <ele>688.6</ele>
        <time>2014-05-01T08:00:41Z</time>
      </trkpt>
      <trkpt lat="45.63189" lon="4.60904">
        <ele>688.7</ele>
        <time>2014-05-01T08:00:43Z</time>
      </trkpt>
      <trkpt lat="45.63192" lon="4.60906">
        <ele>688.8</ele>
        <time>2014-05-01T08:00:45Z</time>
      </trkpt>
      <trkpt lat="45.63194" lon="4.60909">
        <ele>689</ele>
        <time>2014-05-01T08:00:47Z</time>
      </trkpt>
      <trkpt lat="45.63196" lon="4.60912">
        <ele>689.1</ele>
        <time>2014-05-01T08:00:49Z</time>
      </trkpt>
      <trkpt lat="45.63198" lon="4.60914">
        <ele>689.3</ele>
        <time>2014-05-01T08:00:51Z</time>
      </trkpt>
      <trkpt lat="45.63201" lon="4.60916">
        <ele>689.6</ele>
        <time>2014-05-01T08:00:53Z</time>
      </trkpt>
      <trkpt lat="45.63203" lon="4.60919">
        <ele>689.9</ele>
        <time>2014-05-01T08:00:55Z</time>
      </trkpt>
      <trkpt lat="45.63205" lon="4.60922">
        <ele>690.1</ele>
        <time>2014-05-01T08:00:57Z</time>
      </trkpt>
      <trkpt lat="45.63208" lon="4.60925">
        <ele>690.3</ele>
        <time>2014-05-01T08:00:59Z</time>
      </trkpt>
      <trkpt lat="45.6321" lon="4.60928">
        <ele>690.4</ele>
        <time>2014-05-01T08:01:01Z</time>
      </trkpt>
      <trkpt lat="45.63213" lon="4.60931">
        <ele>690.6</ele>
        <time>2014-05-01T08:01:03Z</time>
      </trkpt>
      <trkpt lat="45.63215" lon="4.60933">
        <ele>690.7</ele>
        <time>2014-05-01T08:01:05Z</time>
      </trkpt>
      <trkpt lat="45.63216" lon="4.60936">
        <ele>691</ele>
        <time>2014-05-01T08:01:07Z</time>
      </trkpt>
      <trkpt lat="45.63218" lon="4.60938">
        <ele>691.3</ele>
        <time>2014-05-01T08:01:09Z</time>
      </trkpt>
      <trkpt lat="45.63221" lon="4.6094">
        <ele>691.6</ele>
        <time>2014-05-01T08:01:11Z</time>
      </trkpt>
      <trkpt lat="45.63223" lon="4.60943">
        <ele>691.9</ele>
        <time>2014-05-01T08:01:13Z</time>
      </trkpt>
      <trkpt lat="45.63225" lon="4.60945">
        <ele>692</ele>
        <time>2014-05-01T08:01:15Z</time>
      </trkpt>
      <trkpt lat="45.63227" lon="4.60948">
        <ele>692.2</ele>
        <time>2014-05-01T08:01:17Z</time>
      </trkpt>
      <trkpt lat="45.63229" lon="4.60951">
        <ele>692.5</ele>
        <time>2014-05-01T08:01:19Z</time>
      </trkpt>
      <trkpt lat="45.63231" lon="4.60954">
        <ele>692.8</ele>
        <time>2014-05-01T08:01:21Z</time>
      </trkpt>
      <trkpt lat="45.63233" lon="4.60956">
        <ele>693.2</ele>
        <time>2014-05-01T08:01:23Z</time>
      </trkpt>
      <trkpt lat="45.63235" lon="4.60959">
        <ele>693.4</ele>
        <time>2014-05-01T08:01:25Z</time>
      </trkpt>
      <trkpt lat="45.63237" lon="4.60961">
        <ele>693.5</ele>
        <time>2014-05-01T08:01:27Z</time>
      </trkpt>
      <trkpt lat="45.63239" lon="4.60964">
        <ele>693.6</ele>
        <time>2014-05-01T08:01:29Z</time>
      </trkpt>
      <trkpt lat="45.63241" lon="4.60966">
        <ele>693.8</ele>
        <time>2014-05-01T08:01:31Z</time>
      </trkpt>
      <trkpt lat="45.63244" lon="4.60968">
        <ele>693.9</ele>
        <time>2014-05-01T08:01:33Z</time>
      </trkpt>
      <trkpt lat="45.63246" lon="4.60971">
        <ele>694</ele>
        <time>2014-05-01T08:01:35Z</time>
      </trkpt>
      <trkpt lat="45.63248" lon="4.60974">
        <ele>694.2</ele>
        <time>2014-05-01T08:01:37Z</time>
      </trkpt>
      <trkpt lat="45.6325" lon="4.60977">
        <ele>694.5</ele>
        <time>2014-05-01T08:01:39Z</time>
      </trkpt>
      <trkpt lat="45.63253" lon="4.6098">
        <ele>694.9</ele>
        <time>2014-05-01T08:01:41Z</time>
      </trkpt>
      <trkpt lat="45.63255" lon="4.60983">
        <ele>695.1</ele>
        <time>2014-05-01T08:01:43Z</time>
      </trkpt>
      <trkpt lat="45.63257" lon="4.60987">
        <ele>695.2</ele>
        <time>2014-05-01T08:01:45Z</time>
      </trkpt>
      <trkpt lat="45.6326" lon="4.6099">
        <ele>695.4</ele>
        <time>2014-05-01T08:01:47Z</time>
      </trkpt>
      <trkpt lat="45.63262" lon="4.60992">
        <ele>695.5</ele>
        <time>2014-05-01T08:01:49Z</time>
      </trkpt>
      <trkpt lat="45.63265" lon="4.60995">
        <ele>695.6</ele>
        <time>2014-05-01T08:01:51Z</time>
      </trkpt>
      <trkpt lat="45.63268" lon="4.60998">
        <ele>695.7</ele>
        <time>2014-05-01T08:01:53Z</time>
      </trkpt>
      <trkpt lat="45.6327" lon="4.61001">
        <ele>695.8</ele>
        <time>2014-05-01T08:01:55Z</time>
      </trkpt>
      <trkpt lat="45.63273" lon="4.61004">
        <ele>696</ele>
        <time>2014-05-01T08:01:57Z</time>
      </trkpt>
      <trkpt lat="45.63275" lon="4.61007">
        <ele>696.3</ele>
        <time>2014-05-01T08:01:59Z</time>
      </trkpt>
      <trkpt lat="45.63277" lon="4.61011">
        <ele>696.6</ele>
        <time>2014-05-01T08:02:01Z</time>
      </trkpt>
      <trkpt lat="45.63279" lon="4.61015">
        <ele>696.8</ele>
        <time>2014-05-01T08:02:03Z</time>
      </trkpt>
      <trkpt lat="45.63282" lon="4.61019">
        <ele>696.9</ele>
        <time>2014-05-01T08:02:05Z</time>
      </trkpt>
      <trkpt lat="45.63284" lon="4.61022">
        <ele>697.1</ele>
        <time>2014-05-01T08:02:07Z</time>
      </trkpt>
      <trkpt lat="45.63286" lon="4.61026">
        <ele>697.3</ele>
        <time>2014-05-01T08:02:09Z</time>
      </trkpt>
      <trkpt lat="45.63289" lon="4.6103">
        <ele>697.6</ele>
        <time>2014-05-01T08:02:11Z</time>
      </trkpt>
      <trkpt lat="45.63292" lon="4.61034">
        <ele>697.9</ele>
        <time>2014-05-01T08:02:13Z</time>
      </trkpt>
      <trkpt lat="45.63295" lon="4.61036">
        <ele>698.2</ele>
        <time>2014-05-01T08:02:15Z</time>
      </trkpt>
      <trkpt lat="45.63298" lon="4.6104">
        <ele>698.4</ele>
        <time>2014-05-01T08:02:17Z</time>
      </trkpt>
      <trkpt lat="45.633" lon="4.61044">
        <ele>698.4</ele>
        <time>2014-05-01T08:02:19Z</time>
      </trkpt>
      <trkpt lat="45.63303" lon="4.61049">
        <ele>698.5</ele>
        <time>2014-05-01T08:02:21Z</time>
      </trkpt>
      <trkpt lat="45.63307" lon="4.61053">
        <ele>698.6</ele>
        <time>2014-05-01T08:02:23Z</time>
      </trkpt>
      <trkpt lat="45.63311" lon="4.61056">
        <ele>698.8</ele>
        <time>2014-05-01T08:02:25Z</time>
      </trkpt>
      <trkpt lat="45.63314" lon="4.61056">
        <ele>700</ele>
        <time>2014-05-01T08:02:27Z</time>
      </trkpt>
      <trkpt lat="45.63313" lon="4.61053">
        <ele>700.4</ele>
        <time>2014-05-01T08:02:29Z</time>
      </trkpt>
      <trkpt lat="45.6331" lon="4.6105">
        <ele>700.9</ele>
        <time>2014-05-01T08:02:31Z</time>
      </trkpt>
      <trkpt lat="45.63307" lon="4.61047">
        <ele>701.5</ele>
        <time>2014-05-01T08:02:33Z</time>
      </trkpt>
      <trkpt lat="45.63306" lon="4.61043">
        <ele>701.8</ele>
        <time>2014-05-01T08:02:35Z</time>
      </trkpt>
      <trkpt lat="45.63305" lon="4.61038">
        <ele>702.1</ele>
        <time>2014-05-01T08:02:37Z</time>
      </trkpt>
      <trkpt lat="45.63305" lon="4.61034">
        <ele>702.4</ele>
        <time>2014-05-01T08:02:39Z</time>
      </trkpt>
      <trkpt lat="45.63305" lon="4.6103">
        <ele>702.8</ele>
        <time>2014-05-01T08:02:41Z</time>
      </trkpt>
      <trkpt lat="45.63305" lon="4.61026">
        <ele>703.4</ele>
        <time>2014-05-01T08:02:43Z</time>
      </trkpt>
      <trkpt lat="45.63304" lon="4.61021">
        <ele>703.9</ele>
        <time>2014-05-01T08:02:45Z</time>
      </trkpt>
      <trkpt lat="45.63303" lon="4.61017">
        <ele>704.4</ele>
        <time>2014-05-01T08:02:47Z</time>
      </trkpt>
      <trkpt lat="45.63303" lon="4.61013">
        <ele>704.8</ele>
        <time>2014-05-01T08:02:49Z</time>
      </trkpt>
      <trkpt lat="45.63302" lon="4.61009">
        <ele>705.1</ele>
        <time>2014-05-01T08:02:51Z</time>
      </trkpt>
      <trkpt lat="45.633" lon="4.61005">
        <ele>705.7</ele>
        <time>2014-05-01T08:02:53Z</time>
      </trkpt>
      <trkpt lat="45.63299" lon="4.61001">
        <ele>706.2</ele>
        <time>2014-05-01T08:02:55Z</time>
      </trkpt>
      <trkpt lat="45.63298" lon="4.60997">
        <ele>706.7</ele>
        <time>2014-05-01T08:02:57Z</time>
      </trkpt>
      <trkpt lat="45.63297" lon="4.60993">
        <ele>707.1</ele>
        <time>2014-05-01T08:02:59Z</time>
      </trkpt>
      <trkpt lat="45.63295" lon="4.60989">
        <ele>707.6</ele>
        <time>2014-05-01T08:03:01Z</time>
      </trkpt>
      <trkpt lat="45.63294" lon="4.60985">
        <ele>707.8</ele>
        <time>2014-05-01T08:03:03Z</time>
      </trkpt>
      <trkpt lat="45.63292" lon="4.60981">
        <ele>708.1</ele>
        <time>2014-05-01T08:03:05Z</time>
      </trkpt>
      <trkpt lat="45.6329" lon="4.60977">
        <ele>708.3</ele>
        <time>2014-05-01T08:03:07Z</time>
      </trkpt>
      <trkpt lat="45.63289" lon="4.60973">
        <ele>708.5</ele>
        <time>2014-05-01T08:03:09Z</time>
      </trkpt>
      <trkpt lat="45.63287" lon="4.60969">
        <ele>709</ele>
        <time>2014-05-01T08:03:11Z</time>
      </trkpt>
      <trkpt lat="45.63286" lon="4.60965">
        <ele>709.6</ele>
        <time>2014-05-01T08:03:13Z</time>
      </trkpt>
      <trkpt lat="45.63284" lon="4.60961">
        <ele>710.2</ele>
        <time>2014-05-01T08:03:15Z</time>
      </trkpt>
      <trkpt lat="45.63283" lon="4.60957">
        <ele>710.7</ele>
        <time>2014-05-01T08:03:17Z</time>
      </trkpt>
      <trkpt lat="45.63281" lon="4.60953">
        <ele>711.2</ele>
        <time>2014-05-01T08:03:19Z</time>
      </trkpt>
      <trkpt lat="45.63279" lon="4.60949">
        <ele>711.6</ele>
        <time>2014-05-01T08:03:21Z</time>
      </trkpt>
      <trkpt lat="45.63277" lon="4.60945">
        <ele>712.1</ele>
        <time>2014-05-01T08:03:23Z</time>
      </trkpt>
      <trkpt lat="45.63276" lon="4.60941">
        <ele>712.6</ele>
        <time>2014-05-01T08:03:25Z</time>
      </trkpt>
      <trkpt lat="45.63273" lon="4.60938">
        <ele>713.2</ele>
        <time>2014-05-01T08:03:27Z</time>
      </trkpt>
      <trkpt lat="45.63271" lon="4.60935">
        <ele>713.7</ele>
        <time>2014-05-01T08:03:29Z</time>
      </trkpt>
      <trkpt lat="45.63269" lon="4.60932">
        <ele>714.2</ele>
        <time>2014-05-01T08:03:31Z</time>
      </trkpt>
      <trkpt lat="45.63268" lon="4.60928">
        <ele>714.6</ele>
        <time>2014-05-01T08:03:33Z</time>
      </trkpt>
      <trkpt lat="45.63265" lon="4.60925">
        <ele>715</ele>
        <time>2014-05-01T08:03:35Z</time>
      </trkpt>
      <trkpt lat="45.63263" lon="4.60921">
        <ele>715.5</ele>
        <time>2014-05-01T08:03:37Z</time>
      </trkpt>
      <trkpt lat="45.63261" lon="4.60917">
        <ele>716</ele>
        <time>2014-05-01T08:03:39Z</time>
      </trkpt>
      <trkpt lat="45.6326" lon="4.60913">
        <ele>716.6</ele>
        <time>2014-05-01T08:03:41Z</time>
      </trkpt>
      <trkpt lat="45.63258" lon="4.60909">
        <ele>717.1</ele>
        <time>2014-05-01T08:03:43Z</time>
      </trkpt>
      <trkpt lat="45.63255" lon="4.60905">
        <ele>717.6</ele>
        <time>2014-05-01T08:03:45Z</time>
      </trkpt>
      <trkpt lat="45.63253" lon="4.60901">
        <ele>718</ele>
        <time>2014-05-01T08:03:47Z</time>
      </trkpt>
      <trkpt lat="45.63252" lon="4.60897">
        <ele>718.3</ele>
        <time>2014-05-01T08:03:49Z</time>
      </trkpt>
      <trkpt lat="45.6325" lon="4.60894">
        <ele>718.8</ele>
        <time>2014-05-01T08:03:51Z</time>
      </trkpt>
      <trkpt lat="45.63249" lon="4.60889">
        <ele>719.3</ele>
        <time>2014-05-01T08:03:53Z</time>
      </trkpt>
      <trkpt lat="45.63247" lon="4.60885">
        <ele>719.8</ele>
        <time>2014-05-01T08:03:55Z</time>
      </trkpt>
      <trkpt lat="45.63246" lon="4.60881">
        <ele>720.3</ele>
        <time>2014-05-01T08:03:57Z</time>
      </trkpt>
      <trkpt lat="45.63245" lon="4.60876">
        <ele>720.8</ele>
        <time>2014-05-01T08:03:59Z</time>
      </trkpt>
      <trkpt lat="45.63244" lon="4.60871">
        <ele>721.1</ele>
        <time>2014-05-01T08:04:01Z</time>
      </trkpt>
      <trkpt lat="45.63243" lon="4.60867">
        <ele>721.4</ele>
        <time>2014-05-01T08:04:03Z</time>
      </trkpt>
      <trkpt lat="45.63242" lon="4.60862">
        <ele>721.7</ele>
        <time>2014-05-01T08:04:05Z</time>
      </trkpt>
      <trkpt lat="45.6324" lon="4.60858">
        <ele>722.2</ele>
        <time>2014-05-01T08:04:07Z</time>
      </trkpt>
      <trkpt lat="45.63239" lon="4.60854">
        <ele>722.7</ele>
        <time>2014-05-01T08:04:09Z</time>
      </trkpt>
      <trkpt lat="45.63238" lon="4.60849">
        <ele>723.1</ele>
        <time>2014-05-01T08:04:11Z</time>
      </trkpt>
      <trkpt lat="45.63237" lon="4.60845">
        <ele>723.5</ele>
        <time>2014-05-01T08:04:13Z</time>
      </trkpt>
      <trkpt lat="45.63235" lon="4.60841">
        <ele>723.9</ele>
        <time>2014-05-01T08:04:15Z</time>
      </trkpt>
      <trkpt lat="45.63233" lon="4.60836">
        <ele>724.3</ele>
        <time>2014-05-01T08:04:17Z</time>
      </trkpt>
      <trkpt lat="45.63232" lon="4.60831">
        <ele>724.6</ele>
        <time>2014-05-01T08:04:19Z</time>
      </trkpt>
      <trkpt lat="45.63231" lon="4.60827">
        <ele>725.1</ele>
        <time>2014-05-01T08:04:21Z</time>
      </trkpt>
      <trkpt lat="45.63229" lon="4.60823">
        <ele>725.5</ele>
        <time>2014-05-01T08:04:23Z</time>
      </trkpt>
      <trkpt lat="45.63227" lon="4.60819">
        <ele>725.9</ele>
        <time>2014-05-01T08:04:25Z</time>
      </trkpt>
      <trkpt lat="45.63225" lon="4.60814">
        <ele>726.4</ele>
        <time>2014-05-01T08:04:27Z</time>
      </trkpt>
      <trkpt lat="45.63223" lon="4.60811">
        <ele>726.9</ele>
        <time>2014-05-01T08:04:29Z</time>
      </trkpt>
      <trkpt lat="45.63221" lon="4.60807">
        <ele>727.4</ele>
        <time>2014-05-01T08:04:31Z</time>
      </trkpt>
      <trkpt lat="45.63219" lon="4.60802">
        <ele>727.8</ele>
        <time>2014-05-01T08:04:33Z</time>
      </trkpt>
      <trkpt lat="45.63217" lon="4.60798">
        <ele>728.1</ele>
        <time>2014-05-01T08:04:35Z</time>
      </trkpt>
      <trkpt lat="45.63215" lon="4.60793">
        <ele>728.6</ele>
        <time>2014-05-01T08:04:37Z</time>
      </trkpt>
      <trkpt lat="45.63212" lon="4.60789">
        <ele>729.1</ele>
        <time>2014-05-01T08:04:39Z</time>
      </trkpt>
      <trkpt lat="45.6321" lon="4.60784">
        <ele>729.7</ele>
        <time>2014-05-01T08:04:41Z</time>
      </trkpt>
      <trkpt lat="45.63208" lon="4.60779">
        <ele>730.1</ele>
        <time>2014-05-01T08:04:43Z</time>
      </trkpt>
      <trkpt lat="45.63207" lon="4.60774">
        <ele>730.5</ele>
        <time>2014-05-01T08:04:45Z</time>
      </trkpt>
      <trkpt lat="45.63205" lon="4.60769">
        <ele>730.8</ele>
        <time>2014-05-01T08:04:47Z</time>
      </trkpt>
      <trkpt lat="45.63203" lon="4.60765">
        <ele>731.1</ele>
        <time>2014-05-01T08:04:49Z</time>
      </trkpt>
      <trkpt lat="45.63202" lon="4.60759">
        <ele>731.4</ele>
        <time>2014-05-01T08:04:51Z</time>
      </trkpt>
      <trkpt lat="45.632" lon="4.60754">
        <ele>731.9</ele>
        <time>2014-05-01T08:04:53Z</time>
      </trkpt>
      <trkpt lat="45.63199" lon="4.60749">
        <ele>732.5</ele>
        <time>2014-05-01T08:04:55Z</time>
      </trkpt>
      <trkpt lat="45.63197" lon="4.60744">
        <ele>733</ele>
        <time>2014-05-01T08:04:57Z</time>
      </trkpt>
      <trkpt lat="45.63196" lon="4.60738">
        <ele>733.5</ele>
        <time>2014-05-01T08:04:59Z</time>
      </trkpt>
      <trkpt lat="45.63195" lon="4.60732">
        <ele>733.8</ele>
        <time>2014-05-01T08:05:01Z</time>
      </trkpt>
      <trkpt lat="45.63193" lon="4.60727">
        <ele>734.1</ele>
        <time>2014-05-01T08:05:03Z</time>
      </trkpt>
      <trkpt lat="45.63192" lon="4.60721">
        <ele>734.5</ele>
        <time>2014-05-01T08:05:05Z</time>
      </trkpt>
      <trkpt lat="45.63191" lon="4.60716">
        <ele>734.9</ele>
        <time>2014-05-01T08:05:07Z</time>
      </trkpt>
      <trkpt lat="45.63189" lon="4.6071">
        <ele>735.5</ele>
        <time>2014-05-01T08:05:09Z</time>
      </trkpt>
      <trkpt lat="45.63188" lon="4.60705">
        <ele>736</ele>
        <time>2014-05-01T08:05:11Z</time>
      </trkpt>
      <trkpt lat="45.63186" lon="4.60699">
        <ele>736.5</ele>
        <time>2014-05-01T08:05:13Z</time>
      </trkpt>
      <trkpt lat="45.63185" lon="4.60694">
        <ele>736.8</ele>
        <time>2014-05-01T08:05:15Z</time>
      </trkpt>
      <trkpt lat="45.63184" lon="4.60689">
        <ele>737.1</ele>
        <time>2014-05-01T08:05:17Z</time>
      </trkpt>
      <trkpt lat="45.63182" lon="4.60684">
        <ele>737.3</ele>
        <time>2014-05-01T08:05:19Z</time>
      </trkpt>
      <trkpt lat="45.63181" lon="4.60679">
        <ele>737.6</ele>
        <time>2014-05-01T08:05:21Z</time>
      </trkpt>
      <trkpt lat="45.6318" lon="4.60675">
        <ele>738</ele>
        <time>2014-05-01T08:05:23Z</time>
      </trkpt>
      <trkpt lat="45.6318" lon="4.6067">
        <ele>738.5</ele>
        <time>2014-05-01T08:05:25Z</time>
      </trkpt>
      <trkpt lat="45.63179" lon="4.60667">
        <ele>738.7</ele>
        <time>2014-05-01T08:05:35Z</time>
      </trkpt>
      <trkpt lat="45.63179" lon="4.60665">
        <ele>738.9</ele>
        <time>2014-05-01T08:05:37Z</time>
      </trkpt>
      <trkpt lat="45.63178" lon="4.60664">
        <ele>739</ele>
        <time>2014-05-01T08:05:39Z</time>
      </trkpt>
      <trkpt lat="45.63178" lon="4.60663">
        <ele>739.2</ele>
        <time>2014-05-01T08:05:41Z</time>
      </trkpt>
      <trkpt lat="45.63176" lon="4.60659">
        <ele>739.6</ele>
        <time>2014-05-01T08:05:47Z</time>
      </trkpt>
      <trkpt lat="45.63175" lon="4.60655">
        <ele>739.8</ele>
        <time>2014-05-01T08:05:51Z</time>
      </trkpt>
      <trkpt lat="45.63174" lon="4.60648">
        <ele>740.1</ele>
        <time>2014-05-01T08:05:59Z</time>
      </trkpt>
      <trkpt lat="45.63174" lon="4.60646">
        <ele>740.2</ele>
        <time>2014-05-01T08:06:01Z</time>
      </trkpt>
      <trkpt lat="45.63173" lon="4.60644">
        <ele>740.3</ele>
        <time>2014-05-01T08:06:03Z</time>
      </trkpt>
      <trkpt lat="45.63173" lon="4.60642">
        <ele>740.4</ele>
        <time>2014-05-01T08:06:05Z</time>
      </trkpt>
      <trkpt lat="45.63172" lon="4.6064">
        <ele>740.5</ele>
        <time>2014-05-01T08:06:07Z</time>
      </trkpt>
      <trkpt lat="45.63171" lon="4.60638">
        <ele>740.6</ele>
        <time>2014-05-01T08:06:09Z</time>
      </trkpt>
      <trkpt lat="45.63171" lon="4.60636">
        <ele>740.8</ele>
        <time>2014-05-01T08:06:11Z</time>
      </trkpt>
      <trkpt lat="45.6317" lon="4.60634">
        <ele>741</ele>
        <time>2014-05-01T08:06:13Z</time>
      </trkpt>
      <trkpt lat="45.63169" lon="4.60632">
        <ele>741.2</ele>
        <time>2014-05-01T08:06:15Z</time>
      </trkpt>
      <trkpt lat="45.63168" lon="4.6063">
        <ele>741.4</ele>
        <time>2014-05-01T08:06:17Z</time>
      </trkpt>
      <trkpt lat="45.63167" lon="4.60629">
        <ele>741.6</ele>
        <time>2014-05-01T08:06:19Z</time>
      </trkpt>
      <trkpt lat="45.63166" lon="4.60625">
        <ele>741.9</ele>
        <time>2014-05-01T08:06:23Z</time>
      </trkpt>
      <trkpt lat="45.63166" lon="4.60623">
        <ele>742.1</ele>
        <time>2014-05-01T08:06:25Z</time>
      </trkpt>
      <trkpt lat="45.63165" lon="4.60621">
        <ele>742.4</ele>
        <time>2014-05-01T08:06:27Z</time>
      </trkpt>
      <trkpt lat="45.63163" lon="4.6062">
        <ele>742.6</ele>
        <time>2014-05-01T08:06:29Z</time>
      </trkpt>
      <trkpt lat="45.6316" lon="4.60619">
        <ele>742.9</ele>
        <time>2014-05-01T08:06:31Z</time>
      </trkpt>
      <trkpt lat="45.63158" lon="4.60618">
        <ele>743.1</ele>
        <time>2014-05-01T08:06:33Z</time>
      </trkpt>
      <trkpt lat="45.63157" lon="4.60616">
        <ele>743.2</ele>
        <time>2014-05-01T08:06:35Z</time>
      </trkpt>
      <trkpt lat="45.63155" lon="4.60614">
        <ele>743.4</ele>
        <time>2014-05-01T08:06:37Z</time>
      </trkpt>
      <trkpt lat="45.63153" lon="4.60612">
        <ele>743.6</ele>
        <time>2014-05-01T08:06:39Z</time>
      </trkpt>
      <trkpt lat="45.63151" lon="4.60611">
        <ele>743.8</ele>
        <time>2014-05-01T08:06:41Z</time>
      </trkpt>
      <trkpt lat="45.63149" lon="4.6061">
        <ele>744</ele>
        <time>2014-05-01T08:06:43Z</time>
      </trkpt>
      <trkpt lat="45.63146" lon="4.60609">
        <ele>744.3</ele>
        <time>2014-05-01T08:06:45Z</time>
      </trkpt>
      <trkpt lat="45.63145" lon="4.60607">
        <ele>744.5</ele>
        <time>2014-05-01T08:06:47Z</time>
      </trkpt>
      <trkpt lat="45.63143" lon="4.60606">
        <ele>744.8</ele>
        <time>2014-05-01T08:06:49Z</time>
      </trkpt>
      <trkpt lat="45.63142" lon="4.60604">
        <ele>745</ele>
        <time>2014-05-01T08:06:51Z</time>
      </trkpt>
      <trkpt lat="45.63139" lon="4.60603">
        <ele>745.4</ele>
        <time>2014-05-01T08:06:53Z</time>
      </trkpt>
      <trkpt lat="45.63137" lon="4.60602">
        <ele>745.6</ele>
        <time>2014-05-01T08:06:55Z</time>
      </trkpt>
      <trkpt lat="45.63135" lon="4.606">
        <ele>746</ele>
        <time>2014-05-01T08:06:57Z</time>
      </trkpt>
      <trkpt lat="45.63134" lon="4.60598">
        <ele>746.3</ele>
        <time>2014-05-01T08:06:59Z</time>
      </trkpt>
      <trkpt lat="45.63131" lon="4.60597">
        <ele>746.5</ele>
        <time>2014-05-01T08:07:01Z</time>
      </trkpt>
      <trkpt lat="45.6313" lon="4.60595">
        <ele>746.6</ele>
        <time>2014-05-01T08:07:03Z</time>
      </trkpt>
      <trkpt lat="45.63128" lon="4.60593">
        <ele>746.8</ele>
        <time>2014-05-01T08:07:05Z</time>
      </trkpt>
      <trkpt lat="45.63127" lon="4.60591">
        <ele>746.9</ele>
        <time>2014-05-01T08:07:07Z</time>
      </trkpt>
      <trkpt lat="45.63126" lon="4.60589">
        <ele>747</ele>
        <time>2014-05-01T08:07:09Z</time>
      </trkpt>
      <trkpt lat="45.63125" lon="4.60587">
        <ele>747.1</ele>
        <time>2014-05-01T08:07:11Z</time>
      </trkpt>
      <trkpt lat="45.63123" lon="4.60585">
        <ele>747.3</ele>
        <time>2014-05-01T08:07:13Z</time>
      </trkpt>
      <trkpt lat="45.63123" lon="4.60582">
        <ele>747.4</ele>
        <time>2014-05-01T08:07:15Z</time>
      </trkpt>
      <trkpt lat="45.63122" lon="4.6058">
        <ele>747.5</ele>
        <time>2014-05-01T08:07:17Z</time>
      </trkpt>
      <trkpt lat="45.63121" lon="4.60577">
        <ele>747.8</ele>
        <time>2014-05-01T08:07:19Z</time>
      </trkpt>
      <trkpt lat="45.6312" lon="4.60575">
        <ele>748</ele>
        <time>2014-05-01T08:07:21Z</time>
      </trkpt>
      <trkpt lat="45.63119" lon="4.60573">
        <ele>748.3</ele>
        <time>2014-05-01T08:07:23Z</time>
      </trkpt>
      <trkpt lat="45.63118" lon="4.60571">
        <ele>748.5</ele>
        <time>2014-05-01T08:07:25Z</time>
      </trkpt>
      <trkpt lat="45.63118" lon="4.60568">
        <ele>748.8</ele>
        <time>2014-05-01T08:07:27Z</time>
      </trkpt>
      <trkpt lat="45.63117" lon="4.60565">
        <ele>749.1</ele>
        <time>2014-05-01T08:07:29Z</time>
      </trkpt>
      <trkpt lat="45.63115" lon="4.60563">
        <ele>749.3</ele>
        <time>2014-05-01T08:07:31Z</time>
      </trkpt>
      <trkpt lat="45.63114" lon="4.60561">
        <ele>749.5</ele>
        <time>2014-05-01T08:07:33Z</time>
      </trkpt>
      <trkpt lat="45.63113" lon="4.60558">
        <ele>749.7</ele>
        <time>2014-05-01T08:07:35Z</time>
      </trkpt>
      <trkpt lat="45.63112" lon="4.60556">
        <ele>749.9</ele>
        <time>2014-05-01T08:07:37Z</time>
      </trkpt>
      <trkpt lat="45.63111" lon="4.60553">
        <ele>750.1</ele>
        <time>2014-05-01T08:07:39Z</time>
      </trkpt>
      <trkpt lat="45.6311" lon="4.6055">
        <ele>750.4</ele>
        <time>2014-05-01T08:07:41Z</time>
      </trkpt>
      <trkpt lat="45.63109" lon="4.60548">
        <ele>750.6</ele>
        <time>2014-05-01T08:07:43Z</time>
      </trkpt>
      <trkpt lat="45.63109" lon="4.60545">
        <ele>750.9</ele>
        <time>2014-05-01T08:07:45Z</time>
      </trkpt>
      <trkpt lat="45.63108" lon="4.60542">
        <ele>751.2</ele>
        <time>2014-05-01T08:07:47Z</time>
      </trkpt>
      <trkpt lat="45.63107" lon="4.60539">
        <ele>751.5</ele>
        <time>2014-05-01T08:07:49Z</time>
      </trkpt>
      <trkpt lat="45.63107" lon="4.60536">
        <ele>751.8</ele>
        <time>2014-05-01T08:07:51Z</time>
      </trkpt>
      <trkpt lat="45.63106" lon="4.60533">
        <ele>752.1</ele>
        <time>2014-05-01T08:07:53Z</time>
      </trkpt>
      <trkpt lat="45.63105" lon="4.6053">
        <ele>752.4</ele>
        <time>2014-05-01T08:07:55Z</time>
      </trkpt>
      <trkpt lat="45.63105" lon="4.60527">
        <ele>752.6</ele>
        <time>2014-05-01T08:07:57Z</time>
      </trkpt>
      <trkpt lat="45.63104" lon="4.60524">
        <ele>752.8</ele>
        <time>2014-05-01T08:07:59Z</time>
      </trkpt>
      <trkpt lat="45.63104" lon="4.60521">
        <ele>752.9</ele>
        <time>2014-05-01T08:08:01Z</time>
      </trkpt>
      <trkpt lat="45.63102" lon="4.60519">
        <ele>753</ele>
        <time>2014-05-01T08:08:03Z</time>
      </trkpt>
      <trkpt lat="45.63102" lon="4.60516">
        <ele>753.2</ele>
        <time>2014-05-01T08:08:09Z</time>
      </trkpt>
      <trkpt lat="45.63101" lon="4.60512">
        <ele>753.5</ele>
        <time>2014-05-01T08:08:11Z</time>
      </trkpt>
      <trkpt lat="45.63099" lon="4.60508">
        <ele>754</ele>
        <time>2014-05-01T08:08:13Z</time>
      </trkpt>
      <trkpt lat="45.63096" lon="4.60504">
        <ele>754.5</ele>
        <time>2014-05-01T08:08:15Z</time>
      </trkpt>
      <trkpt lat="45.63094" lon="4.605">
        <ele>755</ele>
        <time>2014-05-01T08:08:17Z</time>
      </trkpt>
      <trkpt lat="45.63091" lon="4.60496">
        <ele>755.5</ele>
        <time>2014-05-01T08:08:19Z</time>
      </trkpt>
      <trkpt lat="45.63087" lon="4.60492">
        <ele>755.8</ele>
        <time>2014-05-01T08:08:21Z</time>
      </trkpt>
      <trkpt lat="45.63084" lon="4.60486">
        <ele>756.1</ele>
        <time>2014-05-01T08:08:23Z</time>
      </trkpt>
      <trkpt lat="45.6308" lon="4.60481">
        <ele>756.5</ele>
        <time>2014-05-01T08:08:25Z</time>
      </trkpt>
      <trkpt lat="45.63076" lon="4.60475">
        <ele>756.9</ele>
        <time>2014-05-01T08:08:27Z</time>
      </trkpt>
      <trkpt lat="45.63072" lon="4.6047">
        <ele>757.6</ele>
        <time>2014-05-01T08:08:29Z</time>
      </trkpt>
      <trkpt lat="45.63068" lon="4.60465">
        <ele>758.5</ele>
        <time>2014-05-01T08:08:31Z</time>
      </trkpt>
      <trkpt lat="45.63062" lon="4.6046">
        <ele>759.3</ele>
        <time>2014-05-01T08:08:33Z</time>
      </trkpt>
      <trkpt lat="45.63057" lon="4.60456">
        <ele>759.7</ele>
        <time>2014-05-01T08:08:35Z</time>
      </trkpt>
      <trkpt lat="45.63052" lon="4.60453">
        <ele>760.4</ele>
        <time>2014-05-01T08:08:37Z</time>
      </trkpt>
      <trkpt lat="45.63044" lon="4.60451">
        <ele>761.3</ele>
        <time>2014-05-01T08:08:39Z</time>
      </trkpt>
      <trkpt lat="45.63035" lon="4.6045">
        <ele>762.1</ele>
        <time>2014-05-01T08:08:41Z</time>
      </trkpt>
      <trkpt lat="45.63027" lon="4.60449">
        <ele>762.7</ele>
        <time>2014-05-01T08:08:43Z</time>
      </trkpt>
      <trkpt lat="45.6302" lon="4.60451">
        <ele>763.5</ele>
        <time>2014-05-01T08:08:45Z</time>
      </trkpt>
      <trkpt lat="45.63013" lon="4.60454">
        <ele>764.3</ele>
        <time>2014-05-01T08:08:47Z</time>
      </trkpt>
      <trkpt lat="45.63007" lon="4.60455">
        <ele>764.9</ele>
        <time>2014-05-01T08:08:49Z</time>
      </trkpt>
      <trkpt lat="45.63002" lon="4.60457">
        <ele>765.6</ele>
        <time>2014-05-01T08:08:51Z</time>
      </trkpt>
      <trkpt lat="45.62999" lon="4.60458">
        <ele>766.1</ele>
        <time>2014-05-01T08:08:53Z</time>
      </trkpt>
      <trkpt lat="45.62995" lon="4.60459">
        <ele>766.6</ele>
        <time>2014-05-01T08:08:55Z</time>
      </trkpt>
      <trkpt lat="45.62992" lon="4.60461">
        <ele>767.1</ele>
        <time>2014-05-01T08:08:57Z</time>
      </trkpt>
      <trkpt lat="45.6299" lon="4.60463">
        <ele>767.5</ele>
        <time>2014-05-01T08:08:59Z</time>
      </trkpt>
      <trkpt lat="45.62988" lon="4.60464">
        <ele>767.8</ele>
        <time>2014-05-01T08:09:01Z</time>
      </trkpt>
      <trkpt lat="45.62986" lon="4.60465">
        <ele>768</ele>
        <time>2014-05-01T08:09:03Z</time>
      </trkpt>
      <trkpt lat="45.62985" lon="4.60467">
        <ele>768.3</ele>
        <time>2014-05-01T08:09:05Z</time>
      </trkpt>
      <trkpt lat="45.62983" lon="4.60468">
        <ele>768.5</ele>
        <time>2014-05-01T08:09:07Z</time>
      </trkpt>
      <trkpt lat="45.62982" lon="4.6047">
        <ele>768.7</ele>
        <time>2014-05-01T08:09:09Z</time>
      </trkpt>
      <trkpt lat="45.62981" lon="4.60472">
        <ele>768.8</ele>
        <time>2014-05-01T08:09:11Z</time>
      </trkpt>
      <trkpt lat="45.6298" lon="4.60473">
        <ele>769</ele>
        <time>2014-05-01T08:09:13Z</time>
      </trkpt>
      <trkpt lat="45.62978" lon="4.60475">
        <ele>769.1</ele>
        <time>2014-05-01T08:09:15Z</time>
      </trkpt>
      <trkpt lat="45.62977" lon="4.60477">
        <ele>769.2</ele>
        <time>2014-05-01T08:09:17Z</time>
      </trkpt>
      <trkpt lat="45.62976" lon="4.6048">
        <ele>769.4</ele>
        <time>2014-05-01T08:09:19Z</time>
      </trkpt>
      <trkpt lat="45.62974" lon="4.60482">
        <ele>769.5</ele>
        <time>2014-05-01T08:09:21Z</time>
      </trkpt>
      <trkpt lat="45.62973" lon="4.60485">
        <ele>769.7</ele>
        <time>2014-05-01T08:09:23Z</time>
      </trkpt>
      <trkpt lat="45.62971" lon="4.60488">
        <ele>770</ele>
        <time>2014-05-01T08:09:25Z</time>
      </trkpt>
      <trkpt lat="45.6297" lon="4.6049">
        <ele>770.3</ele>
        <time>2014-05-01T08:09:27Z</time>
      </trkpt>
      <trkpt lat="45.62964" lon="4.60497">
        <ele>771.1</ele>
        <time>2014-05-01T08:09:41Z</time>
      </trkpt>
      <trkpt lat="45.62963" lon="4.60499">
        <ele>771.3</ele>
        <time>2014-05-01T08:09:43Z</time>
      </trkpt>
      <trkpt lat="45.62961" lon="4.60501">
        <ele>771.5</ele>
        <time>2014-05-01T08:09:45Z</time>
      </trkpt>
      <trkpt lat="45.62958" lon="4.60504">
        <ele>771.9</ele>
        <time>2014-05-01T08:09:51Z</time>
      </trkpt>
      <trkpt lat="45.62956" lon="4.60505">
        <ele>772.2</ele>
        <time>2014-05-01T08:09:53Z</time>
      </trkpt>
      <trkpt lat="45.62954" lon="4.60507">
        <ele>772.3</ele>
        <time>2014-05-01T08:09:55Z</time>
      </trkpt>
      <trkpt lat="45.62952" lon="4.60509">
        <ele>772.5</ele>
        <time>2014-05-01T08:10:01Z</time>
      </trkpt>
      <trkpt lat="45.62951" lon="4.6051">
        <ele>772.6</ele>
        <time>2014-05-01T08:10:03Z</time>
      </trkpt>
      <trkpt lat="45.62949" lon="4.60512">
        <ele>772.7</ele>
        <time>2014-05-01T08:10:05Z</time>
      </trkpt>
      <trkpt lat="45.62948" lon="4.60513">
        <ele>772.8</ele>
        <time>2014-05-01T08:10:07Z</time>
      </trkpt>
      <trkpt lat="45.62946" lon="4.60514">
        <ele>773.7</ele>
        <time>2014-05-01T08:10:09Z</time>
      </trkpt>
      <trkpt lat="45.62944" lon="4.60515">
        <ele>774</ele>
        <time>2014-05-01T08:10:11Z</time>
      </trkpt>
      <trkpt lat="45.62943" lon="4.60516">
        <ele>774.9</ele>
        <time>2014-05-01T08:10:13Z</time>
      </trkpt>
      <trkpt lat="45.62941" lon="4.60517">
        <ele>774.7</ele>
        <time>2014-05-01T08:10:15Z</time>
      </trkpt>
      <trkpt lat="45.62939" lon="4.60518">
        <ele>775.6</ele>
        <time>2014-05-01T08:10:17Z</time>
      </trkpt>
      <trkpt lat="45.62938" lon="4.60518">
        <ele>776</ele>
        <time>2014-05-01T08:10:19Z</time>
      </trkpt>
      <trkpt lat="45.62936" lon="4.60519">
        <ele>777</ele>
        <time>2014-05-01T08:10:21Z</time>
      </trkpt>
      <trkpt lat="45.62935" lon="4.60519">
        <ele>777.4</ele>
        <time>2014-05-01T08:10:23Z</time>
      </trkpt>
      <trkpt lat="45.62933" lon="4.6052">
        <ele>778.5</ele>
        <time>2014-05-01T08:10:25Z</time>
      </trkpt>
      <trkpt lat="45.62932" lon="4.60521">
        <ele>778.4</ele>
        <time>2014-05-01T08:10:27Z</time>
      </trkpt>
      <trkpt lat="45.6293" lon="4.60522">
        <ele>779.6</ele>
        <time>2014-05-01T08:10:29Z</time>
      </trkpt>
      <trkpt lat="45.62928" lon="4.60524">
        <ele>780.8</ele>
        <time>2014-05-01T08:10:31Z</time>
      </trkpt>
      <trkpt lat="45.62927" lon="4.60525">
        <ele>780.6</ele>
        <time>2014-05-01T08:10:33Z</time>
      </trkpt>
      <trkpt lat="45.62925" lon="4.60525">
        <ele>781.8</ele>
        <time>2014-05-01T08:10:35Z</time>
      </trkpt>
      <trkpt lat="45.62923" lon="4.60527">
        <ele>782.1</ele>
        <time>2014-05-01T08:10:37Z</time>
      </trkpt>
      <trkpt lat="45.62921" lon="4.60528">
        <ele>783.2</ele>
        <time>2014-05-01T08:10:39Z</time>
      </trkpt>
      <trkpt lat="45.6292" lon="4.60529">
        <ele>783.6</ele>
        <time>2014-05-01T08:10:41Z</time>
      </trkpt>
      <trkpt lat="45.62918" lon="4.6053">
        <ele>784.1</ele>
        <time>2014-05-01T08:10:43Z</time>
      </trkpt>
      <trkpt lat="45.62916" lon="4.60531">
        <ele>785.1</ele>
        <time>2014-05-01T08:10:45Z</time>
      </trkpt>
      <trkpt lat="45.62912" lon="4.60533">
        <ele>786.2</ele>
        <time>2014-05-01T08:10:49Z</time>
      </trkpt>
      <trkpt lat="45.62911" lon="4.60534">
        <ele>785.8</ele>
        <time>2014-05-01T08:10:51Z</time>
      </trkpt>
      <trkpt lat="45.62908" lon="4.60535">
        <ele>787.1</ele>
        <time>2014-05-01T08:10:53Z</time>
      </trkpt>
      <trkpt lat="45.62906" lon="4.60536">
        <ele>788.4</ele>
        <time>2014-05-01T08:10:55Z</time>
      </trkpt>
      <trkpt lat="45.62904" lon="4.60537">
        <ele>789.8</ele>
        <time>2014-05-01T08:10:57Z</time>
      </trkpt>
      <trkpt lat="45.62901" lon="4.60539">
        <ele>790.4</ele>
        <time>2014-05-01T08:10:59Z</time>
      </trkpt>
      <trkpt lat="45.62899" lon="4.60541">
        <ele>790.8</ele>
        <time>2014-05-01T08:11:01Z</time>
      </trkpt>
      <trkpt lat="45.62897" lon="4.60542">
        <ele>792.2</ele>
        <time>2014-05-01T08:11:03Z</time>
      </trkpt>
      <trkpt lat="45.62895" lon="4.60542">
        <ele>792.6</ele>
        <time>2014-05-01T08:11:05Z</time>
      </trkpt>
      <trkpt lat="45.62893" lon="4.60544">
        <ele>792.9</ele>
        <time>2014-05-01T08:11:07Z</time>
      </trkpt>
      <trkpt lat="45.62891" lon="4.60545">
        <ele>794.3</ele>
        <time>2014-05-01T08:11:09Z</time>
      </trkpt>
      <trkpt lat="45.62886" lon="4.60548">
        <ele>795.3</ele>
        <time>2014-05-01T08:11:17Z</time>
      </trkpt>
      <trkpt lat="45.62884" lon="4.60549">
        <ele>795.6</ele>
        <time>2014-05-01T08:11:19Z</time>
      </trkpt>
      <trkpt lat="45.62882" lon="4.6055">
        <ele>795.5</ele>
        <time>2014-05-01T08:11:21Z</time>
      </trkpt>
      <trkpt lat="45.62881" lon="4.60551">
        <ele>795.9</ele>
        <time>2014-05-01T08:11:23Z</time>
      </trkpt>
      <trkpt lat="45.62878" lon="4.60553">
        <ele>797</ele>
        <time>2014-05-01T08:11:27Z</time>
      </trkpt>
      <trkpt lat="45.62875" lon="4.60554">
        <ele>798.2</ele>
        <time>2014-05-01T08:11:29Z</time>
      </trkpt>
      <trkpt lat="45.62872" lon="4.60556">
        <ele>797.9</ele>
        <time>2014-05-01T08:11:33Z</time>
      </trkpt>
      <trkpt lat="45.62867" lon="4.60558">
        <ele>799.3</ele>
        <time>2014-05-01T08:11:37Z</time>
      </trkpt>
      <trkpt lat="45.62865" lon="4.60559">
        <ele>799.9</ele>
        <time>2014-05-01T08:11:39Z</time>
      </trkpt>
      <trkpt lat="45.62864" lon="4.60559">
        <ele>798.7</ele>
        <time>2014-05-01T08:11:41Z</time>
      </trkpt>
      <trkpt lat="45.62862" lon="4.6056">
        <ele>799.2</ele>
        <time>2014-05-01T08:11:43Z</time>
      </trkpt>
      <trkpt lat="45.62859" lon="4.6056">
        <ele>799.7</ele>
        <time>2014-05-01T08:11:45Z</time>
      </trkpt>
      <trkpt lat="45.62858" lon="4.6056">
        <ele>800</ele>
        <time>2014-05-01T08:11:47Z</time>
      </trkpt>
      <trkpt lat="45.62856" lon="4.60561">
        <ele>800.4</ele>
        <time>2014-05-01T08:11:49Z</time>
      </trkpt>
      <trkpt lat="45.62854" lon="4.60561">
        <ele>800.7</ele>
        <time>2014-05-01T08:11:51Z</time>
      </trkpt>
      <trkpt lat="45.62851" lon="4.60561">
        <ele>801.1</ele>
        <time>2014-05-01T08:11:53Z</time>
      </trkpt>
      <trkpt lat="45.62849" lon="4.60562">
        <ele>801.5</ele>
        <time>2014-05-01T08:11:55Z</time>
      </trkpt>
      <trkpt lat="45.62847" lon="4.60562">
        <ele>801.8</ele>
        <time>2014-05-01T08:11:57Z</time>
      </trkpt>
      <trkpt lat="45.62845" lon="4.60562">
        <ele>802.1</ele>
        <time>2014-05-01T08:11:59Z</time>
      </trkpt>
      <trkpt lat="45.62843" lon="4.60562">
        <ele>802.5</ele>
        <time>2014-05-01T08:12:01Z</time>
      </trkpt>
      <trkpt lat="45.62841" lon="4.60562">
        <ele>803</ele>
        <time>2014-05-01T08:12:03Z</time>
      </trkpt>
      <trkpt lat="45.62838" lon="4.60562">
        <ele>803.4</ele>
        <time>2014-05-01T08:12:05Z</time>
      </trkpt>
      <trkpt lat="45.62837" lon="4.60563">
        <ele>803.7</ele>
        <time>2014-05-01T08:12:07Z</time>
      </trkpt>
      <trkpt lat="45.62835" lon="4.60563">
        <ele>804.3</ele>
        <time>2014-05-01T08:12:09Z</time>
      </trkpt>
      <trkpt lat="45.62832" lon="4.60563">
        <ele>804.9</ele>
        <time>2014-05-01T08:12:11Z</time>
      </trkpt>
      <trkpt lat="45.6283" lon="4.60563">
        <ele>805.2</ele>
        <time>2014-05-01T08:12:13Z</time>
      </trkpt>
      <trkpt lat="45.62829" lon="4.60562">
        <ele>806</ele>
        <time>2014-05-01T08:12:15Z</time>
      </trkpt>
      <trkpt lat="45.62827" lon="4.60562">
        <ele>806.3</ele>
        <time>2014-05-01T08:12:17Z</time>
      </trkpt>
      <trkpt lat="45.62825" lon="4.60561">
        <ele>807.2</ele>
        <time>2014-05-01T08:12:19Z</time>
      </trkpt>
      <trkpt lat="45.62823" lon="4.60561">
        <ele>808.2</ele>
        <time>2014-05-01T08:12:21Z</time>
      </trkpt>
      <trkpt lat="45.62821" lon="4.6056">
        <ele>808.5</ele>
        <time>2014-05-01T08:12:23Z</time>
      </trkpt>
      <trkpt lat="45.62819" lon="4.60559">
        <ele>809.6</ele>
        <time>2014-05-01T08:12:25Z</time>
      </trkpt>
      <trkpt lat="45.62817" lon="4.60559">
        <ele>812.4</ele>
        <time>2014-05-01T08:12:27Z</time>
      </trkpt>
      <trkpt lat="45.62815" lon="4.60558">
        <ele>812.8</ele>
        <time>2014-05-01T08:12:29Z</time>
      </trkpt>
      <trkpt lat="45.62813" lon="4.60558">
        <ele>813.9</ele>
        <time>2014-05-01T08:12:31Z</time>
      </trkpt>
      <trkpt lat="45.62811" lon="4.60557">
        <ele>814.9</ele>
        <time>2014-05-01T08:12:33Z</time>
      </trkpt>
      <trkpt lat="45.62809" lon="4.60557">
        <ele>815.2</ele>
        <time>2014-05-01T08:12:35Z</time>
      </trkpt>
      <trkpt lat="45.62808" lon="4.60556">
        <ele>816.1</ele>
        <time>2014-05-01T08:12:37Z</time>
      </trkpt>
      <trkpt lat="45.62806" lon="4.60556">
        <ele>816.5</ele>
        <time>2014-05-01T08:12:39Z</time>
      </trkpt>
      <trkpt lat="45.62804" lon="4.60554">
        <ele>818.7</ele>
        <time>2014-05-01T08:12:41Z</time>
      </trkpt>
      <trkpt lat="45.62803" lon="4.60553">
        <ele>819</ele>
        <time>2014-05-01T08:12:43Z</time>
      </trkpt>
      <trkpt lat="45.62801" lon="4.60552">
        <ele>819.7</ele>
        <time>2014-05-01T08:12:45Z</time>
      </trkpt>
      <trkpt lat="45.628" lon="4.6055">
        <ele>821.4</ele>
        <time>2014-05-01T08:12:47Z</time>
      </trkpt>
      <trkpt lat="45.62799" lon="4.60547">
        <ele>822</ele>
        <time>2014-05-01T08:12:49Z</time>
      </trkpt>
      <trkpt lat="45.62799" lon="4.60545">
        <ele>822.2</ele>
        <time>2014-05-01T08:12:51Z</time>
      </trkpt>
      <trkpt lat="45.628" lon="4.60543">
        <ele>822.3</ele>
        <time>2014-05-01T08:12:53Z</time>
      </trkpt>
      <trkpt lat="45.628" lon="4.60541">
        <ele>822.4</ele>
        <time>2014-05-01T08:12:55Z</time>
      </trkpt>
      <trkpt lat="45.62804" lon="4.60535">
        <ele>823</ele>
        <time>2014-05-01T08:13:11Z</time>
      </trkpt>
      <trkpt lat="45.62806" lon="4.60534">
        <ele>823.1</ele>
        <time>2014-05-01T08:13:13Z</time>
      </trkpt>
      <trkpt lat="45.62807" lon="4.60533">
        <ele>823.3</ele>
        <time>2014-05-01T08:13:15Z</time>
      </trkpt>
      <trkpt lat="45.62809" lon="4.60533">
        <ele>823.4</ele>
        <time>2014-05-01T08:13:17Z</time>
      </trkpt>
      <trkpt lat="45.62811" lon="4.60531">
        <ele>823.7</ele>
        <time>2014-05-01T08:13:21Z</time>
      </trkpt>
      <trkpt lat="45.62812" lon="4.60531">
        <ele>823.8</ele>
        <time>2014-05-01T08:13:23Z</time>
      </trkpt>
      <trkpt lat="45.62814" lon="4.6053">
        <ele>823.9</ele>
        <time>2014-05-01T08:13:25Z</time>
      </trkpt>
      <trkpt lat="45.62815" lon="4.6053">
        <ele>824</ele>
        <time>2014-05-01T08:13:27Z</time>
      </trkpt>
      <trkpt lat="45.62816" lon="4.6053">
        <ele>824.2</ele>
        <time>2014-05-01T08:13:29Z</time>
      </trkpt>
      <trkpt lat="45.62818" lon="4.60529">
        <ele>824.3</ele>
        <time>2014-05-01T08:13:31Z</time>
      </trkpt>
      <trkpt lat="45.6282" lon="4.60528">
        <ele>824.5</ele>
        <time>2014-05-01T08:13:44Z</time>
      </trkpt>
      <trkpt lat="45.62821" lon="4.60527">
        <ele>824.6</ele>
        <time>2014-05-01T08:13:46Z</time>
      </trkpt>
      <trkpt lat="45.62823" lon="4.60526">
        <ele>824.8</ele>
        <time>2014-05-01T08:13:48Z</time>
      </trkpt>
      <trkpt lat="45.62826" lon="4.60524">
        <ele>825</ele>
        <time>2014-05-01T08:13:50Z</time>
      </trkpt>
      <trkpt lat="45.62828" lon="4.60522">
        <ele>825.2</ele>
        <time>2014-05-01T08:13:52Z</time>
      </trkpt>
      <trkpt lat="45.6283" lon="4.60521">
        <ele>825.3</ele>
        <time>2014-05-01T08:13:54Z</time>
      </trkpt>
      <trkpt lat="45.62833" lon="4.60518">
        <ele>825.6</ele>
        <time>2014-05-01T08:13:56Z</time>
      </trkpt>
      <trkpt lat="45.62836" lon="4.60514">
        <ele>825.9</ele>
        <time>2014-05-01T08:13:58Z</time>
      </trkpt>
      <trkpt lat="45.62838" lon="4.6051">
        <ele>826.2</ele>
        <time>2014-05-01T08:14:00Z</time>
      </trkpt>
      <trkpt lat="45.62842" lon="4.60506">
        <ele>826.6</ele>
        <time>2014-05-01T08:14:02Z</time>
      </trkpt>
      <trkpt lat="45.62845" lon="4.60502">
        <ele>827.1</ele>
        <time>2014-05-01T08:14:04Z</time>
      </trkpt>
      <trkpt lat="45.62847" lon="4.60497">
        <ele>827.5</ele>
        <time>2014-05-01T08:14:06Z</time>
      </trkpt>
      <trkpt lat="45.62849" lon="4.60493">
        <ele>827.8</ele>
        <time>2014-05-01T08:14:08Z</time>
      </trkpt>
      <trkpt lat="45.62851" lon="4.60489">
        <ele>828.1</ele>
        <time>2014-05-01T08:14:10Z</time>
      </trkpt>
      <trkpt lat="45.62853" lon="4.60485">
        <ele>828.3</ele>
        <time>2014-05-01T08:14:12Z</time>
      </trkpt>
      <trkpt lat="45.62854" lon="4.60482">
        <ele>828.5</ele>
        <time>2014-05-01T08:14:14Z</time>
      </trkpt>
      <trkpt lat="45.62855" lon="4.60478">
        <ele>828.7</ele>
        <time>2014-05-01T08:14:16Z</time>
      </trkpt>
      <trkpt lat="45.62856" lon="4.60475">
        <ele>828.9</ele>
        <time>2014-05-01T08:14:18Z</time>
      </trkpt>
      <trkpt lat="45.62857" lon="4.60471">
        <ele>829.2</ele>
        <time>2014-05-01T08:14:20Z</time>
      </trkpt>
      <trkpt lat="45.62858" lon="4.60467">
        <ele>829.4</ele>
        <time>2014-05-01T08:14:22Z</time>
      </trkpt>
      <trkpt lat="45.62859" lon="4.60463">
        <ele>829.7</ele>
        <time>2014-05-01T08:14:24Z</time>
      </trkpt>
      <trkpt lat="45.62861" lon="4.60459">
        <ele>830</ele>
        <time>2014-05-01T08:14:26Z</time>
      </trkpt>
      <trkpt lat="45.62862" lon="4.60456">
        <ele>830.3</ele>
        <time>2014-05-01T08:14:28Z</time>
      </trkpt>
      <trkpt lat="45.62864" lon="4.60452">
        <ele>830.7</ele>
        <time>2014-05-01T08:14:30Z</time>
      </trkpt>
      <trkpt lat="45.62865" lon="4.60449">
        <ele>831.1</ele>
        <time>2014-05-01T08:14:32Z</time>
      </trkpt>
      <trkpt lat="45.62866" lon="4.60445">
        <ele>831.4</ele>
        <time>2014-05-01T08:14:34Z</time>
      </trkpt>
      <trkpt lat="45.62867" lon="4.60442">
        <ele>831.6</ele>
        <time>2014-05-01T08:14:36Z</time>
      </trkpt>
      <trkpt lat="45.62869" lon="4.60438">
        <ele>831.8</ele>
        <time>2014-05-01T08:14:38Z</time>
      </trkpt>
      <trkpt lat="45.6287" lon="4.60435">
        <ele>832</ele>
        <time>2014-05-01T08:14:40Z</time>
      </trkpt>
      <trkpt lat="45.62872" lon="4.60431">
        <ele>832.1</ele>
        <time>2014-05-01T08:14:42Z</time>
      </trkpt>
      <trkpt lat="45.62874" lon="4.60427">
        <ele>832.3</ele>
        <time>2014-05-01T08:14:44Z</time>
      </trkpt>
      <trkpt lat="45.62875" lon="4.60424">
        <ele>832.5</ele>
        <time>2014-05-01T08:14:46Z</time>
      </trkpt>
      <trkpt lat="45.62876" lon="4.6042">
        <ele>832.7</ele>
        <time>2014-05-01T08:14:48Z</time>
      </trkpt>
      <trkpt lat="45.62878" lon="4.60416">
        <ele>832.9</ele>
        <time>2014-05-01T08:14:50Z</time>
      </trkpt>
      <trkpt lat="45.62879" lon="4.60412">
        <ele>833.1</ele>
        <time>2014-05-01T08:14:52Z</time>
      </trkpt>
      <trkpt lat="45.62881" lon="4.60408">
        <ele>833.4</ele>
        <time>2014-05-01T08:14:54Z</time>
      </trkpt>
      <trkpt lat="45.62883" lon="4.60404">
        <ele>833.6</ele>
        <time>2014-05-01T08:14:56Z</time>
      </trkpt>
      <trkpt lat="45.62884" lon="4.604">
        <ele>833.8</ele>
        <time>2014-05-01T08:14:58Z</time>
      </trkpt>
      <trkpt lat="45.62885" lon="4.60396">
        <ele>834.1</ele>
        <time>2014-05-01T08:15:00Z</time>
      </trkpt>
      <trkpt lat="45.62886" lon="4.60393">
        <ele>834.4</ele>
        <time>2014-05-01T08:15:02Z</time>
      </trkpt>
      <trkpt lat="45.62888" lon="4.60389">
        <ele>834.6</ele>
        <time>2014-05-01T08:15:04Z</time>
      </trkpt>
      <trkpt lat="45.62889" lon="4.60385">
        <ele>834.9</ele>
        <time>2014-05-01T08:15:06Z</time>
      </trkpt>
      <trkpt lat="45.6289" lon="4.60381">
        <ele>835.2</ele>
        <time>2014-05-01T08:15:08Z</time>
      </trkpt>
      <trkpt lat="45.62891" lon="4.60377">
        <ele>835.4</ele>
        <time>2014-05-01T08:15:10Z</time>
      </trkpt>
      <trkpt lat="45.62892" lon="4.60373">
        <ele>835.7</ele>
        <time>2014-05-01T08:15:12Z</time>
      </trkpt>
      <trkpt lat="45.62893" lon="4.60369">
        <ele>836</ele>
        <time>2014-05-01T08:15:14Z</time>
      </trkpt>
      <trkpt lat="45.62894" lon="4.60365">
        <ele>836.3</ele>
        <time>2014-05-01T08:15:16Z</time>
      </trkpt>
      <trkpt lat="45.62895" lon="4.60361">
        <ele>836.6</ele>
        <time>2014-05-01T08:15:18Z</time>
      </trkpt>
      <trkpt lat="45.62896" lon="4.60357">
        <ele>837</ele>
        <time>2014-05-01T08:15:20Z</time>
      </trkpt>
      <trkpt lat="45.62898" lon="4.60353">
        <ele>837.4</ele>
        <time>2014-05-01T08:15:22Z</time>
      </trkpt>
      <trkpt lat="45.62899" lon="4.60349">
        <ele>837.8</ele>
        <time>2014-05-01T08:15:24Z</time>
      </trkpt>
      <trkpt lat="45.62901" lon="4.60345">
        <ele>838.1</ele>
        <time>2014-05-01T08:15:26Z</time>
      </trkpt>
      <trkpt lat="45.62902" lon="4.6034">
        <ele>839.1</ele>
        <time>2014-05-01T08:15:28Z</time>
      </trkpt>
      <trkpt lat="45.62904" lon="4.60335">
        <ele>839.3</ele>
        <time>2014-05-01T08:15:30Z</time>
      </trkpt>
      <trkpt lat="45.62906" lon="4.60329">
        <ele>839.4</ele>
        <time>2014-05-01T08:15:32Z</time>
      </trkpt>
      <trkpt lat="45.62908" lon="4.60324">
        <ele>839.5</ele>
        <time>2014-05-01T08:15:34Z</time>
      </trkpt>
      <trkpt lat="45.6291" lon="4.60319">
        <ele>839.5</ele>
        <time>2014-05-01T08:15:36Z</time>
      </trkpt>
      <trkpt lat="45.62912" lon="4.60314">
        <ele>839.6</ele>
        <time>2014-05-01T08:15:38Z</time>
      </trkpt>
      <trkpt lat="45.62914" lon="4.60309">
        <ele>839.7</ele>
        <time>2014-05-01T08:15:40Z</time>
      </trkpt>
      <trkpt lat="45.62916" lon="4.60305">
        <ele>839.7</ele>
        <time>2014-05-01T08:15:42Z</time>
      </trkpt>
      <trkpt lat="45.62917" lon="4.603">
        <ele>839.8</ele>
        <time>2014-05-01T08:15:44Z</time>
      </trkpt>
      <trkpt lat="45.6292" lon="4.60295">
        <ele>839.8</ele>
        <time>2014-05-01T08:15:46Z</time>
      </trkpt>
      <trkpt lat="45.62922" lon="4.60291">
        <ele>839.9</ele>
        <time>2014-05-01T08:15:48Z</time>
      </trkpt>
      <trkpt lat="45.62923" lon="4.60286">
        <ele>839.9</ele>
        <time>2014-05-01T08:15:50Z</time>
      </trkpt>
      <trkpt lat="45.62925" lon="4.60282">
        <ele>839.9</ele>
        <time>2014-05-01T08:15:52Z</time>
      </trkpt>
      <trkpt lat="45.62927" lon="4.60278">
        <ele>840</ele>
        <time>2014-05-01T08:15:54Z</time>
      </trkpt>
      <trkpt lat="45.62928" lon="4.60273">
        <ele>840</ele>
        <time>2014-05-01T08:15:56Z</time>
      </trkpt>
      <trkpt lat="45.6293" lon="4.60268">
        <ele>840</ele>
        <time>2014-05-01T08:15:58Z</time>
      </trkpt>
      <trkpt lat="45.62932" lon="4.60262">
        <ele>840</ele>
        <time>2014-05-01T08:16:00Z</time>
      </trkpt>
      <trkpt lat="45.62935" lon="4.60256">
        <ele>840</ele>
        <time>2014-05-01T08:16:02Z</time>
      </trkpt>
      <trkpt lat="45.62938" lon="4.6025">
        <ele>840</ele>
        <time>2014-05-01T08:16:04Z</time>
      </trkpt>
      <trkpt lat="45.62941" lon="4.60244">
        <ele>840</ele>
        <time>2014-05-01T08:16:06Z</time>
      </trkpt>
      <trkpt lat="45.62944" lon="4.60239">
        <ele>840</ele>
        <time>2014-05-01T08:16:08Z</time>
      </trkpt>
      <trkpt lat="45.62946" lon="4.60234">
        <ele>840</ele>
        <time>2014-05-01T08:16:10Z</time>
      </trkpt>
      <trkpt lat="45.62949" lon="4.60229">
        <ele>839.9</ele>
        <time>2014-05-01T08:16:12Z</time>
      </trkpt>
      <trkpt lat="45.62952" lon="4.60224">
        <ele>839.9</ele>
        <time>2014-05-01T08:16:14Z</time>
      </trkpt>
      <trkpt lat="45.62955" lon="4.6022">
        <ele>839.8</ele>
        <time>2014-05-01T08:16:16Z</time>
      </trkpt>
      <trkpt lat="45.62959" lon="4.60215">
        <ele>839.7</ele>
        <time>2014-05-01T08:16:18Z</time>
      </trkpt>
      <trkpt lat="45.62962" lon="4.6021">
        <ele>839.6</ele>
        <time>2014-05-01T08:16:20Z</time>
      </trkpt>
      <trkpt lat="45.62965" lon="4.60206">
        <ele>839.5</ele>
        <time>2014-05-01T08:16:22Z</time>
      </trkpt>
      <trkpt lat="45.62969" lon="4.60201">
        <ele>839.4</ele>
        <time>2014-05-01T08:16:24Z</time>
      </trkpt>
      <trkpt lat="45.62972" lon="4.60197">
        <ele>839.3</ele>
        <time>2014-05-01T08:16:26Z</time>
      </trkpt>
      <trkpt lat="45.62975" lon="4.60193">
        <ele>839.2</ele>
        <time>2014-05-01T08:16:28Z</time>
      </trkpt>
      <trkpt lat="45.62978" lon="4.60188">
        <ele>839.1</ele>
        <time>2014-05-01T08:16:30Z</time>
      </trkpt>
      <trkpt lat="45.62981" lon="4.60184">
        <ele>839</ele>
        <time>2014-05-01T08:16:32Z</time>
      </trkpt>
      <trkpt lat="45.62984" lon="4.6018">
        <ele>839.9</ele>
        <time>2014-05-01T08:16:34Z</time>
      </trkpt>
      <trkpt lat="45.62987" lon="4.60177">
        <ele>840.9</ele>
        <time>2014-05-01T08:16:36Z</time>
      </trkpt>
      <trkpt lat="45.6299" lon="4.60173">
        <ele>841.7</ele>
        <time>2014-05-01T08:16:38Z</time>
      </trkpt>
      <trkpt lat="45.62993" lon="4.6017">
        <ele>842.4</ele>
        <time>2014-05-01T08:16:40Z</time>
      </trkpt>
      <trkpt lat="45.62996" lon="4.60167">
        <ele>843.1</ele>
        <time>2014-05-01T08:16:42Z</time>
      </trkpt>
      <trkpt lat="45.62998" lon="4.60165">
        <ele>843.7</ele>
        <time>2014-05-01T08:16:44Z</time>
      </trkpt>
      <trkpt lat="45.63002" lon="4.60163">
        <ele>844</ele>
        <time>2014-05-01T08:16:46Z</time>
      </trkpt>
      <trkpt lat="45.63005" lon="4.60161">
        <ele>844.3</ele>
        <time>2014-05-01T08:16:48Z</time>
      </trkpt>
      <trkpt lat="45.63008" lon="4.6016">
        <ele>844.4</ele>
        <time>2014-05-01T08:16:50Z</time>
      </trkpt>
      <trkpt lat="45.63012" lon="4.60158">
        <ele>844.4</ele>
        <time>2014-05-01T08:16:52Z</time>
      </trkpt>
      <trkpt lat="45.63015" lon="4.60158">
        <ele>844.4</ele>
        <time>2014-05-01T08:16:54Z</time>
      </trkpt>
      <trkpt lat="45.63017" lon="4.60158">
        <ele>844.6</ele>
        <time>2014-05-01T08:16:56Z</time>
      </trkpt>
      <trkpt lat="45.6302" lon="4.60158">
        <ele>844.9</ele>
        <time>2014-05-01T08:16:58Z</time>
      </trkpt>
      <trkpt lat="45.63023" lon="4.60156">
        <ele>845.3</ele>
        <time>2014-05-01T08:17:00Z</time>
      </trkpt>
      <trkpt lat="45.63026" lon="4.60155">
        <ele>845.6</ele>
        <time>2014-05-01T08:17:02Z</time>
      </trkpt>
      <trkpt lat="45.63028" lon="4.60153">
        <ele>845.8</ele>
        <time>2014-05-01T08:17:04Z</time>
      </trkpt>
      <trkpt lat="45.6303" lon="4.6015">
        <ele>845.9</ele>
        <time>2014-05-01T08:17:06Z</time>
      </trkpt>
      <trkpt lat="45.63031" lon="4.60148">
        <ele>846</ele>
        <time>2014-05-01T08:17:08Z</time>
      </trkpt>
      <trkpt lat="45.63033" lon="4.60148">
        <ele>846</ele>
        <time>2014-05-01T08:17:10Z</time>
      </trkpt>
      <trkpt lat="45.6303" lon="4.60145">
        <ele>846</ele>
        <time>2014-05-01T08:17:46Z</time>
      </trkpt>
      <trkpt lat="45.63033" lon="4.60145">
        <ele>845.8</ele>
        <time>2014-05-01T08:17:48Z</time>
      </trkpt>
      <trkpt lat="45.63035" lon="4.60145">
        <ele>845.6</ele>
        <time>2014-05-01T08:17:50Z</time>
      </trkpt>
      <trkpt lat="45.63038" lon="4.60146">
        <ele>845.4</ele>
        <time>2014-05-01T08:17:52Z</time>
      </trkpt>
      <trkpt lat="45.63041" lon="4.60147">
        <ele>845.2</ele>
        <time>2014-05-01T08:17:54Z</time>
      </trkpt>
      <trkpt lat="45.63043" lon="4.6015">
        <ele>844.9</ele>
        <time>2014-05-01T08:17:56Z</time>
      </trkpt>
      <trkpt lat="45.63046" lon="4.60152">
        <ele>844.6</ele>
        <time>2014-05-01T08:17:58Z</time>
      </trkpt>
      <trkpt lat="45.63049" lon="4.60154">
        <ele>844.4</ele>
        <time>2014-05-01T08:18:00Z</time>
      </trkpt>
      <trkpt lat="45.63052" lon="4.60157">
        <ele>844.1</ele>
        <time>2014-05-01T08:18:02Z</time>
      </trkpt>
      <trkpt lat="45.63056" lon="4.6016">
        <ele>843.8</ele>
        <time>2014-05-01T08:18:04Z</time>
      </trkpt>
      <trkpt lat="45.63059" lon="4.60164">
        <ele>843.4</ele>
        <time>2014-05-01T08:18:06Z</time>
      </trkpt>
      <trkpt lat="45.63063" lon="4.60169">
        <ele>843</ele>
        <time>2014-05-01T08:18:08Z</time>
      </trkpt>
      <trkpt lat="45.63067" lon="4.60173">
        <ele>842.6</ele>
        <time>2014-05-01T08:18:10Z</time>
      </trkpt>
      <trkpt lat="45.63071" lon="4.60178">
        <ele>842.2</ele>
        <time>2014-05-01T08:18:12Z</time>
      </trkpt>
      <trkpt lat="45.63074" lon="4.60184">
        <ele>841.8</ele>
        <time>2014-05-01T08:18:14Z</time>
      </trkpt>
      <trkpt lat="45.63076" lon="4.6019">
        <ele>841.3</ele>
        <time>2014-05-01T08:18:16Z</time>
      </trkpt>
      <trkpt lat="45.6308" lon="4.60196">
        <ele>840.6</ele>
        <time>2014-05-01T08:18:18Z</time>
      </trkpt>
      <trkpt lat="45.63081" lon="4.60201">
        <ele>840.1</ele>
        <time>2014-05-01T08:18:20Z</time>
      </trkpt>
      <trkpt lat="45.63084" lon="4.60206">
        <ele>839.5</ele>
        <time>2014-05-01T08:18:22Z</time>
      </trkpt>
      <trkpt lat="45.63087" lon="4.60211">
        <ele>839</ele>
        <time>2014-05-01T08:18:24Z</time>
      </trkpt>
      <trkpt lat="45.63091" lon="4.60216">
        <ele>838.4</ele>
        <time>2014-05-01T08:18:26Z</time>
      </trkpt>
      <trkpt lat="45.63094" lon="4.60221">
        <ele>837.8</ele>
        <time>2014-05-01T08:18:28Z</time>
      </trkpt>
      <trkpt lat="45.63097" lon="4.60226">
        <ele>837.3</ele>
        <time>2014-05-01T08:18:30Z</time>
      </trkpt>
      <trkpt lat="45.631" lon="4.60231">
        <ele>836.7</ele>
        <time>2014-05-01T08:18:32Z</time>
      </trkpt>
      <trkpt lat="45.63103" lon="4.60236">
        <ele>836</ele>
        <time>2014-05-01T08:18:34Z</time>
      </trkpt>
      <trkpt lat="45.63106" lon="4.60241">
        <ele>835.3</ele>
        <time>2014-05-01T08:18:36Z</time>
      </trkpt>
      <trkpt lat="45.63109" lon="4.60246">
        <ele>834.6</ele>
        <time>2014-05-01T08:18:38Z</time>
      </trkpt>
      <trkpt lat="45.63112" lon="4.60251">
        <ele>833.9</ele>
        <time>2014-05-01T08:18:40Z</time>
      </trkpt>
      <trkpt lat="45.63115" lon="4.60258">
        <ele>833.1</ele>
        <time>2014-05-01T08:18:42Z</time>
      </trkpt>
      <trkpt lat="45.63119" lon="4.60265">
        <ele>833.2</ele>
        <time>2014-05-01T08:18:44Z</time>
      </trkpt>
      <trkpt lat="45.63123" lon="4.60275">
        <ele>833.6</ele>
        <time>2014-05-01T08:18:46Z</time>
      </trkpt>
      <trkpt lat="45.63128" lon="4.60286">
        <ele>833.9</ele>
        <time>2014-05-01T08:18:48Z</time>
      </trkpt>
      <trkpt lat="45.63133" lon="4.60299">
        <ele>834.6</ele>
        <time>2014-05-01T08:18:50Z</time>
      </trkpt>
      <trkpt lat="45.63139" lon="4.60311">
        <ele>835.2</ele>
        <time>2014-05-01T08:18:52Z</time>
      </trkpt>
      <trkpt lat="45.63149" lon="4.60321">
        <ele>836.2</ele>
        <time>2014-05-01T08:18:54Z</time>
      </trkpt>
      <trkpt lat="45.63157" lon="4.60329">
        <ele>837.1</ele>
        <time>2014-05-01T08:18:56Z</time>
      </trkpt>
      <trkpt lat="45.63165" lon="4.60339">
        <ele>838</ele>
        <time>2014-05-01T08:18:58Z</time>
      </trkpt>
      <trkpt lat="45.63172" lon="4.60349">
        <ele>838.8</ele>
        <time>2014-05-01T08:19:00Z</time>
      </trkpt>
      <trkpt lat="45.63179" lon="4.60358">
        <ele>839.7</ele>
        <time>2014-05-01T08:19:02Z</time>
      </trkpt>
      <trkpt lat="45.63186" lon="4.60368">
        <ele>840.6</ele>
        <time>2014-05-01T08:19:04Z</time>
      </trkpt>
      <trkpt lat="45.63192" lon="4.60377">
        <ele>841.4</ele>
        <time>2014-05-01T08:19:06Z</time>
      </trkpt>
      <trkpt lat="45.63199" lon="4.60385">
        <ele>842.1</ele>
        <time>2014-05-01T08:19:08Z</time>
      </trkpt>
      <trkpt lat="45.63204" lon="4.60392">
        <ele>842.7</ele>
        <time>2014-05-01T08:19:10Z</time>
      </trkpt>
      <trkpt lat="45.63206" lon="4.60394">
        <ele>842.9</ele>
        <time>2014-05-01T08:19:12Z</time>
      </trkpt>
      <trkpt lat="45.63189" lon="4.6043">
        <ele>829.6</ele>
        <time>2014-05-01T08:23:18Z</time>
      </trkpt>
      <trkpt lat="45.63192" lon="4.60433">
        <ele>831.2</ele>
        <time>2014-05-01T08:23:20Z</time>
      </trkpt>
      <trkpt lat="45.63194" lon="4.60435">
        <ele>832.7</ele>
        <time>2014-05-01T08:23:22Z</time>
      </trkpt>
      <trkpt lat="45.63198" lon="4.60436">
        <ele>835.2</ele>
        <time>2014-05-01T08:23:24Z</time>
      </trkpt>
      <trkpt lat="45.63203" lon="4.60437">
        <ele>838.6</ele>
        <time>2014-05-01T08:23:26Z</time>
      </trkpt>
      <trkpt lat="45.6321" lon="4.60438">
        <ele>841.9</ele>
        <time>2014-05-01T08:23:28Z</time>
      </trkpt>
      <trkpt lat="45.63218" lon="4.60441">
        <ele>844</ele>
        <time>2014-05-01T08:23:30Z</time>
      </trkpt>
      <trkpt lat="45.63229" lon="4.60444">
        <ele>845.7</ele>
        <time>2014-05-01T08:23:32Z</time>
      </trkpt>
      <trkpt lat="45.63241" lon="4.60449">
        <ele>846.9</ele>
        <time>2014-05-01T08:23:34Z</time>
      </trkpt>
      <trkpt lat="45.63254" lon="4.60457">
        <ele>848.1</ele>
        <time>2014-05-01T08:23:36Z</time>
      </trkpt>
      <trkpt lat="45.63266" lon="4.60463">
        <ele>849</ele>
        <time>2014-05-01T08:23:38Z</time>
      </trkpt>
      <trkpt lat="45.63275" lon="4.60467">
        <ele>849.8</ele>
        <time>2014-05-01T08:23:40Z</time>
      </trkpt>
      <trkpt lat="45.63281" lon="4.60469">
        <ele>850.4</ele>
        <time>2014-05-01T08:23:42Z</time>
      </trkpt>
      <trkpt lat="45.63286" lon="4.60472">
        <ele>850.9</ele>
        <time>2014-05-01T08:23:44Z</time>
      </trkpt>
      <trkpt lat="45.63291" lon="4.60477">
        <ele>851.6</ele>
        <time>2014-05-01T08:23:46Z</time>
      </trkpt>
      <trkpt lat="45.63295" lon="4.60481">
        <ele>852.2</ele>
        <time>2014-05-01T08:23:48Z</time>
      </trkpt>
      <trkpt lat="45.633" lon="4.60485">
        <ele>853</ele>
        <time>2014-05-01T08:23:50Z</time>
      </trkpt>
      <trkpt lat="45.63307" lon="4.60489">
        <ele>854.6</ele>
        <time>2014-05-01T08:23:52Z</time>
      </trkpt>
      <trkpt lat="45.63313" lon="4.60494">
        <ele>854.7</ele>
        <time>2014-05-01T08:23:54Z</time>
      </trkpt>
      <trkpt lat="45.6332" lon="4.60499">
        <ele>854.8</ele>
        <time>2014-05-01T08:23:56Z</time>
      </trkpt>
      <trkpt lat="45.63326" lon="4.60503">
        <ele>854.8</ele>
        <time>2014-05-01T08:23:58Z</time>
      </trkpt>
      <trkpt lat="45.63333" lon="4.60505">
        <ele>854.7</ele>
        <time>2014-05-01T08:24:00Z</time>
      </trkpt>
      <trkpt lat="45.6334" lon="4.60507">
        <ele>854.7</ele>
        <time>2014-05-01T08:24:02Z</time>
      </trkpt>
      <trkpt lat="45.63347" lon="4.60507">
        <ele>854.5</ele>
        <time>2014-05-01T08:24:04Z</time>
      </trkpt>
      <trkpt lat="45.63354" lon="4.60507">
        <ele>854.3</ele>
        <time>2014-05-01T08:24:06Z</time>
      </trkpt>
      <trkpt lat="45.63362" lon="4.60506">
        <ele>854</ele>
        <time>2014-05-01T08:24:08Z</time>
      </trkpt>
      <trkpt lat="45.63371" lon="4.60503">
        <ele>853.6</ele>
        <time>2014-05-01T08:24:10Z</time>
      </trkpt>
      <trkpt lat="45.6338" lon="4.60497">
        <ele>853</ele>
        <time>2014-05-01T08:24:12Z</time>
      </trkpt>
      <trkpt lat="45.63387" lon="4.60491">
        <ele>852.5</ele>
        <time>2014-05-01T08:24:14Z</time>
      </trkpt>
      <trkpt lat="45.63392" lon="4.60481">
        <ele>851.6</ele>
        <time>2014-05-01T08:24:16Z</time>
      </trkpt>
      <trkpt lat="45.63399" lon="4.60469">
        <ele>850.3</ele>
        <time>2014-05-01T08:24:18Z</time>
      </trkpt>
      <trkpt lat="45.63405" lon="4.60458">
        <ele>849.1</ele>
        <time>2014-05-01T08:24:20Z</time>
      </trkpt>
      <trkpt lat="45.63411" lon="4.60447">
        <ele>848.1</ele>
        <time>2014-05-01T08:24:22Z</time>
      </trkpt>
      <trkpt lat="45.63418" lon="4.60439">
        <ele>847.4</ele>
        <time>2014-05-01T08:24:24Z</time>
      </trkpt>
      <trkpt lat="45.63425" lon="4.60433">
        <ele>846.8</ele>
        <time>2014-05-01T08:24:26Z</time>
      </trkpt>
      <trkpt lat="45.63433" lon="4.60425">
        <ele>845.8</ele>
        <time>2014-05-01T08:24:28Z</time>
      </trkpt>
      <trkpt lat="45.6344" lon="4.60421">
        <ele>845.1</ele>
        <time>2014-05-01T08:24:30Z</time>
      </trkpt>
      <trkpt lat="45.63447" lon="4.60418">
        <ele>844.4</ele>
        <time>2014-05-01T08:24:32Z</time>
      </trkpt>
      <trkpt lat="45.63456" lon="4.60418">
        <ele>843.4</ele>
        <time>2014-05-01T08:24:34Z</time>
      </trkpt>
      <trkpt lat="45.63464" lon="4.60418">
        <ele>842.4</ele>
        <time>2014-05-01T08:24:36Z</time>
      </trkpt>
      <trkpt lat="45.63472" lon="4.60417">
        <ele>841.2</ele>
        <time>2014-05-01T08:24:38Z</time>
      </trkpt>
      <trkpt lat="45.63484" lon="4.60414">
        <ele>839.5</ele>
        <time>2014-05-01T08:24:40Z</time>
      </trkpt>
      <trkpt lat="45.63497" lon="4.60411">
        <ele>837.5</ele>
        <time>2014-05-01T08:24:42Z</time>
      </trkpt>
      <trkpt lat="45.63509" lon="4.60402">
        <ele>835.7</ele>
        <time>2014-05-01T08:24:44Z</time>
      </trkpt>
      <trkpt lat="45.6352" lon="4.60396">
        <ele>833.9</ele>
        <time>2014-05-01T08:24:46Z</time>
      </trkpt>
      <trkpt lat="45.63528" lon="4.60392">
        <ele>833.3</ele>
        <time>2014-05-01T08:24:48Z</time>
      </trkpt>
      <trkpt lat="45.63534" lon="4.60385">
        <ele>832.8</ele>
        <time>2014-05-01T08:24:50Z</time>
      </trkpt>
      <trkpt lat="45.63543" lon="4.60379">
        <ele>832.6</ele>
        <time>2014-05-01T08:24:52Z</time>
      </trkpt>
      <trkpt lat="45.63553" lon="4.60374">
        <ele>832.4</ele>
        <time>2014-05-01T08:24:54Z</time>
      </trkpt>
      <trkpt lat="45.63562" lon="4.60367">
        <ele>832.2</ele>
        <time>2014-05-01T08:24:56Z</time>
      </trkpt>
      <trkpt lat="45.63571" lon="4.60361">
        <ele>832.2</ele>
        <time>2014-05-01T08:24:58Z</time>
      </trkpt>
      <trkpt lat="45.63579" lon="4.60352">
        <ele>832.2</ele>
        <time>2014-05-01T08:25:00Z</time>
      </trkpt>
      <trkpt lat="45.63586" lon="4.60347">
        <ele>832.4</ele>
        <time>2014-05-01T08:25:02Z</time>
      </trkpt>
      <trkpt lat="45.63594" lon="4.60341">
        <ele>832.6</ele>
        <time>2014-05-01T08:25:04Z</time>
      </trkpt>
      <trkpt lat="45.63601" lon="4.60335">
        <ele>832.7</ele>
        <time>2014-05-01T08:25:06Z</time>
      </trkpt>
      <trkpt lat="45.63607" lon="4.6033">
        <ele>832.8</ele>
        <time>2014-05-01T08:25:08Z</time>
      </trkpt>
      <trkpt lat="45.63613" lon="4.60326">
        <ele>833.1</ele>
        <time>2014-05-01T08:25:10Z</time>
      </trkpt>
      <trkpt lat="45.63619" lon="4.60321">
        <ele>833.4</ele>
        <time>2014-05-01T08:25:12Z</time>
      </trkpt>
      <trkpt lat="45.63625" lon="4.60316">
        <ele>833.7</ele>
        <time>2014-05-01T08:25:14Z</time>
      </trkpt>
      <trkpt lat="45.63631" lon="4.60311">
        <ele>834.2</ele>
        <time>2014-05-01T08:25:16Z</time>
      </trkpt>
      <trkpt lat="45.63637" lon="4.60306">
        <ele>834.7</ele>
        <time>2014-05-01T08:25:18Z</time>
      </trkpt>
      <trkpt lat="45.63643" lon="4.603">
        <ele>835.1</ele>
        <time>2014-05-01T08:25:20Z</time>
      </trkpt>
      <trkpt lat="45.63649" lon="4.60295">
        <ele>835.4</ele>
        <time>2014-05-01T08:25:22Z</time>
      </trkpt>
      <trkpt lat="45.63654" lon="4.6029">
        <ele>835.7</ele>
        <time>2014-05-01T08:25:24Z</time>
      </trkpt>
      <trkpt lat="45.6366" lon="4.60285">
        <ele>836</ele>
        <time>2014-05-01T08:25:26Z</time>
      </trkpt>
      <trkpt lat="45.63667" lon="4.60279">
        <ele>836.4</ele>
        <time>2014-05-01T08:25:28Z</time>
      </trkpt>
      <trkpt lat="45.63674" lon="4.60272">
        <ele>836.7</ele>
        <time>2014-05-01T08:25:30Z</time>
      </trkpt>
      <trkpt lat="45.63681" lon="4.60266">
        <ele>836.9</ele>
        <time>2014-05-01T08:25:32Z</time>
      </trkpt>
      <trkpt lat="45.63687" lon="4.6026">
        <ele>837.1</ele>
        <time>2014-05-01T08:25:34Z</time>
      </trkpt>
      <trkpt lat="45.63691" lon="4.60254">
        <ele>837.2</ele>
        <time>2014-05-01T08:25:36Z</time>
      </trkpt>
      <trkpt lat="45.63697" lon="4.60248">
        <ele>837.3</ele>
        <time>2014-05-01T08:25:38Z</time>
      </trkpt>
      <trkpt lat="45.63702" lon="4.60243">
        <ele>837.4</ele>
        <time>2014-05-01T08:25:40Z</time>
      </trkpt>
      <trkpt lat="45.63708" lon="4.60237">
        <ele>837.6</ele>
        <time>2014-05-01T08:25:42Z</time>
      </trkpt>
      <trkpt lat="45.63713" lon="4.60231">
        <ele>837.7</ele>
        <time>2014-05-01T08:25:44Z</time>
      </trkpt>
      <trkpt lat="45.63718" lon="4.60227">
        <ele>837.8</ele>
        <time>2014-05-01T08:25:46Z</time>
      </trkpt>
      <trkpt lat="45.63723" lon="4.60223">
        <ele>837.9</ele>
        <time>2014-05-01T08:25:48Z</time>
      </trkpt>
      <trkpt lat="45.63728" lon="4.60219">
        <ele>838</ele>
        <time>2014-05-01T08:25:50Z</time>
      </trkpt>
      <trkpt lat="45.63734" lon="4.60214">
        <ele>838.1</ele>
        <time>2014-05-01T08:25:52Z</time>
      </trkpt>
      <trkpt lat="45.63739" lon="4.6021">
        <ele>838.3</ele>
        <time>2014-05-01T08:25:54Z</time>
      </trkpt>
      <trkpt lat="45.63744" lon="4.60206">
        <ele>838.4</ele>
        <time>2014-05-01T08:25:56Z</time>
      </trkpt>
      <trkpt lat="45.63749" lon="4.60201">
        <ele>838.7</ele>
        <time>2014-05-01T08:25:58Z</time>
      </trkpt>
      <trkpt lat="45.63755" lon="4.60197">
        <ele>838.9</ele>
        <time>2014-05-01T08:26:00Z</time>
      </trkpt>
      <trkpt lat="45.6376" lon="4.60193">
        <ele>839</ele>
        <time>2014-05-01T08:26:02Z</time>
      </trkpt>
      <trkpt lat="45.63765" lon="4.60189">
        <ele>839.1</ele>
        <time>2014-05-01T08:26:04Z</time>
      </trkpt>
      <trkpt lat="45.6377" lon="4.60185">
        <ele>839.3</ele>
        <time>2014-05-01T08:26:06Z</time>
      </trkpt>
      <trkpt lat="45.63776" lon="4.60177">
        <ele>839.4</ele>
        <time>2014-05-01T08:26:08Z</time>
      </trkpt>
      <trkpt lat="45.63782" lon="4.60168">
        <ele>839.4</ele>
        <time>2014-05-01T08:26:10Z</time>
      </trkpt>
      <trkpt lat="45.63784" lon="4.60161">
        <ele>839.5</ele>
        <time>2014-05-01T08:26:12Z</time>
      </trkpt>
      <trkpt lat="45.63786" lon="4.60157">
        <ele>839.4</ele>
        <time>2014-05-01T08:26:14Z</time>
      </trkpt>
      <trkpt lat="45.63788" lon="4.60152">
        <ele>839.4</ele>
        <time>2014-05-01T08:26:16Z</time>
      </trkpt>
      <trkpt lat="45.63787" lon="4.60149">
        <ele>839.4</ele>
        <time>2014-05-01T08:26:18Z</time>
      </trkpt>
      <trkpt lat="45.63786" lon="4.60146">
        <ele>839.3</ele>
        <time>2014-05-01T08:26:20Z</time>
      </trkpt>
      <trkpt lat="45.63786" lon="4.60143">
        <ele>839.3</ele>
        <time>2014-05-01T08:26:22Z</time>
      </trkpt>
      <trkpt lat="45.63784" lon="4.6014">
        <ele>840.1</ele>
        <time>2014-05-01T08:26:24Z</time>
      </trkpt>
      <trkpt lat="45.63783" lon="4.60139">
        <ele>840.3</ele>
        <time>2014-05-01T08:26:26Z</time>
      </trkpt>
      <trkpt lat="45.63782" lon="4.60137">
        <ele>840.5</ele>
        <time>2014-05-01T08:26:28Z</time>
      </trkpt>
      <trkpt lat="45.63782" lon="4.60133">
        <ele>840.8</ele>
        <time>2014-05-01T08:26:30Z</time>
      </trkpt>
      <trkpt lat="45.63781" lon="4.6013">
        <ele>841.1</ele>
        <time>2014-05-01T08:26:32Z</time>
      </trkpt>
      <trkpt lat="45.63781" lon="4.60127">
        <ele>841.3</ele>
        <time>2014-05-01T08:26:34Z</time>
      </trkpt>
      <trkpt lat="45.6378" lon="4.60124">
        <ele>841.5</ele>
        <time>2014-05-01T08:26:36Z</time>
      </trkpt>
      <trkpt lat="45.63779" lon="4.60121">
        <ele>841.8</ele>
        <time>2014-05-01T08:26:38Z</time>
      </trkpt>
      <trkpt lat="45.63778" lon="4.60118">
        <ele>842.1</ele>
        <time>2014-05-01T08:26:40Z</time>
      </trkpt>
      <trkpt lat="45.63776" lon="4.60115">
        <ele>842.4</ele>
        <time>2014-05-01T08:26:42Z</time>
      </trkpt>
      <trkpt lat="45.63775" lon="4.60113">
        <ele>842.7</ele>
        <time>2014-05-01T08:26:44Z</time>
      </trkpt>
      <trkpt lat="45.63773" lon="4.60112">
        <ele>842.9</ele>
        <time>2014-05-01T08:26:46Z</time>
      </trkpt>
      <trkpt lat="45.63772" lon="4.60106">
        <ele>843.2</ele>
        <time>2014-05-01T08:26:57Z</time>
      </trkpt>
      <trkpt lat="45.63771" lon="4.60104">
        <ele>843.4</ele>
        <time>2014-05-01T08:26:59Z</time>
      </trkpt>
      <trkpt lat="45.63771" lon="4.60102">
        <ele>843.6</ele>
        <time>2014-05-01T08:27:01Z</time>
      </trkpt>
      <trkpt lat="45.6377" lon="4.60099">
        <ele>843.7</ele>
        <time>2014-05-01T08:27:03Z</time>
      </trkpt>
      <trkpt lat="45.6377" lon="4.60097">
        <ele>843.9</ele>
        <time>2014-05-01T08:27:05Z</time>
      </trkpt>
      <trkpt lat="45.63768" lon="4.60095">
        <ele>844.1</ele>
        <time>2014-05-01T08:27:07Z</time>
      </trkpt>
      <trkpt lat="45.63767" lon="4.60092">
        <ele>844.3</ele>
        <time>2014-05-01T08:27:09Z</time>
      </trkpt>
      <trkpt lat="45.63766" lon="4.6009">
        <ele>844.4</ele>
        <time>2014-05-01T08:27:11Z</time>
      </trkpt>
      <trkpt lat="45.63765" lon="4.60088">
        <ele>844.6</ele>
        <time>2014-05-01T08:27:13Z</time>
      </trkpt>
      <trkpt lat="45.63764" lon="4.60086">
        <ele>844.8</ele>
        <time>2014-05-01T08:27:15Z</time>
      </trkpt>
      <trkpt lat="45.63763" lon="4.60083">
        <ele>845</ele>
        <time>2014-05-01T08:27:21Z</time>
      </trkpt>
      <trkpt lat="45.63762" lon="4.60081">
        <ele>845.3</ele>
        <time>2014-05-01T08:27:23Z</time>
      </trkpt>
      <trkpt lat="45.6376" lon="4.60077">
        <ele>845.5</ele>
        <time>2014-05-01T08:27:25Z</time>
      </trkpt>
      <trkpt lat="45.63759" lon="4.60074">
        <ele>845.8</ele>
        <time>2014-05-01T08:27:27Z</time>
      </trkpt>
      <trkpt lat="45.63757" lon="4.60072">
        <ele>846</ele>
        <time>2014-05-01T08:27:29Z</time>
      </trkpt>
      <trkpt lat="45.63756" lon="4.60069">
        <ele>846.3</ele>
        <time>2014-05-01T08:27:31Z</time>
      </trkpt>
      <trkpt lat="45.63755" lon="4.60066">
        <ele>846.5</ele>
        <time>2014-05-01T08:27:33Z</time>
      </trkpt>
      <trkpt lat="45.63754" lon="4.60062">
        <ele>846.7</ele>
        <time>2014-05-01T08:27:35Z</time>
      </trkpt>
      <trkpt lat="45.63752" lon="4.60059">
        <ele>846.9</ele>
        <time>2014-05-01T08:27:37Z</time>
      </trkpt>
      <trkpt lat="45.6375" lon="4.60056">
        <ele>847.1</ele>
        <time>2014-05-01T08:27:39Z</time>
      </trkpt>
      <trkpt lat="45.63748" lon="4.60053">
        <ele>847.4</ele>
        <time>2014-05-01T08:27:41Z</time>
      </trkpt>
      <trkpt lat="45.63746" lon="4.6005">
        <ele>847.6</ele>
        <time>2014-05-01T08:27:43Z</time>
      </trkpt>
      <trkpt lat="45.63744" lon="4.60048">
        <ele>847.8</ele>
        <time>2014-05-01T08:27:45Z</time>
      </trkpt>
      <trkpt lat="45.63742" lon="4.60046">
        <ele>848.1</ele>
        <time>2014-05-01T08:27:47Z</time>
      </trkpt>
      <trkpt lat="45.63739" lon="4.60044">
        <ele>848.5</ele>
        <time>2014-05-01T08:27:49Z</time>
      </trkpt>
      <trkpt lat="45.63737" lon="4.60042">
        <ele>848.8</ele>
        <time>2014-05-01T08:27:51Z</time>
      </trkpt>
      <trkpt lat="45.63734" lon="4.6004">
        <ele>849</ele>
        <time>2014-05-01T08:27:53Z</time>
      </trkpt>
      <trkpt lat="45.63733" lon="4.60038">
        <ele>849.2</ele>
        <time>2014-05-01T08:27:55Z</time>
      </trkpt>
      <trkpt lat="45.6373" lon="4.60036">
        <ele>849.4</ele>
        <time>2014-05-01T08:27:57Z</time>
      </trkpt>
      <trkpt lat="45.63728" lon="4.60033">
        <ele>849.6</ele>
        <time>2014-05-01T08:27:59Z</time>
      </trkpt>
      <trkpt lat="45.63725" lon="4.60032">
        <ele>849.8</ele>
        <time>2014-05-01T08:28:01Z</time>
      </trkpt>
      <trkpt lat="45.63723" lon="4.6003">
        <ele>850</ele>
        <time>2014-05-01T08:28:03Z</time>
      </trkpt>
      <trkpt lat="45.63722" lon="4.60029">
        <ele>850.2</ele>
        <time>2014-05-01T08:28:05Z</time>
      </trkpt>
      <trkpt lat="45.6372" lon="4.60026">
        <ele>850.3</ele>
        <time>2014-05-01T08:28:07Z</time>
      </trkpt>
      <trkpt lat="45.63718" lon="4.60024">
        <ele>850.5</ele>
        <time>2014-05-01T08:28:09Z</time>
      </trkpt>
      <trkpt lat="45.63717" lon="4.60021">
        <ele>850.6</ele>
        <time>2014-05-01T08:28:11Z</time>
      </trkpt>
      <trkpt lat="45.63716" lon="4.60019">
        <ele>850.7</ele>
        <time>2014-05-01T08:28:13Z</time>
      </trkpt>
      <trkpt lat="45.63714" lon="4.60016">
        <ele>850.8</ele>
        <time>2014-05-01T08:28:15Z</time>
      </trkpt>
      <trkpt lat="45.63713" lon="4.60013">
        <ele>850.9</ele>
        <time>2014-05-01T08:28:17Z</time>
      </trkpt>
      <trkpt lat="45.63712" lon="4.6001">
        <ele>851</ele>
        <time>2014-05-01T08:28:19Z</time>
      </trkpt>
      <trkpt lat="45.6371" lon="4.60006">
        <ele>851.1</ele>
        <time>2014-05-01T08:28:21Z</time>
      </trkpt>
      <trkpt lat="45.63709" lon="4.60001">
        <ele>851.2</ele>
        <time>2014-05-01T08:28:23Z</time>
      </trkpt>
      <trkpt lat="45.63707" lon="4.59997">
        <ele>851.4</ele>
        <time>2014-05-01T08:28:25Z</time>
      </trkpt>
      <trkpt lat="45.63704" lon="4.59993">
        <ele>851.5</ele>
        <time>2014-05-01T08:28:27Z</time>
      </trkpt>
      <trkpt lat="45.63702" lon="4.59989">
        <ele>851.7</ele>
        <time>2014-05-01T08:28:29Z</time>
      </trkpt>
      <trkpt lat="45.637" lon="4.59986">
        <ele>851.8</ele>
        <time>2014-05-01T08:28:31Z</time>
      </trkpt>
      <trkpt lat="45.63698" lon="4.59982">
        <ele>852</ele>
        <time>2014-05-01T08:28:33Z</time>
      </trkpt>
      <trkpt lat="45.63697" lon="4.5998">
        <ele>852.1</ele>
        <time>2014-05-01T08:28:35Z</time>
      </trkpt>
      <trkpt lat="45.63695" lon="4.59977">
        <ele>852.2</ele>
        <time>2014-05-01T08:28:37Z</time>
      </trkpt>
      <trkpt lat="45.63693" lon="4.59974">
        <ele>852.3</ele>
        <time>2014-05-01T08:28:39Z</time>
      </trkpt>
      <trkpt lat="45.63691" lon="4.59971">
        <ele>852.5</ele>
        <time>2014-05-01T08:28:41Z</time>
      </trkpt>
      <trkpt lat="45.63689" lon="4.59968">
        <ele>852.6</ele>
        <time>2014-05-01T08:28:43Z</time>
      </trkpt>
      <trkpt lat="45.63688" lon="4.59966">
        <ele>852.7</ele>
        <time>2014-05-01T08:28:45Z</time>
      </trkpt>
      <trkpt lat="45.63686" lon="4.59963">
        <ele>852.8</ele>
        <time>2014-05-01T08:28:47Z</time>
      </trkpt>
      <trkpt lat="45.63685" lon="4.5996">
        <ele>852.9</ele>
        <time>2014-05-01T08:28:49Z</time>
      </trkpt>
      <trkpt lat="45.63683" lon="4.59957">
        <ele>853.1</ele>
        <time>2014-05-01T08:28:51Z</time>
      </trkpt>
      <trkpt lat="45.6368" lon="4.59954">
        <ele>853.2</ele>
        <time>2014-05-01T08:28:53Z</time>
      </trkpt>
      <trkpt lat="45.63678" lon="4.59951">
        <ele>853.3</ele>
        <time>2014-05-01T08:28:55Z</time>
      </trkpt>
      <trkpt lat="45.63676" lon="4.59948">
        <ele>853.5</ele>
        <time>2014-05-01T08:28:57Z</time>
      </trkpt>
      <trkpt lat="45.63674" lon="4.59945">
        <ele>853.8</ele>
        <time>2014-05-01T08:28:59Z</time>
      </trkpt>
      <trkpt lat="45.63672" lon="4.59943">
        <ele>854</ele>
        <time>2014-05-01T08:29:01Z</time>
      </trkpt>
      <trkpt lat="45.6367" lon="4.59941">
        <ele>854.2</ele>
        <time>2014-05-01T08:29:03Z</time>
      </trkpt>
      <trkpt lat="45.63668" lon="4.59938">
        <ele>854.5</ele>
        <time>2014-05-01T08:29:05Z</time>
      </trkpt>
      <trkpt lat="45.63666" lon="4.59936">
        <ele>854.7</ele>
        <time>2014-05-01T08:29:07Z</time>
      </trkpt>
      <trkpt lat="45.63664" lon="4.59933">
        <ele>854.9</ele>
        <time>2014-05-01T08:29:09Z</time>
      </trkpt>
      <trkpt lat="45.63662" lon="4.59931">
        <ele>855.1</ele>
        <time>2014-05-01T08:29:11Z</time>
      </trkpt>
      <trkpt lat="45.6366" lon="4.59928">
        <ele>855.4</ele>
        <time>2014-05-01T08:29:13Z</time>
      </trkpt>
      <trkpt lat="45.63658" lon="4.59925">
        <ele>855.7</ele>
        <time>2014-05-01T08:29:15Z</time>
      </trkpt>
      <trkpt lat="45.63656" lon="4.59923">
        <ele>856</ele>
        <time>2014-05-01T08:29:17Z</time>
      </trkpt>
      <trkpt lat="45.63654" lon="4.5992">
        <ele>856.3</ele>
        <time>2014-05-01T08:29:19Z</time>
      </trkpt>
      <trkpt lat="45.63651" lon="4.59917">
        <ele>856.5</ele>
        <time>2014-05-01T08:29:21Z</time>
      </trkpt>
      <trkpt lat="45.63649" lon="4.59914">
        <ele>856.7</ele>
        <time>2014-05-01T08:29:23Z</time>
      </trkpt>
      <trkpt lat="45.63648" lon="4.59912">
        <ele>856.9</ele>
        <time>2014-05-01T08:29:25Z</time>
      </trkpt>
      <trkpt lat="45.63646" lon="4.59909">
        <ele>857</ele>
        <time>2014-05-01T08:29:27Z</time>
      </trkpt>
      <trkpt lat="45.63644" lon="4.59906">
        <ele>857.2</ele>
        <time>2014-05-01T08:29:29Z</time>
      </trkpt>
      <trkpt lat="45.63643" lon="4.59903">
        <ele>857.4</ele>
        <time>2014-05-01T08:29:31Z</time>
      </trkpt>
      <trkpt lat="45.63641" lon="4.599">
        <ele>857.5</ele>
        <time>2014-05-01T08:29:33Z</time>
      </trkpt>
      <trkpt lat="45.63639" lon="4.59897">
        <ele>857.6</ele>
        <time>2014-05-01T08:29:35Z</time>
      </trkpt>
      <trkpt lat="45.63638" lon="4.59893">
        <ele>857.7</ele>
        <time>2014-05-01T08:29:37Z</time>
      </trkpt>
      <trkpt lat="45.63636" lon="4.59888">
        <ele>857.8</ele>
        <time>2014-05-01T08:29:39Z</time>
      </trkpt>
      <trkpt lat="45.63635" lon="4.59883">
        <ele>857.9</ele>
        <time>2014-05-01T08:29:41Z</time>
      </trkpt>
      <trkpt lat="45.63633" lon="4.59878">
        <ele>858</ele>
        <time>2014-05-01T08:29:43Z</time>
      </trkpt>
      <trkpt lat="45.63632" lon="4.59872">
        <ele>858.1</ele>
        <time>2014-05-01T08:29:45Z</time>
      </trkpt>
      <trkpt lat="45.63631" lon="4.59867">
        <ele>858.3</ele>
        <time>2014-05-01T08:29:47Z</time>
      </trkpt>
      <trkpt lat="45.6363" lon="4.59861">
        <ele>858.4</ele>
        <time>2014-05-01T08:29:49Z</time>
      </trkpt>
      <trkpt lat="45.63628" lon="4.59856">
        <ele>858.5</ele>
        <time>2014-05-01T08:29:51Z</time>
      </trkpt>
      <trkpt lat="45.63627" lon="4.5985">
        <ele>858.5</ele>
        <time>2014-05-01T08:29:53Z</time>
      </trkpt>
      <trkpt lat="45.63625" lon="4.59844">
        <ele>858.6</ele>
        <time>2014-05-01T08:29:55Z</time>
      </trkpt>
      <trkpt lat="45.63624" lon="4.59837">
        <ele>858.6</ele>
        <time>2014-05-01T08:29:57Z</time>
      </trkpt>
      <trkpt lat="45.63622" lon="4.5983">
        <ele>858.7</ele>
        <time>2014-05-01T08:29:59Z</time>
      </trkpt>
      <trkpt lat="45.63621" lon="4.59823">
        <ele>858.8</ele>
        <time>2014-05-01T08:30:01Z</time>
      </trkpt>
      <trkpt lat="45.63619" lon="4.59815">
        <ele>858.9</ele>
        <time>2014-05-01T08:30:03Z</time>
      </trkpt>
      <trkpt lat="45.63618" lon="4.59807">
        <ele>858.9</ele>
        <time>2014-05-01T08:30:05Z</time>
      </trkpt>
      <trkpt lat="45.63617" lon="4.59799">
        <ele>859</ele>
        <time>2014-05-01T08:30:07Z</time>
      </trkpt>
      <trkpt lat="45.63617" lon="4.59791">
        <ele>859.1</ele>
        <time>2014-05-01T08:30:09Z</time>
      </trkpt>
      <trkpt lat="45.63616" lon="4.59783">
        <ele>859.2</ele>
        <time>2014-05-01T08:30:11Z</time>
      </trkpt>
      <trkpt lat="45.63615" lon="4.59775">
        <ele>859.2</ele>
        <time>2014-05-01T08:30:13Z</time>
      </trkpt>
      <trkpt lat="45.63614" lon="4.59767">
        <ele>859.3</ele>
        <time>2014-05-01T08:30:15Z</time>
      </trkpt>
      <trkpt lat="45.63614" lon="4.59759">
        <ele>859.4</ele>
        <time>2014-05-01T08:30:17Z</time>
      </trkpt>
      <trkpt lat="45.63612" lon="4.59752">
        <ele>859.5</ele>
        <time>2014-05-01T08:30:19Z</time>
      </trkpt>
      <trkpt lat="45.63611" lon="4.59745">
        <ele>859.6</ele>
        <time>2014-05-01T08:30:21Z</time>
      </trkpt>
      <trkpt lat="45.6361" lon="4.59738">
        <ele>859.6</ele>
        <time>2014-05-01T08:30:23Z</time>
      </trkpt>
      <trkpt lat="45.63609" lon="4.59732">
        <ele>859.7</ele>
        <time>2014-05-01T08:30:25Z</time>
      </trkpt>
      <trkpt lat="45.63607" lon="4.59726">
        <ele>859.9</ele>
        <time>2014-05-01T08:30:27Z</time>
      </trkpt>
      <trkpt lat="45.63605" lon="4.59721">
        <ele>860.2</ele>
        <time>2014-05-01T08:30:29Z</time>
      </trkpt>
      <trkpt lat="45.63602" lon="4.59715">
        <ele>860.4</ele>
        <time>2014-05-01T08:30:31Z</time>
      </trkpt>
      <trkpt lat="45.63601" lon="4.59708">
        <ele>860.6</ele>
        <time>2014-05-01T08:30:33Z</time>
      </trkpt>
      <trkpt lat="45.63599" lon="4.59702">
        <ele>860.8</ele>
        <time>2014-05-01T08:30:35Z</time>
      </trkpt>
      <trkpt lat="45.63596" lon="4.59697">
        <ele>861</ele>
        <time>2014-05-01T08:30:37Z</time>
      </trkpt>
      <trkpt lat="45.63592" lon="4.59692">
        <ele>861.4</ele>
        <time>2014-05-01T08:30:39Z</time>
      </trkpt>
      <trkpt lat="45.63588" lon="4.59689">
        <ele>861.9</ele>
        <time>2014-05-01T08:30:41Z</time>
      </trkpt>
      <trkpt lat="45.63584" lon="4.59685">
        <ele>862.3</ele>
        <time>2014-05-01T08:30:43Z</time>
      </trkpt>
      <trkpt lat="45.6358" lon="4.59682">
        <ele>862.7</ele>
        <time>2014-05-01T08:30:45Z</time>
      </trkpt>
      <trkpt lat="45.63577" lon="4.59678">
        <ele>863.2</ele>
        <time>2014-05-01T08:30:47Z</time>
      </trkpt>
      <trkpt lat="45.63575" lon="4.59672">
        <ele>863.6</ele>
        <time>2014-05-01T08:30:49Z</time>
      </trkpt>
      <trkpt lat="45.63573" lon="4.59666">
        <ele>864</ele>
        <time>2014-05-01T08:30:51Z</time>
      </trkpt>
      <trkpt lat="45.63571" lon="4.59659">
        <ele>863.9</ele>
        <time>2014-05-01T08:30:53Z</time>
      </trkpt>
      <trkpt lat="45.63569" lon="4.59651">
        <ele>863.8</ele>
        <time>2014-05-01T08:30:55Z</time>
      </trkpt>
      <trkpt lat="45.63567" lon="4.59644">
        <ele>863.7</ele>
        <time>2014-05-01T08:30:57Z</time>
      </trkpt>
      <trkpt lat="45.63564" lon="4.59636">
        <ele>863.5</ele>
        <time>2014-05-01T08:30:59Z</time>
      </trkpt>
      <trkpt lat="45.63561" lon="4.59628">
        <ele>863.3</ele>
        <time>2014-05-01T08:31:01Z</time>
      </trkpt>
      <trkpt lat="45.63558" lon="4.59621">
        <ele>863.1</ele>
        <time>2014-05-01T08:31:03Z</time>
      </trkpt>
      <trkpt lat="45.63553" lon="4.59613">
        <ele>862.9</ele>
        <time>2014-05-01T08:31:05Z</time>
      </trkpt>
      <trkpt lat="45.63548" lon="4.59606">
        <ele>862.6</ele>
        <time>2014-05-01T08:31:07Z</time>
      </trkpt>
      <trkpt lat="45.63542" lon="4.59599">
        <ele>862.4</ele>
        <time>2014-05-01T08:31:09Z</time>
      </trkpt>
      <trkpt lat="45.63536" lon="4.59591">
        <ele>861.6</ele>
        <time>2014-05-01T08:31:11Z</time>
      </trkpt>
      <trkpt lat="45.6353" lon="4.5958">
        <ele>861</ele>
        <time>2014-05-01T08:31:13Z</time>
      </trkpt>
      <trkpt lat="45.63526" lon="4.59566">
        <ele>860.3</ele>
        <time>2014-05-01T08:31:15Z</time>
      </trkpt>
      <trkpt lat="45.63523" lon="4.59549">
        <ele>859.4</ele>
        <time>2014-05-01T08:31:17Z</time>
      </trkpt>
      <trkpt lat="45.63521" lon="4.59531">
        <ele>858.4</ele>
        <time>2014-05-01T08:31:19Z</time>
      </trkpt>
      <trkpt lat="45.63519" lon="4.59511">
        <ele>857.5</ele>
        <time>2014-05-01T08:31:21Z</time>
      </trkpt>
      <trkpt lat="45.63516" lon="4.59493">
        <ele>856.1</ele>
        <time>2014-05-01T08:31:23Z</time>
      </trkpt>
      <trkpt lat="45.63511" lon="4.59474">
        <ele>855</ele>
        <time>2014-05-01T08:31:25Z</time>
      </trkpt>
      <trkpt lat="45.63508" lon="4.59455">
        <ele>854</ele>
        <time>2014-05-01T08:31:27Z</time>
      </trkpt>
      <trkpt lat="45.63508" lon="4.59437">
        <ele>854</ele>
        <time>2014-05-01T08:31:29Z</time>
      </trkpt>
      <trkpt lat="45.6351" lon="4.59424">
        <ele>854.1</ele>
        <time>2014-05-01T08:31:31Z</time>
      </trkpt>
      <trkpt lat="45.63512" lon="4.59416">
        <ele>854.4</ele>
        <time>2014-05-01T08:31:33Z</time>
      </trkpt>
      <trkpt lat="45.63514" lon="4.59411">
        <ele>854.6</ele>
        <time>2014-05-01T08:31:35Z</time>
      </trkpt>
      <trkpt lat="45.63517" lon="4.59406">
        <ele>854.8</ele>
        <time>2014-05-01T08:31:37Z</time>
      </trkpt>
      <trkpt lat="45.63519" lon="4.59401">
        <ele>855</ele>
        <time>2014-05-01T08:31:39Z</time>
      </trkpt>
      <trkpt lat="45.63521" lon="4.59397">
        <ele>855.2</ele>
        <time>2014-05-01T08:31:41Z</time>
      </trkpt>
      <trkpt lat="45.63523" lon="4.59393">
        <ele>855.4</ele>
        <time>2014-05-01T08:31:43Z</time>
      </trkpt>
      <trkpt lat="45.63525" lon="4.59389">
        <ele>855.6</ele>
        <time>2014-05-01T08:31:45Z</time>
      </trkpt>
      <trkpt lat="45.63527" lon="4.59385">
        <ele>855.7</ele>
        <time>2014-05-01T08:31:47Z</time>
      </trkpt>
      <trkpt lat="45.63529" lon="4.59382">
        <ele>855.9</ele>
        <time>2014-05-01T08:31:49Z</time>
      </trkpt>
      <trkpt lat="45.63531" lon="4.59378">
        <ele>856.2</ele>
        <time>2014-05-01T08:31:51Z</time>
      </trkpt>
      <trkpt lat="45.63533" lon="4.59375">
        <ele>856.4</ele>
        <time>2014-05-01T08:31:53Z</time>
      </trkpt>
      <trkpt lat="45.63534" lon="4.59371">
        <ele>856.5</ele>
        <time>2014-05-01T08:32:02Z</time>
      </trkpt>
      <trkpt lat="45.63535" lon="4.59369">
        <ele>856.6</ele>
        <time>2014-05-01T08:32:04Z</time>
      </trkpt>
      <trkpt lat="45.63537" lon="4.59365">
        <ele>856.8</ele>
        <time>2014-05-01T08:32:10Z</time>
      </trkpt>
      <trkpt lat="45.63538" lon="4.59362">
        <ele>856.8</ele>
        <time>2014-05-01T08:32:12Z</time>
      </trkpt>
      <trkpt lat="45.63538" lon="4.5936">
        <ele>856.9</ele>
        <time>2014-05-01T08:32:14Z</time>
      </trkpt>
      <trkpt lat="45.63539" lon="4.59357">
        <ele>857</ele>
        <time>2014-05-01T08:32:16Z</time>
      </trkpt>
      <trkpt lat="45.6354" lon="4.59355">
        <ele>857</ele>
        <time>2014-05-01T08:32:18Z</time>
      </trkpt>
      <trkpt lat="45.63541" lon="4.59353">
        <ele>857.1</ele>
        <time>2014-05-01T08:32:20Z</time>
      </trkpt>
      <trkpt lat="45.63542" lon="4.5935">
        <ele>857.2</ele>
        <time>2014-05-01T08:32:22Z</time>
      </trkpt>
      <trkpt lat="45.63543" lon="4.59348">
        <ele>857.3</ele>
        <time>2014-05-01T08:32:24Z</time>
      </trkpt>
      <trkpt lat="45.63543" lon="4.59345">
        <ele>857.3</ele>
        <time>2014-05-01T08:32:26Z</time>
      </trkpt>
      <trkpt lat="45.63545" lon="4.59343">
        <ele>857.4</ele>
        <time>2014-05-01T08:32:28Z</time>
      </trkpt>
      <trkpt lat="45.63545" lon="4.5934">
        <ele>857.4</ele>
        <time>2014-05-01T08:32:30Z</time>
      </trkpt>
      <trkpt lat="45.63546" lon="4.59338">
        <ele>857.5</ele>
        <time>2014-05-01T08:32:32Z</time>
      </trkpt>
      <trkpt lat="45.63546" lon="4.59335">
        <ele>857.6</ele>
        <time>2014-05-01T08:32:34Z</time>
      </trkpt>
      <trkpt lat="45.63548" lon="4.59333">
        <ele>857.6</ele>
        <time>2014-05-01T08:32:36Z</time>
      </trkpt>
      <trkpt lat="45.63548" lon="4.5933">
        <ele>857.7</ele>
        <time>2014-05-01T08:32:38Z</time>
      </trkpt>
      <trkpt lat="45.63549" lon="4.59328">
        <ele>857.8</ele>
        <time>2014-05-01T08:32:40Z</time>
      </trkpt>
      <trkpt lat="45.6355" lon="4.59325">
        <ele>857.8</ele>
        <time>2014-05-01T08:32:42Z</time>
      </trkpt>
      <trkpt lat="45.63551" lon="4.59323">
        <ele>857.9</ele>
        <time>2014-05-01T08:32:44Z</time>
      </trkpt>
      <trkpt lat="45.63551" lon="4.59321">
        <ele>858</ele>
        <time>2014-05-01T08:32:46Z</time>
      </trkpt>
      <trkpt lat="45.63552" lon="4.59319">
        <ele>858.1</ele>
        <time>2014-05-01T08:32:48Z</time>
      </trkpt>
      <trkpt lat="45.63553" lon="4.59316">
        <ele>858.2</ele>
        <time>2014-05-01T08:32:50Z</time>
      </trkpt>
      <trkpt lat="45.63554" lon="4.59314">
        <ele>858.2</ele>
        <time>2014-05-01T08:32:52Z</time>
      </trkpt>
      <trkpt lat="45.63555" lon="4.59312">
        <ele>858.3</ele>
        <time>2014-05-01T08:32:54Z</time>
      </trkpt>
      <trkpt lat="45.63556" lon="4.5931">
        <ele>858.3</ele>
        <time>2014-05-01T08:32:56Z</time>
      </trkpt>
      <trkpt lat="45.63556" lon="4.59307">
        <ele>858.3</ele>
        <time>2014-05-01T08:32:58Z</time>
      </trkpt>
      <trkpt lat="45.63557" lon="4.59305">
        <ele>858.4</ele>
        <time>2014-05-01T08:33:00Z</time>
      </trkpt>
      <trkpt lat="45.63558" lon="4.59302">
        <ele>858.4</ele>
        <time>2014-05-01T08:33:02Z</time>
      </trkpt>
      <trkpt lat="45.63559" lon="4.593">
        <ele>858.5</ele>
        <time>2014-05-01T08:33:04Z</time>
      </trkpt>
      <trkpt lat="45.63559" lon="4.59298">
        <ele>858.5</ele>
        <time>2014-05-01T08:33:06Z</time>
      </trkpt>
      <trkpt lat="45.6356" lon="4.59295">
        <ele>858.6</ele>
        <time>2014-05-01T08:33:08Z</time>
      </trkpt>
      <trkpt lat="45.63561" lon="4.59293">
        <ele>858.6</ele>
        <time>2014-05-01T08:33:10Z</time>
      </trkpt>
      <trkpt lat="45.63561" lon="4.59291">
        <ele>858.6</ele>
        <time>2014-05-01T08:33:12Z</time>
      </trkpt>
      <trkpt lat="45.63562" lon="4.59289">
        <ele>858.7</ele>
        <time>2014-05-01T08:33:14Z</time>
      </trkpt>
      <trkpt lat="45.63562" lon="4.59287">
        <ele>858.7</ele>
        <time>2014-05-01T08:33:16Z</time>
      </trkpt>
      <trkpt lat="45.63563" lon="4.59284">
        <ele>858.8</ele>
        <time>2014-05-01T08:33:18Z</time>
      </trkpt>
      <trkpt lat="45.63564" lon="4.59282">
        <ele>858.9</ele>
        <time>2014-05-01T08:33:20Z</time>
      </trkpt>
      <trkpt lat="45.63565" lon="4.5928">
        <ele>859</ele>
        <time>2014-05-01T08:33:22Z</time>
      </trkpt>
      <trkpt lat="45.63565" lon="4.59278">
        <ele>859.1</ele>
        <time>2014-05-01T08:33:24Z</time>
      </trkpt>
      <trkpt lat="45.63566" lon="4.59276">
        <ele>859.1</ele>
        <time>2014-05-01T08:33:26Z</time>
      </trkpt>
      <trkpt lat="45.63567" lon="4.59274">
        <ele>859.2</ele>
        <time>2014-05-01T08:33:28Z</time>
      </trkpt>
      <trkpt lat="45.63569" lon="4.59272">
        <ele>859.3</ele>
        <time>2014-05-01T08:33:30Z</time>
      </trkpt>
      <trkpt lat="45.6357" lon="4.5927">
        <ele>859.3</ele>
        <time>2014-05-01T08:33:32Z</time>
      </trkpt>
      <trkpt lat="45.63571" lon="4.59268">
        <ele>859.4</ele>
        <time>2014-05-01T08:33:34Z</time>
      </trkpt>
      <trkpt lat="45.63572" lon="4.59266">
        <ele>859.5</ele>
        <time>2014-05-01T08:33:36Z</time>
      </trkpt>
      <trkpt lat="45.63574" lon="4.59264">
        <ele>859.5</ele>
        <time>2014-05-01T08:33:38Z</time>
      </trkpt>
      <trkpt lat="45.63575" lon="4.59263">
        <ele>859.6</ele>
        <time>2014-05-01T08:33:40Z</time>
      </trkpt>
      <trkpt lat="45.63577" lon="4.59262">
        <ele>859.7</ele>
        <time>2014-05-01T08:33:42Z</time>
      </trkpt>
      <trkpt lat="45.63577" lon="4.5926">
        <ele>859.8</ele>
        <time>2014-05-01T08:33:49Z</time>
      </trkpt>
      <trkpt lat="45.63579" lon="4.59258">
        <ele>859.9</ele>
        <time>2014-05-01T08:33:51Z</time>
      </trkpt>
      <trkpt lat="45.63582" lon="4.59256">
        <ele>860.3</ele>
        <time>2014-05-01T08:33:53Z</time>
      </trkpt>
      <trkpt lat="45.63583" lon="4.59253">
        <ele>860.6</ele>
        <time>2014-05-01T08:33:55Z</time>
      </trkpt>
      <trkpt lat="45.63586" lon="4.59252">
        <ele>861</ele>
        <time>2014-05-01T08:33:57Z</time>
      </trkpt>
      <trkpt lat="45.63588" lon="4.59249">
        <ele>861.3</ele>
        <time>2014-05-01T08:33:59Z</time>
      </trkpt>
      <trkpt lat="45.6359" lon="4.59247">
        <ele>861.6</ele>
        <time>2014-05-01T08:34:01Z</time>
      </trkpt>
      <trkpt lat="45.63592" lon="4.59244">
        <ele>862</ele>
        <time>2014-05-01T08:34:03Z</time>
      </trkpt>
      <trkpt lat="45.63594" lon="4.5924">
        <ele>862.5</ele>
        <time>2014-05-01T08:34:05Z</time>
      </trkpt>
      <trkpt lat="45.63598" lon="4.59236">
        <ele>863.1</ele>
        <time>2014-05-01T08:34:07Z</time>
      </trkpt>
      <trkpt lat="45.63601" lon="4.59232">
        <ele>863.7</ele>
        <time>2014-05-01T08:34:09Z</time>
      </trkpt>
      <trkpt lat="45.63604" lon="4.59228">
        <ele>864.3</ele>
        <time>2014-05-01T08:34:11Z</time>
      </trkpt>
      <trkpt lat="45.63607" lon="4.59225">
        <ele>864.9</ele>
        <time>2014-05-01T08:34:13Z</time>
      </trkpt>
      <trkpt lat="45.63611" lon="4.59222">
        <ele>865.4</ele>
        <time>2014-05-01T08:34:15Z</time>
      </trkpt>
      <trkpt lat="45.63614" lon="4.59218">
        <ele>865.9</ele>
        <time>2014-05-01T08:34:17Z</time>
      </trkpt>
      <trkpt lat="45.63618" lon="4.59214">
        <ele>866.4</ele>
        <time>2014-05-01T08:34:19Z</time>
      </trkpt>
      <trkpt lat="45.63621" lon="4.5921">
        <ele>867</ele>
        <time>2014-05-01T08:34:21Z</time>
      </trkpt>
      <trkpt lat="45.63624" lon="4.59205">
        <ele>867.7</ele>
        <time>2014-05-01T08:34:23Z</time>
      </trkpt>
      <trkpt lat="45.63628" lon="4.59201">
        <ele>868.5</ele>
        <time>2014-05-01T08:34:25Z</time>
      </trkpt>
      <trkpt lat="45.63631" lon="4.59197">
        <ele>869.3</ele>
        <time>2014-05-01T08:34:27Z</time>
      </trkpt>
      <trkpt lat="45.63635" lon="4.59194">
        <ele>870.1</ele>
        <time>2014-05-01T08:34:29Z</time>
      </trkpt>
      <trkpt lat="45.63637" lon="4.59196">
        <ele>870.7</ele>
        <time>2014-05-01T08:34:31Z</time>
      </trkpt>
      <trkpt lat="45.6364" lon="4.59197">
        <ele>871.2</ele>
        <time>2014-05-01T08:34:33Z</time>
      </trkpt>
      <trkpt lat="45.63643" lon="4.59195">
        <ele>871.7</ele>
        <time>2014-05-01T08:34:35Z</time>
      </trkpt>
      <trkpt lat="45.63644" lon="4.59192">
        <ele>872.2</ele>
        <time>2014-05-01T08:34:37Z</time>
      </trkpt>
      <trkpt lat="45.63644" lon="4.59187">
        <ele>872.7</ele>
        <time>2014-05-01T08:34:39Z</time>
      </trkpt>
      <trkpt lat="45.63645" lon="4.59184">
        <ele>873.3</ele>
        <time>2014-05-01T08:34:41Z</time>
      </trkpt>
      <trkpt lat="45.63648" lon="4.59182">
        <ele>874.1</ele>
        <time>2014-05-01T08:34:43Z</time>
      </trkpt>
      <trkpt lat="45.6365" lon="4.59182">
        <ele>874.7</ele>
        <time>2014-05-01T08:34:45Z</time>
      </trkpt>
      <trkpt lat="45.63652" lon="4.59181">
        <ele>875.2</ele>
        <time>2014-05-01T08:34:47Z</time>
      </trkpt>
      <trkpt lat="45.63654" lon="4.59182">
        <ele>875.6</ele>
        <time>2014-05-01T08:34:49Z</time>
      </trkpt>
      <trkpt lat="45.63656" lon="4.59184">
        <ele>876.1</ele>
        <time>2014-05-01T08:34:51Z</time>
      </trkpt>
      <trkpt lat="45.63658" lon="4.59185">
        <ele>876.6</ele>
        <time>2014-05-01T08:34:53Z</time>
      </trkpt>
      <trkpt lat="45.6366" lon="4.59188">
        <ele>877.1</ele>
        <time>2014-05-01T08:34:55Z</time>
      </trkpt>
      <trkpt lat="45.63661" lon="4.5919">
        <ele>877.8</ele>
        <time>2014-05-01T08:34:57Z</time>
      </trkpt>
      <trkpt lat="45.63661" lon="4.59193">
        <ele>878.7</ele>
        <time>2014-05-01T08:34:59Z</time>
      </trkpt>
      <trkpt lat="45.63662" lon="4.59195">
        <ele>879.3</ele>
        <time>2014-05-01T08:35:01Z</time>
      </trkpt>
      <trkpt lat="45.63663" lon="4.59197">
        <ele>879.7</ele>
        <time>2014-05-01T08:35:06Z</time>
      </trkpt>
      <trkpt lat="45.63664" lon="4.592">
        <ele>880.6</ele>
        <time>2014-05-01T08:35:10Z</time>
      </trkpt>
      <trkpt lat="45.63665" lon="4.59201">
        <ele>881.1</ele>
        <time>2014-05-01T08:35:12Z</time>
      </trkpt>
      <trkpt lat="45.63666" lon="4.59203">
        <ele>881.6</ele>
        <time>2014-05-01T08:35:14Z</time>
      </trkpt>
      <trkpt lat="45.63668" lon="4.59205">
        <ele>882</ele>
        <time>2014-05-01T08:35:16Z</time>
      </trkpt>
      <trkpt lat="45.6367" lon="4.59207">
        <ele>882.6</ele>
        <time>2014-05-01T08:35:20Z</time>
      </trkpt>
      <trkpt lat="45.63672" lon="4.5921">
        <ele>883.2</ele>
        <time>2014-05-01T08:35:24Z</time>
      </trkpt>
      <trkpt lat="45.63673" lon="4.59211">
        <ele>883.5</ele>
        <time>2014-05-01T08:35:26Z</time>
      </trkpt>
      <trkpt lat="45.63674" lon="4.59213">
        <ele>883.9</ele>
        <time>2014-05-01T08:35:28Z</time>
      </trkpt>
      <trkpt lat="45.63675" lon="4.59215">
        <ele>884.3</ele>
        <time>2014-05-01T08:35:30Z</time>
      </trkpt>
      <trkpt lat="45.63676" lon="4.59217">
        <ele>884.7</ele>
        <time>2014-05-01T08:35:32Z</time>
      </trkpt>
      <trkpt lat="45.63677" lon="4.59218">
        <ele>885</ele>
        <time>2014-05-01T08:35:34Z</time>
      </trkpt>
      <trkpt lat="45.63678" lon="4.5922">
        <ele>885.3</ele>
        <time>2014-05-01T08:35:36Z</time>
      </trkpt>
      <trkpt lat="45.63678" lon="4.59222">
        <ele>885.6</ele>
        <time>2014-05-01T08:35:38Z</time>
      </trkpt>
      <trkpt lat="45.6368" lon="4.59223">
        <ele>886.1</ele>
        <time>2014-05-01T08:35:40Z</time>
      </trkpt>
      <trkpt lat="45.63681" lon="4.59225">
        <ele>886.6</ele>
        <time>2014-05-01T08:35:42Z</time>
      </trkpt>
      <trkpt lat="45.63681" lon="4.59227">
        <ele>887</ele>
        <time>2014-05-01T08:35:44Z</time>
      </trkpt>
      <trkpt lat="45.63682" lon="4.59229">
        <ele>887.6</ele>
        <time>2014-05-01T08:35:46Z</time>
      </trkpt>
      <trkpt lat="45.63683" lon="4.59231">
        <ele>888.1</ele>
        <time>2014-05-01T08:35:48Z</time>
      </trkpt>
      <trkpt lat="45.63686" lon="4.59238">
        <ele>889.9</ele>
        <time>2014-05-01T08:35:56Z</time>
      </trkpt>
      <trkpt lat="45.63687" lon="4.5924">
        <ele>890.4</ele>
        <time>2014-05-01T08:35:58Z</time>
      </trkpt>
      <trkpt lat="45.63688" lon="4.59243">
        <ele>891</ele>
        <time>2014-05-01T08:36:00Z</time>
      </trkpt>
      <trkpt lat="45.63688" lon="4.59246">
        <ele>891.6</ele>
        <time>2014-05-01T08:36:02Z</time>
      </trkpt>
      <trkpt lat="45.63688" lon="4.59249">
        <ele>892.2</ele>
        <time>2014-05-01T08:36:04Z</time>
      </trkpt>
      <trkpt lat="45.63689" lon="4.59253">
        <ele>893.2</ele>
        <time>2014-05-01T08:36:08Z</time>
      </trkpt>
      <trkpt lat="45.63689" lon="4.59255">
        <ele>893.6</ele>
        <time>2014-05-01T08:36:10Z</time>
      </trkpt>
      <trkpt lat="45.63689" lon="4.59257">
        <ele>894.1</ele>
        <time>2014-05-01T08:36:12Z</time>
      </trkpt>
      <trkpt lat="45.6369" lon="4.59259">
        <ele>894.6</ele>
        <time>2014-05-01T08:36:14Z</time>
      </trkpt>
      <trkpt lat="45.63691" lon="4.59261">
        <ele>895.1</ele>
        <time>2014-05-01T08:36:16Z</time>
      </trkpt>
      <trkpt lat="45.63691" lon="4.59263">
        <ele>895.6</ele>
        <time>2014-05-01T08:36:18Z</time>
      </trkpt>
      <trkpt lat="45.63693" lon="4.59264">
        <ele>896.2</ele>
        <time>2014-05-01T08:36:20Z</time>
      </trkpt>
      <trkpt lat="45.63694" lon="4.59268">
        <ele>897.1</ele>
        <time>2014-05-01T08:36:24Z</time>
      </trkpt>
      <trkpt lat="45.63695" lon="4.59269">
        <ele>897.6</ele>
        <time>2014-05-01T08:36:26Z</time>
      </trkpt>
      <trkpt lat="45.63696" lon="4.59271">
        <ele>898.1</ele>
        <time>2014-05-01T08:36:28Z</time>
      </trkpt>
      <trkpt lat="45.63697" lon="4.59273">
        <ele>899</ele>
        <time>2014-05-01T08:36:32Z</time>
      </trkpt>
      <trkpt lat="45.63699" lon="4.59275">
        <ele>899.5</ele>
        <time>2014-05-01T08:36:34Z</time>
      </trkpt>
      <trkpt lat="45.63699" lon="4.59276">
        <ele>900</ele>
        <time>2014-05-01T08:36:36Z</time>
      </trkpt>
      <trkpt lat="45.63701" lon="4.59278">
        <ele>900.6</ele>
        <time>2014-05-01T08:36:38Z</time>
      </trkpt>
      <trkpt lat="45.63701" lon="4.5928">
        <ele>901.1</ele>
        <time>2014-05-01T08:36:40Z</time>
      </trkpt>
      <trkpt lat="45.63702" lon="4.59282">
        <ele>901.5</ele>
        <time>2014-05-01T08:36:42Z</time>
      </trkpt>
      <trkpt lat="45.63702" lon="4.59283">
        <ele>901.9</ele>
        <time>2014-05-01T08:36:44Z</time>
      </trkpt>
      <trkpt lat="45.63703" lon="4.59285">
        <ele>902.2</ele>
        <time>2014-05-01T08:36:46Z</time>
      </trkpt>
      <trkpt lat="45.63704" lon="4.59287">
        <ele>902.5</ele>
        <time>2014-05-01T08:36:48Z</time>
      </trkpt>
      <trkpt lat="45.63705" lon="4.59289">
        <ele>902.9</ele>
        <time>2014-05-01T08:36:50Z</time>
      </trkpt>
      <trkpt lat="45.63705" lon="4.59291">
        <ele>903.2</ele>
        <time>2014-05-01T08:36:52Z</time>
      </trkpt>
      <trkpt lat="45.63706" lon="4.59293">
        <ele>903.6</ele>
        <time>2014-05-01T08:36:54Z</time>
      </trkpt>
      <trkpt lat="45.63707" lon="4.59294">
        <ele>903.9</ele>
        <time>2014-05-01T08:36:56Z</time>
      </trkpt>
      <trkpt lat="45.63708" lon="4.59296">
        <ele>904.2</ele>
        <time>2014-05-01T08:36:58Z</time>
      </trkpt>
      <trkpt lat="45.63709" lon="4.59298">
        <ele>904.5</ele>
        <time>2014-05-01T08:37:00Z</time>
      </trkpt>
      <trkpt lat="45.6371" lon="4.59299">
        <ele>904.9</ele>
        <time>2014-05-01T08:37:02Z</time>
      </trkpt>
      <trkpt lat="45.6371" lon="4.59301">
        <ele>905.2</ele>
        <time>2014-05-01T08:37:04Z</time>
      </trkpt>
      <trkpt lat="45.63711" lon="4.59303">
        <ele>905.6</ele>
        <time>2014-05-01T08:37:06Z</time>
      </trkpt>
      <trkpt lat="45.63712" lon="4.59305">
        <ele>906</ele>
        <time>2014-05-01T08:37:08Z</time>
      </trkpt>
      <trkpt lat="45.63714" lon="4.59306">
        <ele>906.3</ele>
        <time>2014-05-01T08:37:10Z</time>
      </trkpt>
      <trkpt lat="45.63714" lon="4.59308">
        <ele>906.6</ele>
        <time>2014-05-01T08:37:12Z</time>
      </trkpt>
      <trkpt lat="45.63715" lon="4.5931">
        <ele>907</ele>
        <time>2014-05-01T08:37:14Z</time>
      </trkpt>
      <trkpt lat="45.63716" lon="4.59312">
        <ele>907.4</ele>
        <time>2014-05-01T08:37:16Z</time>
      </trkpt>
      <trkpt lat="45.63717" lon="4.59314">
        <ele>907.8</ele>
        <time>2014-05-01T08:37:18Z</time>
      </trkpt>
      <trkpt lat="45.63718" lon="4.59316">
        <ele>908.2</ele>
        <time>2014-05-01T08:37:20Z</time>
      </trkpt>
      <trkpt lat="45.63718" lon="4.59317">
        <ele>908.6</ele>
        <time>2014-05-01T08:37:22Z</time>
      </trkpt>
      <trkpt lat="45.63719" lon="4.59319">
        <ele>908.9</ele>
        <time>2014-05-01T08:37:24Z</time>
      </trkpt>
      <trkpt lat="45.63719" lon="4.59321">
        <ele>909.3</ele>
        <time>2014-05-01T08:37:26Z</time>
      </trkpt>
      <trkpt lat="45.6372" lon="4.59323">
        <ele>909.7</ele>
        <time>2014-05-01T08:37:28Z</time>
      </trkpt>
      <trkpt lat="45.6372" lon="4.59325">
        <ele>910</ele>
        <time>2014-05-01T08:37:30Z</time>
      </trkpt>
      <trkpt lat="45.63721" lon="4.59327">
        <ele>910.4</ele>
        <time>2014-05-01T08:37:32Z</time>
      </trkpt>
      <trkpt lat="45.63722" lon="4.59329">
        <ele>910.8</ele>
        <time>2014-05-01T08:37:34Z</time>
      </trkpt>
      <trkpt lat="45.63722" lon="4.59331">
        <ele>911.2</ele>
        <time>2014-05-01T08:37:36Z</time>
      </trkpt>
      <trkpt lat="45.63723" lon="4.59333">
        <ele>911.8</ele>
        <time>2014-05-01T08:37:38Z</time>
      </trkpt>
      <trkpt lat="45.63723" lon="4.59337">
        <ele>913.2</ele>
        <time>2014-05-01T08:37:42Z</time>
      </trkpt>
      <trkpt lat="45.63724" lon="4.5934">
        <ele>913.9</ele>
        <time>2014-05-01T08:37:44Z</time>
      </trkpt>
      <trkpt lat="45.63725" lon="4.59342">
        <ele>914.4</ele>
        <time>2014-05-01T08:37:46Z</time>
      </trkpt>
      <trkpt lat="45.63725" lon="4.59345">
        <ele>914.9</ele>
        <time>2014-05-01T08:37:48Z</time>
      </trkpt>
      <trkpt lat="45.63727" lon="4.59347">
        <ele>915.5</ele>
        <time>2014-05-01T08:37:50Z</time>
      </trkpt>
      <trkpt lat="45.63728" lon="4.59349">
        <ele>916</ele>
        <time>2014-05-01T08:37:52Z</time>
      </trkpt>
      <trkpt lat="45.6373" lon="4.59351">
        <ele>916.6</ele>
        <time>2014-05-01T08:37:54Z</time>
      </trkpt>
      <trkpt lat="45.63731" lon="4.59353">
        <ele>917.1</ele>
        <time>2014-05-01T08:37:56Z</time>
      </trkpt>
      <trkpt lat="45.63733" lon="4.59355">
        <ele>917.7</ele>
        <time>2014-05-01T08:37:58Z</time>
      </trkpt>
      <trkpt lat="45.63734" lon="4.59357">
        <ele>918.3</ele>
        <time>2014-05-01T08:38:00Z</time>
      </trkpt>
      <trkpt lat="45.63736" lon="4.59359">
        <ele>919</ele>
        <time>2014-05-01T08:38:02Z</time>
      </trkpt>
      <trkpt lat="45.63738" lon="4.5936">
        <ele>919.6</ele>
        <time>2014-05-01T08:38:04Z</time>
      </trkpt>
      <trkpt lat="45.63739" lon="4.59362">
        <ele>920.1</ele>
        <time>2014-05-01T08:38:06Z</time>
      </trkpt>
      <trkpt lat="45.6374" lon="4.59364">
        <ele>920.5</ele>
        <time>2014-05-01T08:38:08Z</time>
      </trkpt>
      <trkpt lat="45.63741" lon="4.59366">
        <ele>920.8</ele>
        <time>2014-05-01T08:38:10Z</time>
      </trkpt>
      <trkpt lat="45.63742" lon="4.59367">
        <ele>921.1</ele>
        <time>2014-05-01T08:38:12Z</time>
      </trkpt>
      <trkpt lat="45.63744" lon="4.59368">
        <ele>921.4</ele>
        <time>2014-05-01T08:38:14Z</time>
      </trkpt>
      <trkpt lat="45.63745" lon="4.5937">
        <ele>921.7</ele>
        <time>2014-05-01T08:38:16Z</time>
      </trkpt>
      <trkpt lat="45.63746" lon="4.59372">
        <ele>922</ele>
        <time>2014-05-01T08:38:18Z</time>
      </trkpt>
      <trkpt lat="45.63747" lon="4.59374">
        <ele>922.4</ele>
        <time>2014-05-01T08:38:20Z</time>
      </trkpt>
      <trkpt lat="45.63748" lon="4.59376">
        <ele>922.7</ele>
        <time>2014-05-01T08:38:22Z</time>
      </trkpt>
      <trkpt lat="45.6375" lon="4.59378">
        <ele>923</ele>
        <time>2014-05-01T08:38:24Z</time>
      </trkpt>
      <trkpt lat="45.63752" lon="4.5938">
        <ele>923.4</ele>
        <time>2014-05-01T08:38:26Z</time>
      </trkpt>
      <trkpt lat="45.63754" lon="4.59381">
        <ele>923.8</ele>
        <time>2014-05-01T08:38:28Z</time>
      </trkpt>
      <trkpt lat="45.63755" lon="4.59383">
        <ele>924.2</ele>
        <time>2014-05-01T08:38:30Z</time>
      </trkpt>
      <trkpt lat="45.63755" lon="4.59385">
        <ele>924.5</ele>
        <time>2014-05-01T08:38:32Z</time>
      </trkpt>
      <trkpt lat="45.63755" lon="4.59388">
        <ele>924.8</ele>
        <time>2014-05-01T08:38:34Z</time>
      </trkpt>
      <trkpt lat="45.63754" lon="4.59391">
        <ele>925.4</ele>
        <time>2014-05-01T08:38:36Z</time>
      </trkpt>
      <trkpt lat="45.63752" lon="4.59392">
        <ele>928</ele>
        <time>2014-05-01T08:38:38Z</time>
      </trkpt>
      <trkpt lat="45.63749" lon="4.59394">
        <ele>928.1</ele>
        <time>2014-05-01T08:38:40Z</time>
      </trkpt>
      <trkpt lat="45.63747" lon="4.59396">
        <ele>928.2</ele>
        <time>2014-05-01T08:38:42Z</time>
      </trkpt>
      <trkpt lat="45.63746" lon="4.59399">
        <ele>928.3</ele>
        <time>2014-05-01T08:38:44Z</time>
      </trkpt>
      <trkpt lat="45.63745" lon="4.59401">
        <ele>928.3</ele>
        <time>2014-05-01T08:38:46Z</time>
      </trkpt>
      <trkpt lat="45.63744" lon="4.59403">
        <ele>928.4</ele>
        <time>2014-05-01T08:38:48Z</time>
      </trkpt>
      <trkpt lat="45.63743" lon="4.59406">
        <ele>928.5</ele>
        <time>2014-05-01T08:38:50Z</time>
      </trkpt>
      <trkpt lat="45.63743" lon="4.59408">
        <ele>928.5</ele>
        <time>2014-05-01T08:38:52Z</time>
      </trkpt>
      <trkpt lat="45.63744" lon="4.5941">
        <ele>928.6</ele>
        <time>2014-05-01T08:39:59Z</time>
      </trkpt>
      <trkpt lat="45.63744" lon="4.59406">
        <ele>928.7</ele>
        <time>2014-05-01T08:40:06Z</time>
      </trkpt>
      <trkpt lat="45.63745" lon="4.59404">
        <ele>928.7</ele>
        <time>2014-05-01T08:40:08Z</time>
      </trkpt>
      <trkpt lat="45.63746" lon="4.59402">
        <ele>928.7</ele>
        <time>2014-05-01T08:40:10Z</time>
      </trkpt>
      <trkpt lat="45.63749" lon="4.59399">
        <ele>928.8</ele>
        <time>2014-05-01T08:40:18Z</time>
      </trkpt>
      <trkpt lat="45.63751" lon="4.59398">
        <ele>928.9</ele>
        <time>2014-05-01T08:40:20Z</time>
      </trkpt>
      <trkpt lat="45.63754" lon="4.594">
        <ele>928.9</ele>
        <time>2014-05-01T08:40:22Z</time>
      </trkpt>
      <trkpt lat="45.63756" lon="4.59401">
        <ele>929</ele>
        <time>2014-05-01T08:40:24Z</time>
      </trkpt>
      <trkpt lat="45.6376" lon="4.59401">
        <ele>929.1</ele>
        <time>2014-05-01T08:40:26Z</time>
      </trkpt>
      <trkpt lat="45.63763" lon="4.59401">
        <ele>929.1</ele>
        <time>2014-05-01T08:40:28Z</time>
      </trkpt>
      <trkpt lat="45.63767" lon="4.59403">
        <ele>929.2</ele>
        <time>2014-05-01T08:40:30Z</time>
      </trkpt>
      <trkpt lat="45.6377" lon="4.59405">
        <ele>929.2</ele>
        <time>2014-05-01T08:40:32Z</time>
      </trkpt>
      <trkpt lat="45.63773" lon="4.5941">
        <ele>929.3</ele>
        <time>2014-05-01T08:40:34Z</time>
      </trkpt>
      <trkpt lat="45.63777" lon="4.59415">
        <ele>929.4</ele>
        <time>2014-05-01T08:40:36Z</time>
      </trkpt>
      <trkpt lat="45.63781" lon="4.59422">
        <ele>929.5</ele>
        <time>2014-05-01T08:40:38Z</time>
      </trkpt>
      <trkpt lat="45.63786" lon="4.59427">
        <ele>929.6</ele>
        <time>2014-05-01T08:40:40Z</time>
      </trkpt>
      <trkpt lat="45.63791" lon="4.59432">
        <ele>929.6</ele>
        <time>2014-05-01T08:40:42Z</time>
      </trkpt>
      <trkpt lat="45.63797" lon="4.59438">
        <ele>929.7</ele>
        <time>2014-05-01T08:40:44Z</time>
      </trkpt>
      <trkpt lat="45.63804" lon="4.59445">
        <ele>929.8</ele>
        <time>2014-05-01T08:40:46Z</time>
      </trkpt>
      <trkpt lat="45.6381" lon="4.5945">
        <ele>929.8</ele>
        <time>2014-05-01T08:40:48Z</time>
      </trkpt>
      <trkpt lat="45.63816" lon="4.59452">
        <ele>929.9</ele>
        <time>2014-05-01T08:40:50Z</time>
      </trkpt>
      <trkpt lat="45.63823" lon="4.59454">
        <ele>929.9</ele>
        <time>2014-05-01T08:40:52Z</time>
      </trkpt>
      <trkpt lat="45.63831" lon="4.59454">
        <ele>929.9</ele>
        <time>2014-05-01T08:40:54Z</time>
      </trkpt>
      <trkpt lat="45.63839" lon="4.59455">
        <ele>930</ele>
        <time>2014-05-01T08:40:56Z</time>
      </trkpt>
      <trkpt lat="45.6385" lon="4.59456">
        <ele>930</ele>
        <time>2014-05-01T08:40:58Z</time>
      </trkpt>
      <trkpt lat="45.63858" lon="4.59456">
        <ele>930</ele>
        <time>2014-05-01T08:41:00Z</time>
      </trkpt>
      <trkpt lat="45.63865" lon="4.59455">
        <ele>930</ele>
        <time>2014-05-01T08:41:02Z</time>
      </trkpt>
      <trkpt lat="45.63869" lon="4.59454">
        <ele>930</ele>
        <time>2014-05-01T08:41:04Z</time>
      </trkpt>
      <trkpt lat="45.63874" lon="4.59455">
        <ele>930.9</ele>
        <time>2014-05-01T08:41:06Z</time>
      </trkpt>
      <trkpt lat="45.63879" lon="4.59454">
        <ele>931.8</ele>
        <time>2014-05-01T08:41:08Z</time>
      </trkpt>
      <trkpt lat="45.63883" lon="4.5945">
        <ele>932.5</ele>
        <time>2014-05-01T08:41:10Z</time>
      </trkpt>
      <trkpt lat="45.63886" lon="4.59444">
        <ele>933.2</ele>
        <time>2014-05-01T08:41:12Z</time>
      </trkpt>
      <trkpt lat="45.63889" lon="4.5944">
        <ele>934</ele>
        <time>2014-05-01T08:41:14Z</time>
      </trkpt>
      <trkpt lat="45.63891" lon="4.59436">
        <ele>934.5</ele>
        <time>2014-05-01T08:41:16Z</time>
      </trkpt>
      <trkpt lat="45.63893" lon="4.59432">
        <ele>934.9</ele>
        <time>2014-05-01T08:41:18Z</time>
      </trkpt>
      <trkpt lat="45.63895" lon="4.59428">
        <ele>935</ele>
        <time>2014-05-01T08:41:20Z</time>
      </trkpt>
      <trkpt lat="45.63899" lon="4.59425">
        <ele>935.1</ele>
        <time>2014-05-01T08:41:22Z</time>
      </trkpt>
      <trkpt lat="45.639" lon="4.59422">
        <ele>935.1</ele>
        <time>2014-05-01T08:41:24Z</time>
      </trkpt>
      <trkpt lat="45.63902" lon="4.59419">
        <ele>935</ele>
        <time>2014-05-01T08:41:26Z</time>
      </trkpt>
      <trkpt lat="45.63904" lon="4.59416">
        <ele>935</ele>
        <time>2014-05-01T08:41:28Z</time>
      </trkpt>
      <trkpt lat="45.63909" lon="4.59416">
        <ele>934.9</ele>
        <time>2014-05-01T08:41:36Z</time>
      </trkpt>
      <trkpt lat="45.63911" lon="4.59419">
        <ele>935</ele>
        <time>2014-05-01T08:41:38Z</time>
      </trkpt>
      <trkpt lat="45.63915" lon="4.59423">
        <ele>935</ele>
        <time>2014-05-01T08:41:40Z</time>
      </trkpt>
      <trkpt lat="45.63919" lon="4.59428">
        <ele>935</ele>
        <time>2014-05-01T08:41:42Z</time>
      </trkpt>
      <trkpt lat="45.63924" lon="4.5943">
        <ele>935</ele>
        <time>2014-05-01T08:41:44Z</time>
      </trkpt>
      <trkpt lat="45.63928" lon="4.59429">
        <ele>935</ele>
        <time>2014-05-01T08:41:46Z</time>
      </trkpt>
      <trkpt lat="45.63933" lon="4.59424">
        <ele>934.9</ele>
        <time>2014-05-01T08:41:48Z</time>
      </trkpt>
      <trkpt lat="45.63936" lon="4.59418">
        <ele>934.7</ele>
        <time>2014-05-01T08:41:50Z</time>
      </trkpt>
      <trkpt lat="45.63938" lon="4.59409">
        <ele>934.5</ele>
        <time>2014-05-01T08:41:52Z</time>
      </trkpt>
      <trkpt lat="45.63942" lon="4.59402">
        <ele>934.2</ele>
        <time>2014-05-01T08:41:54Z</time>
      </trkpt>
      <trkpt lat="45.63948" lon="4.59395">
        <ele>933.7</ele>
        <time>2014-05-01T08:41:56Z</time>
      </trkpt>
      <trkpt lat="45.63954" lon="4.59386">
        <ele>933.3</ele>
        <time>2014-05-01T08:41:58Z</time>
      </trkpt>
      <trkpt lat="45.63957" lon="4.59376">
        <ele>932.6</ele>
        <time>2014-05-01T08:42:00Z</time>
      </trkpt>
      <trkpt lat="45.6396" lon="4.59367">
        <ele>932.1</ele>
        <time>2014-05-01T08:42:02Z</time>
      </trkpt>
      <trkpt lat="45.63962" lon="4.59358">
        <ele>931.6</ele>
        <time>2014-05-01T08:42:04Z</time>
      </trkpt>
      <trkpt lat="45.63963" lon="4.59352">
        <ele>930.9</ele>
        <time>2014-05-01T08:42:06Z</time>
      </trkpt>
      <trkpt lat="45.63965" lon="4.59344">
        <ele>930.2</ele>
        <time>2014-05-01T08:42:08Z</time>
      </trkpt>
      <trkpt lat="45.63966" lon="4.59333">
        <ele>929.3</ele>
        <time>2014-05-01T08:42:10Z</time>
      </trkpt>
      <trkpt lat="45.63965" lon="4.59321">
        <ele>928.2</ele>
        <time>2014-05-01T08:42:12Z</time>
      </trkpt>
      <trkpt lat="45.63963" lon="4.59307">
        <ele>927.1</ele>
        <time>2014-05-01T08:42:14Z</time>
      </trkpt>
      <trkpt lat="45.63963" lon="4.59291">
        <ele>926.2</ele>
        <time>2014-05-01T08:42:16Z</time>
      </trkpt>
      <trkpt lat="45.63961" lon="4.5928">
        <ele>925.7</ele>
        <time>2014-05-01T08:42:18Z</time>
      </trkpt>
      <trkpt lat="45.63963" lon="4.59271">
        <ele>925.2</ele>
        <time>2014-05-01T08:42:20Z</time>
      </trkpt>
      <trkpt lat="45.63961" lon="4.59261">
        <ele>924.7</ele>
        <time>2014-05-01T08:42:22Z</time>
      </trkpt>
      <trkpt lat="45.63956" lon="4.5925">
        <ele>924</ele>
        <time>2014-05-01T08:42:24Z</time>
      </trkpt>
      <trkpt lat="45.63952" lon="4.59238">
        <ele>923.2</ele>
        <time>2014-05-01T08:42:26Z</time>
      </trkpt>
      <trkpt lat="45.6395" lon="4.59226">
        <ele>922.4</ele>
        <time>2014-05-01T08:42:28Z</time>
      </trkpt>
      <trkpt lat="45.63946" lon="4.59213">
        <ele>921.8</ele>
        <time>2014-05-01T08:42:30Z</time>
      </trkpt>
      <trkpt lat="45.63943" lon="4.59202">
        <ele>921.3</ele>
        <time>2014-05-01T08:42:32Z</time>
      </trkpt>
      <trkpt lat="45.63944" lon="4.59193">
        <ele>920.9</ele>
        <time>2014-05-01T08:42:34Z</time>
      </trkpt>
      <trkpt lat="45.63947" lon="4.59185">
        <ele>920.5</ele>
        <time>2014-05-01T08:42:36Z</time>
      </trkpt>
      <trkpt lat="45.63951" lon="4.59175">
        <ele>920</ele>
        <time>2014-05-01T08:42:38Z</time>
      </trkpt>
      <trkpt lat="45.63956" lon="4.59167">
        <ele>919.4</ele>
        <time>2014-05-01T08:42:40Z</time>
      </trkpt>
      <trkpt lat="45.63962" lon="4.5916">
        <ele>918.8</ele>
        <time>2014-05-01T08:42:42Z</time>
      </trkpt>
      <trkpt lat="45.63969" lon="4.59153">
        <ele>918</ele>
        <time>2014-05-01T08:42:44Z</time>
      </trkpt>
      <trkpt lat="45.63974" lon="4.59149">
        <ele>917.4</ele>
        <time>2014-05-01T08:42:46Z</time>
      </trkpt>
      <trkpt lat="45.63978" lon="4.59143">
        <ele>916.5</ele>
        <time>2014-05-01T08:42:48Z</time>
      </trkpt>
      <trkpt lat="45.63984" lon="4.59136">
        <ele>915.4</ele>
        <time>2014-05-01T08:42:50Z</time>
      </trkpt>
      <trkpt lat="45.63988" lon="4.59126">
        <ele>914.2</ele>
        <time>2014-05-01T08:42:52Z</time>
      </trkpt>
      <trkpt lat="45.63993" lon="4.59116">
        <ele>912.9</ele>
        <time>2014-05-01T08:42:54Z</time>
      </trkpt>
      <trkpt lat="45.63998" lon="4.59106">
        <ele>911.6</ele>
        <time>2014-05-01T08:42:56Z</time>
      </trkpt>
      <trkpt lat="45.64004" lon="4.59094">
        <ele>909.8</ele>
        <time>2014-05-01T08:42:58Z</time>
      </trkpt>
      <trkpt lat="45.6401" lon="4.59081">
        <ele>907.4</ele>
        <time>2014-05-01T08:43:00Z</time>
      </trkpt>
      <trkpt lat="45.64018" lon="4.59069">
        <ele>905.7</ele>
        <time>2014-05-01T08:43:02Z</time>
      </trkpt>
      <trkpt lat="45.64024" lon="4.59057">
        <ele>904.1</ele>
        <time>2014-05-01T08:43:04Z</time>
      </trkpt>
      <trkpt lat="45.64029" lon="4.59044">
        <ele>902.9</ele>
        <time>2014-05-01T08:43:06Z</time>
      </trkpt>
      <trkpt lat="45.64034" lon="4.5903">
        <ele>901.5</ele>
        <time>2014-05-01T08:43:08Z</time>
      </trkpt>
      <trkpt lat="45.64036" lon="4.59014">
        <ele>900.2</ele>
        <time>2014-05-01T08:43:10Z</time>
      </trkpt>
      <trkpt lat="45.64038" lon="4.58999">
        <ele>899.1</ele>
        <time>2014-05-01T08:43:12Z</time>
      </trkpt>
      <trkpt lat="45.64039" lon="4.58981">
        <ele>898.1</ele>
        <time>2014-05-01T08:43:14Z</time>
      </trkpt>
      <trkpt lat="45.6404" lon="4.58962">
        <ele>897</ele>
        <time>2014-05-01T08:43:16Z</time>
      </trkpt>
      <trkpt lat="45.64042" lon="4.58943">
        <ele>895.9</ele>
        <time>2014-05-01T08:43:18Z</time>
      </trkpt>
      <trkpt lat="45.64042" lon="4.58926">
        <ele>895.2</ele>
        <time>2014-05-01T08:43:20Z</time>
      </trkpt>
      <trkpt lat="45.64042" lon="4.5891">
        <ele>894.5</ele>
        <time>2014-05-01T08:43:22Z</time>
      </trkpt>
      <trkpt lat="45.64046" lon="4.58899">
        <ele>894</ele>
        <time>2014-05-01T08:43:24Z</time>
      </trkpt>
      <trkpt lat="45.64049" lon="4.5889">
        <ele>893.6</ele>
        <time>2014-05-01T08:43:26Z</time>
      </trkpt>
      <trkpt lat="45.64052" lon="4.58882">
        <ele>893.2</ele>
        <time>2014-05-01T08:43:28Z</time>
      </trkpt>
      <trkpt lat="45.64058" lon="4.58874">
        <ele>892.7</ele>
        <time>2014-05-01T08:43:30Z</time>
      </trkpt>
      <trkpt lat="45.64062" lon="4.58864">
        <ele>892.3</ele>
        <time>2014-05-01T08:43:32Z</time>
      </trkpt>
      <trkpt lat="45.64066" lon="4.58854">
        <ele>891.7</ele>
        <time>2014-05-01T08:43:34Z</time>
      </trkpt>
      <trkpt lat="45.64071" lon="4.58844">
        <ele>891</ele>
        <time>2014-05-01T08:43:36Z</time>
      </trkpt>
      <trkpt lat="45.64072" lon="4.58834">
        <ele>890.3</ele>
        <time>2014-05-01T08:43:38Z</time>
      </trkpt>
      <trkpt lat="45.64074" lon="4.58825">
        <ele>889.6</ele>
        <time>2014-05-01T08:43:40Z</time>
      </trkpt>
      <trkpt lat="45.64074" lon="4.5882">
        <ele>889.1</ele>
        <time>2014-05-01T08:43:42Z</time>
      </trkpt>
      <trkpt lat="45.64072" lon="4.58816">
        <ele>888.8</ele>
        <time>2014-05-01T08:43:44Z</time>
      </trkpt>
      <trkpt lat="45.6407" lon="4.58815">
        <ele>888.5</ele>
        <time>2014-05-01T08:43:46Z</time>
      </trkpt>
      <trkpt lat="45.64067" lon="4.58814">
        <ele>886.3</ele>
        <time>2014-05-01T08:43:48Z</time>
      </trkpt>
      <trkpt lat="45.64064" lon="4.58813">
        <ele>886.2</ele>
        <time>2014-05-01T08:43:50Z</time>
      </trkpt>
      <trkpt lat="45.6406" lon="4.58813">
        <ele>886.1</ele>
        <time>2014-05-01T08:43:52Z</time>
      </trkpt>
      <trkpt lat="45.64057" lon="4.58812">
        <ele>886</ele>
        <time>2014-05-01T08:43:54Z</time>
      </trkpt>
      <trkpt lat="45.64054" lon="4.58811">
        <ele>885.9</ele>
        <time>2014-05-01T08:43:56Z</time>
      </trkpt>
      <trkpt lat="45.6405" lon="4.58811">
        <ele>885.8</ele>
        <time>2014-05-01T08:43:58Z</time>
      </trkpt>
      <trkpt lat="45.64047" lon="4.58811">
        <ele>885.7</ele>
        <time>2014-05-01T08:44:00Z</time>
      </trkpt>
      <trkpt lat="45.64044" lon="4.58811">
        <ele>885.7</ele>
        <time>2014-05-01T08:44:02Z</time>
      </trkpt>
      <trkpt lat="45.64041" lon="4.58811">
        <ele>885.6</ele>
        <time>2014-05-01T08:44:04Z</time>
      </trkpt>
      <trkpt lat="45.64038" lon="4.5881">
        <ele>885.5</ele>
        <time>2014-05-01T08:44:06Z</time>
      </trkpt>
      <trkpt lat="45.64035" lon="4.5881">
        <ele>885.4</ele>
        <time>2014-05-01T08:44:08Z</time>
      </trkpt>
      <trkpt lat="45.64032" lon="4.58809">
        <ele>885.2</ele>
        <time>2014-05-01T08:44:10Z</time>
      </trkpt>
      <trkpt lat="45.64029" lon="4.58809">
        <ele>885.1</ele>
        <time>2014-05-01T08:44:12Z</time>
      </trkpt>
      <trkpt lat="45.64027" lon="4.58809">
        <ele>884.9</ele>
        <time>2014-05-01T08:44:14Z</time>
      </trkpt>
      <trkpt lat="45.64024" lon="4.58809">
        <ele>884.8</ele>
        <time>2014-05-01T08:44:16Z</time>
      </trkpt>
      <trkpt lat="45.64021" lon="4.58809">
        <ele>884.7</ele>
        <time>2014-05-01T08:44:18Z</time>
      </trkpt>
      <trkpt lat="45.64019" lon="4.58809">
        <ele>884.6</ele>
        <time>2014-05-01T08:44:20Z</time>
      </trkpt>
      <trkpt lat="45.64016" lon="4.58809">
        <ele>884.6</ele>
        <time>2014-05-01T08:44:22Z</time>
      </trkpt>
      <trkpt lat="45.64014" lon="4.58808">
        <ele>884.5</ele>
        <time>2014-05-01T08:44:24Z</time>
      </trkpt>
      <trkpt lat="45.64011" lon="4.58808">
        <ele>884.4</ele>
        <time>2014-05-01T08:44:26Z</time>
      </trkpt>
      <trkpt lat="45.64008" lon="4.58807">
        <ele>884.3</ele>
        <time>2014-05-01T08:44:28Z</time>
      </trkpt>
      <trkpt lat="45.64006" lon="4.58807">
        <ele>884.3</ele>
        <time>2014-05-01T08:44:30Z</time>
      </trkpt>
      <trkpt lat="45.64004" lon="4.58807">
        <ele>884.2</ele>
        <time>2014-05-01T08:44:32Z</time>
      </trkpt>
      <trkpt lat="45.64001" lon="4.58808">
        <ele>884.2</ele>
        <time>2014-05-01T08:44:34Z</time>
      </trkpt>
      <trkpt lat="45.63999" lon="4.58807">
        <ele>884.1</ele>
        <time>2014-05-01T08:44:36Z</time>
      </trkpt>
      <trkpt lat="45.63996" lon="4.58808">
        <ele>884</ele>
        <time>2014-05-01T08:44:38Z</time>
      </trkpt>
      <trkpt lat="45.63994" lon="4.58808">
        <ele>883.9</ele>
        <time>2014-05-01T08:44:40Z</time>
      </trkpt>
      <trkpt lat="45.63991" lon="4.58808">
        <ele>883.8</ele>
        <time>2014-05-01T08:44:42Z</time>
      </trkpt>
      <trkpt lat="45.63989" lon="4.58809">
        <ele>883.7</ele>
        <time>2014-05-01T08:44:44Z</time>
      </trkpt>
      <trkpt lat="45.63986" lon="4.58809">
        <ele>883.7</ele>
        <time>2014-05-01T08:44:46Z</time>
      </trkpt>
      <trkpt lat="45.63984" lon="4.5881">
        <ele>883.6</ele>
        <time>2014-05-01T08:44:48Z</time>
      </trkpt>
      <trkpt lat="45.63982" lon="4.5881">
        <ele>883.6</ele>
        <time>2014-05-01T08:44:50Z</time>
      </trkpt>
      <trkpt lat="45.63979" lon="4.5881">
        <ele>883.5</ele>
        <time>2014-05-01T08:44:52Z</time>
      </trkpt>
      <trkpt lat="45.63977" lon="4.5881">
        <ele>883.4</ele>
        <time>2014-05-01T08:44:54Z</time>
      </trkpt>
      <trkpt lat="45.63974" lon="4.5881">
        <ele>883.4</ele>
        <time>2014-05-01T08:44:56Z</time>
      </trkpt>
      <trkpt lat="45.63972" lon="4.58811">
        <ele>883.3</ele>
        <time>2014-05-01T08:44:58Z</time>
      </trkpt>
      <trkpt lat="45.6397" lon="4.5881">
        <ele>883.2</ele>
        <time>2014-05-01T08:45:00Z</time>
      </trkpt>
      <trkpt lat="45.63968" lon="4.5881">
        <ele>883.2</ele>
        <time>2014-05-01T08:45:02Z</time>
      </trkpt>
      <trkpt lat="45.63965" lon="4.5881">
        <ele>883.1</ele>
        <time>2014-05-01T08:45:04Z</time>
      </trkpt>
      <trkpt lat="45.63963" lon="4.5881">
        <ele>883.1</ele>
        <time>2014-05-01T08:45:06Z</time>
      </trkpt>
      <trkpt lat="45.6396" lon="4.5881">
        <ele>883</ele>
        <time>2014-05-01T08:45:08Z</time>
      </trkpt>
      <trkpt lat="45.63958" lon="4.58809">
        <ele>882.9</ele>
        <time>2014-05-01T08:45:10Z</time>
      </trkpt>
      <trkpt lat="45.63956" lon="4.58809">
        <ele>882.9</ele>
        <time>2014-05-01T08:45:12Z</time>
      </trkpt>
      <trkpt lat="45.63954" lon="4.58808">
        <ele>882.8</ele>
        <time>2014-05-01T08:45:14Z</time>
      </trkpt>
      <trkpt lat="45.63952" lon="4.58808">
        <ele>882.8</ele>
        <time>2014-05-01T08:45:16Z</time>
      </trkpt>
      <trkpt lat="45.63949" lon="4.58807">
        <ele>882.7</ele>
        <time>2014-05-01T08:45:18Z</time>
      </trkpt>
      <trkpt lat="45.63947" lon="4.58806">
        <ele>882.6</ele>
        <time>2014-05-01T08:45:20Z</time>
      </trkpt>
      <trkpt lat="45.63944" lon="4.58806">
        <ele>882.6</ele>
        <time>2014-05-01T08:45:22Z</time>
      </trkpt>
      <trkpt lat="45.63942" lon="4.58805">
        <ele>882.5</ele>
        <time>2014-05-01T08:45:24Z</time>
      </trkpt>
      <trkpt lat="45.6394" lon="4.58804">
        <ele>882.5</ele>
        <time>2014-05-01T08:45:26Z</time>
      </trkpt>
      <trkpt lat="45.63937" lon="4.58803">
        <ele>882.4</ele>
        <time>2014-05-01T08:45:28Z</time>
      </trkpt>
      <trkpt lat="45.63935" lon="4.58801">
        <ele>882.4</ele>
        <time>2014-05-01T08:45:30Z</time>
      </trkpt>
      <trkpt lat="45.63932" lon="4.588">
        <ele>882.3</ele>
        <time>2014-05-01T08:45:32Z</time>
      </trkpt>
      <trkpt lat="45.6393" lon="4.58798">
        <ele>882.3</ele>
        <time>2014-05-01T08:45:34Z</time>
      </trkpt>
      <trkpt lat="45.63928" lon="4.58797">
        <ele>882.2</ele>
        <time>2014-05-01T08:45:36Z</time>
      </trkpt>
      <trkpt lat="45.63925" lon="4.58795">
        <ele>882.1</ele>
        <time>2014-05-01T08:45:38Z</time>
      </trkpt>
      <trkpt lat="45.63923" lon="4.58793">
        <ele>882</ele>
        <time>2014-05-01T08:45:40Z</time>
      </trkpt>
      <trkpt lat="45.6392" lon="4.58791">
        <ele>881.9</ele>
        <time>2014-05-01T08:45:42Z</time>
      </trkpt>
      <trkpt lat="45.63918" lon="4.58788">
        <ele>881.9</ele>
        <time>2014-05-01T08:45:44Z</time>
      </trkpt>
      <trkpt lat="45.63916" lon="4.58786">
        <ele>881.8</ele>
        <time>2014-05-01T08:45:46Z</time>
      </trkpt>
      <trkpt lat="45.63913" lon="4.58783">
        <ele>881.7</ele>
        <time>2014-05-01T08:45:48Z</time>
      </trkpt>
      <trkpt lat="45.63911" lon="4.5878">
        <ele>881.7</ele>
        <time>2014-05-01T08:45:50Z</time>
      </trkpt>
      <trkpt lat="45.63908" lon="4.58777">
        <ele>881.6</ele>
        <time>2014-05-01T08:45:52Z</time>
      </trkpt>
      <trkpt lat="45.63906" lon="4.58773">
        <ele>881.5</ele>
        <time>2014-05-01T08:45:54Z</time>
      </trkpt>
      <trkpt lat="45.63903" lon="4.5877">
        <ele>881.5</ele>
        <time>2014-05-01T08:45:56Z</time>
      </trkpt>
      <trkpt lat="45.63901" lon="4.58766">
        <ele>881.4</ele>
        <time>2014-05-01T08:45:58Z</time>
      </trkpt>
      <trkpt lat="45.63898" lon="4.58763">
        <ele>881.4</ele>
        <time>2014-05-01T08:46:00Z</time>
      </trkpt>
      <trkpt lat="45.63895" lon="4.5876">
        <ele>881.3</ele>
        <time>2014-05-01T08:46:02Z</time>
      </trkpt>
      <trkpt lat="45.63892" lon="4.58756">
        <ele>881.2</ele>
        <time>2014-05-01T08:46:04Z</time>
      </trkpt>
      <trkpt lat="45.63889" lon="4.58753">
        <ele>881.1</ele>
        <time>2014-05-01T08:46:06Z</time>
      </trkpt>
      <trkpt lat="45.63886" lon="4.58749">
        <ele>881.1</ele>
        <time>2014-05-01T08:46:08Z</time>
      </trkpt>
      <trkpt lat="45.63883" lon="4.58746">
        <ele>881</ele>
        <time>2014-05-01T08:46:10Z</time>
      </trkpt>
      <trkpt lat="45.63878" lon="4.58743">
        <ele>880.9</ele>
        <time>2014-05-01T08:46:12Z</time>
      </trkpt>
      <trkpt lat="45.63873" lon="4.58741">
        <ele>880.9</ele>
        <time>2014-05-01T08:46:14Z</time>
      </trkpt>
      <trkpt lat="45.63867" lon="4.58738">
        <ele>880.8</ele>
        <time>2014-05-01T08:46:16Z</time>
      </trkpt>
      <trkpt lat="45.6386" lon="4.58734">
        <ele>880.8</ele>
        <time>2014-05-01T08:46:18Z</time>
      </trkpt>
      <trkpt lat="45.63852" lon="4.58729">
        <ele>880.7</ele>
        <time>2014-05-01T08:46:20Z</time>
      </trkpt>
      <trkpt lat="45.63844" lon="4.58723">
        <ele>880.5</ele>
        <time>2014-05-01T08:46:22Z</time>
      </trkpt>
      <trkpt lat="45.63835" lon="4.58717">
        <ele>880.3</ele>
        <time>2014-05-01T08:46:24Z</time>
      </trkpt>
      <trkpt lat="45.63825" lon="4.58711">
        <ele>880.1</ele>
        <time>2014-05-01T08:46:26Z</time>
      </trkpt>
      <trkpt lat="45.63813" lon="4.58703">
        <ele>880</ele>
        <time>2014-05-01T08:46:28Z</time>
      </trkpt>
      <trkpt lat="45.638" lon="4.58696">
        <ele>879.9</ele>
        <time>2014-05-01T08:46:30Z</time>
      </trkpt>
      <trkpt lat="45.63785" lon="4.58696">
        <ele>879.7</ele>
        <time>2014-05-01T08:46:32Z</time>
      </trkpt>
      <trkpt lat="45.63773" lon="4.58705">
        <ele>879.4</ele>
        <time>2014-05-01T08:46:34Z</time>
      </trkpt>
      <trkpt lat="45.63762" lon="4.58714">
        <ele>879.1</ele>
        <time>2014-05-01T08:46:36Z</time>
      </trkpt>
      <trkpt lat="45.63751" lon="4.58717">
        <ele>878.8</ele>
        <time>2014-05-01T08:46:38Z</time>
      </trkpt>
      <trkpt lat="45.63739" lon="4.58717">
        <ele>878.5</ele>
        <time>2014-05-01T08:46:40Z</time>
      </trkpt>
      <trkpt lat="45.63727" lon="4.58716">
        <ele>878.3</ele>
        <time>2014-05-01T08:46:42Z</time>
      </trkpt>
      <trkpt lat="45.63715" lon="4.58715">
        <ele>878.2</ele>
        <time>2014-05-01T08:46:44Z</time>
      </trkpt>
      <trkpt lat="45.63702" lon="4.58713">
        <ele>878.1</ele>
        <time>2014-05-01T08:46:46Z</time>
      </trkpt>
      <trkpt lat="45.63688" lon="4.5871">
        <ele>878.1</ele>
        <time>2014-05-01T08:46:48Z</time>
      </trkpt>
      <trkpt lat="45.63674" lon="4.58707">
        <ele>878.1</ele>
        <time>2014-05-01T08:46:50Z</time>
      </trkpt>
      <trkpt lat="45.63659" lon="4.58705">
        <ele>877.5</ele>
        <time>2014-05-01T08:46:52Z</time>
      </trkpt>
      <trkpt lat="45.63644" lon="4.58703">
        <ele>876.4</ele>
        <time>2014-05-01T08:46:54Z</time>
      </trkpt>
      <trkpt lat="45.6363" lon="4.587">
        <ele>874.4</ele>
        <time>2014-05-01T08:46:56Z</time>
      </trkpt>
      <trkpt lat="45.63617" lon="4.58694">
        <ele>871.9</ele>
        <time>2014-05-01T08:46:58Z</time>
      </trkpt>
      <trkpt lat="45.63607" lon="4.58682">
        <ele>870.1</ele>
        <time>2014-05-01T08:47:00Z</time>
      </trkpt>
      <trkpt lat="45.63599" lon="4.58665">
        <ele>868.3</ele>
        <time>2014-05-01T08:47:02Z</time>
      </trkpt>
      <trkpt lat="45.63594" lon="4.58647">
        <ele>867</ele>
        <time>2014-05-01T08:47:04Z</time>
      </trkpt>
      <trkpt lat="45.63594" lon="4.5863">
        <ele>866</ele>
        <time>2014-05-01T08:47:06Z</time>
      </trkpt>
      <trkpt lat="45.63596" lon="4.58615">
        <ele>864.6</ele>
        <time>2014-05-01T08:47:08Z</time>
      </trkpt>
      <trkpt lat="45.63601" lon="4.58598">
        <ele>863.2</ele>
        <time>2014-05-01T08:47:10Z</time>
      </trkpt>
      <trkpt lat="45.63606" lon="4.58582">
        <ele>862.4</ele>
        <time>2014-05-01T08:47:12Z</time>
      </trkpt>
      <trkpt lat="45.63611" lon="4.58566">
        <ele>861.4</ele>
        <time>2014-05-01T08:47:14Z</time>
      </trkpt>
      <trkpt lat="45.63612" lon="4.58548">
        <ele>860.4</ele>
        <time>2014-05-01T08:47:16Z</time>
      </trkpt>
      <trkpt lat="45.6361" lon="4.58531">
        <ele>859.4</ele>
        <time>2014-05-01T08:47:18Z</time>
      </trkpt>
      <trkpt lat="45.6361" lon="4.58515">
        <ele>858.5</ele>
        <time>2014-05-01T08:47:20Z</time>
      </trkpt>
      <trkpt lat="45.63614" lon="4.585">
        <ele>857.8</ele>
        <time>2014-05-01T08:47:22Z</time>
      </trkpt>
      <trkpt lat="45.63622" lon="4.58487">
        <ele>856.9</ele>
        <time>2014-05-01T08:47:24Z</time>
      </trkpt>
      <trkpt lat="45.6363" lon="4.58473">
        <ele>855.6</ele>
        <time>2014-05-01T08:47:26Z</time>
      </trkpt>
      <trkpt lat="45.63637" lon="4.5846">
        <ele>855</ele>
        <time>2014-05-01T08:47:28Z</time>
      </trkpt>
      <trkpt lat="45.63637" lon="4.58452">
        <ele>853</ele>
        <time>2014-05-01T08:47:30Z</time>
      </trkpt>
      <trkpt lat="45.63632" lon="4.58447">
        <ele>852.2</ele>
        <time>2014-05-01T08:47:32Z</time>
      </trkpt>
      <trkpt lat="45.63623" lon="4.58442">
        <ele>851.6</ele>
        <time>2014-05-01T08:47:34Z</time>
      </trkpt>
      <trkpt lat="45.63613" lon="4.58434">
        <ele>850.9</ele>
        <time>2014-05-01T08:47:36Z</time>
      </trkpt>
      <trkpt lat="45.63602" lon="4.58425">
        <ele>850</ele>
        <time>2014-05-01T08:47:38Z</time>
      </trkpt>
      <trkpt lat="45.6359" lon="4.58415">
        <ele>848.2</ele>
        <time>2014-05-01T08:47:40Z</time>
      </trkpt>
      <trkpt lat="45.63578" lon="4.58404">
        <ele>846.5</ele>
        <time>2014-05-01T08:47:42Z</time>
      </trkpt>
      <trkpt lat="45.63567" lon="4.58391">
        <ele>845.5</ele>
        <time>2014-05-01T08:47:44Z</time>
      </trkpt>
      <trkpt lat="45.63556" lon="4.58376">
        <ele>844.8</ele>
        <time>2014-05-01T08:47:46Z</time>
      </trkpt>
      <trkpt lat="45.63545" lon="4.58362">
        <ele>844.2</ele>
        <time>2014-05-01T08:47:48Z</time>
      </trkpt>
      <trkpt lat="45.63534" lon="4.58346">
        <ele>843.4</ele>
        <time>2014-05-01T08:47:50Z</time>
      </trkpt>
      <trkpt lat="45.63524" lon="4.5833">
        <ele>842.6</ele>
        <time>2014-05-01T08:47:52Z</time>
      </trkpt>
      <trkpt lat="45.63515" lon="4.58315">
        <ele>840.8</ele>
        <time>2014-05-01T08:47:54Z</time>
      </trkpt>
      <trkpt lat="45.63506" lon="4.58304">
        <ele>839.1</ele>
        <time>2014-05-01T08:47:56Z</time>
      </trkpt>
      <trkpt lat="45.63495" lon="4.58294">
        <ele>837.9</ele>
        <time>2014-05-01T08:47:58Z</time>
      </trkpt>
      <trkpt lat="45.63484" lon="4.58284">
        <ele>836.9</ele>
        <time>2014-05-01T08:48:00Z</time>
      </trkpt>
      <trkpt lat="45.63472" lon="4.58272">
        <ele>836.2</ele>
        <time>2014-05-01T08:48:02Z</time>
      </trkpt>
      <trkpt lat="45.6346" lon="4.58261">
        <ele>835.5</ele>
        <time>2014-05-01T08:48:04Z</time>
      </trkpt>
      <trkpt lat="45.63447" lon="4.58252">
        <ele>834.8</ele>
        <time>2014-05-01T08:48:06Z</time>
      </trkpt>
      <trkpt lat="45.63434" lon="4.58243">
        <ele>834.2</ele>
        <time>2014-05-01T08:48:08Z</time>
      </trkpt>
      <trkpt lat="45.63421" lon="4.58235">
        <ele>833.4</ele>
        <time>2014-05-01T08:48:10Z</time>
      </trkpt>
      <trkpt lat="45.63408" lon="4.58229">
        <ele>832.6</ele>
        <time>2014-05-01T08:48:12Z</time>
      </trkpt>
      <trkpt lat="45.63395" lon="4.58226">
        <ele>831.7</ele>
        <time>2014-05-01T08:48:14Z</time>
      </trkpt>
      <trkpt lat="45.63384" lon="4.58221">
        <ele>830.4</ele>
        <time>2014-05-01T08:48:16Z</time>
      </trkpt>
      <trkpt lat="45.63379" lon="4.58209">
        <ele>827.5</ele>
        <time>2014-05-01T08:48:18Z</time>
      </trkpt>
      <trkpt lat="45.63374" lon="4.58195">
        <ele>824.5</ele>
        <time>2014-05-01T08:48:20Z</time>
      </trkpt>
      <trkpt lat="45.63367" lon="4.58182">
        <ele>821.5</ele>
        <time>2014-05-01T08:48:22Z</time>
      </trkpt>
      <trkpt lat="45.63359" lon="4.58168">
        <ele>819.1</ele>
        <time>2014-05-01T08:48:24Z</time>
      </trkpt>
      <trkpt lat="45.6335" lon="4.58159">
        <ele>817.7</ele>
        <time>2014-05-01T08:48:26Z</time>
      </trkpt>
      <trkpt lat="45.63342" lon="4.58152">
        <ele>816.6</ele>
        <time>2014-05-01T08:48:28Z</time>
      </trkpt>
      <trkpt lat="45.63334" lon="4.58147">
        <ele>815.6</ele>
        <time>2014-05-01T08:48:30Z</time>
      </trkpt>
      <trkpt lat="45.63328" lon="4.58142">
        <ele>814.8</ele>
        <time>2014-05-01T08:48:32Z</time>
      </trkpt>
      <trkpt lat="45.63322" lon="4.58133">
        <ele>813.7</ele>
        <time>2014-05-01T08:48:34Z</time>
      </trkpt>
      <trkpt lat="45.63316" lon="4.58124">
        <ele>812.9</ele>
        <time>2014-05-01T08:48:36Z</time>
      </trkpt>
      <trkpt lat="45.63311" lon="4.58115">
        <ele>812.3</ele>
        <time>2014-05-01T08:48:38Z</time>
      </trkpt>
      <trkpt lat="45.63306" lon="4.58105">
        <ele>811.7</ele>
        <time>2014-05-01T08:48:40Z</time>
      </trkpt>
      <trkpt lat="45.633" lon="4.58095">
        <ele>811.1</ele>
        <time>2014-05-01T08:48:42Z</time>
      </trkpt>
      <trkpt lat="45.63294" lon="4.58085">
        <ele>810.3</ele>
        <time>2014-05-01T08:48:44Z</time>
      </trkpt>
      <trkpt lat="45.63287" lon="4.58075">
        <ele>809.4</ele>
        <time>2014-05-01T08:48:46Z</time>
      </trkpt>
      <trkpt lat="45.6328" lon="4.58065">
        <ele>808.5</ele>
        <time>2014-05-01T08:48:48Z</time>
      </trkpt>
      <trkpt lat="45.63273" lon="4.58056">
        <ele>807.6</ele>
        <time>2014-05-01T08:48:50Z</time>
      </trkpt>
      <trkpt lat="45.63266" lon="4.58049">
        <ele>806.9</ele>
        <time>2014-05-01T08:48:52Z</time>
      </trkpt>
      <trkpt lat="45.63264" lon="4.58045">
        <ele>806.5</ele>
        <time>2014-05-01T08:48:54Z</time>
      </trkpt>
      <trkpt lat="45.63265" lon="4.58041">
        <ele>805.9</ele>
        <time>2014-05-01T08:48:56Z</time>
      </trkpt>
      <trkpt lat="45.63267" lon="4.58038">
        <ele>805.8</ele>
        <time>2014-05-01T08:48:58Z</time>
      </trkpt>
      <trkpt lat="45.63271" lon="4.58036">
        <ele>805.7</ele>
        <time>2014-05-01T08:49:00Z</time>
      </trkpt>
      <trkpt lat="45.63275" lon="4.58033">
        <ele>805.5</ele>
        <time>2014-05-01T08:49:02Z</time>
      </trkpt>
      <trkpt lat="45.6328" lon="4.5803">
        <ele>805.5</ele>
        <time>2014-05-01T08:49:04Z</time>
      </trkpt>
      <trkpt lat="45.63285" lon="4.58026">
        <ele>805.4</ele>
        <time>2014-05-01T08:49:06Z</time>
      </trkpt>
      <trkpt lat="45.6329" lon="4.58023">
        <ele>805.3</ele>
        <time>2014-05-01T08:49:08Z</time>
      </trkpt>
      <trkpt lat="45.63295" lon="4.5802">
        <ele>805.2</ele>
        <time>2014-05-01T08:49:10Z</time>
      </trkpt>
      <trkpt lat="45.63301" lon="4.58016">
        <ele>805.2</ele>
        <time>2014-05-01T08:49:12Z</time>
      </trkpt>
      <trkpt lat="45.63306" lon="4.58013">
        <ele>805.1</ele>
        <time>2014-05-01T08:49:14Z</time>
      </trkpt>
      <trkpt lat="45.63311" lon="4.58009">
        <ele>805.1</ele>
        <time>2014-05-01T08:49:16Z</time>
      </trkpt>
      <trkpt lat="45.63317" lon="4.58005">
        <ele>805</ele>
        <time>2014-05-01T08:49:18Z</time>
      </trkpt>
      <trkpt lat="45.63323" lon="4.58">
        <ele>805</ele>
        <time>2014-05-01T08:49:20Z</time>
      </trkpt>
      <trkpt lat="45.63329" lon="4.57995">
        <ele>804.9</ele>
        <time>2014-05-01T08:49:22Z</time>
      </trkpt>
      <trkpt lat="45.63335" lon="4.57989">
        <ele>804.9</ele>
        <time>2014-05-01T08:49:24Z</time>
      </trkpt>
      <trkpt lat="45.63341" lon="4.57983">
        <ele>804.8</ele>
        <time>2014-05-01T08:49:26Z</time>
      </trkpt>
      <trkpt lat="45.63348" lon="4.57975">
        <ele>804.8</ele>
        <time>2014-05-01T08:49:28Z</time>
      </trkpt>
      <trkpt lat="45.63355" lon="4.57967">
        <ele>804.7</ele>
        <time>2014-05-01T08:49:30Z</time>
      </trkpt>
      <trkpt lat="45.63363" lon="4.57958">
        <ele>804.6</ele>
        <time>2014-05-01T08:49:32Z</time>
      </trkpt>
      <trkpt lat="45.63371" lon="4.57952">
        <ele>804.5</ele>
        <time>2014-05-01T08:49:34Z</time>
      </trkpt>
      <trkpt lat="45.63379" lon="4.57947">
        <ele>804.4</ele>
        <time>2014-05-01T08:49:36Z</time>
      </trkpt>
      <trkpt lat="45.63386" lon="4.57943">
        <ele>804.2</ele>
        <time>2014-05-01T08:49:38Z</time>
      </trkpt>
      <trkpt lat="45.63393" lon="4.57939">
        <ele>804.1</ele>
        <time>2014-05-01T08:49:40Z</time>
      </trkpt>
      <trkpt lat="45.63398" lon="4.57937">
        <ele>804</ele>
        <time>2014-05-01T08:49:42Z</time>
      </trkpt>
      <trkpt lat="45.63404" lon="4.57934">
        <ele>803.9</ele>
        <time>2014-05-01T08:49:44Z</time>
      </trkpt>
      <trkpt lat="45.63409" lon="4.57931">
        <ele>803.8</ele>
        <time>2014-05-01T08:49:46Z</time>
      </trkpt>
      <trkpt lat="45.63414" lon="4.57929">
        <ele>803.7</ele>
        <time>2014-05-01T08:49:48Z</time>
      </trkpt>
      <trkpt lat="45.63419" lon="4.57926">
        <ele>803.7</ele>
        <time>2014-05-01T08:49:50Z</time>
      </trkpt>
      <trkpt lat="45.63424" lon="4.57924">
        <ele>803.6</ele>
        <time>2014-05-01T08:49:52Z</time>
      </trkpt>
      <trkpt lat="45.6343" lon="4.57923">
        <ele>803.5</ele>
        <time>2014-05-01T08:49:54Z</time>
      </trkpt>
      <trkpt lat="45.63435" lon="4.57923">
        <ele>803.4</ele>
        <time>2014-05-01T08:49:56Z</time>
      </trkpt>
      <trkpt lat="45.63441" lon="4.57923">
        <ele>803.3</ele>
        <time>2014-05-01T08:49:58Z</time>
      </trkpt>
      <trkpt lat="45.63446" lon="4.57922">
        <ele>803.3</ele>
        <time>2014-05-01T08:50:00Z</time>
      </trkpt>
      <trkpt lat="45.63451" lon="4.57922">
        <ele>803.2</ele>
        <time>2014-05-01T08:50:02Z</time>
      </trkpt>
      <trkpt lat="45.63457" lon="4.57921">
        <ele>803.1</ele>
        <time>2014-05-01T08:50:04Z</time>
      </trkpt>
      <trkpt lat="45.63464" lon="4.5792">
        <ele>803</ele>
        <time>2014-05-01T08:50:06Z</time>
      </trkpt>
      <trkpt lat="45.63472" lon="4.5792">
        <ele>802.7</ele>
        <time>2014-05-01T08:50:08Z</time>
      </trkpt>
      <trkpt lat="45.6348" lon="4.5792">
        <ele>802.6</ele>
        <time>2014-05-01T08:50:10Z</time>
      </trkpt>
      <trkpt lat="45.63488" lon="4.57922">
        <ele>802.4</ele>
        <time>2014-05-01T08:50:12Z</time>
      </trkpt>
      <trkpt lat="45.63496" lon="4.57925">
        <ele>802.2</ele>
        <time>2014-05-01T08:50:14Z</time>
      </trkpt>
      <trkpt lat="45.63504" lon="4.5793">
        <ele>802</ele>
        <time>2014-05-01T08:50:16Z</time>
      </trkpt>
      <trkpt lat="45.63512" lon="4.57938">
        <ele>801.8</ele>
        <time>2014-05-01T08:50:18Z</time>
      </trkpt>
      <trkpt lat="45.63518" lon="4.57948">
        <ele>801.6</ele>
        <time>2014-05-01T08:50:20Z</time>
      </trkpt>
      <trkpt lat="45.63523" lon="4.57959">
        <ele>801.4</ele>
        <time>2014-05-01T08:50:22Z</time>
      </trkpt>
      <trkpt lat="45.63527" lon="4.57971">
        <ele>801.3</ele>
        <time>2014-05-01T08:50:24Z</time>
      </trkpt>
      <trkpt lat="45.6353" lon="4.57983">
        <ele>801.1</ele>
        <time>2014-05-01T08:50:26Z</time>
      </trkpt>
      <trkpt lat="45.63535" lon="4.57992">
        <ele>800.9</ele>
        <time>2014-05-01T08:50:28Z</time>
      </trkpt>
      <trkpt lat="45.63543" lon="4.57993">
        <ele>800.6</ele>
        <time>2014-05-01T08:50:30Z</time>
      </trkpt>
      <trkpt lat="45.63551" lon="4.5799">
        <ele>800.3</ele>
        <time>2014-05-01T08:50:32Z</time>
      </trkpt>
      <trkpt lat="45.63558" lon="4.57986">
        <ele>799.9</ele>
        <time>2014-05-01T08:50:34Z</time>
      </trkpt>
      <trkpt lat="45.63565" lon="4.57981">
        <ele>799.8</ele>
        <time>2014-05-01T08:50:36Z</time>
      </trkpt>
      <trkpt lat="45.63573" lon="4.57976">
        <ele>799.6</ele>
        <time>2014-05-01T08:50:38Z</time>
      </trkpt>
      <trkpt lat="45.63578" lon="4.57969">
        <ele>799.4</ele>
        <time>2014-05-01T08:50:40Z</time>
      </trkpt>
      <trkpt lat="45.63583" lon="4.57962">
        <ele>799.2</ele>
        <time>2014-05-01T08:50:42Z</time>
      </trkpt>
      <trkpt lat="45.63589" lon="4.57955">
        <ele>799</ele>
        <time>2014-05-01T08:50:44Z</time>
      </trkpt>
      <trkpt lat="45.63594" lon="4.57949">
        <ele>798.9</ele>
        <time>2014-05-01T08:50:46Z</time>
      </trkpt>
      <trkpt lat="45.63599" lon="4.57942">
        <ele>798.8</ele>
        <time>2014-05-01T08:50:48Z</time>
      </trkpt>
      <trkpt lat="45.63603" lon="4.57933">
        <ele>798.6</ele>
        <time>2014-05-01T08:50:50Z</time>
      </trkpt>
      <trkpt lat="45.63607" lon="4.57924">
        <ele>798.5</ele>
        <time>2014-05-01T08:50:52Z</time>
      </trkpt>
      <trkpt lat="45.63609" lon="4.57913">
        <ele>798.4</ele>
        <time>2014-05-01T08:50:54Z</time>
      </trkpt>
      <trkpt lat="45.63611" lon="4.57902">
        <ele>798.3</ele>
        <time>2014-05-01T08:50:56Z</time>
      </trkpt>
      <trkpt lat="45.63613" lon="4.5789">
        <ele>798.3</ele>
        <time>2014-05-01T08:50:58Z</time>
      </trkpt>
      <trkpt lat="45.63616" lon="4.57879">
        <ele>798.2</ele>
        <time>2014-05-01T08:51:00Z</time>
      </trkpt>
      <trkpt lat="45.6362" lon="4.57868">
        <ele>798.2</ele>
        <time>2014-05-01T08:51:02Z</time>
      </trkpt>
      <trkpt lat="45.63625" lon="4.57858">
        <ele>798.1</ele>
        <time>2014-05-01T08:51:04Z</time>
      </trkpt>
      <trkpt lat="45.6363" lon="4.57848">
        <ele>798</ele>
        <time>2014-05-01T08:51:06Z</time>
      </trkpt>
      <trkpt lat="45.63635" lon="4.57838">
        <ele>797.9</ele>
        <time>2014-05-01T08:51:08Z</time>
      </trkpt>
      <trkpt lat="45.6364" lon="4.57828">
        <ele>797.7</ele>
        <time>2014-05-01T08:51:10Z</time>
      </trkpt>
      <trkpt lat="45.63644" lon="4.57817">
        <ele>797.4</ele>
        <time>2014-05-01T08:51:12Z</time>
      </trkpt>
      <trkpt lat="45.63649" lon="4.57808">
        <ele>797.3</ele>
        <time>2014-05-01T08:51:14Z</time>
      </trkpt>
      <trkpt lat="45.63653" lon="4.57803">
        <ele>797.2</ele>
        <time>2014-05-01T08:51:16Z</time>
      </trkpt>
      <trkpt lat="45.63658" lon="4.57799">
        <ele>797.1</ele>
        <time>2014-05-01T08:51:18Z</time>
      </trkpt>
      <trkpt lat="45.63662" lon="4.57796">
        <ele>797.3</ele>
        <time>2014-05-01T08:51:20Z</time>
      </trkpt>
      <trkpt lat="45.63665" lon="4.57794">
        <ele>797.5</ele>
        <time>2014-05-01T08:51:22Z</time>
      </trkpt>
      <trkpt lat="45.63668" lon="4.57791">
        <ele>797.6</ele>
        <time>2014-05-01T08:51:24Z</time>
      </trkpt>
      <trkpt lat="45.63671" lon="4.57788">
        <ele>797.8</ele>
        <time>2014-05-01T08:51:26Z</time>
      </trkpt>
      <trkpt lat="45.63673" lon="4.57786">
        <ele>797.9</ele>
        <time>2014-05-01T08:51:28Z</time>
      </trkpt>
      <trkpt lat="45.63675" lon="4.57783">
        <ele>798</ele>
        <time>2014-05-01T08:51:30Z</time>
      </trkpt>
      <trkpt lat="45.63677" lon="4.57781">
        <ele>798.2</ele>
        <time>2014-05-01T08:51:32Z</time>
      </trkpt>
      <trkpt lat="45.63679" lon="4.57778">
        <ele>798.3</ele>
        <time>2014-05-01T08:51:34Z</time>
      </trkpt>
      <trkpt lat="45.63681" lon="4.57775">
        <ele>798.5</ele>
        <time>2014-05-01T08:51:36Z</time>
      </trkpt>
      <trkpt lat="45.63683" lon="4.57772">
        <ele>798.6</ele>
        <time>2014-05-01T08:51:38Z</time>
      </trkpt>
      <trkpt lat="45.63685" lon="4.5777">
        <ele>798.7</ele>
        <time>2014-05-01T08:51:40Z</time>
      </trkpt>
      <trkpt lat="45.63688" lon="4.57769">
        <ele>798.9</ele>
        <time>2014-05-01T08:51:42Z</time>
      </trkpt>
      <trkpt lat="45.6369" lon="4.57768">
        <ele>799.1</ele>
        <time>2014-05-01T08:51:44Z</time>
      </trkpt>
      <trkpt lat="45.63692" lon="4.57767">
        <ele>799.2</ele>
        <time>2014-05-01T08:51:46Z</time>
      </trkpt>
      <trkpt lat="45.63694" lon="4.57766">
        <ele>799.4</ele>
        <time>2014-05-01T08:51:48Z</time>
      </trkpt>
      <trkpt lat="45.63696" lon="4.57763">
        <ele>799.6</ele>
        <time>2014-05-01T08:51:50Z</time>
      </trkpt>
      <trkpt lat="45.63698" lon="4.5776">
        <ele>799.7</ele>
        <time>2014-05-01T08:51:52Z</time>
      </trkpt>
      <trkpt lat="45.637" lon="4.57757">
        <ele>799.9</ele>
        <time>2014-05-01T08:51:54Z</time>
      </trkpt>
      <trkpt lat="45.63702" lon="4.57754">
        <ele>800.1</ele>
        <time>2014-05-01T08:51:56Z</time>
      </trkpt>
      <trkpt lat="45.63704" lon="4.57751">
        <ele>800.3</ele>
        <time>2014-05-01T08:51:58Z</time>
      </trkpt>
      <trkpt lat="45.63706" lon="4.57748">
        <ele>800.9</ele>
        <time>2014-05-01T08:52:00Z</time>
      </trkpt>
      <trkpt lat="45.63708" lon="4.57744">
        <ele>801.7</ele>
        <time>2014-05-01T08:52:02Z</time>
      </trkpt>
      <trkpt lat="45.6371" lon="4.5774">
        <ele>802.4</ele>
        <time>2014-05-01T08:52:04Z</time>
      </trkpt>
      <trkpt lat="45.63712" lon="4.57736">
        <ele>803.1</ele>
        <time>2014-05-01T08:52:06Z</time>
      </trkpt>
      <trkpt lat="45.63715" lon="4.57732">
        <ele>803.6</ele>
        <time>2014-05-01T08:52:08Z</time>
      </trkpt>
      <trkpt lat="45.63717" lon="4.57727">
        <ele>803.9</ele>
        <time>2014-05-01T08:52:10Z</time>
      </trkpt>
      <trkpt lat="45.63718" lon="4.57723">
        <ele>804.1</ele>
        <time>2014-05-01T08:52:12Z</time>
      </trkpt>
      <trkpt lat="45.63722" lon="4.57716">
        <ele>804.5</ele>
        <time>2014-05-01T08:52:15Z</time>
      </trkpt>
      <trkpt lat="45.63724" lon="4.57711">
        <ele>804.7</ele>
        <time>2014-05-01T08:52:17Z</time>
      </trkpt>
      <trkpt lat="45.63725" lon="4.57706">
        <ele>804.9</ele>
        <time>2014-05-01T08:52:19Z</time>
      </trkpt>
      <trkpt lat="45.63726" lon="4.577">
        <ele>805.1</ele>
        <time>2014-05-01T08:52:21Z</time>
      </trkpt>
      <trkpt lat="45.63726" lon="4.57693">
        <ele>805.3</ele>
        <time>2014-05-01T08:52:23Z</time>
      </trkpt>
      <trkpt lat="45.63727" lon="4.57686">
        <ele>805.5</ele>
        <time>2014-05-01T08:52:25Z</time>
      </trkpt>
      <trkpt lat="45.63727" lon="4.57679">
        <ele>805.7</ele>
        <time>2014-05-01T08:52:27Z</time>
      </trkpt>
      <trkpt lat="45.63727" lon="4.57672">
        <ele>805.9</ele>
        <time>2014-05-01T08:52:29Z</time>
      </trkpt>
      <trkpt lat="45.63727" lon="4.57665">
        <ele>806.1</ele>
        <time>2014-05-01T08:52:31Z</time>
      </trkpt>
      <trkpt lat="45.63727" lon="4.57658">
        <ele>806.3</ele>
        <time>2014-05-01T08:52:33Z</time>
      </trkpt>
      <trkpt lat="45.63727" lon="4.5765">
        <ele>806.5</ele>
        <time>2014-05-01T08:52:35Z</time>
      </trkpt>
      <trkpt lat="45.63726" lon="4.57643">
        <ele>806.7</ele>
        <time>2014-05-01T08:52:37Z</time>
      </trkpt>
      <trkpt lat="45.63727" lon="4.57635">
        <ele>806.9</ele>
        <time>2014-05-01T08:52:39Z</time>
      </trkpt>
      <trkpt lat="45.63728" lon="4.57627">
        <ele>807.1</ele>
        <time>2014-05-01T08:52:41Z</time>
      </trkpt>
      <trkpt lat="45.63729" lon="4.5762">
        <ele>807.4</ele>
        <time>2014-05-01T08:52:43Z</time>
      </trkpt>
      <trkpt lat="45.6373" lon="4.57612">
        <ele>807.6</ele>
        <time>2014-05-01T08:52:45Z</time>
      </trkpt>
      <trkpt lat="45.63731" lon="4.57606">
        <ele>807.8</ele>
        <time>2014-05-01T08:52:47Z</time>
      </trkpt>
      <trkpt lat="45.6373" lon="4.57603">
        <ele>807.9</ele>
        <time>2014-05-01T08:52:49Z</time>
      </trkpt>
      <trkpt lat="45.6373" lon="4.57599">
        <ele>808</ele>
        <time>2014-05-01T08:52:51Z</time>
      </trkpt>
      <trkpt lat="45.63728" lon="4.57592">
        <ele>807.3</ele>
        <time>2014-05-01T08:52:53Z</time>
      </trkpt>
      <trkpt lat="45.63723" lon="4.57581">
        <ele>806.1</ele>
        <time>2014-05-01T08:52:55Z</time>
      </trkpt>
      <trkpt lat="45.63717" lon="4.57568">
        <ele>804.9</ele>
        <time>2014-05-01T08:52:57Z</time>
      </trkpt>
      <trkpt lat="45.63712" lon="4.57551">
        <ele>803.9</ele>
        <time>2014-05-01T08:52:59Z</time>
      </trkpt>
      <trkpt lat="45.63709" lon="4.57533">
        <ele>803</ele>
        <time>2014-05-01T08:53:01Z</time>
      </trkpt>
      <trkpt lat="45.63707" lon="4.57517">
        <ele>802</ele>
        <time>2014-05-01T08:53:03Z</time>
      </trkpt>
      <trkpt lat="45.63707" lon="4.575">
        <ele>801.3</ele>
        <time>2014-05-01T08:53:05Z</time>
      </trkpt>
      <trkpt lat="45.63707" lon="4.57481">
        <ele>800.7</ele>
        <time>2014-05-01T08:53:07Z</time>
      </trkpt>
      <trkpt lat="45.63707" lon="4.57462">
        <ele>800.1</ele>
        <time>2014-05-01T08:53:09Z</time>
      </trkpt>
      <trkpt lat="45.63707" lon="4.57442">
        <ele>799.2</ele>
        <time>2014-05-01T08:53:11Z</time>
      </trkpt>
      <trkpt lat="45.63707" lon="4.57423">
        <ele>798.3</ele>
        <time>2014-05-01T08:53:13Z</time>
      </trkpt>
      <trkpt lat="45.63708" lon="4.57407">
        <ele>797.5</ele>
        <time>2014-05-01T08:53:15Z</time>
      </trkpt>
      <trkpt lat="45.63709" lon="4.57394">
        <ele>796.9</ele>
        <time>2014-05-01T08:53:17Z</time>
      </trkpt>
      <trkpt lat="45.63713" lon="4.57385">
        <ele>796.1</ele>
        <time>2014-05-01T08:53:19Z</time>
      </trkpt>
      <trkpt lat="45.63717" lon="4.57379">
        <ele>795.1</ele>
        <time>2014-05-01T08:53:21Z</time>
      </trkpt>
      <trkpt lat="45.6372" lon="4.5737">
        <ele>794</ele>
        <time>2014-05-01T08:53:23Z</time>
      </trkpt>
      <trkpt lat="45.63722" lon="4.5736">
        <ele>793.2</ele>
        <time>2014-05-01T08:53:25Z</time>
      </trkpt>
      <trkpt lat="45.63726" lon="4.57349">
        <ele>792.3</ele>
        <time>2014-05-01T08:53:27Z</time>
      </trkpt>
      <trkpt lat="45.63731" lon="4.57336">
        <ele>790.9</ele>
        <time>2014-05-01T08:53:29Z</time>
      </trkpt>
      <trkpt lat="45.63738" lon="4.57321">
        <ele>789.4</ele>
        <time>2014-05-01T08:53:31Z</time>
      </trkpt>
      <trkpt lat="45.63746" lon="4.57309">
        <ele>788.1</ele>
        <time>2014-05-01T08:53:33Z</time>
      </trkpt>
      <trkpt lat="45.63754" lon="4.57303">
        <ele>787.2</ele>
        <time>2014-05-01T08:53:35Z</time>
      </trkpt>
      <trkpt lat="45.63763" lon="4.57305">
        <ele>786.5</ele>
        <time>2014-05-01T08:53:37Z</time>
      </trkpt>
      <trkpt lat="45.63775" lon="4.5731">
        <ele>785.7</ele>
        <time>2014-05-01T08:53:39Z</time>
      </trkpt>
      <trkpt lat="45.63786" lon="4.57316">
        <ele>785.1</ele>
        <time>2014-05-01T08:53:41Z</time>
      </trkpt>
      <trkpt lat="45.63799" lon="4.57322">
        <ele>784.5</ele>
        <time>2014-05-01T08:53:43Z</time>
      </trkpt>
      <trkpt lat="45.63812" lon="4.57329">
        <ele>783.9</ele>
        <time>2014-05-01T08:53:45Z</time>
      </trkpt>
      <trkpt lat="45.63824" lon="4.57336">
        <ele>782.8</ele>
        <time>2014-05-01T08:53:47Z</time>
      </trkpt>
      <trkpt lat="45.63834" lon="4.57334">
        <ele>781.9</ele>
        <time>2014-05-01T08:53:49Z</time>
      </trkpt>
      <trkpt lat="45.63844" lon="4.57327">
        <ele>781</ele>
        <time>2014-05-01T08:53:51Z</time>
      </trkpt>
      <trkpt lat="45.63857" lon="4.57324">
        <ele>780.1</ele>
        <time>2014-05-01T08:53:53Z</time>
      </trkpt>
      <trkpt lat="45.63871" lon="4.57323">
        <ele>779</ele>
        <time>2014-05-01T08:53:55Z</time>
      </trkpt>
      <trkpt lat="45.63884" lon="4.5732">
        <ele>777.7</ele>
        <time>2014-05-01T08:53:57Z</time>
      </trkpt>
      <trkpt lat="45.63896" lon="4.57315">
        <ele>776.4</ele>
        <time>2014-05-01T08:53:59Z</time>
      </trkpt>
      <trkpt lat="45.63905" lon="4.57309">
        <ele>775.1</ele>
        <time>2014-05-01T08:54:01Z</time>
      </trkpt>
      <trkpt lat="45.63914" lon="4.57299">
        <ele>774</ele>
        <time>2014-05-01T08:54:03Z</time>
      </trkpt>
      <trkpt lat="45.63922" lon="4.57289">
        <ele>773</ele>
        <time>2014-05-01T08:54:05Z</time>
      </trkpt>
      <trkpt lat="45.63929" lon="4.57276">
        <ele>772</ele>
        <time>2014-05-01T08:54:07Z</time>
      </trkpt>
      <trkpt lat="45.63936" lon="4.57263">
        <ele>771</ele>
        <time>2014-05-01T08:54:09Z</time>
      </trkpt>
      <trkpt lat="45.63938" lon="4.57251">
        <ele>770.3</ele>
        <time>2014-05-01T08:54:11Z</time>
      </trkpt>
      <trkpt lat="45.63936" lon="4.57238">
        <ele>769.4</ele>
        <time>2014-05-01T08:54:13Z</time>
      </trkpt>
      <trkpt lat="45.63932" lon="4.57225">
        <ele>768.4</ele>
        <time>2014-05-01T08:54:15Z</time>
      </trkpt>
      <trkpt lat="45.63933" lon="4.57214">
        <ele>767.5</ele>
        <time>2014-05-01T08:54:17Z</time>
      </trkpt>
      <trkpt lat="45.63939" lon="4.57206">
        <ele>766.2</ele>
        <time>2014-05-01T08:54:19Z</time>
      </trkpt>
      <trkpt lat="45.63949" lon="4.57202">
        <ele>765</ele>
        <time>2014-05-01T08:54:21Z</time>
      </trkpt>
      <trkpt lat="45.6396" lon="4.57203">
        <ele>763.8</ele>
        <time>2014-05-01T08:54:23Z</time>
      </trkpt>
      <trkpt lat="45.63972" lon="4.57205">
        <ele>762.2</ele>
        <time>2014-05-01T08:54:25Z</time>
      </trkpt>
      <trkpt lat="45.63983" lon="4.57199">
        <ele>760.4</ele>
        <time>2014-05-01T08:54:27Z</time>
      </trkpt>
      <trkpt lat="45.6399" lon="4.57186">
        <ele>759.3</ele>
        <time>2014-05-01T08:54:29Z</time>
      </trkpt>
      <trkpt lat="45.63997" lon="4.57171">
        <ele>758.2</ele>
        <time>2014-05-01T08:54:31Z</time>
      </trkpt>
      <trkpt lat="45.64004" lon="4.57155">
        <ele>756.7</ele>
        <time>2014-05-01T08:54:33Z</time>
      </trkpt>
      <trkpt lat="45.64011" lon="4.5714">
        <ele>756</ele>
        <time>2014-05-01T08:54:35Z</time>
      </trkpt>
      <trkpt lat="45.64014" lon="4.57124">
        <ele>755.4</ele>
        <time>2014-05-01T08:54:37Z</time>
      </trkpt>
      <trkpt lat="45.64014" lon="4.57109">
        <ele>754.8</ele>
        <time>2014-05-01T08:54:39Z</time>
      </trkpt>
      <trkpt lat="45.64017" lon="4.57096">
        <ele>753.9</ele>
        <time>2014-05-01T08:54:41Z</time>
      </trkpt>
      <trkpt lat="45.64022" lon="4.57085">
        <ele>753</ele>
        <time>2014-05-01T08:54:43Z</time>
      </trkpt>
      <trkpt lat="45.64027" lon="4.57077">
        <ele>752.2</ele>
        <time>2014-05-01T08:54:45Z</time>
      </trkpt>
      <trkpt lat="45.64032" lon="4.57071">
        <ele>751.4</ele>
        <time>2014-05-01T08:54:47Z</time>
      </trkpt>
      <trkpt lat="45.64038" lon="4.57068">
        <ele>750.7</ele>
        <time>2014-05-01T08:54:49Z</time>
      </trkpt>
      <trkpt lat="45.64043" lon="4.57066">
        <ele>750.1</ele>
        <time>2014-05-01T08:54:51Z</time>
      </trkpt>
      <trkpt lat="45.64048" lon="4.57066">
        <ele>749.3</ele>
        <time>2014-05-01T08:54:53Z</time>
      </trkpt>
      <trkpt lat="45.64052" lon="4.57066">
        <ele>748.7</ele>
        <time>2014-05-01T08:54:55Z</time>
      </trkpt>
      <trkpt lat="45.64055" lon="4.57069">
        <ele>748.1</ele>
        <time>2014-05-01T08:54:57Z</time>
      </trkpt>
      <trkpt lat="45.64057" lon="4.57073">
        <ele>748.3</ele>
        <time>2014-05-01T08:54:59Z</time>
      </trkpt>
      <trkpt lat="45.64059" lon="4.57078">
        <ele>748.6</ele>
        <time>2014-05-01T08:55:01Z</time>
      </trkpt>
      <trkpt lat="45.64062" lon="4.57082">
        <ele>748.9</ele>
        <time>2014-05-01T08:55:03Z</time>
      </trkpt>
      <trkpt lat="45.64065" lon="4.57085">
        <ele>749.2</ele>
        <time>2014-05-01T08:55:05Z</time>
      </trkpt>
      <trkpt lat="45.64069" lon="4.57087">
        <ele>749.7</ele>
        <time>2014-05-01T08:55:07Z</time>
      </trkpt>
      <trkpt lat="45.64073" lon="4.57087">
        <ele>750.1</ele>
        <time>2014-05-01T08:55:09Z</time>
      </trkpt>
      <trkpt lat="45.64076" lon="4.57087">
        <ele>750.4</ele>
        <time>2014-05-01T08:55:11Z</time>
      </trkpt>
      <trkpt lat="45.6408" lon="4.57086">
        <ele>750.7</ele>
        <time>2014-05-01T08:55:13Z</time>
      </trkpt>
      <trkpt lat="45.64084" lon="4.57085">
        <ele>751</ele>
        <time>2014-05-01T08:55:15Z</time>
      </trkpt>
      <trkpt lat="45.64088" lon="4.57084">
        <ele>751.3</ele>
        <time>2014-05-01T08:55:17Z</time>
      </trkpt>
      <trkpt lat="45.64091" lon="4.57083">
        <ele>751.5</ele>
        <time>2014-05-01T08:55:19Z</time>
      </trkpt>
      <trkpt lat="45.64095" lon="4.57081">
        <ele>751.8</ele>
        <time>2014-05-01T08:55:21Z</time>
      </trkpt>
      <trkpt lat="45.64098" lon="4.57079">
        <ele>752</ele>
        <time>2014-05-01T08:55:23Z</time>
      </trkpt>
      <trkpt lat="45.64101" lon="4.57075">
        <ele>752.2</ele>
        <time>2014-05-01T08:55:25Z</time>
      </trkpt>
      <trkpt lat="45.64103" lon="4.57071">
        <ele>752.4</ele>
        <time>2014-05-01T08:55:27Z</time>
      </trkpt>
      <trkpt lat="45.64104" lon="4.57065">
        <ele>752.7</ele>
        <time>2014-05-01T08:55:29Z</time>
      </trkpt>
      <trkpt lat="45.64106" lon="4.57058">
        <ele>752.9</ele>
        <time>2014-05-01T08:55:31Z</time>
      </trkpt>
      <trkpt lat="45.64107" lon="4.57049">
        <ele>753.3</ele>
        <time>2014-05-01T08:55:33Z</time>
      </trkpt>
      <trkpt lat="45.64109" lon="4.57041">
        <ele>753.6</ele>
        <time>2014-05-01T08:55:35Z</time>
      </trkpt>
      <trkpt lat="45.64111" lon="4.57033">
        <ele>754</ele>
        <time>2014-05-01T08:55:37Z</time>
      </trkpt>
      <trkpt lat="45.64113" lon="4.57024">
        <ele>754.5</ele>
        <time>2014-05-01T08:55:39Z</time>
      </trkpt>
      <trkpt lat="45.64115" lon="4.57016">
        <ele>755.1</ele>
        <time>2014-05-01T08:55:41Z</time>
      </trkpt>
      <trkpt lat="45.64115" lon="4.57006">
        <ele>756</ele>
        <time>2014-05-01T08:55:43Z</time>
      </trkpt>
      <trkpt lat="45.64114" lon="4.56996">
        <ele>756.5</ele>
        <time>2014-05-01T08:55:45Z</time>
      </trkpt>
      <trkpt lat="45.64112" lon="4.56986">
        <ele>757</ele>
        <time>2014-05-01T08:55:47Z</time>
      </trkpt>
      <trkpt lat="45.64109" lon="4.56977">
        <ele>757.4</ele>
        <time>2014-05-01T08:55:49Z</time>
      </trkpt>
      <trkpt lat="45.64106" lon="4.56968">
        <ele>757.8</ele>
        <time>2014-05-01T08:55:51Z</time>
      </trkpt>
      <trkpt lat="45.64103" lon="4.56958">
        <ele>758.1</ele>
        <time>2014-05-01T08:55:53Z</time>
      </trkpt>
      <trkpt lat="45.64099" lon="4.5695">
        <ele>758.5</ele>
        <time>2014-05-01T08:55:55Z</time>
      </trkpt>
      <trkpt lat="45.64095" lon="4.56941">
        <ele>758.9</ele>
        <time>2014-05-01T08:55:57Z</time>
      </trkpt>
      <trkpt lat="45.64092" lon="4.56934">
        <ele>759.2</ele>
        <time>2014-05-01T08:55:59Z</time>
      </trkpt>
      <trkpt lat="45.64088" lon="4.56928">
        <ele>759.5</ele>
        <time>2014-05-01T08:56:01Z</time>
      </trkpt>
      <trkpt lat="45.64085" lon="4.56922">
        <ele>759.8</ele>
        <time>2014-05-01T08:56:03Z</time>
      </trkpt>
      <trkpt lat="45.64082" lon="4.56916">
        <ele>760.1</ele>
        <time>2014-05-01T08:56:05Z</time>
      </trkpt>
      <trkpt lat="45.64079" lon="4.56912">
        <ele>760.3</ele>
        <time>2014-05-01T08:56:07Z</time>
      </trkpt>
      <trkpt lat="45.64076" lon="4.56907">
        <ele>760.6</ele>
        <time>2014-05-01T08:56:09Z</time>
      </trkpt>
      <trkpt lat="45.64074" lon="4.56903">
        <ele>760.8</ele>
        <time>2014-05-01T08:56:11Z</time>
      </trkpt>
      <trkpt lat="45.64071" lon="4.56899">
        <ele>761.1</ele>
        <time>2014-05-01T08:56:13Z</time>
      </trkpt>
      <trkpt lat="45.64068" lon="4.56895">
        <ele>761.5</ele>
        <time>2014-05-01T08:56:15Z</time>
      </trkpt>
      <trkpt lat="45.64064" lon="4.5689">
        <ele>761.9</ele>
        <time>2014-05-01T08:56:17Z</time>
      </trkpt>
      <trkpt lat="45.6406" lon="4.56885">
        <ele>762.5</ele>
        <time>2014-05-01T08:56:19Z</time>
      </trkpt>
      <trkpt lat="45.64057" lon="4.5688">
        <ele>762.8</ele>
        <time>2014-05-01T08:56:21Z</time>
      </trkpt>
      <trkpt lat="45.64053" lon="4.56876">
        <ele>763.2</ele>
        <time>2014-05-01T08:56:23Z</time>
      </trkpt>
      <trkpt lat="45.64048" lon="4.56871">
        <ele>763.6</ele>
        <time>2014-05-01T08:56:25Z</time>
      </trkpt>
      <trkpt lat="45.64043" lon="4.56867">
        <ele>763.9</ele>
        <time>2014-05-01T08:56:27Z</time>
      </trkpt>
      <trkpt lat="45.64039" lon="4.56864">
        <ele>764.1</ele>
        <time>2014-05-01T08:56:29Z</time>
      </trkpt>
      <trkpt lat="45.64035" lon="4.5686">
        <ele>764.4</ele>
        <time>2014-05-01T08:56:31Z</time>
      </trkpt>
      <trkpt lat="45.64031" lon="4.56855">
        <ele>764.7</ele>
        <time>2014-05-01T08:56:33Z</time>
      </trkpt>
      <trkpt lat="45.64028" lon="4.56851">
        <ele>764.9</ele>
        <time>2014-05-01T08:56:35Z</time>
      </trkpt>
      <trkpt lat="45.64025" lon="4.56845">
        <ele>765.3</ele>
        <time>2014-05-01T08:56:37Z</time>
      </trkpt>
      <trkpt lat="45.64023" lon="4.56839">
        <ele>765.6</ele>
        <time>2014-05-01T08:56:39Z</time>
      </trkpt>
      <trkpt lat="45.64023" lon="4.56834">
        <ele>765.9</ele>
        <time>2014-05-01T08:56:41Z</time>
      </trkpt>
      <trkpt lat="45.64023" lon="4.56829">
        <ele>766.1</ele>
        <time>2014-05-01T08:56:43Z</time>
      </trkpt>
      <trkpt lat="45.64023" lon="4.56824">
        <ele>766.4</ele>
        <time>2014-05-01T08:56:45Z</time>
      </trkpt>
      <trkpt lat="45.64023" lon="4.5682">
        <ele>766.7</ele>
        <time>2014-05-01T08:56:47Z</time>
      </trkpt>
      <trkpt lat="45.64024" lon="4.56815">
        <ele>767</ele>
        <time>2014-05-01T08:56:49Z</time>
      </trkpt>
      <trkpt lat="45.64025" lon="4.56811">
        <ele>767.3</ele>
        <time>2014-05-01T08:56:51Z</time>
      </trkpt>
      <trkpt lat="45.64027" lon="4.56807">
        <ele>767.6</ele>
        <time>2014-05-01T08:56:53Z</time>
      </trkpt>
      <trkpt lat="45.64029" lon="4.56805">
        <ele>767.9</ele>
        <time>2014-05-01T08:56:55Z</time>
      </trkpt>
      <trkpt lat="45.64031" lon="4.56802">
        <ele>768.2</ele>
        <time>2014-05-01T08:56:57Z</time>
      </trkpt>
      <trkpt lat="45.64033" lon="4.568">
        <ele>768.5</ele>
        <time>2014-05-01T08:56:59Z</time>
      </trkpt>
      <trkpt lat="45.64035" lon="4.56799">
        <ele>768.7</ele>
        <time>2014-05-01T08:57:01Z</time>
      </trkpt>
      <trkpt lat="45.64039" lon="4.568">
        <ele>769.1</ele>
        <time>2014-05-01T08:57:03Z</time>
      </trkpt>
      <trkpt lat="45.64041" lon="4.56801">
        <ele>769.4</ele>
        <time>2014-05-01T08:57:05Z</time>
      </trkpt>
      <trkpt lat="45.64043" lon="4.56803">
        <ele>769.7</ele>
        <time>2014-05-01T08:57:07Z</time>
      </trkpt>
      <trkpt lat="45.64046" lon="4.56804">
        <ele>770</ele>
        <time>2014-05-01T08:57:09Z</time>
      </trkpt>
      <trkpt lat="45.64048" lon="4.56806">
        <ele>770.3</ele>
        <time>2014-05-01T08:57:11Z</time>
      </trkpt>
      <trkpt lat="45.64051" lon="4.56808">
        <ele>770.7</ele>
        <time>2014-05-01T08:57:13Z</time>
      </trkpt>
      <trkpt lat="45.64053" lon="4.5681">
        <ele>771</ele>
        <time>2014-05-01T08:57:15Z</time>
      </trkpt>
      <trkpt lat="45.64055" lon="4.56812">
        <ele>771.3</ele>
        <time>2014-05-01T08:57:17Z</time>
      </trkpt>
      <trkpt lat="45.64058" lon="4.56814">
        <ele>771.6</ele>
        <time>2014-05-01T08:57:19Z</time>
      </trkpt>
      <trkpt lat="45.6406" lon="4.56817">
        <ele>771.9</ele>
        <time>2014-05-01T08:57:21Z</time>
      </trkpt>
      <trkpt lat="45.64062" lon="4.56819">
        <ele>772.1</ele>
        <time>2014-05-01T08:57:23Z</time>
      </trkpt>
      <trkpt lat="45.64064" lon="4.56821">
        <ele>772.4</ele>
        <time>2014-05-01T08:57:25Z</time>
      </trkpt>
      <trkpt lat="45.64066" lon="4.56823">
        <ele>772.7</ele>
        <time>2014-05-01T08:57:27Z</time>
      </trkpt>
      <trkpt lat="45.64068" lon="4.56825">
        <ele>772.9</ele>
        <time>2014-05-01T08:57:29Z</time>
      </trkpt>
      <trkpt lat="45.6407" lon="4.56827">
        <ele>773.1</ele>
        <time>2014-05-01T08:57:31Z</time>
      </trkpt>
      <trkpt lat="45.64072" lon="4.56829">
        <ele>773.3</ele>
        <time>2014-05-01T08:57:33Z</time>
      </trkpt>
      <trkpt lat="45.64074" lon="4.56832">
        <ele>773.6</ele>
        <time>2014-05-01T08:57:35Z</time>
      </trkpt>
      <trkpt lat="45.64076" lon="4.56834">
        <ele>773.8</ele>
        <time>2014-05-01T08:57:37Z</time>
      </trkpt>
      <trkpt lat="45.64077" lon="4.56836">
        <ele>774.1</ele>
        <time>2014-05-01T08:57:39Z</time>
      </trkpt>
      <trkpt lat="45.6408" lon="4.56839">
        <ele>774.4</ele>
        <time>2014-05-01T08:57:41Z</time>
      </trkpt>
      <trkpt lat="45.64082" lon="4.56841">
        <ele>774.6</ele>
        <time>2014-05-01T08:57:43Z</time>
      </trkpt>
      <trkpt lat="45.64084" lon="4.56844">
        <ele>774.8</ele>
        <time>2014-05-01T08:57:45Z</time>
      </trkpt>
      <trkpt lat="45.64086" lon="4.56846">
        <ele>775.3</ele>
        <time>2014-05-01T08:57:47Z</time>
      </trkpt>
      <trkpt lat="45.64088" lon="4.56849">
        <ele>775.7</ele>
        <time>2014-05-01T08:57:49Z</time>
      </trkpt>
      <trkpt lat="45.6409" lon="4.56852">
        <ele>776</ele>
        <time>2014-05-01T08:57:51Z</time>
      </trkpt>
      <trkpt lat="45.64092" lon="4.56855">
        <ele>776.3</ele>
        <time>2014-05-01T08:57:53Z</time>
      </trkpt>
      <trkpt lat="45.64094" lon="4.56858">
        <ele>776.6</ele>
        <time>2014-05-01T08:57:55Z</time>
      </trkpt>
      <trkpt lat="45.64096" lon="4.5686">
        <ele>776.8</ele>
        <time>2014-05-01T08:57:57Z</time>
      </trkpt>
      <trkpt lat="45.64098" lon="4.56863">
        <ele>777</ele>
        <time>2014-05-01T08:57:59Z</time>
      </trkpt>
      <trkpt lat="45.641" lon="4.56865">
        <ele>777.3</ele>
        <time>2014-05-01T08:58:01Z</time>
      </trkpt>
      <trkpt lat="45.64103" lon="4.56866">
        <ele>777.5</ele>
        <time>2014-05-01T08:58:03Z</time>
      </trkpt>
      <trkpt lat="45.64106" lon="4.56868">
        <ele>777.8</ele>
        <time>2014-05-01T08:58:05Z</time>
      </trkpt>
      <trkpt lat="45.64108" lon="4.56869">
        <ele>778.1</ele>
        <time>2014-05-01T08:58:07Z</time>
      </trkpt>
      <trkpt lat="45.64111" lon="4.56869">
        <ele>778.4</ele>
        <time>2014-05-01T08:58:09Z</time>
      </trkpt>
      <trkpt lat="45.64113" lon="4.5687">
        <ele>778.6</ele>
        <time>2014-05-01T08:58:11Z</time>
      </trkpt>
      <trkpt lat="45.64116" lon="4.56871">
        <ele>779</ele>
        <time>2014-05-01T08:58:13Z</time>
      </trkpt>
      <trkpt lat="45.64119" lon="4.56871">
        <ele>779.3</ele>
        <time>2014-05-01T08:58:15Z</time>
      </trkpt>
      <trkpt lat="45.64121" lon="4.56871">
        <ele>779.6</ele>
        <time>2014-05-01T08:58:17Z</time>
      </trkpt>
      <trkpt lat="45.64124" lon="4.56871">
        <ele>779.9</ele>
        <time>2014-05-01T08:58:19Z</time>
      </trkpt>
      <trkpt lat="45.64127" lon="4.5687">
        <ele>780.2</ele>
        <time>2014-05-01T08:58:21Z</time>
      </trkpt>
      <trkpt lat="45.64129" lon="4.5687">
        <ele>780.6</ele>
        <time>2014-05-01T08:58:23Z</time>
      </trkpt>
      <trkpt lat="45.64132" lon="4.5687">
        <ele>780.8</ele>
        <time>2014-05-01T08:58:25Z</time>
      </trkpt>
      <trkpt lat="45.64134" lon="4.5687">
        <ele>781.2</ele>
        <time>2014-05-01T08:58:27Z</time>
      </trkpt>
      <trkpt lat="45.64137" lon="4.5687">
        <ele>781.5</ele>
        <time>2014-05-01T08:58:29Z</time>
      </trkpt>
      <trkpt lat="45.6414" lon="4.56871">
        <ele>781.9</ele>
        <time>2014-05-01T08:58:31Z</time>
      </trkpt>
      <trkpt lat="45.64143" lon="4.56871">
        <ele>782.2</ele>
        <time>2014-05-01T08:58:33Z</time>
      </trkpt>
      <trkpt lat="45.64145" lon="4.56872">
        <ele>782.5</ele>
        <time>2014-05-01T08:58:35Z</time>
      </trkpt>
      <trkpt lat="45.64148" lon="4.56872">
        <ele>782.7</ele>
        <time>2014-05-01T08:58:37Z</time>
      </trkpt>
      <trkpt lat="45.64151" lon="4.56873">
        <ele>783</ele>
        <time>2014-05-01T08:58:39Z</time>
      </trkpt>
      <trkpt lat="45.64154" lon="4.56873">
        <ele>783.2</ele>
        <time>2014-05-01T08:58:41Z</time>
      </trkpt>
      <trkpt lat="45.64157" lon="4.56874">
        <ele>783.5</ele>
        <time>2014-05-01T08:58:43Z</time>
      </trkpt>
      <trkpt lat="45.6416" lon="4.56874">
        <ele>783.7</ele>
        <time>2014-05-01T08:58:45Z</time>
      </trkpt>
      <trkpt lat="45.64163" lon="4.56875">
        <ele>784</ele>
        <time>2014-05-01T08:58:47Z</time>
      </trkpt>
      <trkpt lat="45.64167" lon="4.56875">
        <ele>784.3</ele>
        <time>2014-05-01T08:58:49Z</time>
      </trkpt>
      <trkpt lat="45.64171" lon="4.56876">
        <ele>784.6</ele>
        <time>2014-05-01T08:58:51Z</time>
      </trkpt>
      <trkpt lat="45.64175" lon="4.56876">
        <ele>784.9</ele>
        <time>2014-05-01T08:58:53Z</time>
      </trkpt>
      <trkpt lat="45.6418" lon="4.56875">
        <ele>785.3</ele>
        <time>2014-05-01T08:58:55Z</time>
      </trkpt>
      <trkpt lat="45.64184" lon="4.56874">
        <ele>785.6</ele>
        <time>2014-05-01T08:58:57Z</time>
      </trkpt>
      <trkpt lat="45.64188" lon="4.56871">
        <ele>786</ele>
        <time>2014-05-01T08:58:59Z</time>
      </trkpt>
      <trkpt lat="45.64193" lon="4.56869">
        <ele>786.3</ele>
        <time>2014-05-01T08:59:01Z</time>
      </trkpt>
      <trkpt lat="45.64197" lon="4.56866">
        <ele>786.6</ele>
        <time>2014-05-01T08:59:03Z</time>
      </trkpt>
      <trkpt lat="45.64202" lon="4.56863">
        <ele>787</ele>
        <time>2014-05-01T08:59:05Z</time>
      </trkpt>
      <trkpt lat="45.64206" lon="4.5686">
        <ele>787.3</ele>
        <time>2014-05-01T08:59:07Z</time>
      </trkpt>
      <trkpt lat="45.64209" lon="4.56857">
        <ele>787.6</ele>
        <time>2014-05-01T08:59:09Z</time>
      </trkpt>
      <trkpt lat="45.64213" lon="4.56854">
        <ele>788</ele>
        <time>2014-05-01T08:59:11Z</time>
      </trkpt>
      <trkpt lat="45.64216" lon="4.56852">
        <ele>788.2</ele>
        <time>2014-05-01T08:59:13Z</time>
      </trkpt>
      <trkpt lat="45.6422" lon="4.5685">
        <ele>788.5</ele>
        <time>2014-05-01T08:59:15Z</time>
      </trkpt>
      <trkpt lat="45.64224" lon="4.56849">
        <ele>788.8</ele>
        <time>2014-05-01T08:59:17Z</time>
      </trkpt>
      <trkpt lat="45.64228" lon="4.56849">
        <ele>789</ele>
        <time>2014-05-01T08:59:19Z</time>
      </trkpt>
      <trkpt lat="45.64233" lon="4.56849">
        <ele>789</ele>
        <time>2014-05-01T08:59:21Z</time>
      </trkpt>
      <trkpt lat="45.64239" lon="4.56849">
        <ele>789.1</ele>
        <time>2014-05-01T08:59:23Z</time>
      </trkpt>
      <trkpt lat="45.64245" lon="4.5685">
        <ele>789.1</ele>
        <time>2014-05-01T08:59:25Z</time>
      </trkpt>
      <trkpt lat="45.64251" lon="4.5685">
        <ele>789</ele>
        <time>2014-05-01T08:59:27Z</time>
      </trkpt>
      <trkpt lat="45.64258" lon="4.56849">
        <ele>789</ele>
        <time>2014-05-01T08:59:29Z</time>
      </trkpt>
      <trkpt lat="45.64265" lon="4.56847">
        <ele>788.9</ele>
        <time>2014-05-01T08:59:31Z</time>
      </trkpt>
      <trkpt lat="45.64272" lon="4.56843">
        <ele>788.8</ele>
        <time>2014-05-01T08:59:33Z</time>
      </trkpt>
      <trkpt lat="45.64279" lon="4.56838">
        <ele>788.6</ele>
        <time>2014-05-01T08:59:35Z</time>
      </trkpt>
      <trkpt lat="45.64286" lon="4.56831">
        <ele>788.4</ele>
        <time>2014-05-01T08:59:37Z</time>
      </trkpt>
      <trkpt lat="45.64293" lon="4.56822">
        <ele>788.1</ele>
        <time>2014-05-01T08:59:39Z</time>
      </trkpt>
      <trkpt lat="45.64302" lon="4.56813">
        <ele>787.9</ele>
        <time>2014-05-01T08:59:41Z</time>
      </trkpt>
      <trkpt lat="45.64314" lon="4.56808">
        <ele>787.6</ele>
        <time>2014-05-01T08:59:43Z</time>
      </trkpt>
      <trkpt lat="45.64325" lon="4.56804">
        <ele>787.4</ele>
        <time>2014-05-01T08:59:45Z</time>
      </trkpt>
      <trkpt lat="45.64336" lon="4.568">
        <ele>787.4</ele>
        <time>2014-05-01T08:59:47Z</time>
      </trkpt>
      <trkpt lat="45.64346" lon="4.56803">
        <ele>787.5</ele>
        <time>2014-05-01T08:59:49Z</time>
      </trkpt>
      <trkpt lat="45.64355" lon="4.56808">
        <ele>787.5</ele>
        <time>2014-05-01T08:59:51Z</time>
      </trkpt>
      <trkpt lat="45.64364" lon="4.56815">
        <ele>787.6</ele>
        <time>2014-05-01T08:59:53Z</time>
      </trkpt>
      <trkpt lat="45.64372" lon="4.56821">
        <ele>787.7</ele>
        <time>2014-05-01T08:59:55Z</time>
      </trkpt>
      <trkpt lat="45.64381" lon="4.56827">
        <ele>787.7</ele>
        <time>2014-05-01T08:59:57Z</time>
      </trkpt>
      <trkpt lat="45.6439" lon="4.56832">
        <ele>787.8</ele>
        <time>2014-05-01T08:59:59Z</time>
      </trkpt>
      <trkpt lat="45.64399" lon="4.56836">
        <ele>787.9</ele>
        <time>2014-05-01T09:00:01Z</time>
      </trkpt>
      <trkpt lat="45.64408" lon="4.5684">
        <ele>787.9</ele>
        <time>2014-05-01T09:00:03Z</time>
      </trkpt>
      <trkpt lat="45.64418" lon="4.56844">
        <ele>788</ele>
        <time>2014-05-01T09:00:05Z</time>
      </trkpt>
      <trkpt lat="45.64428" lon="4.56848">
        <ele>788</ele>
        <time>2014-05-01T09:00:07Z</time>
      </trkpt>
      <trkpt lat="45.64438" lon="4.56852">
        <ele>788.2</ele>
        <time>2014-05-01T09:00:09Z</time>
      </trkpt>
      <trkpt lat="45.64446" lon="4.56858">
        <ele>788.3</ele>
        <time>2014-05-01T09:00:11Z</time>
      </trkpt>
      <trkpt lat="45.64454" lon="4.56867">
        <ele>788.4</ele>
        <time>2014-05-01T09:00:13Z</time>
      </trkpt>
      <trkpt lat="45.6446" lon="4.56876">
        <ele>788.6</ele>
        <time>2014-05-01T09:00:15Z</time>
      </trkpt>
      <trkpt lat="45.64467" lon="4.56886">
        <ele>788.7</ele>
        <time>2014-05-01T09:00:17Z</time>
      </trkpt>
      <trkpt lat="45.64473" lon="4.56895">
        <ele>789.2</ele>
        <time>2014-05-01T09:00:19Z</time>
      </trkpt>
      <trkpt lat="45.64481" lon="4.56903">
        <ele>789.5</ele>
        <time>2014-05-01T09:00:21Z</time>
      </trkpt>
      <trkpt lat="45.64488" lon="4.5691">
        <ele>789.8</ele>
        <time>2014-05-01T09:00:23Z</time>
      </trkpt>
      <trkpt lat="45.64495" lon="4.56916">
        <ele>790.1</ele>
        <time>2014-05-01T09:00:25Z</time>
      </trkpt>
      <trkpt lat="45.645" lon="4.5692">
        <ele>790.3</ele>
        <time>2014-05-01T09:00:27Z</time>
      </trkpt>
      <trkpt lat="45.64507" lon="4.56925">
        <ele>790.5</ele>
        <time>2014-05-01T09:00:29Z</time>
      </trkpt>
      <trkpt lat="45.64513" lon="4.56929">
        <ele>791.2</ele>
        <time>2014-05-01T09:00:31Z</time>
      </trkpt>
      <trkpt lat="45.6452" lon="4.56933">
        <ele>791.6</ele>
        <time>2014-05-01T09:00:33Z</time>
      </trkpt>
      <trkpt lat="45.64527" lon="4.56936">
        <ele>792.1</ele>
        <time>2014-05-01T09:00:35Z</time>
      </trkpt>
      <trkpt lat="45.64534" lon="4.5694">
        <ele>792.5</ele>
        <time>2014-05-01T09:00:37Z</time>
      </trkpt>
      <trkpt lat="45.64542" lon="4.56942">
        <ele>793.1</ele>
        <time>2014-05-01T09:00:39Z</time>
      </trkpt>
      <trkpt lat="45.64549" lon="4.56945">
        <ele>793.6</ele>
        <time>2014-05-01T09:00:41Z</time>
      </trkpt>
      <trkpt lat="45.64555" lon="4.56946">
        <ele>794</ele>
        <time>2014-05-01T09:00:43Z</time>
      </trkpt>
      <trkpt lat="45.64562" lon="4.56948">
        <ele>794.4</ele>
        <time>2014-05-01T09:00:45Z</time>
      </trkpt>
      <trkpt lat="45.64567" lon="4.5695">
        <ele>794.9</ele>
        <time>2014-05-01T09:00:47Z</time>
      </trkpt>
      <trkpt lat="45.64572" lon="4.56951">
        <ele>795.3</ele>
        <time>2014-05-01T09:00:49Z</time>
      </trkpt>
      <trkpt lat="45.64577" lon="4.56953">
        <ele>795.8</ele>
        <time>2014-05-01T09:00:51Z</time>
      </trkpt>
      <trkpt lat="45.64582" lon="4.56955">
        <ele>796.2</ele>
        <time>2014-05-01T09:00:53Z</time>
      </trkpt>
      <trkpt lat="45.64585" lon="4.5696">
        <ele>796.5</ele>
        <time>2014-05-01T09:00:55Z</time>
      </trkpt>
      <trkpt lat="45.64587" lon="4.56967">
        <ele>796.8</ele>
        <time>2014-05-01T09:00:57Z</time>
      </trkpt>
      <trkpt lat="45.64591" lon="4.56972">
        <ele>797.1</ele>
        <time>2014-05-01T09:00:59Z</time>
      </trkpt>
      <trkpt lat="45.64593" lon="4.56979">
        <ele>797.4</ele>
        <time>2014-05-01T09:01:01Z</time>
      </trkpt>
      <trkpt lat="45.64595" lon="4.56985">
        <ele>797.7</ele>
        <time>2014-05-01T09:01:03Z</time>
      </trkpt>
      <trkpt lat="45.64598" lon="4.56991">
        <ele>798</ele>
        <time>2014-05-01T09:01:05Z</time>
      </trkpt>
      <trkpt lat="45.646" lon="4.56997">
        <ele>798.3</ele>
        <time>2014-05-01T09:01:07Z</time>
      </trkpt>
      <trkpt lat="45.64603" lon="4.57003">
        <ele>798.7</ele>
        <time>2014-05-01T09:01:09Z</time>
      </trkpt>
      <trkpt lat="45.64605" lon="4.57009">
        <ele>799</ele>
        <time>2014-05-01T09:01:11Z</time>
      </trkpt>
      <trkpt lat="45.64607" lon="4.57014">
        <ele>799.3</ele>
        <time>2014-05-01T09:01:13Z</time>
      </trkpt>
      <trkpt lat="45.64609" lon="4.57019">
        <ele>799.7</ele>
        <time>2014-05-01T09:01:15Z</time>
      </trkpt>
      <trkpt lat="45.64611" lon="4.57025">
        <ele>800.1</ele>
        <time>2014-05-01T09:01:17Z</time>
      </trkpt>
      <trkpt lat="45.64613" lon="4.5703">
        <ele>800.6</ele>
        <time>2014-05-01T09:01:19Z</time>
      </trkpt>
      <trkpt lat="45.64615" lon="4.57035">
        <ele>801</ele>
        <time>2014-05-01T09:01:21Z</time>
      </trkpt>
      <trkpt lat="45.64618" lon="4.5704">
        <ele>801.4</ele>
        <time>2014-05-01T09:01:23Z</time>
      </trkpt>
      <trkpt lat="45.64621" lon="4.57044">
        <ele>801.8</ele>
        <time>2014-05-01T09:01:25Z</time>
      </trkpt>
      <trkpt lat="45.64624" lon="4.57048">
        <ele>802.1</ele>
        <time>2014-05-01T09:01:27Z</time>
      </trkpt>
      <trkpt lat="45.64626" lon="4.57053">
        <ele>802.5</ele>
        <time>2014-05-01T09:01:29Z</time>
      </trkpt>
      <trkpt lat="45.64628" lon="4.57059">
        <ele>802.8</ele>
        <time>2014-05-01T09:01:31Z</time>
      </trkpt>
      <trkpt lat="45.64631" lon="4.57066">
        <ele>803.2</ele>
        <time>2014-05-01T09:01:33Z</time>
      </trkpt>
      <trkpt lat="45.64634" lon="4.57072">
        <ele>803.5</ele>
        <time>2014-05-01T09:01:35Z</time>
      </trkpt>
      <trkpt lat="45.64636" lon="4.57079">
        <ele>803.8</ele>
        <time>2014-05-01T09:01:37Z</time>
      </trkpt>
      <trkpt lat="45.64639" lon="4.57086">
        <ele>804.2</ele>
        <time>2014-05-01T09:01:39Z</time>
      </trkpt>
      <trkpt lat="45.64642" lon="4.57092">
        <ele>804.5</ele>
        <time>2014-05-01T09:01:41Z</time>
      </trkpt>
      <trkpt lat="45.64645" lon="4.57099">
        <ele>804.9</ele>
        <time>2014-05-01T09:01:43Z</time>
      </trkpt>
      <trkpt lat="45.64647" lon="4.57106">
        <ele>805.2</ele>
        <time>2014-05-01T09:01:45Z</time>
      </trkpt>
      <trkpt lat="45.6465" lon="4.57113">
        <ele>805.6</ele>
        <time>2014-05-01T09:01:47Z</time>
      </trkpt>
      <trkpt lat="45.64653" lon="4.5712">
        <ele>805.9</ele>
        <time>2014-05-01T09:01:49Z</time>
      </trkpt>
      <trkpt lat="45.64656" lon="4.57128">
        <ele>806.1</ele>
        <time>2014-05-01T09:01:51Z</time>
      </trkpt>
      <trkpt lat="45.64658" lon="4.57135">
        <ele>806.4</ele>
        <time>2014-05-01T09:01:53Z</time>
      </trkpt>
      <trkpt lat="45.64661" lon="4.57142">
        <ele>806.6</ele>
        <time>2014-05-01T09:01:55Z</time>
      </trkpt>
      <trkpt lat="45.64663" lon="4.57149">
        <ele>806.9</ele>
        <time>2014-05-01T09:01:57Z</time>
      </trkpt>
      <trkpt lat="45.64666" lon="4.57156">
        <ele>807.1</ele>
        <time>2014-05-01T09:01:59Z</time>
      </trkpt>
      <trkpt lat="45.64669" lon="4.57164">
        <ele>807.4</ele>
        <time>2014-05-01T09:02:01Z</time>
      </trkpt>
      <trkpt lat="45.64672" lon="4.57171">
        <ele>807.6</ele>
        <time>2014-05-01T09:02:03Z</time>
      </trkpt>
      <trkpt lat="45.64675" lon="4.57179">
        <ele>807.9</ele>
        <time>2014-05-01T09:02:05Z</time>
      </trkpt>
      <trkpt lat="45.64678" lon="4.57187">
        <ele>808.1</ele>
        <time>2014-05-01T09:02:07Z</time>
      </trkpt>
      <trkpt lat="45.64681" lon="4.57195">
        <ele>808.4</ele>
        <time>2014-05-01T09:02:09Z</time>
      </trkpt>
      <trkpt lat="45.64683" lon="4.57203">
        <ele>808.6</ele>
        <time>2014-05-01T09:02:11Z</time>
      </trkpt>
      <trkpt lat="45.64686" lon="4.5721">
        <ele>808.9</ele>
        <time>2014-05-01T09:02:13Z</time>
      </trkpt>
      <trkpt lat="45.64688" lon="4.57217">
        <ele>809.1</ele>
        <time>2014-05-01T09:02:15Z</time>
      </trkpt>
      <trkpt lat="45.6469" lon="4.57223">
        <ele>809.2</ele>
        <time>2014-05-01T09:02:17Z</time>
      </trkpt>
      <trkpt lat="45.64692" lon="4.5723">
        <ele>809.3</ele>
        <time>2014-05-01T09:02:19Z</time>
      </trkpt>
      <trkpt lat="45.64694" lon="4.57237">
        <ele>809.4</ele>
        <time>2014-05-01T09:02:21Z</time>
      </trkpt>
      <trkpt lat="45.64696" lon="4.57244">
        <ele>809.5</ele>
        <time>2014-05-01T09:02:23Z</time>
      </trkpt>
      <trkpt lat="45.64698" lon="4.57251">
        <ele>809.5</ele>
        <time>2014-05-01T09:02:25Z</time>
      </trkpt>
      <trkpt lat="45.64701" lon="4.57259">
        <ele>809.6</ele>
        <time>2014-05-01T09:02:27Z</time>
      </trkpt>
      <trkpt lat="45.64704" lon="4.57266">
        <ele>809.7</ele>
        <time>2014-05-01T09:02:29Z</time>
      </trkpt>
      <trkpt lat="45.64707" lon="4.57273">
        <ele>809.8</ele>
        <time>2014-05-01T09:02:31Z</time>
      </trkpt>
      <trkpt lat="45.6471" lon="4.5728">
        <ele>809.9</ele>
        <time>2014-05-01T09:02:33Z</time>
      </trkpt>
      <trkpt lat="45.64713" lon="4.57287">
        <ele>810</ele>
        <time>2014-05-01T09:02:35Z</time>
      </trkpt>
      <trkpt lat="45.64716" lon="4.57295">
        <ele>810.1</ele>
        <time>2014-05-01T09:02:37Z</time>
      </trkpt>
      <trkpt lat="45.64719" lon="4.57303">
        <ele>810.3</ele>
        <time>2014-05-01T09:02:39Z</time>
      </trkpt>
      <trkpt lat="45.64722" lon="4.57314">
        <ele>810.3</ele>
        <time>2014-05-01T09:02:41Z</time>
      </trkpt>
      <trkpt lat="45.64724" lon="4.57325">
        <ele>810.4</ele>
        <time>2014-05-01T09:02:43Z</time>
      </trkpt>
      <trkpt lat="45.64726" lon="4.57338">
        <ele>810.5</ele>
        <time>2014-05-01T09:02:45Z</time>
      </trkpt>
      <trkpt lat="45.64727" lon="4.57349">
        <ele>810.5</ele>
        <time>2014-05-01T09:02:47Z</time>
      </trkpt>
      <trkpt lat="45.64729" lon="4.57361">
        <ele>810.6</ele>
        <time>2014-05-01T09:02:49Z</time>
      </trkpt>
      <trkpt lat="45.64731" lon="4.57373">
        <ele>810.6</ele>
        <time>2014-05-01T09:02:51Z</time>
      </trkpt>
      <trkpt lat="45.64732" lon="4.57384">
        <ele>810.6</ele>
        <time>2014-05-01T09:02:53Z</time>
      </trkpt>
      <trkpt lat="45.64735" lon="4.57396">
        <ele>810.7</ele>
        <time>2014-05-01T09:02:55Z</time>
      </trkpt>
      <trkpt lat="45.64737" lon="4.57408">
        <ele>810.7</ele>
        <time>2014-05-01T09:02:57Z</time>
      </trkpt>
      <trkpt lat="45.6474" lon="4.57419">
        <ele>810.7</ele>
        <time>2014-05-01T09:02:59Z</time>
      </trkpt>
      <trkpt lat="45.64743" lon="4.57431">
        <ele>810.7</ele>
        <time>2014-05-01T09:03:01Z</time>
      </trkpt>
      <trkpt lat="45.64745" lon="4.57443">
        <ele>810.8</ele>
        <time>2014-05-01T09:03:03Z</time>
      </trkpt>
      <trkpt lat="45.64748" lon="4.57455">
        <ele>810.8</ele>
        <time>2014-05-01T09:03:05Z</time>
      </trkpt>
      <trkpt lat="45.6475" lon="4.57466">
        <ele>810.8</ele>
        <time>2014-05-01T09:03:07Z</time>
      </trkpt>
      <trkpt lat="45.64753" lon="4.57478">
        <ele>810.8</ele>
        <time>2014-05-01T09:03:09Z</time>
      </trkpt>
      <trkpt lat="45.64756" lon="4.57488">
        <ele>810.9</ele>
        <time>2014-05-01T09:03:11Z</time>
      </trkpt>
      <trkpt lat="45.64759" lon="4.57498">
        <ele>810.9</ele>
        <time>2014-05-01T09:03:13Z</time>
      </trkpt>
      <trkpt lat="45.64763" lon="4.57509">
        <ele>810.9</ele>
        <time>2014-05-01T09:03:15Z</time>
      </trkpt>
      <trkpt lat="45.64765" lon="4.5752">
        <ele>811</ele>
        <time>2014-05-01T09:03:17Z</time>
      </trkpt>
      <trkpt lat="45.64769" lon="4.57531">
        <ele>811</ele>
        <time>2014-05-01T09:03:19Z</time>
      </trkpt>
      <trkpt lat="45.64772" lon="4.57542">
        <ele>811</ele>
        <time>2014-05-01T09:03:21Z</time>
      </trkpt>
      <trkpt lat="45.64776" lon="4.57554">
        <ele>811</ele>
        <time>2014-05-01T09:03:23Z</time>
      </trkpt>
      <trkpt lat="45.6478" lon="4.57564">
        <ele>811.1</ele>
        <time>2014-05-01T09:03:25Z</time>
      </trkpt>
      <trkpt lat="45.64785" lon="4.57575">
        <ele>811.1</ele>
        <time>2014-05-01T09:03:27Z</time>
      </trkpt>
      <trkpt lat="45.64788" lon="4.57587">
        <ele>811.1</ele>
        <time>2014-05-01T09:03:29Z</time>
      </trkpt>
      <trkpt lat="45.64792" lon="4.57598">
        <ele>811.1</ele>
        <time>2014-05-01T09:03:31Z</time>
      </trkpt>
      <trkpt lat="45.64795" lon="4.5761">
        <ele>811.2</ele>
        <time>2014-05-01T09:03:33Z</time>
      </trkpt>
      <trkpt lat="45.64797" lon="4.57622">
        <ele>811.2</ele>
        <time>2014-05-01T09:03:35Z</time>
      </trkpt>
      <trkpt lat="45.64798" lon="4.57634">
        <ele>811.2</ele>
        <time>2014-05-01T09:03:37Z</time>
      </trkpt>
      <trkpt lat="45.648" lon="4.57647">
        <ele>811.2</ele>
        <time>2014-05-01T09:03:39Z</time>
      </trkpt>
      <trkpt lat="45.64802" lon="4.5766">
        <ele>811.3</ele>
        <time>2014-05-01T09:03:41Z</time>
      </trkpt>
      <trkpt lat="45.64803" lon="4.57671">
        <ele>811.3</ele>
        <time>2014-05-01T09:03:43Z</time>
      </trkpt>
      <trkpt lat="45.64804" lon="4.57682">
        <ele>811.3</ele>
        <time>2014-05-01T09:03:45Z</time>
      </trkpt>
      <trkpt lat="45.64806" lon="4.57694">
        <ele>811.3</ele>
        <time>2014-05-01T09:03:47Z</time>
      </trkpt>
      <trkpt lat="45.64807" lon="4.57707">
        <ele>811.3</ele>
        <time>2014-05-01T09:03:49Z</time>
      </trkpt>
      <trkpt lat="45.64808" lon="4.57719">
        <ele>811.3</ele>
        <time>2014-05-01T09:03:51Z</time>
      </trkpt>
      <trkpt lat="45.64809" lon="4.57731">
        <ele>811.3</ele>
        <time>2014-05-01T09:03:53Z</time>
      </trkpt>
      <trkpt lat="45.64809" lon="4.57743">
        <ele>811.4</ele>
        <time>2014-05-01T09:03:55Z</time>
      </trkpt>
      <trkpt lat="45.6481" lon="4.57755">
        <ele>811.4</ele>
        <time>2014-05-01T09:03:57Z</time>
      </trkpt>
      <trkpt lat="45.64811" lon="4.57767">
        <ele>811.4</ele>
        <time>2014-05-01T09:03:59Z</time>
      </trkpt>
      <trkpt lat="45.64812" lon="4.57779">
        <ele>811.4</ele>
        <time>2014-05-01T09:04:01Z</time>
      </trkpt>
      <trkpt lat="45.64814" lon="4.5779">
        <ele>811.4</ele>
        <time>2014-05-01T09:04:03Z</time>
      </trkpt>
      <trkpt lat="45.64816" lon="4.57802">
        <ele>811.4</ele>
        <time>2014-05-01T09:04:05Z</time>
      </trkpt>
      <trkpt lat="45.64817" lon="4.57813">
        <ele>811.5</ele>
        <time>2014-05-01T09:04:07Z</time>
      </trkpt>
      <trkpt lat="45.64819" lon="4.57825">
        <ele>811.5</ele>
        <time>2014-05-01T09:04:09Z</time>
      </trkpt>
      <trkpt lat="45.64821" lon="4.57834">
        <ele>811.6</ele>
        <time>2014-05-01T09:04:11Z</time>
      </trkpt>
      <trkpt lat="45.64823" lon="4.57844">
        <ele>811.7</ele>
        <time>2014-05-01T09:04:13Z</time>
      </trkpt>
      <trkpt lat="45.64826" lon="4.57854">
        <ele>811.8</ele>
        <time>2014-05-01T09:04:15Z</time>
      </trkpt>
      <trkpt lat="45.64829" lon="4.57864">
        <ele>811.9</ele>
        <time>2014-05-01T09:04:17Z</time>
      </trkpt>
      <trkpt lat="45.64832" lon="4.57875">
        <ele>812.1</ele>
        <time>2014-05-01T09:04:19Z</time>
      </trkpt>
      <trkpt lat="45.64833" lon="4.57886">
        <ele>812.4</ele>
        <time>2014-05-01T09:04:21Z</time>
      </trkpt>
      <trkpt lat="45.64834" lon="4.57898">
        <ele>813</ele>
        <time>2014-05-01T09:04:23Z</time>
      </trkpt>
      <trkpt lat="45.64834" lon="4.57909">
        <ele>813.3</ele>
        <time>2014-05-01T09:04:25Z</time>
      </trkpt>
      <trkpt lat="45.64835" lon="4.5792">
        <ele>813.5</ele>
        <time>2014-05-01T09:04:27Z</time>
      </trkpt>
      <trkpt lat="45.64835" lon="4.57931">
        <ele>813.6</ele>
        <time>2014-05-01T09:04:29Z</time>
      </trkpt>
      <trkpt lat="45.64834" lon="4.57942">
        <ele>813.7</ele>
        <time>2014-05-01T09:04:31Z</time>
      </trkpt>
      <trkpt lat="45.64834" lon="4.57954">
        <ele>813.7</ele>
        <time>2014-05-01T09:04:33Z</time>
      </trkpt>
      <trkpt lat="45.64834" lon="4.57965">
        <ele>813.7</ele>
        <time>2014-05-01T09:04:35Z</time>
      </trkpt>
      <trkpt lat="45.64834" lon="4.57977">
        <ele>813.8</ele>
        <time>2014-05-01T09:04:37Z</time>
      </trkpt>
      <trkpt lat="45.64834" lon="4.57988">
        <ele>813.8</ele>
        <time>2014-05-01T09:04:39Z</time>
      </trkpt>
      <trkpt lat="45.64834" lon="4.58">
        <ele>813.9</ele>
        <time>2014-05-01T09:04:41Z</time>
      </trkpt>
      <trkpt lat="45.64834" lon="4.58011">
        <ele>813.9</ele>
        <time>2014-05-01T09:04:43Z</time>
      </trkpt>
      <trkpt lat="45.64834" lon="4.58021">
        <ele>813.9</ele>
        <time>2014-05-01T09:04:45Z</time>
      </trkpt>
      <trkpt lat="45.64834" lon="4.58031">
        <ele>813.9</ele>
        <time>2014-05-01T09:04:47Z</time>
      </trkpt>
      <trkpt lat="45.64834" lon="4.5804">
        <ele>813.9</ele>
        <time>2014-05-01T09:04:49Z</time>
      </trkpt>
      <trkpt lat="45.64835" lon="4.58048">
        <ele>814</ele>
        <time>2014-05-01T09:04:51Z</time>
      </trkpt>
      <trkpt lat="45.64837" lon="4.58054">
        <ele>813.9</ele>
        <time>2014-05-01T09:04:53Z</time>
      </trkpt>
      <trkpt lat="45.64842" lon="4.58054">
        <ele>813.9</ele>
        <time>2014-05-01T09:04:55Z</time>
      </trkpt>
      <trkpt lat="45.64847" lon="4.58047">
        <ele>813.9</ele>
        <time>2014-05-01T09:04:57Z</time>
      </trkpt>
      <trkpt lat="45.64853" lon="4.58037">
        <ele>813.8</ele>
        <time>2014-05-01T09:04:59Z</time>
      </trkpt>
      <trkpt lat="45.6486" lon="4.58026">
        <ele>813.7</ele>
        <time>2014-05-01T09:05:01Z</time>
      </trkpt>
      <trkpt lat="45.64868" lon="4.58014">
        <ele>813.7</ele>
        <time>2014-05-01T09:05:03Z</time>
      </trkpt>
      <trkpt lat="45.64875" lon="4.58002">
        <ele>813.6</ele>
        <time>2014-05-01T09:05:05Z</time>
      </trkpt>
      <trkpt lat="45.64883" lon="4.57988">
        <ele>813.3</ele>
        <time>2014-05-01T09:05:07Z</time>
      </trkpt>
      <trkpt lat="45.64891" lon="4.57974">
        <ele>813</ele>
        <time>2014-05-01T09:05:09Z</time>
      </trkpt>
      <trkpt lat="45.64899" lon="4.57958">
        <ele>812.6</ele>
        <time>2014-05-01T09:05:11Z</time>
      </trkpt>
      <trkpt lat="45.64904" lon="4.5794">
        <ele>812.1</ele>
        <time>2014-05-01T09:05:13Z</time>
      </trkpt>
      <trkpt lat="45.64908" lon="4.57921">
        <ele>811.7</ele>
        <time>2014-05-01T09:05:15Z</time>
      </trkpt>
      <trkpt lat="45.6491" lon="4.57901">
        <ele>811.5</ele>
        <time>2014-05-01T09:05:17Z</time>
      </trkpt>
      <trkpt lat="45.64912" lon="4.5788">
        <ele>811.3</ele>
        <time>2014-05-01T09:05:19Z</time>
      </trkpt>
      <trkpt lat="45.64913" lon="4.57859">
        <ele>811.1</ele>
        <time>2014-05-01T09:05:21Z</time>
      </trkpt>
      <trkpt lat="45.64914" lon="4.57838">
        <ele>810.7</ele>
        <time>2014-05-01T09:05:23Z</time>
      </trkpt>
      <trkpt lat="45.64916" lon="4.57817">
        <ele>810.2</ele>
        <time>2014-05-01T09:05:25Z</time>
      </trkpt>
      <trkpt lat="45.64917" lon="4.57795">
        <ele>809.6</ele>
        <time>2014-05-01T09:05:27Z</time>
      </trkpt>
      <trkpt lat="45.64921" lon="4.57773">
        <ele>809.1</ele>
        <time>2014-05-01T09:05:29Z</time>
      </trkpt>
      <trkpt lat="45.64926" lon="4.57752">
        <ele>808.4</ele>
        <time>2014-05-01T09:05:31Z</time>
      </trkpt>
      <trkpt lat="45.64932" lon="4.57733">
        <ele>807.8</ele>
        <time>2014-05-01T09:05:33Z</time>
      </trkpt>
      <trkpt lat="45.64938" lon="4.57716">
        <ele>807.2</ele>
        <time>2014-05-01T09:05:35Z</time>
      </trkpt>
      <trkpt lat="45.64944" lon="4.577">
        <ele>806.6</ele>
        <time>2014-05-01T09:05:37Z</time>
      </trkpt>
      <trkpt lat="45.64949" lon="4.57688">
        <ele>806.2</ele>
        <time>2014-05-01T09:05:39Z</time>
      </trkpt>
      <trkpt lat="45.64954" lon="4.57689">
        <ele>805.9</ele>
        <time>2014-05-01T09:05:41Z</time>
      </trkpt>
      <trkpt lat="45.64957" lon="4.57695">
        <ele>805.4</ele>
        <time>2014-05-01T09:05:43Z</time>
      </trkpt>
      <trkpt lat="45.64962" lon="4.57704">
        <ele>805</ele>
        <time>2014-05-01T09:05:45Z</time>
      </trkpt>
      <trkpt lat="45.64965" lon="4.57714">
        <ele>804.4</ele>
        <time>2014-05-01T09:05:47Z</time>
      </trkpt>
      <trkpt lat="45.64969" lon="4.57724">
        <ele>803.6</ele>
        <time>2014-05-01T09:05:49Z</time>
      </trkpt>
      <trkpt lat="45.64973" lon="4.57734">
        <ele>803.6</ele>
        <time>2014-05-01T09:05:51Z</time>
      </trkpt>
      <trkpt lat="45.64975" lon="4.57744">
        <ele>804</ele>
        <time>2014-05-01T09:05:53Z</time>
      </trkpt>
      <trkpt lat="45.64978" lon="4.57755">
        <ele>803.9</ele>
        <time>2014-05-01T09:05:55Z</time>
      </trkpt>
      <trkpt lat="45.6498" lon="4.57767">
        <ele>803.2</ele>
        <time>2014-05-01T09:05:57Z</time>
      </trkpt>
      <trkpt lat="45.64983" lon="4.57781">
        <ele>802.6</ele>
        <time>2014-05-01T09:05:59Z</time>
      </trkpt>
      <trkpt lat="45.64986" lon="4.57795">
        <ele>802.5</ele>
        <time>2014-05-01T09:06:01Z</time>
      </trkpt>
      <trkpt lat="45.6499" lon="4.57809">
        <ele>802.4</ele>
        <time>2014-05-01T09:06:03Z</time>
      </trkpt>
      <trkpt lat="45.64994" lon="4.57822">
        <ele>802.3</ele>
        <time>2014-05-01T09:06:05Z</time>
      </trkpt>
      <trkpt lat="45.64996" lon="4.57835">
        <ele>802.3</ele>
        <time>2014-05-01T09:06:07Z</time>
      </trkpt>
      <trkpt lat="45.64999" lon="4.57847">
        <ele>802.2</ele>
        <time>2014-05-01T09:06:09Z</time>
      </trkpt>
      <trkpt lat="45.65001" lon="4.57861">
        <ele>802.2</ele>
        <time>2014-05-01T09:06:11Z</time>
      </trkpt>
      <trkpt lat="45.65002" lon="4.57874">
        <ele>802.2</ele>
        <time>2014-05-01T09:06:13Z</time>
      </trkpt>
      <trkpt lat="45.65004" lon="4.57887">
        <ele>802.1</ele>
        <time>2014-05-01T09:06:15Z</time>
      </trkpt>
      <trkpt lat="45.65007" lon="4.57899">
        <ele>801.5</ele>
        <time>2014-05-01T09:06:17Z</time>
      </trkpt>
      <trkpt lat="45.65011" lon="4.57911">
        <ele>800.9</ele>
        <time>2014-05-01T09:06:19Z</time>
      </trkpt>
      <trkpt lat="45.65016" lon="4.57919">
        <ele>800.4</ele>
        <time>2014-05-01T09:06:21Z</time>
      </trkpt>
      <trkpt lat="45.6502" lon="4.57927">
        <ele>800.2</ele>
        <time>2014-05-01T09:06:23Z</time>
      </trkpt>
      <trkpt lat="45.65024" lon="4.57936">
        <ele>799.7</ele>
        <time>2014-05-01T09:06:25Z</time>
      </trkpt>
      <trkpt lat="45.65029" lon="4.5794">
        <ele>799.5</ele>
        <time>2014-05-01T09:06:27Z</time>
      </trkpt>
      <trkpt lat="45.65035" lon="4.57938">
        <ele>799.8</ele>
        <time>2014-05-01T09:06:29Z</time>
      </trkpt>
      <trkpt lat="45.65043" lon="4.57933">
        <ele>799.9</ele>
        <time>2014-05-01T09:06:31Z</time>
      </trkpt>
      <trkpt lat="45.65052" lon="4.57928">
        <ele>800.2</ele>
        <time>2014-05-01T09:06:33Z</time>
      </trkpt>
      <trkpt lat="45.65061" lon="4.57921">
        <ele>799.8</ele>
        <time>2014-05-01T09:06:35Z</time>
      </trkpt>
      <trkpt lat="45.65071" lon="4.57911">
        <ele>798.6</ele>
        <time>2014-05-01T09:06:37Z</time>
      </trkpt>
      <trkpt lat="45.65078" lon="4.57898">
        <ele>798.1</ele>
        <time>2014-05-01T09:06:39Z</time>
      </trkpt>
      <trkpt lat="45.65086" lon="4.57886">
        <ele>796.8</ele>
        <time>2014-05-01T09:06:41Z</time>
      </trkpt>
      <trkpt lat="45.65092" lon="4.57873">
        <ele>796</ele>
        <time>2014-05-01T09:06:43Z</time>
      </trkpt>
      <trkpt lat="45.65097" lon="4.5786">
        <ele>795.4</ele>
        <time>2014-05-01T09:06:45Z</time>
      </trkpt>
      <trkpt lat="45.65103" lon="4.57847">
        <ele>794.5</ele>
        <time>2014-05-01T09:06:47Z</time>
      </trkpt>
      <trkpt lat="45.65111" lon="4.57834">
        <ele>793.8</ele>
        <time>2014-05-01T09:06:49Z</time>
      </trkpt>
      <trkpt lat="45.65117" lon="4.57822">
        <ele>793.6</ele>
        <time>2014-05-01T09:06:51Z</time>
      </trkpt>
      <trkpt lat="45.65123" lon="4.57812">
        <ele>793</ele>
        <time>2014-05-01T09:06:53Z</time>
      </trkpt>
      <trkpt lat="45.65128" lon="4.57803">
        <ele>791.9</ele>
        <time>2014-05-01T09:06:55Z</time>
      </trkpt>
      <trkpt lat="45.65133" lon="4.57792">
        <ele>791.1</ele>
        <time>2014-05-01T09:06:57Z</time>
      </trkpt>
      <trkpt lat="45.65136" lon="4.57782">
        <ele>790.1</ele>
        <time>2014-05-01T09:06:59Z</time>
      </trkpt>
      <trkpt lat="45.65139" lon="4.57771">
        <ele>789.1</ele>
        <time>2014-05-01T09:07:01Z</time>
      </trkpt>
      <trkpt lat="45.65144" lon="4.57758">
        <ele>786.8</ele>
        <time>2014-05-01T09:07:03Z</time>
      </trkpt>
      <trkpt lat="45.65148" lon="4.57745">
        <ele>785</ele>
        <time>2014-05-01T09:07:05Z</time>
      </trkpt>
      <trkpt lat="45.65154" lon="4.57733">
        <ele>782.7</ele>
        <time>2014-05-01T09:07:07Z</time>
      </trkpt>
      <trkpt lat="45.6516" lon="4.57724">
        <ele>781</ele>
        <time>2014-05-01T09:07:09Z</time>
      </trkpt>
      <trkpt lat="45.65168" lon="4.57717">
        <ele>779.3</ele>
        <time>2014-05-01T09:07:11Z</time>
      </trkpt>
      <trkpt lat="45.65175" lon="4.57712">
        <ele>778.5</ele>
        <time>2014-05-01T09:07:13Z</time>
      </trkpt>
      <trkpt lat="45.65179" lon="4.57708">
        <ele>778</ele>
        <time>2014-05-01T09:07:15Z</time>
      </trkpt>
      <trkpt lat="45.65184" lon="4.57706">
        <ele>777.6</ele>
        <time>2014-05-01T09:07:17Z</time>
      </trkpt>
      <trkpt lat="45.6519" lon="4.57704">
        <ele>777.5</ele>
        <time>2014-05-01T09:07:19Z</time>
      </trkpt>
      <trkpt lat="45.65196" lon="4.57701">
        <ele>777.6</ele>
        <time>2014-05-01T09:07:21Z</time>
      </trkpt>
      <trkpt lat="45.65203" lon="4.57701">
        <ele>777.1</ele>
        <time>2014-05-01T09:07:23Z</time>
      </trkpt>
      <trkpt lat="45.6521" lon="4.57704">
        <ele>777</ele>
        <time>2014-05-01T09:07:25Z</time>
      </trkpt>
      <trkpt lat="45.65216" lon="4.5771">
        <ele>776.3</ele>
        <time>2014-05-01T09:07:27Z</time>
      </trkpt>
      <trkpt lat="45.65221" lon="4.57717">
        <ele>776.1</ele>
        <time>2014-05-01T09:07:29Z</time>
      </trkpt>
      <trkpt lat="45.65225" lon="4.57725">
        <ele>775.4</ele>
        <time>2014-05-01T09:07:31Z</time>
      </trkpt>
      <trkpt lat="45.6523" lon="4.57736">
        <ele>773.9</ele>
        <time>2014-05-01T09:07:33Z</time>
      </trkpt>
      <trkpt lat="45.65235" lon="4.57747">
        <ele>772.7</ele>
        <time>2014-05-01T09:07:35Z</time>
      </trkpt>
      <trkpt lat="45.65239" lon="4.57757">
        <ele>771.2</ele>
        <time>2014-05-01T09:07:37Z</time>
      </trkpt>
      <trkpt lat="45.65243" lon="4.57768">
        <ele>770</ele>
        <time>2014-05-01T09:07:39Z</time>
      </trkpt>
      <trkpt lat="45.6525" lon="4.57778">
        <ele>769</ele>
        <time>2014-05-01T09:07:41Z</time>
      </trkpt>
      <trkpt lat="45.65259" lon="4.57786">
        <ele>768.2</ele>
        <time>2014-05-01T09:07:43Z</time>
      </trkpt>
      <trkpt lat="45.65268" lon="4.57794">
        <ele>767.1</ele>
        <time>2014-05-01T09:07:45Z</time>
      </trkpt>
      <trkpt lat="45.65275" lon="4.57799">
        <ele>766.5</ele>
        <time>2014-05-01T09:07:47Z</time>
      </trkpt>
      <trkpt lat="45.6528" lon="4.57807">
        <ele>765.4</ele>
        <time>2014-05-01T09:07:49Z</time>
      </trkpt>
      <trkpt lat="45.65286" lon="4.57816">
        <ele>764</ele>
        <time>2014-05-01T09:07:51Z</time>
      </trkpt>
      <trkpt lat="45.65291" lon="4.57824">
        <ele>762.3</ele>
        <time>2014-05-01T09:07:53Z</time>
      </trkpt>
      <trkpt lat="45.65294" lon="4.57827">
        <ele>761.4</ele>
        <time>2014-05-01T09:07:55Z</time>
      </trkpt>
      <trkpt lat="45.65296" lon="4.57827">
        <ele>761.2</ele>
        <time>2014-05-01T09:07:57Z</time>
      </trkpt>
      <trkpt lat="45.65298" lon="4.57831">
        <ele>760.5</ele>
        <time>2014-05-01T09:07:59Z</time>
      </trkpt>
      <trkpt lat="45.65302" lon="4.57837">
        <ele>759.5</ele>
        <time>2014-05-01T09:08:01Z</time>
      </trkpt>
      <trkpt lat="45.65307" lon="4.57845">
        <ele>757.8</ele>
        <time>2014-05-01T09:08:03Z</time>
      </trkpt>
      <trkpt lat="45.65311" lon="4.5785">
        <ele>756.4</ele>
        <time>2014-05-01T09:08:05Z</time>
      </trkpt>
      <trkpt lat="45.65315" lon="4.57857">
        <ele>754.5</ele>
        <time>2014-05-01T09:08:07Z</time>
      </trkpt>
      <trkpt lat="45.65317" lon="4.57863">
        <ele>753.6</ele>
        <time>2014-05-01T09:08:09Z</time>
      </trkpt>
      <trkpt lat="45.65321" lon="4.57865">
        <ele>752.7</ele>
        <time>2014-05-01T09:08:11Z</time>
      </trkpt>
      <trkpt lat="45.65324" lon="4.5787">
        <ele>751.9</ele>
        <time>2014-05-01T09:08:13Z</time>
      </trkpt>
      <trkpt lat="45.65325" lon="4.57877">
        <ele>750.8</ele>
        <time>2014-05-01T09:08:15Z</time>
      </trkpt>
      <trkpt lat="45.65326" lon="4.57883">
        <ele>750.3</ele>
        <time>2014-05-01T09:08:17Z</time>
      </trkpt>
      <trkpt lat="45.65329" lon="4.57888">
        <ele>749.8</ele>
        <time>2014-05-01T09:08:19Z</time>
      </trkpt>
      <trkpt lat="45.65334" lon="4.57895">
        <ele>748.8</ele>
        <time>2014-05-01T09:08:21Z</time>
      </trkpt>
      <trkpt lat="45.65337" lon="4.57903">
        <ele>747.4</ele>
        <time>2014-05-01T09:08:23Z</time>
      </trkpt>
      <trkpt lat="45.65339" lon="4.57909">
        <ele>746.7</ele>
        <time>2014-05-01T09:08:25Z</time>
      </trkpt>
      <trkpt lat="45.65342" lon="4.57915">
        <ele>746</ele>
        <time>2014-05-01T09:08:27Z</time>
      </trkpt>
      <trkpt lat="45.65345" lon="4.57918">
        <ele>745.3</ele>
        <time>2014-05-01T09:08:29Z</time>
      </trkpt>
      <trkpt lat="45.65349" lon="4.57917">
        <ele>745.2</ele>
        <time>2014-05-01T09:08:31Z</time>
      </trkpt>
      <trkpt lat="45.65354" lon="4.57914">
        <ele>745.4</ele>
        <time>2014-05-01T09:08:33Z</time>
      </trkpt>
      <trkpt lat="45.65361" lon="4.5791">
        <ele>745.5</ele>
        <time>2014-05-01T09:08:35Z</time>
      </trkpt>
      <trkpt lat="45.65368" lon="4.57903">
        <ele>745.3</ele>
        <time>2014-05-01T09:08:37Z</time>
      </trkpt>
      <trkpt lat="45.65374" lon="4.57896">
        <ele>744.3</ele>
        <time>2014-05-01T09:08:39Z</time>
      </trkpt>
      <trkpt lat="45.65381" lon="4.57887">
        <ele>743.1</ele>
        <time>2014-05-01T09:08:41Z</time>
      </trkpt>
      <trkpt lat="45.65388" lon="4.57877">
        <ele>742.2</ele>
        <time>2014-05-01T09:08:43Z</time>
      </trkpt>
      <trkpt lat="45.65393" lon="4.57865">
        <ele>741.1</ele>
        <time>2014-05-01T09:08:45Z</time>
      </trkpt>
      <trkpt lat="45.65398" lon="4.57852">
        <ele>739.2</ele>
        <time>2014-05-01T09:08:47Z</time>
      </trkpt>
      <trkpt lat="45.65404" lon="4.57838">
        <ele>738</ele>
        <time>2014-05-01T09:08:49Z</time>
      </trkpt>
      <trkpt lat="45.65408" lon="4.57825">
        <ele>735.9</ele>
        <time>2014-05-01T09:08:51Z</time>
      </trkpt>
      <trkpt lat="45.65413" lon="4.5781">
        <ele>733.7</ele>
        <time>2014-05-01T09:08:53Z</time>
      </trkpt>
      <trkpt lat="45.65418" lon="4.57795">
        <ele>732.3</ele>
        <time>2014-05-01T09:08:55Z</time>
      </trkpt>
      <trkpt lat="45.65423" lon="4.57782">
        <ele>730.2</ele>
        <time>2014-05-01T09:08:57Z</time>
      </trkpt>
      <trkpt lat="45.65426" lon="4.57764">
        <ele>731.1</ele>
        <time>2014-05-01T09:08:59Z</time>
      </trkpt>
      <trkpt lat="45.65428" lon="4.57747">
        <ele>732.2</ele>
        <time>2014-05-01T09:09:01Z</time>
      </trkpt>
      <trkpt lat="45.65431" lon="4.57731">
        <ele>733.6</ele>
        <time>2014-05-01T09:09:03Z</time>
      </trkpt>
      <trkpt lat="45.65431" lon="4.57719">
        <ele>733.6</ele>
        <time>2014-05-01T09:09:05Z</time>
      </trkpt>
      <trkpt lat="45.65431" lon="4.57711">
        <ele>733.4</ele>
        <time>2014-05-01T09:09:07Z</time>
      </trkpt>
      <trkpt lat="45.6543" lon="4.57702">
        <ele>733</ele>
        <time>2014-05-01T09:09:09Z</time>
      </trkpt>
      <trkpt lat="45.65429" lon="4.57692">
        <ele>732.3</ele>
        <time>2014-05-01T09:09:11Z</time>
      </trkpt>
      <trkpt lat="45.65427" lon="4.57683">
        <ele>732.6</ele>
        <time>2014-05-01T09:09:13Z</time>
      </trkpt>
      <trkpt lat="45.65428" lon="4.57675">
        <ele>731.9</ele>
        <time>2014-05-01T09:09:15Z</time>
      </trkpt>
      <trkpt lat="45.65432" lon="4.57667">
        <ele>731.4</ele>
        <time>2014-05-01T09:09:17Z</time>
      </trkpt>
      <trkpt lat="45.65438" lon="4.57658">
        <ele>730.5</ele>
        <time>2014-05-01T09:09:19Z</time>
      </trkpt>
      <trkpt lat="45.65443" lon="4.57647">
        <ele>730.9</ele>
        <time>2014-05-01T09:09:21Z</time>
      </trkpt>
      <trkpt lat="45.65448" lon="4.57634">
        <ele>731.3</ele>
        <time>2014-05-01T09:09:23Z</time>
      </trkpt>
      <trkpt lat="45.65452" lon="4.5762">
        <ele>731.7</ele>
        <time>2014-05-01T09:09:25Z</time>
      </trkpt>
      <trkpt lat="45.65456" lon="4.57607">
        <ele>732</ele>
        <time>2014-05-01T09:09:27Z</time>
      </trkpt>
      <trkpt lat="45.65461" lon="4.57596">
        <ele>732.4</ele>
        <time>2014-05-01T09:09:29Z</time>
      </trkpt>
      <trkpt lat="45.65466" lon="4.57586">
        <ele>732.7</ele>
        <time>2014-05-01T09:09:31Z</time>
      </trkpt>
      <trkpt lat="45.65471" lon="4.57578">
        <ele>732.9</ele>
        <time>2014-05-01T09:09:33Z</time>
      </trkpt>
      <trkpt lat="45.65476" lon="4.5757">
        <ele>733.2</ele>
        <time>2014-05-01T09:09:35Z</time>
      </trkpt>
      <trkpt lat="45.6548" lon="4.57562">
        <ele>733.5</ele>
        <time>2014-05-01T09:09:37Z</time>
      </trkpt>
      <trkpt lat="45.65484" lon="4.57552">
        <ele>733.8</ele>
        <time>2014-05-01T09:09:39Z</time>
      </trkpt>
      <trkpt lat="45.65487" lon="4.57542">
        <ele>734.1</ele>
        <time>2014-05-01T09:09:41Z</time>
      </trkpt>
      <trkpt lat="45.6549" lon="4.57533">
        <ele>734.4</ele>
        <time>2014-05-01T09:09:43Z</time>
      </trkpt>
      <trkpt lat="45.65493" lon="4.57525">
        <ele>734.7</ele>
        <time>2014-05-01T09:09:45Z</time>
      </trkpt>
      <trkpt lat="45.65495" lon="4.57516">
        <ele>735</ele>
        <time>2014-05-01T09:09:47Z</time>
      </trkpt>
      <trkpt lat="45.65498" lon="4.57508">
        <ele>735.2</ele>
        <time>2014-05-01T09:09:49Z</time>
      </trkpt>
      <trkpt lat="45.655" lon="4.57503">
        <ele>735.4</ele>
        <time>2014-05-01T09:09:51Z</time>
      </trkpt>
      <trkpt lat="45.65503" lon="4.57499">
        <ele>735.5</ele>
        <time>2014-05-01T09:09:53Z</time>
      </trkpt>
      <trkpt lat="45.65505" lon="4.57494">
        <ele>735.7</ele>
        <time>2014-05-01T09:09:55Z</time>
      </trkpt>
      <trkpt lat="45.65509" lon="4.57492">
        <ele>735.9</ele>
        <time>2014-05-01T09:09:57Z</time>
      </trkpt>
      <trkpt lat="45.65514" lon="4.57492">
        <ele>736</ele>
        <time>2014-05-01T09:09:59Z</time>
      </trkpt>
      <trkpt lat="45.65522" lon="4.57485">
        <ele>736.2</ele>
        <time>2014-05-01T09:10:01Z</time>
      </trkpt>
      <trkpt lat="45.6553" lon="4.57473">
        <ele>736.4</ele>
        <time>2014-05-01T09:10:03Z</time>
      </trkpt>
      <trkpt lat="45.65537" lon="4.57457">
        <ele>736.6</ele>
        <time>2014-05-01T09:10:05Z</time>
      </trkpt>
      <trkpt lat="45.65542" lon="4.5744">
        <ele>735.8</ele>
        <time>2014-05-01T09:10:07Z</time>
      </trkpt>
      <trkpt lat="45.65544" lon="4.57421">
        <ele>738.2</ele>
        <time>2014-05-01T09:10:09Z</time>
      </trkpt>
      <trkpt lat="45.65544" lon="4.57401">
        <ele>738.6</ele>
        <time>2014-05-01T09:10:11Z</time>
      </trkpt>
      <trkpt lat="45.65544" lon="4.5738">
        <ele>738.3</ele>
        <time>2014-05-01T09:10:13Z</time>
      </trkpt>
      <trkpt lat="45.65549" lon="4.5736">
        <ele>737.3</ele>
        <time>2014-05-01T09:10:15Z</time>
      </trkpt>
      <trkpt lat="45.65558" lon="4.57344">
        <ele>736.3</ele>
        <time>2014-05-01T09:10:17Z</time>
      </trkpt>
      <trkpt lat="45.65568" lon="4.57333">
        <ele>734.6</ele>
        <time>2014-05-01T09:10:19Z</time>
      </trkpt>
      <trkpt lat="45.6558" lon="4.57328">
        <ele>731.9</ele>
        <time>2014-05-01T09:10:21Z</time>
      </trkpt>
      <trkpt lat="45.65591" lon="4.57324">
        <ele>730.2</ele>
        <time>2014-05-01T09:10:23Z</time>
      </trkpt>
      <trkpt lat="45.65602" lon="4.57313">
        <ele>730.1</ele>
        <time>2014-05-01T09:10:25Z</time>
      </trkpt>
      <trkpt lat="45.65608" lon="4.57294">
        <ele>728.8</ele>
        <time>2014-05-01T09:10:27Z</time>
      </trkpt>
      <trkpt lat="45.65612" lon="4.57275">
        <ele>727.6</ele>
        <time>2014-05-01T09:10:29Z</time>
      </trkpt>
      <trkpt lat="45.65614" lon="4.57254">
        <ele>728.4</ele>
        <time>2014-05-01T09:10:31Z</time>
      </trkpt>
      <trkpt lat="45.65615" lon="4.57231">
        <ele>728</ele>
        <time>2014-05-01T09:10:33Z</time>
      </trkpt>
      <trkpt lat="45.65613" lon="4.57212">
        <ele>728.4</ele>
        <time>2014-05-01T09:10:35Z</time>
      </trkpt>
      <trkpt lat="45.65614" lon="4.57195">
        <ele>727.9</ele>
        <time>2014-05-01T09:10:37Z</time>
      </trkpt>
      <trkpt lat="45.65623" lon="4.57183">
        <ele>727</ele>
        <time>2014-05-01T09:10:39Z</time>
      </trkpt>
      <trkpt lat="45.65634" lon="4.57181">
        <ele>726.1</ele>
        <time>2014-05-01T09:10:41Z</time>
      </trkpt>
      <trkpt lat="45.65645" lon="4.57186">
        <ele>724.9</ele>
        <time>2014-05-01T09:10:43Z</time>
      </trkpt>
      <trkpt lat="45.65656" lon="4.57191">
        <ele>724.4</ele>
        <time>2014-05-01T09:10:45Z</time>
      </trkpt>
      <trkpt lat="45.65668" lon="4.57198">
        <ele>723.9</ele>
        <time>2014-05-01T09:10:47Z</time>
      </trkpt>
      <trkpt lat="45.6568" lon="4.57206">
        <ele>722</ele>
        <time>2014-05-01T09:10:49Z</time>
      </trkpt>
      <trkpt lat="45.65693" lon="4.57212">
        <ele>720</ele>
        <time>2014-05-01T09:10:51Z</time>
      </trkpt>
      <trkpt lat="45.65705" lon="4.57219">
        <ele>719.9</ele>
        <time>2014-05-01T09:10:53Z</time>
      </trkpt>
      <trkpt lat="45.65718" lon="4.57224">
        <ele>720.6</ele>
        <time>2014-05-01T09:10:55Z</time>
      </trkpt>
      <trkpt lat="45.6573" lon="4.57228">
        <ele>721.2</ele>
        <time>2014-05-01T09:10:57Z</time>
      </trkpt>
      <trkpt lat="45.65738" lon="4.5723">
        <ele>721.3</ele>
        <time>2014-05-01T09:10:59Z</time>
      </trkpt>
      <trkpt lat="45.65741" lon="4.57225">
        <ele>722.1</ele>
        <time>2014-05-01T09:11:01Z</time>
      </trkpt>
      <trkpt lat="45.6574" lon="4.57221">
        <ele>722.6</ele>
        <time>2014-05-01T09:11:03Z</time>
      </trkpt>
      <trkpt lat="45.65738" lon="4.57217">
        <ele>722.9</ele>
        <time>2014-05-01T09:11:05Z</time>
      </trkpt>
      <trkpt lat="45.65735" lon="4.57213">
        <ele>723.2</ele>
        <time>2014-05-01T09:11:07Z</time>
      </trkpt>
      <trkpt lat="45.65733" lon="4.57208">
        <ele>723.6</ele>
        <time>2014-05-01T09:11:09Z</time>
      </trkpt>
      <trkpt lat="45.65732" lon="4.57204">
        <ele>724.3</ele>
        <time>2014-05-01T09:11:11Z</time>
      </trkpt>
      <trkpt lat="45.65731" lon="4.572">
        <ele>724.8</ele>
        <time>2014-05-01T09:11:13Z</time>
      </trkpt>
      <trkpt lat="45.6573" lon="4.57196">
        <ele>725.5</ele>
        <time>2014-05-01T09:11:15Z</time>
      </trkpt>
      <trkpt lat="45.6573" lon="4.57191">
        <ele>726.3</ele>
        <time>2014-05-01T09:11:17Z</time>
      </trkpt>
      <trkpt lat="45.6573" lon="4.57186">
        <ele>727.2</ele>
        <time>2014-05-01T09:11:19Z</time>
      </trkpt>
      <trkpt lat="45.65731" lon="4.57182">
        <ele>728.3</ele>
        <time>2014-05-01T09:11:21Z</time>
      </trkpt>
      <trkpt lat="45.65732" lon="4.57179">
        <ele>729.4</ele>
        <time>2014-05-01T09:11:23Z</time>
      </trkpt>
      <trkpt lat="45.65734" lon="4.57178">
        <ele>729.2</ele>
        <time>2014-05-01T09:11:25Z</time>
      </trkpt>
      <trkpt lat="45.65737" lon="4.57177">
        <ele>728.9</ele>
        <time>2014-05-01T09:11:27Z</time>
      </trkpt>
      <trkpt lat="45.65739" lon="4.57177">
        <ele>728.9</ele>
        <time>2014-05-01T09:11:29Z</time>
      </trkpt>
      <trkpt lat="45.65742" lon="4.57177">
        <ele>728.6</ele>
        <time>2014-05-01T09:11:31Z</time>
      </trkpt>
      <trkpt lat="45.65745" lon="4.57178">
        <ele>728.4</ele>
        <time>2014-05-01T09:11:33Z</time>
      </trkpt>
      <trkpt lat="45.65747" lon="4.57179">
        <ele>728.2</ele>
        <time>2014-05-01T09:11:35Z</time>
      </trkpt>
      <trkpt lat="45.65749" lon="4.57179">
        <ele>728.2</ele>
        <time>2014-05-01T09:11:37Z</time>
      </trkpt>
      <trkpt lat="45.65751" lon="4.5718">
        <ele>728.1</ele>
        <time>2014-05-01T09:11:39Z</time>
      </trkpt>
      <trkpt lat="45.65753" lon="4.57181">
        <ele>728</ele>
        <time>2014-05-01T09:11:41Z</time>
      </trkpt>
      <trkpt lat="45.65756" lon="4.5718">
        <ele>727.9</ele>
        <time>2014-05-01T09:11:43Z</time>
      </trkpt>
      <trkpt lat="45.65758" lon="4.5718">
        <ele>727.8</ele>
        <time>2014-05-01T09:11:45Z</time>
      </trkpt>
      <trkpt lat="45.6576" lon="4.57178">
        <ele>727.8</ele>
        <time>2014-05-01T09:11:47Z</time>
      </trkpt>
      <trkpt lat="45.65762" lon="4.57175">
        <ele>728.2</ele>
        <time>2014-05-01T09:11:49Z</time>
      </trkpt>
      <trkpt lat="45.65764" lon="4.57171">
        <ele>728.6</ele>
        <time>2014-05-01T09:11:51Z</time>
      </trkpt>
      <trkpt lat="45.65765" lon="4.57167">
        <ele>729</ele>
        <time>2014-05-01T09:11:53Z</time>
      </trkpt>
      <trkpt lat="45.65766" lon="4.57163">
        <ele>729.5</ele>
        <time>2014-05-01T09:11:55Z</time>
      </trkpt>
      <trkpt lat="45.65767" lon="4.57159">
        <ele>729.8</ele>
        <time>2014-05-01T09:11:57Z</time>
      </trkpt>
      <trkpt lat="45.65768" lon="4.57155">
        <ele>730.2</ele>
        <time>2014-05-01T09:11:59Z</time>
      </trkpt>
      <trkpt lat="45.65769" lon="4.57152">
        <ele>730.2</ele>
        <time>2014-05-01T09:12:01Z</time>
      </trkpt>
      <trkpt lat="45.65771" lon="4.57149">
        <ele>730.3</ele>
        <time>2014-05-01T09:12:03Z</time>
      </trkpt>
      <trkpt lat="45.65772" lon="4.57144">
        <ele>730.7</ele>
        <time>2014-05-01T09:12:05Z</time>
      </trkpt>
      <trkpt lat="45.65773" lon="4.57139">
        <ele>730.6</ele>
        <time>2014-05-01T09:12:07Z</time>
      </trkpt>
      <trkpt lat="45.65773" lon="4.57134">
        <ele>731.1</ele>
        <time>2014-05-01T09:12:09Z</time>
      </trkpt>
      <trkpt lat="45.65773" lon="4.57129">
        <ele>731.3</ele>
        <time>2014-05-01T09:12:11Z</time>
      </trkpt>
      <trkpt lat="45.65773" lon="4.57125">
        <ele>731.5</ele>
        <time>2014-05-01T09:12:13Z</time>
      </trkpt>
      <trkpt lat="45.65772" lon="4.5712">
        <ele>731.9</ele>
        <time>2014-05-01T09:12:15Z</time>
      </trkpt>
      <trkpt lat="45.65772" lon="4.57116">
        <ele>731.9</ele>
        <time>2014-05-01T09:12:17Z</time>
      </trkpt>
      <trkpt lat="45.6577" lon="4.57112">
        <ele>731.7</ele>
        <time>2014-05-01T09:12:19Z</time>
      </trkpt>
      <trkpt lat="45.65769" lon="4.57107">
        <ele>731.9</ele>
        <time>2014-05-01T09:12:21Z</time>
      </trkpt>
      <trkpt lat="45.65768" lon="4.57103">
        <ele>731.6</ele>
        <time>2014-05-01T09:12:23Z</time>
      </trkpt>
      <trkpt lat="45.65767" lon="4.57098">
        <ele>731.8</ele>
        <time>2014-05-01T09:12:25Z</time>
      </trkpt>
      <trkpt lat="45.65765" lon="4.57094">
        <ele>731.6</ele>
        <time>2014-05-01T09:12:27Z</time>
      </trkpt>
      <trkpt lat="45.65764" lon="4.57089">
        <ele>731.4</ele>
        <time>2014-05-01T09:12:29Z</time>
      </trkpt>
      <trkpt lat="45.65764" lon="4.57085">
        <ele>731.9</ele>
        <time>2014-05-01T09:12:31Z</time>
      </trkpt>
      <trkpt lat="45.65762" lon="4.57081">
        <ele>731.9</ele>
        <time>2014-05-01T09:12:33Z</time>
      </trkpt>
      <trkpt lat="45.65761" lon="4.57077">
        <ele>732</ele>
        <time>2014-05-01T09:12:35Z</time>
      </trkpt>
      <trkpt lat="45.6576" lon="4.57072">
        <ele>732.7</ele>
        <time>2014-05-01T09:12:37Z</time>
      </trkpt>
      <trkpt lat="45.65759" lon="4.57068">
        <ele>732.9</ele>
        <time>2014-05-01T09:12:39Z</time>
      </trkpt>
      <trkpt lat="45.65758" lon="4.57064">
        <ele>733.2</ele>
        <time>2014-05-01T09:12:41Z</time>
      </trkpt>
      <trkpt lat="45.65757" lon="4.57059">
        <ele>734.3</ele>
        <time>2014-05-01T09:12:43Z</time>
      </trkpt>
      <trkpt lat="45.65755" lon="4.57054">
        <ele>734.8</ele>
        <time>2014-05-01T09:12:45Z</time>
      </trkpt>
      <trkpt lat="45.65754" lon="4.5705">
        <ele>736.2</ele>
        <time>2014-05-01T09:12:47Z</time>
      </trkpt>
      <trkpt lat="45.65752" lon="4.57045">
        <ele>736.8</ele>
        <time>2014-05-01T09:12:49Z</time>
      </trkpt>
      <trkpt lat="45.65751" lon="4.57041">
        <ele>738.4</ele>
        <time>2014-05-01T09:12:51Z</time>
      </trkpt>
      <trkpt lat="45.65749" lon="4.57036">
        <ele>738.9</ele>
        <time>2014-05-01T09:12:53Z</time>
      </trkpt>
      <trkpt lat="45.65748" lon="4.57032">
        <ele>740.3</ele>
        <time>2014-05-01T09:12:55Z</time>
      </trkpt>
      <trkpt lat="45.65746" lon="4.57028">
        <ele>740.2</ele>
        <time>2014-05-01T09:12:57Z</time>
      </trkpt>
      <trkpt lat="45.65744" lon="4.57023">
        <ele>741.1</ele>
        <time>2014-05-01T09:12:59Z</time>
      </trkpt>
      <trkpt lat="45.65743" lon="4.57018">
        <ele>740.8</ele>
        <time>2014-05-01T09:13:01Z</time>
      </trkpt>
      <trkpt lat="45.65741" lon="4.57013">
        <ele>739.8</ele>
        <time>2014-05-01T09:13:03Z</time>
      </trkpt>
      <trkpt lat="45.65738" lon="4.57008">
        <ele>740</ele>
        <time>2014-05-01T09:13:05Z</time>
      </trkpt>
      <trkpt lat="45.65735" lon="4.57002">
        <ele>740.3</ele>
        <time>2014-05-01T09:13:07Z</time>
      </trkpt>
      <trkpt lat="45.65731" lon="4.56997">
        <ele>740.1</ele>
        <time>2014-05-01T09:13:09Z</time>
      </trkpt>
      <trkpt lat="45.65728" lon="4.56991">
        <ele>741.6</ele>
        <time>2014-05-01T09:13:11Z</time>
      </trkpt>
      <trkpt lat="45.65724" lon="4.56987">
        <ele>741.8</ele>
        <time>2014-05-01T09:13:13Z</time>
      </trkpt>
      <trkpt lat="45.65721" lon="4.56982">
        <ele>741.9</ele>
        <time>2014-05-01T09:13:15Z</time>
      </trkpt>
      <trkpt lat="45.65718" lon="4.56978">
        <ele>741.9</ele>
        <time>2014-05-01T09:13:17Z</time>
      </trkpt>
      <trkpt lat="45.65715" lon="4.56974">
        <ele>742.1</ele>
        <time>2014-05-01T09:13:19Z</time>
      </trkpt>
      <trkpt lat="45.65712" lon="4.5697">
        <ele>742.3</ele>
        <time>2014-05-01T09:13:21Z</time>
      </trkpt>
      <trkpt lat="45.6571" lon="4.56965">
        <ele>742.5</ele>
        <time>2014-05-01T09:13:23Z</time>
      </trkpt>
      <trkpt lat="45.65708" lon="4.5696">
        <ele>741.7</ele>
        <time>2014-05-01T09:13:25Z</time>
      </trkpt>
      <trkpt lat="45.65706" lon="4.56955">
        <ele>741.9</ele>
        <time>2014-05-01T09:13:27Z</time>
      </trkpt>
      <trkpt lat="45.65703" lon="4.56948">
        <ele>741.7</ele>
        <time>2014-05-01T09:13:29Z</time>
      </trkpt>
      <trkpt lat="45.657" lon="4.5694">
        <ele>741.8</ele>
        <time>2014-05-01T09:13:31Z</time>
      </trkpt>
      <trkpt lat="45.65696" lon="4.56931">
        <ele>742</ele>
        <time>2014-05-01T09:13:33Z</time>
      </trkpt>
      <trkpt lat="45.65691" lon="4.56922">
        <ele>742.8</ele>
        <time>2014-05-01T09:13:35Z</time>
      </trkpt>
      <trkpt lat="45.65687" lon="4.56912">
        <ele>742.8</ele>
        <time>2014-05-01T09:13:37Z</time>
      </trkpt>
      <trkpt lat="45.65683" lon="4.56902">
        <ele>743.1</ele>
        <time>2014-05-01T09:13:39Z</time>
      </trkpt>
      <trkpt lat="45.65678" lon="4.56893">
        <ele>743.3</ele>
        <time>2014-05-01T09:13:41Z</time>
      </trkpt>
      <trkpt lat="45.65675" lon="4.56884">
        <ele>743.9</ele>
        <time>2014-05-01T09:13:43Z</time>
      </trkpt>
      <trkpt lat="45.65671" lon="4.56875">
        <ele>744.2</ele>
        <time>2014-05-01T09:13:45Z</time>
      </trkpt>
      <trkpt lat="45.65666" lon="4.56865">
        <ele>744.6</ele>
        <time>2014-05-01T09:13:47Z</time>
      </trkpt>
      <trkpt lat="45.65661" lon="4.56854">
        <ele>743.5</ele>
        <time>2014-05-01T09:13:49Z</time>
      </trkpt>
      <trkpt lat="45.65656" lon="4.56843">
        <ele>742.3</ele>
        <time>2014-05-01T09:13:51Z</time>
      </trkpt>
      <trkpt lat="45.65651" lon="4.56832">
        <ele>740.5</ele>
        <time>2014-05-01T09:13:53Z</time>
      </trkpt>
      <trkpt lat="45.65646" lon="4.56821">
        <ele>739.7</ele>
        <time>2014-05-01T09:13:55Z</time>
      </trkpt>
      <trkpt lat="45.65642" lon="4.56808">
        <ele>738.3</ele>
        <time>2014-05-01T09:13:57Z</time>
      </trkpt>
      <trkpt lat="45.65641" lon="4.56793">
        <ele>738.1</ele>
        <time>2014-05-01T09:13:59Z</time>
      </trkpt>
      <trkpt lat="45.65641" lon="4.56776">
        <ele>739.3</ele>
        <time>2014-05-01T09:14:01Z</time>
      </trkpt>
      <trkpt lat="45.65645" lon="4.56761">
        <ele>741.1</ele>
        <time>2014-05-01T09:14:03Z</time>
      </trkpt>
      <trkpt lat="45.65648" lon="4.56748">
        <ele>741.7</ele>
        <time>2014-05-01T09:14:05Z</time>
      </trkpt>
      <trkpt lat="45.65652" lon="4.56735">
        <ele>741.5</ele>
        <time>2014-05-01T09:14:07Z</time>
      </trkpt>
      <trkpt lat="45.65656" lon="4.56721">
        <ele>740.4</ele>
        <time>2014-05-01T09:14:09Z</time>
      </trkpt>
      <trkpt lat="45.6566" lon="4.56705">
        <ele>739</ele>
        <time>2014-05-01T09:14:11Z</time>
      </trkpt>
      <trkpt lat="45.65667" lon="4.56689">
        <ele>738.6</ele>
        <time>2014-05-01T09:14:13Z</time>
      </trkpt>
      <trkpt lat="45.65677" lon="4.56675">
        <ele>738.8</ele>
        <time>2014-05-01T09:14:15Z</time>
      </trkpt>
      <trkpt lat="45.65688" lon="4.56667">
        <ele>737</ele>
        <time>2014-05-01T09:14:17Z</time>
      </trkpt>
      <trkpt lat="45.65699" lon="4.56668">
        <ele>735.4</ele>
        <time>2014-05-01T09:14:19Z</time>
      </trkpt>
      <trkpt lat="45.6571" lon="4.56672">
        <ele>733.7</ele>
        <time>2014-05-01T09:14:21Z</time>
      </trkpt>
      <trkpt lat="45.65721" lon="4.56674">
        <ele>733.5</ele>
        <time>2014-05-01T09:14:23Z</time>
      </trkpt>
      <trkpt lat="45.6573" lon="4.56674">
        <ele>734</ele>
        <time>2014-05-01T09:14:25Z</time>
      </trkpt>
      <trkpt lat="45.65738" lon="4.56673">
        <ele>734.7</ele>
        <time>2014-05-01T09:14:27Z</time>
      </trkpt>
      <trkpt lat="45.65746" lon="4.5667">
        <ele>735.7</ele>
        <time>2014-05-01T09:14:29Z</time>
      </trkpt>
      <trkpt lat="45.65753" lon="4.56666">
        <ele>735.2</ele>
        <time>2014-05-01T09:14:31Z</time>
      </trkpt>
      <trkpt lat="45.65761" lon="4.5666">
        <ele>734.7</ele>
        <time>2014-05-01T09:14:33Z</time>
      </trkpt>
      <trkpt lat="45.65767" lon="4.56654">
        <ele>734.1</ele>
        <time>2014-05-01T09:14:35Z</time>
      </trkpt>
      <trkpt lat="45.65773" lon="4.56645">
        <ele>733.4</ele>
        <time>2014-05-01T09:14:37Z</time>
      </trkpt>
      <trkpt lat="45.65781" lon="4.56637">
        <ele>732.7</ele>
        <time>2014-05-01T09:14:39Z</time>
      </trkpt>
      <trkpt lat="45.65788" lon="4.56628">
        <ele>732.4</ele>
        <time>2014-05-01T09:14:41Z</time>
      </trkpt>
      <trkpt lat="45.65797" lon="4.56618">
        <ele>732.1</ele>
        <time>2014-05-01T09:14:43Z</time>
      </trkpt>
      <trkpt lat="45.65805" lon="4.56607">
        <ele>731.7</ele>
        <time>2014-05-01T09:14:45Z</time>
      </trkpt>
      <trkpt lat="45.65812" lon="4.56596">
        <ele>731.1</ele>
        <time>2014-05-01T09:14:47Z</time>
      </trkpt>
      <trkpt lat="45.65819" lon="4.56584">
        <ele>730.6</ele>
        <time>2014-05-01T09:14:49Z</time>
      </trkpt>
      <trkpt lat="45.65826" lon="4.5657">
        <ele>730.2</ele>
        <time>2014-05-01T09:14:51Z</time>
      </trkpt>
      <trkpt lat="45.65832" lon="4.56556">
        <ele>729.8</ele>
        <time>2014-05-01T09:14:53Z</time>
      </trkpt>
      <trkpt lat="45.65838" lon="4.56543">
        <ele>728.7</ele>
        <time>2014-05-01T09:14:55Z</time>
      </trkpt>
      <trkpt lat="45.65844" lon="4.56529">
        <ele>727.4</ele>
        <time>2014-05-01T09:14:57Z</time>
      </trkpt>
      <trkpt lat="45.6585" lon="4.56515">
        <ele>726.7</ele>
        <time>2014-05-01T09:14:59Z</time>
      </trkpt>
      <trkpt lat="45.65856" lon="4.56502">
        <ele>726.3</ele>
        <time>2014-05-01T09:15:01Z</time>
      </trkpt>
      <trkpt lat="45.65862" lon="4.56488">
        <ele>725.9</ele>
        <time>2014-05-01T09:15:03Z</time>
      </trkpt>
      <trkpt lat="45.65867" lon="4.56475">
        <ele>725.3</ele>
        <time>2014-05-01T09:15:05Z</time>
      </trkpt>
      <trkpt lat="45.65871" lon="4.56463">
        <ele>725</ele>
        <time>2014-05-01T09:15:07Z</time>
      </trkpt>
      <trkpt lat="45.65875" lon="4.5645">
        <ele>724.8</ele>
        <time>2014-05-01T09:15:09Z</time>
      </trkpt>
      <trkpt lat="45.65879" lon="4.56438">
        <ele>724.2</ele>
        <time>2014-05-01T09:15:11Z</time>
      </trkpt>
      <trkpt lat="45.65883" lon="4.56427">
        <ele>723.6</ele>
        <time>2014-05-01T09:15:13Z</time>
      </trkpt>
      <trkpt lat="45.65889" lon="4.56421">
        <ele>723</ele>
        <time>2014-05-01T09:15:15Z</time>
      </trkpt>
      <trkpt lat="45.65893" lon="4.56413">
        <ele>723</ele>
        <time>2014-05-01T09:15:17Z</time>
      </trkpt>
      <trkpt lat="45.65894" lon="4.56404">
        <ele>723</ele>
        <time>2014-05-01T09:15:19Z</time>
      </trkpt>
      <trkpt lat="45.65889" lon="4.56396">
        <ele>723</ele>
        <time>2014-05-01T09:15:21Z</time>
      </trkpt>
      <trkpt lat="45.65882" lon="4.56392">
        <ele>723</ele>
        <time>2014-05-01T09:15:23Z</time>
      </trkpt>
      <trkpt lat="45.65875" lon="4.56387">
        <ele>723</ele>
        <time>2014-05-01T09:15:25Z</time>
      </trkpt>
      <trkpt lat="45.65867" lon="4.5638">
        <ele>723</ele>
        <time>2014-05-01T09:15:27Z</time>
      </trkpt>
      <trkpt lat="45.6586" lon="4.56371">
        <ele>723</ele>
        <time>2014-05-01T09:15:29Z</time>
      </trkpt>
      <trkpt lat="45.65854" lon="4.56363">
        <ele>723</ele>
        <time>2014-05-01T09:15:31Z</time>
      </trkpt>
      <trkpt lat="45.65847" lon="4.56354">
        <ele>722.4</ele>
        <time>2014-05-01T09:15:33Z</time>
      </trkpt>
      <trkpt lat="45.65841" lon="4.56343">
        <ele>720.9</ele>
        <time>2014-05-01T09:15:35Z</time>
      </trkpt>
      <trkpt lat="45.65835" lon="4.5633">
        <ele>719.6</ele>
        <time>2014-05-01T09:15:37Z</time>
      </trkpt>
      <trkpt lat="45.6583" lon="4.56315">
        <ele>718.3</ele>
        <time>2014-05-01T09:15:39Z</time>
      </trkpt>
      <trkpt lat="45.65827" lon="4.56299">
        <ele>717.1</ele>
        <time>2014-05-01T09:15:41Z</time>
      </trkpt>
      <trkpt lat="45.65824" lon="4.56283">
        <ele>715.8</ele>
        <time>2014-05-01T09:15:43Z</time>
      </trkpt>
      <trkpt lat="45.6582" lon="4.56267">
        <ele>714.5</ele>
        <time>2014-05-01T09:15:45Z</time>
      </trkpt>
      <trkpt lat="45.65817" lon="4.56251">
        <ele>713.1</ele>
        <time>2014-05-01T09:15:47Z</time>
      </trkpt>
      <trkpt lat="45.65814" lon="4.56233">
        <ele>711.5</ele>
        <time>2014-05-01T09:15:49Z</time>
      </trkpt>
      <trkpt lat="45.65811" lon="4.56213">
        <ele>710.8</ele>
        <time>2014-05-01T09:15:51Z</time>
      </trkpt>
      <trkpt lat="45.65807" lon="4.56191">
        <ele>710.4</ele>
        <time>2014-05-01T09:15:53Z</time>
      </trkpt>
      <trkpt lat="45.65803" lon="4.56167">
        <ele>709.6</ele>
        <time>2014-05-01T09:15:55Z</time>
      </trkpt>
      <trkpt lat="45.65799" lon="4.56141">
        <ele>709</ele>
        <time>2014-05-01T09:15:57Z</time>
      </trkpt>
      <trkpt lat="45.65796" lon="4.56115">
        <ele>708.2</ele>
        <time>2014-05-01T09:15:59Z</time>
      </trkpt>
      <trkpt lat="45.65793" lon="4.56087">
        <ele>707.5</ele>
        <time>2014-05-01T09:16:01Z</time>
      </trkpt>
      <trkpt lat="45.65791" lon="4.56057">
        <ele>705.7</ele>
        <time>2014-05-01T09:16:03Z</time>
      </trkpt>
      <trkpt lat="45.65789" lon="4.56027">
        <ele>704.3</ele>
        <time>2014-05-01T09:16:05Z</time>
      </trkpt>
      <trkpt lat="45.65788" lon="4.55996">
        <ele>702</ele>
        <time>2014-05-01T09:16:07Z</time>
      </trkpt>
      <trkpt lat="45.65787" lon="4.55965">
        <ele>700</ele>
        <time>2014-05-01T09:16:09Z</time>
      </trkpt>
      <trkpt lat="45.65785" lon="4.55936">
        <ele>698.2</ele>
        <time>2014-05-01T09:16:11Z</time>
      </trkpt>
      <trkpt lat="45.65784" lon="4.55912">
        <ele>696</ele>
        <time>2014-05-01T09:16:13Z</time>
      </trkpt>
      <trkpt lat="45.65783" lon="4.55894">
        <ele>696</ele>
        <time>2014-05-01T09:16:15Z</time>
      </trkpt>
      <trkpt lat="45.65783" lon="4.55883">
        <ele>696</ele>
        <time>2014-05-01T09:16:17Z</time>
      </trkpt>
      <trkpt lat="45.65784" lon="4.55875">
        <ele>696</ele>
        <time>2014-05-01T09:16:19Z</time>
      </trkpt>
      <trkpt lat="45.65784" lon="4.55871">
        <ele>696</ele>
        <time>2014-05-01T09:16:21Z</time>
      </trkpt>
      <trkpt lat="45.65785" lon="4.55864">
        <ele>695.8</ele>
        <time>2014-05-01T09:16:23Z</time>
      </trkpt>
      <trkpt lat="45.65785" lon="4.55854">
        <ele>695.6</ele>
        <time>2014-05-01T09:16:25Z</time>
      </trkpt>
      <trkpt lat="45.65785" lon="4.55842">
        <ele>695.3</ele>
        <time>2014-05-01T09:16:27Z</time>
      </trkpt>
      <trkpt lat="45.65785" lon="4.55828">
        <ele>694.9</ele>
        <time>2014-05-01T09:16:29Z</time>
      </trkpt>
      <trkpt lat="45.65784" lon="4.55813">
        <ele>693.9</ele>
        <time>2014-05-01T09:16:31Z</time>
      </trkpt>
      <trkpt lat="45.65783" lon="4.55798">
        <ele>693</ele>
        <time>2014-05-01T09:16:33Z</time>
      </trkpt>
      <trkpt lat="45.65783" lon="4.55781">
        <ele>692.7</ele>
        <time>2014-05-01T09:16:35Z</time>
      </trkpt>
      <trkpt lat="45.65783" lon="4.55764">
        <ele>692.4</ele>
        <time>2014-05-01T09:16:37Z</time>
      </trkpt>
      <trkpt lat="45.65783" lon="4.55747">
        <ele>692</ele>
        <time>2014-05-01T09:16:39Z</time>
      </trkpt>
      <trkpt lat="45.65783" lon="4.5573">
        <ele>691.6</ele>
        <time>2014-05-01T09:16:41Z</time>
      </trkpt>
      <trkpt lat="45.65783" lon="4.55712">
        <ele>691.1</ele>
        <time>2014-05-01T09:16:43Z</time>
      </trkpt>
      <trkpt lat="45.65783" lon="4.55694">
        <ele>690.4</ele>
        <time>2014-05-01T09:16:45Z</time>
      </trkpt>
      <trkpt lat="45.65784" lon="4.55675">
        <ele>689.6</ele>
        <time>2014-05-01T09:16:47Z</time>
      </trkpt>
      <trkpt lat="45.65785" lon="4.55657">
        <ele>689</ele>
        <time>2014-05-01T09:16:49Z</time>
      </trkpt>
      <trkpt lat="45.65786" lon="4.5564">
        <ele>689</ele>
        <time>2014-05-01T09:16:51Z</time>
      </trkpt>
      <trkpt lat="45.65786" lon="4.55627">
        <ele>689</ele>
        <time>2014-05-01T09:16:53Z</time>
      </trkpt>
      <trkpt lat="45.65787" lon="4.55612">
        <ele>689</ele>
        <time>2014-05-01T09:16:55Z</time>
      </trkpt>
      <trkpt lat="45.65786" lon="4.55595">
        <ele>687.7</ele>
        <time>2014-05-01T09:16:57Z</time>
      </trkpt>
      <trkpt lat="45.65785" lon="4.55578">
        <ele>684.7</ele>
        <time>2014-05-01T09:16:59Z</time>
      </trkpt>
      <trkpt lat="45.65784" lon="4.55559">
        <ele>683</ele>
        <time>2014-05-01T09:17:01Z</time>
      </trkpt>
      <trkpt lat="45.65782" lon="4.55544">
        <ele>682.1</ele>
        <time>2014-05-01T09:17:03Z</time>
      </trkpt>
      <trkpt lat="45.65775" lon="4.5554">
        <ele>681.6</ele>
        <time>2014-05-01T09:17:05Z</time>
      </trkpt>
      <trkpt lat="45.65772" lon="4.55546">
        <ele>682</ele>
        <time>2014-05-01T09:17:07Z</time>
      </trkpt>
      <trkpt lat="45.65772" lon="4.55554">
        <ele>682.6</ele>
        <time>2014-05-01T09:17:09Z</time>
      </trkpt>
      <trkpt lat="45.65774" lon="4.55563">
        <ele>683.2</ele>
        <time>2014-05-01T09:17:11Z</time>
      </trkpt>
      <trkpt lat="45.65775" lon="4.55571">
        <ele>683.8</ele>
        <time>2014-05-01T09:17:13Z</time>
      </trkpt>
      <trkpt lat="45.65775" lon="4.55576">
        <ele>685.1</ele>
        <time>2014-05-01T09:17:15Z</time>
      </trkpt>
      <trkpt lat="45.65775" lon="4.5558">
        <ele>685.6</ele>
        <time>2014-05-01T09:17:21Z</time>
      </trkpt>
      <trkpt lat="45.65775" lon="4.55582">
        <ele>685.9</ele>
        <time>2014-05-01T09:17:23Z</time>
      </trkpt>
      <trkpt lat="45.65774" lon="4.55589">
        <ele>686.9</ele>
        <time>2014-05-01T09:17:36Z</time>
      </trkpt>
      <trkpt lat="45.65773" lon="4.55592">
        <ele>687.2</ele>
        <time>2014-05-01T09:17:38Z</time>
      </trkpt>
      <trkpt lat="45.65772" lon="4.55594">
        <ele>687.6</ele>
        <time>2014-05-01T09:17:40Z</time>
      </trkpt>
      <trkpt lat="45.65771" lon="4.55595">
        <ele>687.8</ele>
        <time>2014-05-01T09:17:55Z</time>
      </trkpt>
      <trkpt lat="45.65773" lon="4.55593">
        <ele>689</ele>
        <time>2014-05-01T09:17:57Z</time>
      </trkpt>
      <trkpt lat="45.65775" lon="4.55591">
        <ele>689</ele>
        <time>2014-05-01T09:17:59Z</time>
      </trkpt>
      <trkpt lat="45.65776" lon="4.55588">
        <ele>689</ele>
        <time>2014-05-01T09:18:01Z</time>
      </trkpt>
    </trkseg>
  </trk>
</gpx>